<?xml version="1.0" encoding="UTF-8" standalone="no" ?>
<gpx xmlns="http://www.topografix.com/GPX/1/1" xmlns:xsi="http://www.w3.org/2001/XMLSchema-instance" xsi:schemaLocation="http://www.topografix.com/GPX/1/1 http://www.topografix.com/GPX/1/1/gpx.xsd" version="1.1" creator="VisuGPX - https://www.visugpx.com">
  <metadata>
    <name>RoadTrip Moto Ecosse Juin 2021</name>
  </metadata>
  <trk>
    <name><![CDATA[J04 - Fionnphort Ferry Terminal, Fionnphort - Portree]]></name>
    <trkseg>
      <trkpt lat="56.32588" lon="-6.37018">
        <ele>3.23</ele>
        <time>2021-03-20T14:19:32Z</time>
      </trkpt>
      <trkpt lat="56.32542" lon="-6.36956">
        <ele>4.7</ele>
        <time>2021-03-20T14:19:36Z</time>
      </trkpt>
      <trkpt lat="56.32534" lon="-6.3694">
        <ele>5.3</ele>
        <time>2021-03-20T14:19:41Z</time>
      </trkpt>
      <trkpt lat="56.32532" lon="-6.36928">
        <ele>5.52</ele>
        <time>2021-03-20T14:19:45Z</time>
      </trkpt>
      <trkpt lat="56.32529" lon="-6.36738">
        <ele>6.84</ele>
        <time>2021-03-20T14:19:50Z</time>
      </trkpt>
      <trkpt lat="56.32525" lon="-6.36685">
        <ele>7.75</ele>
        <time>2021-03-20T14:19:54Z</time>
      </trkpt>
      <trkpt lat="56.32495" lon="-6.36501">
        <ele>15.3</ele>
        <time>2021-03-20T14:19:59Z</time>
      </trkpt>
      <trkpt lat="56.32489" lon="-6.36435">
        <ele>16.15</ele>
        <time>2021-03-20T14:20:03Z</time>
      </trkpt>
      <trkpt lat="56.32478" lon="-6.36263">
        <ele>16.16</ele>
        <time>2021-03-20T14:20:08Z</time>
      </trkpt>
      <trkpt lat="56.32474" lon="-6.36223">
        <ele>15.89</ele>
        <time>2021-03-20T14:20:12Z</time>
      </trkpt>
      <trkpt lat="56.32457" lon="-6.3614">
        <ele>16.08</ele>
        <time>2021-03-20T14:20:17Z</time>
      </trkpt>
      <trkpt lat="56.32417" lon="-6.35977">
        <ele>15</ele>
        <time>2021-03-20T14:20:21Z</time>
      </trkpt>
      <trkpt lat="56.32406" lon="-6.35927">
        <ele>15</ele>
        <time>2021-03-20T14:20:26Z</time>
      </trkpt>
      <trkpt lat="56.32398" lon="-6.35883">
        <ele>15</ele>
        <time>2021-03-20T14:20:31Z</time>
      </trkpt>
      <trkpt lat="56.32386" lon="-6.35779">
        <ele>14.94</ele>
        <time>2021-03-20T14:20:35Z</time>
      </trkpt>
      <trkpt lat="56.3238" lon="-6.35694">
        <ele>15.69</ele>
        <time>2021-03-20T14:20:40Z</time>
      </trkpt>
      <trkpt lat="56.32389" lon="-6.35554">
        <ele>17</ele>
        <time>2021-03-20T14:20:44Z</time>
      </trkpt>
      <trkpt lat="56.32395" lon="-6.35497">
        <ele>18</ele>
        <time>2021-03-20T14:20:49Z</time>
      </trkpt>
      <trkpt lat="56.32406" lon="-6.35427">
        <ele>17.61</ele>
        <time>2021-03-20T14:20:53Z</time>
      </trkpt>
      <trkpt lat="56.32472" lon="-6.35078">
        <ele>16.19</ele>
        <time>2021-03-20T14:20:58Z</time>
      </trkpt>
      <trkpt lat="56.32483" lon="-6.35012">
        <ele>16.44</ele>
        <time>2021-03-20T14:21:02Z</time>
      </trkpt>
      <trkpt lat="56.32502" lon="-6.34863">
        <ele>14.06</ele>
        <time>2021-03-20T14:21:07Z</time>
      </trkpt>
      <trkpt lat="56.3251" lon="-6.34778">
        <ele>14.37</ele>
        <time>2021-03-20T14:21:11Z</time>
      </trkpt>
      <trkpt lat="56.32513" lon="-6.34732">
        <ele>14.16</ele>
        <time>2021-03-20T14:21:16Z</time>
      </trkpt>
      <trkpt lat="56.32513" lon="-6.34699">
        <ele>14</ele>
        <time>2021-03-20T14:21:20Z</time>
      </trkpt>
      <trkpt lat="56.32506" lon="-6.34503">
        <ele>13.11</ele>
        <time>2021-03-20T14:21:25Z</time>
      </trkpt>
      <trkpt lat="56.32504" lon="-6.34438">
        <ele>14.16</ele>
        <time>2021-03-20T14:21:29Z</time>
      </trkpt>
      <trkpt lat="56.32509" lon="-6.33931">
        <ele>14.31</ele>
        <time>2021-03-20T14:21:34Z</time>
      </trkpt>
      <trkpt lat="56.32508" lon="-6.33843">
        <ele>16.22</ele>
        <time>2021-03-20T14:21:38Z</time>
      </trkpt>
      <trkpt lat="56.32484" lon="-6.33556">
        <ele>19.41</ele>
        <time>2021-03-20T14:21:43Z</time>
      </trkpt>
      <trkpt lat="56.32472" lon="-6.33337">
        <ele>20.14</ele>
        <time>2021-03-20T14:21:47Z</time>
      </trkpt>
      <trkpt lat="56.32465" lon="-6.33263">
        <ele>21</ele>
        <time>2021-03-20T14:21:52Z</time>
      </trkpt>
      <trkpt lat="56.32422" lon="-6.32927">
        <ele>21.8</ele>
        <time>2021-03-20T14:21:57Z</time>
      </trkpt>
      <trkpt lat="56.32406" lon="-6.32777">
        <ele>18.39</ele>
        <time>2021-03-20T14:22:01Z</time>
      </trkpt>
      <trkpt lat="56.32404" lon="-6.32734">
        <ele>18.44</ele>
        <time>2021-03-20T14:22:06Z</time>
      </trkpt>
      <trkpt lat="56.32409" lon="-6.32691">
        <ele>18.37</ele>
        <time>2021-03-20T14:22:10Z</time>
      </trkpt>
      <trkpt lat="56.32415" lon="-6.32651">
        <ele>19</ele>
        <time>2021-03-20T14:22:15Z</time>
      </trkpt>
      <trkpt lat="56.32457" lon="-6.32492">
        <ele>24.23</ele>
        <time>2021-03-20T14:22:19Z</time>
      </trkpt>
      <trkpt lat="56.32475" lon="-6.32416">
        <ele>26.03</ele>
        <time>2021-03-20T14:22:24Z</time>
      </trkpt>
      <trkpt lat="56.3248" lon="-6.3233">
        <ele>26.46</ele>
        <time>2021-03-20T14:22:28Z</time>
      </trkpt>
      <trkpt lat="56.32457" lon="-6.3098">
        <ele>18.1</ele>
        <time>2021-03-20T14:22:33Z</time>
      </trkpt>
      <trkpt lat="56.32478" lon="-6.30613">
        <ele>13.72</ele>
        <time>2021-03-20T14:22:37Z</time>
      </trkpt>
      <trkpt lat="56.32481" lon="-6.30523">
        <ele>13.67</ele>
        <time>2021-03-20T14:22:42Z</time>
      </trkpt>
      <trkpt lat="56.32479" lon="-6.30433">
        <ele>12.77</ele>
        <time>2021-03-20T14:22:46Z</time>
      </trkpt>
      <trkpt lat="56.32471" lon="-6.30341">
        <ele>13.82</ele>
        <time>2021-03-20T14:22:51Z</time>
      </trkpt>
      <trkpt lat="56.32422" lon="-6.29906">
        <ele>12.07</ele>
        <time>2021-03-20T14:22:55Z</time>
      </trkpt>
      <trkpt lat="56.32391" lon="-6.29648">
        <ele>14.64</ele>
        <time>2021-03-20T14:23:00Z</time>
      </trkpt>
      <trkpt lat="56.3237" lon="-6.29546">
        <ele>17</ele>
        <time>2021-03-20T14:23:04Z</time>
      </trkpt>
      <trkpt lat="56.32337" lon="-6.2942">
        <ele>19.65</ele>
        <time>2021-03-20T14:23:09Z</time>
      </trkpt>
      <trkpt lat="56.32247" lon="-6.29107">
        <ele>19.27</ele>
        <time>2021-03-20T14:23:13Z</time>
      </trkpt>
      <trkpt lat="56.3219" lon="-6.28952">
        <ele>18.23</ele>
        <time>2021-03-20T14:23:18Z</time>
      </trkpt>
      <trkpt lat="56.321" lon="-6.28732">
        <ele>18.52</ele>
        <time>2021-03-20T14:23:22Z</time>
      </trkpt>
      <trkpt lat="56.32072" lon="-6.28648">
        <ele>17.85</ele>
        <time>2021-03-20T14:23:27Z</time>
      </trkpt>
      <trkpt lat="56.32055" lon="-6.28568">
        <ele>18.52</ele>
        <time>2021-03-20T14:23:32Z</time>
      </trkpt>
      <trkpt lat="56.32028" lon="-6.2841">
        <ele>22.27</ele>
        <time>2021-03-20T14:23:36Z</time>
      </trkpt>
      <trkpt lat="56.32007" lon="-6.28313">
        <ele>24.81</ele>
        <time>2021-03-20T14:23:41Z</time>
      </trkpt>
      <trkpt lat="56.31954" lon="-6.28104">
        <ele>25</ele>
        <time>2021-03-20T14:23:45Z</time>
      </trkpt>
      <trkpt lat="56.31941" lon="-6.28043">
        <ele>24.62</ele>
        <time>2021-03-20T14:23:50Z</time>
      </trkpt>
      <trkpt lat="56.31928" lon="-6.27963">
        <ele>23.25</ele>
        <time>2021-03-20T14:23:54Z</time>
      </trkpt>
      <trkpt lat="56.31856" lon="-6.27596">
        <ele>25</ele>
        <time>2021-03-20T14:23:59Z</time>
      </trkpt>
      <trkpt lat="56.31835" lon="-6.27509">
        <ele>25.92</ele>
        <time>2021-03-20T14:24:03Z</time>
      </trkpt>
      <trkpt lat="56.31812" lon="-6.27441">
        <ele>24.75</ele>
        <time>2021-03-20T14:24:08Z</time>
      </trkpt>
      <trkpt lat="56.31736" lon="-6.27181">
        <ele>15.29</ele>
        <time>2021-03-20T14:24:12Z</time>
      </trkpt>
      <trkpt lat="56.3172" lon="-6.27102">
        <ele>10.92</ele>
        <time>2021-03-20T14:24:17Z</time>
      </trkpt>
      <trkpt lat="56.31708" lon="-6.27008">
        <ele>9.13</ele>
        <time>2021-03-20T14:24:21Z</time>
      </trkpt>
      <trkpt lat="56.31705" lon="-6.26909">
        <ele>10.88</ele>
        <time>2021-03-20T14:24:26Z</time>
      </trkpt>
      <trkpt lat="56.31732" lon="-6.26425">
        <ele>15.27</ele>
        <time>2021-03-20T14:24:30Z</time>
      </trkpt>
      <trkpt lat="56.31734" lon="-6.26354">
        <ele>14.31</ele>
        <time>2021-03-20T14:24:35Z</time>
      </trkpt>
      <trkpt lat="56.3171" lon="-6.26192">
        <ele>18.89</ele>
        <time>2021-03-20T14:24:39Z</time>
      </trkpt>
      <trkpt lat="56.31652" lon="-6.25882">
        <ele>34.76</ele>
        <time>2021-03-20T14:24:44Z</time>
      </trkpt>
      <trkpt lat="56.31629" lon="-6.25792">
        <ele>37.66</ele>
        <time>2021-03-20T14:24:48Z</time>
      </trkpt>
      <trkpt lat="56.31605" lon="-6.25716">
        <ele>39.6</ele>
        <time>2021-03-20T14:24:53Z</time>
      </trkpt>
      <trkpt lat="56.31582" lon="-6.25659">
        <ele>42.12</ele>
        <time>2021-03-20T14:24:58Z</time>
      </trkpt>
      <trkpt lat="56.31551" lon="-6.25618">
        <ele>43.41</ele>
        <time>2021-03-20T14:25:02Z</time>
      </trkpt>
      <trkpt lat="56.31506" lon="-6.25576">
        <ele>43.5</ele>
        <time>2021-03-20T14:25:07Z</time>
      </trkpt>
      <trkpt lat="56.31471" lon="-6.25538">
        <ele>43.36</ele>
        <time>2021-03-20T14:25:11Z</time>
      </trkpt>
      <trkpt lat="56.31434" lon="-6.25482">
        <ele>39.56</ele>
        <time>2021-03-20T14:25:16Z</time>
      </trkpt>
      <trkpt lat="56.31412" lon="-6.25432">
        <ele>36.07</ele>
        <time>2021-03-20T14:25:20Z</time>
      </trkpt>
      <trkpt lat="56.31389" lon="-6.25314">
        <ele>33.01</ele>
        <time>2021-03-20T14:25:25Z</time>
      </trkpt>
      <trkpt lat="56.31385" lon="-6.25274">
        <ele>33</ele>
        <time>2021-03-20T14:25:29Z</time>
      </trkpt>
      <trkpt lat="56.31363" lon="-6.25146">
        <ele>31.27</ele>
        <time>2021-03-20T14:25:36Z</time>
      </trkpt>
      <trkpt lat="56.31366" lon="-6.24927">
        <ele>24.69</ele>
        <time>2021-03-20T14:25:43Z</time>
      </trkpt>
      <trkpt lat="56.3136" lon="-6.24884">
        <ele>28.35</ele>
        <time>2021-03-20T14:25:49Z</time>
      </trkpt>
      <trkpt lat="56.31308" lon="-6.24786">
        <ele>32.48</ele>
        <time>2021-03-20T14:25:56Z</time>
      </trkpt>
      <trkpt lat="56.31298" lon="-6.2476">
        <ele>33.81</ele>
        <time>2021-03-20T14:26:03Z</time>
      </trkpt>
      <trkpt lat="56.3127" lon="-6.24638">
        <ele>39.24</ele>
        <time>2021-03-20T14:26:09Z</time>
      </trkpt>
      <trkpt lat="56.31269" lon="-6.24613">
        <ele>39.98</ele>
        <time>2021-03-20T14:26:16Z</time>
      </trkpt>
      <trkpt lat="56.31274" lon="-6.24591">
        <ele>40.6</ele>
        <time>2021-03-20T14:26:23Z</time>
      </trkpt>
      <trkpt lat="56.31295" lon="-6.24535">
        <ele>43.42</ele>
        <time>2021-03-20T14:26:29Z</time>
      </trkpt>
      <trkpt lat="56.31448" lon="-6.24153">
        <ele>43</ele>
        <time>2021-03-20T14:26:36Z</time>
      </trkpt>
      <trkpt lat="56.31473" lon="-6.24063">
        <ele>42.22</ele>
        <time>2021-03-20T14:26:43Z</time>
      </trkpt>
      <trkpt lat="56.3148" lon="-6.24033">
        <ele>39.81</ele>
        <time>2021-03-20T14:26:49Z</time>
      </trkpt>
      <trkpt lat="56.31483" lon="-6.24002">
        <ele>37.01</ele>
        <time>2021-03-20T14:26:56Z</time>
      </trkpt>
      <trkpt lat="56.31481" lon="-6.23823">
        <ele>24.71</ele>
        <time>2021-03-20T14:27:03Z</time>
      </trkpt>
      <trkpt lat="56.31486" lon="-6.23613">
        <ele>17.01</ele>
        <time>2021-03-20T14:27:09Z</time>
      </trkpt>
      <trkpt lat="56.3149" lon="-6.23583">
        <ele>16.54</ele>
        <time>2021-03-20T14:27:16Z</time>
      </trkpt>
      <trkpt lat="56.31506" lon="-6.23559">
        <ele>15.06</ele>
        <time>2021-03-20T14:27:23Z</time>
      </trkpt>
      <trkpt lat="56.31548" lon="-6.23529">
        <ele>8.57</ele>
        <time>2021-03-20T14:27:29Z</time>
      </trkpt>
      <trkpt lat="56.3157" lon="-6.23536">
        <ele>5.2</ele>
        <time>2021-03-20T14:27:36Z</time>
      </trkpt>
      <trkpt lat="56.31599" lon="-6.23518">
        <ele>5.98</ele>
        <time>2021-03-20T14:27:43Z</time>
      </trkpt>
      <trkpt lat="56.31616" lon="-6.23448">
        <ele>3.66</ele>
        <time>2021-03-20T14:27:46Z</time>
      </trkpt>
      <trkpt lat="56.31628" lon="-6.23414">
        <ele>3.89</ele>
        <time>2021-03-20T14:27:49Z</time>
      </trkpt>
      <trkpt lat="56.31646" lon="-6.23391">
        <ele>3.78</ele>
        <time>2021-03-20T14:27:52Z</time>
      </trkpt>
      <trkpt lat="56.31657" lon="-6.23389">
        <ele>3.38</ele>
        <time>2021-03-20T14:27:55Z</time>
      </trkpt>
      <trkpt lat="56.31698" lon="-6.23394">
        <ele>2.51</ele>
        <time>2021-03-20T14:27:58Z</time>
      </trkpt>
      <trkpt lat="56.3171" lon="-6.23385">
        <ele>1.52</ele>
        <time>2021-03-20T14:28:01Z</time>
      </trkpt>
      <trkpt lat="56.31719" lon="-6.23355">
        <ele>1.52</ele>
        <time>2021-03-20T14:28:05Z</time>
      </trkpt>
      <trkpt lat="56.3172" lon="-6.23303">
        <ele>2.57</ele>
        <time>2021-03-20T14:28:08Z</time>
      </trkpt>
      <trkpt lat="56.31714" lon="-6.23225">
        <ele>5.15</ele>
        <time>2021-03-20T14:28:11Z</time>
      </trkpt>
      <trkpt lat="56.31705" lon="-6.23172">
        <ele>5.95</ele>
        <time>2021-03-20T14:28:14Z</time>
      </trkpt>
      <trkpt lat="56.31684" lon="-6.23107">
        <ele>6.7</ele>
        <time>2021-03-20T14:28:17Z</time>
      </trkpt>
      <trkpt lat="56.31659" lon="-6.23048">
        <ele>6.77</ele>
        <time>2021-03-20T14:28:20Z</time>
      </trkpt>
      <trkpt lat="56.31632" lon="-6.2297">
        <ele>8.54</ele>
        <time>2021-03-20T14:28:23Z</time>
      </trkpt>
      <trkpt lat="56.3159" lon="-6.22806">
        <ele>12.47</ele>
        <time>2021-03-20T14:28:27Z</time>
      </trkpt>
      <trkpt lat="56.31578" lon="-6.22755">
        <ele>14.27</ele>
        <time>2021-03-20T14:28:30Z</time>
      </trkpt>
      <trkpt lat="56.31569" lon="-6.22704">
        <ele>15.15</ele>
        <time>2021-03-20T14:28:33Z</time>
      </trkpt>
      <trkpt lat="56.31564" lon="-6.22655">
        <ele>16.15</ele>
        <time>2021-03-20T14:28:36Z</time>
      </trkpt>
      <trkpt lat="56.31561" lon="-6.22609">
        <ele>16.71</ele>
        <time>2021-03-20T14:28:39Z</time>
      </trkpt>
      <trkpt lat="56.31565" lon="-6.22538">
        <ele>17.98</ele>
        <time>2021-03-20T14:28:42Z</time>
      </trkpt>
      <trkpt lat="56.31569" lon="-6.22495">
        <ele>19.4</ele>
        <time>2021-03-20T14:28:46Z</time>
      </trkpt>
      <trkpt lat="56.31575" lon="-6.22452">
        <ele>20.84</ele>
        <time>2021-03-20T14:28:49Z</time>
      </trkpt>
      <trkpt lat="56.3159" lon="-6.22394">
        <ele>22.29</ele>
        <time>2021-03-20T14:28:52Z</time>
      </trkpt>
      <trkpt lat="56.31627" lon="-6.22307">
        <ele>23.56</ele>
        <time>2021-03-20T14:28:55Z</time>
      </trkpt>
      <trkpt lat="56.3166" lon="-6.22241">
        <ele>23</ele>
        <time>2021-03-20T14:28:58Z</time>
      </trkpt>
      <trkpt lat="56.31694" lon="-6.22179">
        <ele>22.44</ele>
        <time>2021-03-20T14:29:01Z</time>
      </trkpt>
      <trkpt lat="56.3173" lon="-6.22126">
        <ele>23.13</ele>
        <time>2021-03-20T14:29:04Z</time>
      </trkpt>
      <trkpt lat="56.31961" lon="-6.21826">
        <ele>26.42</ele>
        <time>2021-03-20T14:29:08Z</time>
      </trkpt>
      <trkpt lat="56.32099" lon="-6.21641">
        <ele>21.39</ele>
        <time>2021-03-20T14:29:11Z</time>
      </trkpt>
      <trkpt lat="56.32136" lon="-6.21577">
        <ele>23.56</ele>
        <time>2021-03-20T14:29:14Z</time>
      </trkpt>
      <trkpt lat="56.32163" lon="-6.21507">
        <ele>26.54</ele>
        <time>2021-03-20T14:29:17Z</time>
      </trkpt>
      <trkpt lat="56.32179" lon="-6.21451">
        <ele>28.33</ele>
        <time>2021-03-20T14:29:20Z</time>
      </trkpt>
      <trkpt lat="56.32259" lon="-6.2112">
        <ele>30.37</ele>
        <time>2021-03-20T14:29:23Z</time>
      </trkpt>
      <trkpt lat="56.32284" lon="-6.21033">
        <ele>26.77</ele>
        <time>2021-03-20T14:29:26Z</time>
      </trkpt>
      <trkpt lat="56.32353" lon="-6.20873">
        <ele>26.48</ele>
        <time>2021-03-20T14:29:30Z</time>
      </trkpt>
      <trkpt lat="56.32431" lon="-6.20695">
        <ele>25.94</ele>
        <time>2021-03-20T14:29:33Z</time>
      </trkpt>
      <trkpt lat="56.32643" lon="-6.20321">
        <ele>30.82</ele>
        <time>2021-03-20T14:29:36Z</time>
      </trkpt>
      <trkpt lat="56.32714" lon="-6.20185">
        <ele>35.63</ele>
        <time>2021-03-20T14:29:39Z</time>
      </trkpt>
      <trkpt lat="56.32754" lon="-6.20085">
        <ele>37.33</ele>
        <time>2021-03-20T14:29:42Z</time>
      </trkpt>
      <trkpt lat="56.32804" lon="-6.19983">
        <ele>34.16</ele>
        <time>2021-03-20T14:29:45Z</time>
      </trkpt>
      <trkpt lat="56.32829" lon="-6.19948">
        <ele>33.9</ele>
        <time>2021-03-20T14:29:49Z</time>
      </trkpt>
      <trkpt lat="56.32975" lon="-6.19673">
        <ele>44.33</ele>
        <time>2021-03-20T14:29:52Z</time>
      </trkpt>
      <trkpt lat="56.32991" lon="-6.19629">
        <ele>44.5</ele>
        <time>2021-03-20T14:29:55Z</time>
      </trkpt>
      <trkpt lat="56.33006" lon="-6.19575">
        <ele>43.26</ele>
        <time>2021-03-20T14:29:58Z</time>
      </trkpt>
      <trkpt lat="56.33083" lon="-6.19168">
        <ele>40.12</ele>
        <time>2021-03-20T14:30:01Z</time>
      </trkpt>
      <trkpt lat="56.33087" lon="-6.19109">
        <ele>38.12</ele>
        <time>2021-03-20T14:30:04Z</time>
      </trkpt>
      <trkpt lat="56.33088" lon="-6.19045">
        <ele>36.37</ele>
        <time>2021-03-20T14:30:07Z</time>
      </trkpt>
      <trkpt lat="56.33066" lon="-6.18849">
        <ele>33.49</ele>
        <time>2021-03-20T14:30:11Z</time>
      </trkpt>
      <trkpt lat="56.33071" lon="-6.1874">
        <ele>31.15</ele>
        <time>2021-03-20T14:30:14Z</time>
      </trkpt>
      <trkpt lat="56.33144" lon="-6.18272">
        <ele>32.44</ele>
        <time>2021-03-20T14:30:17Z</time>
      </trkpt>
      <trkpt lat="56.33295" lon="-6.17557">
        <ele>16.13</ele>
        <time>2021-03-20T14:30:20Z</time>
      </trkpt>
      <trkpt lat="56.33363" lon="-6.17264">
        <ele>13.29</ele>
        <time>2021-03-20T14:30:23Z</time>
      </trkpt>
      <trkpt lat="56.33395" lon="-6.17112">
        <ele>15.92</ele>
        <time>2021-03-20T14:30:26Z</time>
      </trkpt>
      <trkpt lat="56.3343" lon="-6.16969">
        <ele>16.18</ele>
        <time>2021-03-20T14:30:30Z</time>
      </trkpt>
      <trkpt lat="56.33442" lon="-6.16851">
        <ele>19.76</ele>
        <time>2021-03-20T14:30:33Z</time>
      </trkpt>
      <trkpt lat="56.33453" lon="-6.16803">
        <ele>21.32</ele>
        <time>2021-03-20T14:30:36Z</time>
      </trkpt>
      <trkpt lat="56.33466" lon="-6.16755">
        <ele>22.92</ele>
        <time>2021-03-20T14:30:39Z</time>
      </trkpt>
      <trkpt lat="56.33482" lon="-6.16709">
        <ele>24.89</ele>
        <time>2021-03-20T14:30:42Z</time>
      </trkpt>
      <trkpt lat="56.33603" lon="-6.16419">
        <ele>29.52</ele>
        <time>2021-03-20T14:30:45Z</time>
      </trkpt>
      <trkpt lat="56.33611" lon="-6.16383">
        <ele>30.02</ele>
        <time>2021-03-20T14:30:48Z</time>
      </trkpt>
      <trkpt lat="56.33615" lon="-6.16329">
        <ele>30.33</ele>
        <time>2021-03-20T14:30:52Z</time>
      </trkpt>
      <trkpt lat="56.33622" lon="-6.16271">
        <ele>30.63</ele>
        <time>2021-03-20T14:30:55Z</time>
      </trkpt>
      <trkpt lat="56.33638" lon="-6.16007">
        <ele>28.26</ele>
        <time>2021-03-20T14:30:58Z</time>
      </trkpt>
      <trkpt lat="56.33638" lon="-6.15942">
        <ele>28.46</ele>
        <time>2021-03-20T14:31:01Z</time>
      </trkpt>
      <trkpt lat="56.33633" lon="-6.1589">
        <ele>30.83</ele>
        <time>2021-03-20T14:31:04Z</time>
      </trkpt>
      <trkpt lat="56.33632" lon="-6.15843">
        <ele>31.53</ele>
        <time>2021-03-20T14:31:07Z</time>
      </trkpt>
      <trkpt lat="56.33631" lon="-6.15794">
        <ele>32.03</ele>
        <time>2021-03-20T14:31:10Z</time>
      </trkpt>
      <trkpt lat="56.33633" lon="-6.15746">
        <ele>31.28</ele>
        <time>2021-03-20T14:31:14Z</time>
      </trkpt>
      <trkpt lat="56.33642" lon="-6.15654">
        <ele>28.88</ele>
        <time>2021-03-20T14:31:17Z</time>
      </trkpt>
      <trkpt lat="56.33654" lon="-6.15566">
        <ele>28.45</ele>
        <time>2021-03-20T14:31:20Z</time>
      </trkpt>
      <trkpt lat="56.33656" lon="-6.15529">
        <ele>28.64</ele>
        <time>2021-03-20T14:31:23Z</time>
      </trkpt>
      <trkpt lat="56.33649" lon="-6.15393">
        <ele>31.5</ele>
        <time>2021-03-20T14:31:26Z</time>
      </trkpt>
      <trkpt lat="56.33625" lon="-6.15134">
        <ele>31.2</ele>
        <time>2021-03-20T14:31:29Z</time>
      </trkpt>
      <trkpt lat="56.33622" lon="-6.15084">
        <ele>29.71</ele>
        <time>2021-03-20T14:31:33Z</time>
      </trkpt>
      <trkpt lat="56.33622" lon="-6.1504">
        <ele>28.62</ele>
        <time>2021-03-20T14:31:36Z</time>
      </trkpt>
      <trkpt lat="56.33626" lon="-6.14998">
        <ele>28.68</ele>
        <time>2021-03-20T14:31:39Z</time>
      </trkpt>
      <trkpt lat="56.3366" lon="-6.14784">
        <ele>28.48</ele>
        <time>2021-03-20T14:31:42Z</time>
      </trkpt>
      <trkpt lat="56.33668" lon="-6.14713">
        <ele>27.57</ele>
        <time>2021-03-20T14:31:45Z</time>
      </trkpt>
      <trkpt lat="56.33668" lon="-6.14673">
        <ele>26.78</ele>
        <time>2021-03-20T14:31:48Z</time>
      </trkpt>
      <trkpt lat="56.33663" lon="-6.14624">
        <ele>27.26</ele>
        <time>2021-03-20T14:31:51Z</time>
      </trkpt>
      <trkpt lat="56.33657" lon="-6.14595">
        <ele>27.19</ele>
        <time>2021-03-20T14:31:55Z</time>
      </trkpt>
      <trkpt lat="56.33607" lon="-6.14449">
        <ele>27.13</ele>
        <time>2021-03-20T14:31:58Z</time>
      </trkpt>
      <trkpt lat="56.33592" lon="-6.14399">
        <ele>27.13</ele>
        <time>2021-03-20T14:32:01Z</time>
      </trkpt>
      <trkpt lat="56.33587" lon="-6.14353">
        <ele>26.89</ele>
        <time>2021-03-20T14:32:04Z</time>
      </trkpt>
      <trkpt lat="56.33586" lon="-6.14309">
        <ele>26.32</ele>
        <time>2021-03-20T14:32:07Z</time>
      </trkpt>
      <trkpt lat="56.33589" lon="-6.14263">
        <ele>26.34</ele>
        <time>2021-03-20T14:32:10Z</time>
      </trkpt>
      <trkpt lat="56.33596" lon="-6.14219">
        <ele>26.73</ele>
        <time>2021-03-20T14:32:14Z</time>
      </trkpt>
      <trkpt lat="56.33629" lon="-6.14088">
        <ele>20.81</ele>
        <time>2021-03-20T14:32:17Z</time>
      </trkpt>
      <trkpt lat="56.33642" lon="-6.14045">
        <ele>18.96</ele>
        <time>2021-03-20T14:32:20Z</time>
      </trkpt>
      <trkpt lat="56.33657" lon="-6.14014">
        <ele>18.27</ele>
        <time>2021-03-20T14:32:23Z</time>
      </trkpt>
      <trkpt lat="56.33689" lon="-6.13974">
        <ele>17.32</ele>
        <time>2021-03-20T14:32:26Z</time>
      </trkpt>
      <trkpt lat="56.33717" lon="-6.13959">
        <ele>15.45</ele>
        <time>2021-03-20T14:32:29Z</time>
      </trkpt>
      <trkpt lat="56.33746" lon="-6.13955">
        <ele>15.82</ele>
        <time>2021-03-20T14:32:32Z</time>
      </trkpt>
      <trkpt lat="56.33805" lon="-6.13954">
        <ele>16.94</ele>
        <time>2021-03-20T14:32:36Z</time>
      </trkpt>
      <trkpt lat="56.33835" lon="-6.13949">
        <ele>17.67</ele>
        <time>2021-03-20T14:32:39Z</time>
      </trkpt>
      <trkpt lat="56.33861" lon="-6.13935">
        <ele>18.35</ele>
        <time>2021-03-20T14:32:42Z</time>
      </trkpt>
      <trkpt lat="56.33883" lon="-6.13911">
        <ele>17.66</ele>
        <time>2021-03-20T14:32:45Z</time>
      </trkpt>
      <trkpt lat="56.33904" lon="-6.13875">
        <ele>17.7</ele>
        <time>2021-03-20T14:32:48Z</time>
      </trkpt>
      <trkpt lat="56.33919" lon="-6.13834">
        <ele>17.6</ele>
        <time>2021-03-20T14:32:51Z</time>
      </trkpt>
      <trkpt lat="56.33972" lon="-6.13667">
        <ele>9</ele>
        <time>2021-03-20T14:32:54Z</time>
      </trkpt>
      <trkpt lat="56.33986" lon="-6.13606">
        <ele>6.56</ele>
        <time>2021-03-20T14:32:58Z</time>
      </trkpt>
      <trkpt lat="56.33992" lon="-6.13537">
        <ele>5.89</ele>
        <time>2021-03-20T14:33:01Z</time>
      </trkpt>
      <trkpt lat="56.33989" lon="-6.13395">
        <ele>9.78</ele>
        <time>2021-03-20T14:33:04Z</time>
      </trkpt>
      <trkpt lat="56.3398" lon="-6.13157">
        <ele>18.56</ele>
        <time>2021-03-20T14:33:07Z</time>
      </trkpt>
      <trkpt lat="56.33974" lon="-6.12913">
        <ele>23.71</ele>
        <time>2021-03-20T14:33:10Z</time>
      </trkpt>
      <trkpt lat="56.33976" lon="-6.12866">
        <ele>22.6</ele>
        <time>2021-03-20T14:33:13Z</time>
      </trkpt>
      <trkpt lat="56.33984" lon="-6.12823">
        <ele>22.5</ele>
        <time>2021-03-20T14:33:17Z</time>
      </trkpt>
      <trkpt lat="56.33998" lon="-6.1278">
        <ele>23.07</ele>
        <time>2021-03-20T14:33:20Z</time>
      </trkpt>
      <trkpt lat="56.34016" lon="-6.1274">
        <ele>23.58</ele>
        <time>2021-03-20T14:33:23Z</time>
      </trkpt>
      <trkpt lat="56.3408" lon="-6.12617">
        <ele>29.81</ele>
        <time>2021-03-20T14:33:26Z</time>
      </trkpt>
      <trkpt lat="56.34146" lon="-6.12501">
        <ele>29.74</ele>
        <time>2021-03-20T14:33:29Z</time>
      </trkpt>
      <trkpt lat="56.34242" lon="-6.12349">
        <ele>28.84</ele>
        <time>2021-03-20T14:33:32Z</time>
      </trkpt>
      <trkpt lat="56.34322" lon="-6.12236">
        <ele>20.42</ele>
        <time>2021-03-20T14:33:35Z</time>
      </trkpt>
      <trkpt lat="56.3434" lon="-6.12202">
        <ele>17.82</ele>
        <time>2021-03-20T14:33:39Z</time>
      </trkpt>
      <trkpt lat="56.34358" lon="-6.12142">
        <ele>15.54</ele>
        <time>2021-03-20T14:33:42Z</time>
      </trkpt>
      <trkpt lat="56.34363" lon="-6.12117">
        <ele>13.89</ele>
        <time>2021-03-20T14:33:45Z</time>
      </trkpt>
      <trkpt lat="56.34367" lon="-6.12073">
        <ele>11.78</ele>
        <time>2021-03-20T14:33:48Z</time>
      </trkpt>
      <trkpt lat="56.34368" lon="-6.12022">
        <ele>9.9</ele>
        <time>2021-03-20T14:33:51Z</time>
      </trkpt>
      <trkpt lat="56.34359" lon="-6.11621">
        <ele>7.74</ele>
        <time>2021-03-20T14:33:54Z</time>
      </trkpt>
      <trkpt lat="56.34344" lon="-6.11488">
        <ele>8.25</ele>
        <time>2021-03-20T14:33:57Z</time>
      </trkpt>
      <trkpt lat="56.34339" lon="-6.1141">
        <ele>9.55</ele>
        <time>2021-03-20T14:34:01Z</time>
      </trkpt>
      <trkpt lat="56.34342" lon="-6.11274">
        <ele>10.02</ele>
        <time>2021-03-20T14:34:04Z</time>
      </trkpt>
      <trkpt lat="56.34351" lon="-6.11202">
        <ele>9.07</ele>
        <time>2021-03-20T14:34:07Z</time>
      </trkpt>
      <trkpt lat="56.34364" lon="-6.1113">
        <ele>8.76</ele>
        <time>2021-03-20T14:34:10Z</time>
      </trkpt>
      <trkpt lat="56.34378" lon="-6.11064">
        <ele>11.37</ele>
        <time>2021-03-20T14:34:13Z</time>
      </trkpt>
      <trkpt lat="56.3438" lon="-6.11046">
        <ele>12.65</ele>
        <time>2021-03-20T14:34:16Z</time>
      </trkpt>
      <trkpt lat="56.34382" lon="-6.11006">
        <ele>15.29</ele>
        <time>2021-03-20T14:34:20Z</time>
      </trkpt>
      <trkpt lat="56.34376" lon="-6.10931">
        <ele>14.93</ele>
        <time>2021-03-20T14:34:23Z</time>
      </trkpt>
      <trkpt lat="56.3435" lon="-6.10843">
        <ele>16.07</ele>
        <time>2021-03-20T14:34:26Z</time>
      </trkpt>
      <trkpt lat="56.34283" lon="-6.10691">
        <ele>15.89</ele>
        <time>2021-03-20T14:34:29Z</time>
      </trkpt>
      <trkpt lat="56.34217" lon="-6.10534">
        <ele>17.41</ele>
        <time>2021-03-20T14:34:32Z</time>
      </trkpt>
      <trkpt lat="56.34206" lon="-6.10491">
        <ele>16.32</ele>
        <time>2021-03-20T14:34:35Z</time>
      </trkpt>
      <trkpt lat="56.34198" lon="-6.10447">
        <ele>13.7</ele>
        <time>2021-03-20T14:34:38Z</time>
      </trkpt>
      <trkpt lat="56.34196" lon="-6.10406">
        <ele>12.33</ele>
        <time>2021-03-20T14:34:42Z</time>
      </trkpt>
      <trkpt lat="56.34199" lon="-6.10367">
        <ele>10.62</ele>
        <time>2021-03-20T14:34:45Z</time>
      </trkpt>
      <trkpt lat="56.34211" lon="-6.10317">
        <ele>7.23</ele>
        <time>2021-03-20T14:34:48Z</time>
      </trkpt>
      <trkpt lat="56.3423" lon="-6.10269">
        <ele>4.82</ele>
        <time>2021-03-20T14:34:51Z</time>
      </trkpt>
      <trkpt lat="56.3426" lon="-6.10218">
        <ele>5.81</ele>
        <time>2021-03-20T14:34:54Z</time>
      </trkpt>
      <trkpt lat="56.34463" lon="-6.0992">
        <ele>3.55</ele>
        <time>2021-03-20T14:34:57Z</time>
      </trkpt>
      <trkpt lat="56.34475" lon="-6.09897">
        <ele>3.72</ele>
        <time>2021-03-20T14:35:01Z</time>
      </trkpt>
      <trkpt lat="56.34486" lon="-6.09864">
        <ele>4.44</ele>
        <time>2021-03-20T14:35:04Z</time>
      </trkpt>
      <trkpt lat="56.34495" lon="-6.0983">
        <ele>5.19</ele>
        <time>2021-03-20T14:35:07Z</time>
      </trkpt>
      <trkpt lat="56.34501" lon="-6.09783">
        <ele>4.97</ele>
        <time>2021-03-20T14:35:10Z</time>
      </trkpt>
      <trkpt lat="56.34507" lon="-6.09687">
        <ele>3.43</ele>
        <time>2021-03-20T14:35:13Z</time>
      </trkpt>
      <trkpt lat="56.34507" lon="-6.09655">
        <ele>3.28</ele>
        <time>2021-03-20T14:35:16Z</time>
      </trkpt>
      <trkpt lat="56.34512" lon="-6.09567">
        <ele>3.66</ele>
        <time>2021-03-20T14:35:19Z</time>
      </trkpt>
      <trkpt lat="56.34518" lon="-6.09499">
        <ele>2.8</ele>
        <time>2021-03-20T14:35:23Z</time>
      </trkpt>
      <trkpt lat="56.34523" lon="-6.09464">
        <ele>2.96</ele>
        <time>2021-03-20T14:35:26Z</time>
      </trkpt>
      <trkpt lat="56.34562" lon="-6.09276">
        <ele>6.14</ele>
        <time>2021-03-20T14:35:29Z</time>
      </trkpt>
      <trkpt lat="56.34576" lon="-6.0918">
        <ele>4.72</ele>
        <time>2021-03-20T14:35:32Z</time>
      </trkpt>
      <trkpt lat="56.34594" lon="-6.0909">
        <ele>4.24</ele>
        <time>2021-03-20T14:35:35Z</time>
      </trkpt>
      <trkpt lat="56.34604" lon="-6.09049">
        <ele>4.5</ele>
        <time>2021-03-20T14:35:38Z</time>
      </trkpt>
      <trkpt lat="56.34628" lon="-6.08979">
        <ele>3.92</ele>
        <time>2021-03-20T14:35:41Z</time>
      </trkpt>
      <trkpt lat="56.34665" lon="-6.08909">
        <ele>5.66</ele>
        <time>2021-03-20T14:35:45Z</time>
      </trkpt>
      <trkpt lat="56.34693" lon="-6.08869">
        <ele>5.82</ele>
        <time>2021-03-20T14:35:48Z</time>
      </trkpt>
      <trkpt lat="56.34712" lon="-6.08853">
        <ele>5.23</ele>
        <time>2021-03-20T14:35:51Z</time>
      </trkpt>
      <trkpt lat="56.34731" lon="-6.08844">
        <ele>5.55</ele>
        <time>2021-03-20T14:35:54Z</time>
      </trkpt>
      <trkpt lat="56.34812" lon="-6.08836">
        <ele>8.52</ele>
        <time>2021-03-20T14:35:57Z</time>
      </trkpt>
      <trkpt lat="56.34841" lon="-6.08828">
        <ele>7.57</ele>
        <time>2021-03-20T14:36:00Z</time>
      </trkpt>
      <trkpt lat="56.34854" lon="-6.0882">
        <ele>6.76</ele>
        <time>2021-03-20T14:36:04Z</time>
      </trkpt>
      <trkpt lat="56.34875" lon="-6.08791">
        <ele>7.31</ele>
        <time>2021-03-20T14:36:07Z</time>
      </trkpt>
      <trkpt lat="56.34909" lon="-6.08727">
        <ele>11.36</ele>
        <time>2021-03-20T14:36:10Z</time>
      </trkpt>
      <trkpt lat="56.34928" lon="-6.08693">
        <ele>11.94</ele>
        <time>2021-03-20T14:36:13Z</time>
      </trkpt>
      <trkpt lat="56.34946" lon="-6.08673">
        <ele>12.18</ele>
        <time>2021-03-20T14:36:16Z</time>
      </trkpt>
      <trkpt lat="56.34965" lon="-6.08662">
        <ele>11.12</ele>
        <time>2021-03-20T14:36:19Z</time>
      </trkpt>
      <trkpt lat="56.35029" lon="-6.08651">
        <ele>14.61</ele>
        <time>2021-03-20T14:36:22Z</time>
      </trkpt>
      <trkpt lat="56.35044" lon="-6.08634">
        <ele>16.37</ele>
        <time>2021-03-20T14:36:26Z</time>
      </trkpt>
      <trkpt lat="56.3506" lon="-6.0861">
        <ele>18.16</ele>
        <time>2021-03-20T14:36:29Z</time>
      </trkpt>
      <trkpt lat="56.35104" lon="-6.08521">
        <ele>16.58</ele>
        <time>2021-03-20T14:36:32Z</time>
      </trkpt>
      <trkpt lat="56.35159" lon="-6.08391">
        <ele>10.53</ele>
        <time>2021-03-20T14:36:35Z</time>
      </trkpt>
      <trkpt lat="56.35241" lon="-6.0816">
        <ele>11.33</ele>
        <time>2021-03-20T14:36:38Z</time>
      </trkpt>
      <trkpt lat="56.35261" lon="-6.08084">
        <ele>13.44</ele>
        <time>2021-03-20T14:36:41Z</time>
      </trkpt>
      <trkpt lat="56.35269" lon="-6.07972">
        <ele>12.95</ele>
        <time>2021-03-20T14:36:44Z</time>
      </trkpt>
      <trkpt lat="56.35269" lon="-6.07927">
        <ele>12.56</ele>
        <time>2021-03-20T14:36:48Z</time>
      </trkpt>
      <trkpt lat="56.35272" lon="-6.07873">
        <ele>11.92</ele>
        <time>2021-03-20T14:36:51Z</time>
      </trkpt>
      <trkpt lat="56.35284" lon="-6.07772">
        <ele>11.83</ele>
        <time>2021-03-20T14:36:54Z</time>
      </trkpt>
      <trkpt lat="56.35291" lon="-6.07702">
        <ele>11.56</ele>
        <time>2021-03-20T14:36:57Z</time>
      </trkpt>
      <trkpt lat="56.3531" lon="-6.07561">
        <ele>10.12</ele>
        <time>2021-03-20T14:37:00Z</time>
      </trkpt>
      <trkpt lat="56.35315" lon="-6.07492">
        <ele>8.39</ele>
        <time>2021-03-20T14:37:03Z</time>
      </trkpt>
      <trkpt lat="56.35354" lon="-6.07453">
        <ele>6.68</ele>
        <time>2021-03-20T14:37:07Z</time>
      </trkpt>
      <trkpt lat="56.35368" lon="-6.07428">
        <ele>7.59</ele>
        <time>2021-03-20T14:37:10Z</time>
      </trkpt>
      <trkpt lat="56.35399" lon="-6.07348">
        <ele>9.82</ele>
        <time>2021-03-20T14:37:13Z</time>
      </trkpt>
      <trkpt lat="56.35421" lon="-6.0728">
        <ele>12.26</ele>
        <time>2021-03-20T14:37:16Z</time>
      </trkpt>
      <trkpt lat="56.35443" lon="-6.07203">
        <ele>15.05</ele>
        <time>2021-03-20T14:37:19Z</time>
      </trkpt>
      <trkpt lat="56.35671" lon="-6.06171">
        <ele>12.26</ele>
        <time>2021-03-20T14:37:22Z</time>
      </trkpt>
      <trkpt lat="56.35677" lon="-6.06126">
        <ele>12.03</ele>
        <time>2021-03-20T14:37:25Z</time>
      </trkpt>
      <trkpt lat="56.3568" lon="-6.06079">
        <ele>11.41</ele>
        <time>2021-03-20T14:37:29Z</time>
      </trkpt>
      <trkpt lat="56.35689" lon="-6.06013">
        <ele>8.27</ele>
        <time>2021-03-20T14:37:32Z</time>
      </trkpt>
      <trkpt lat="56.35701" lon="-6.05949">
        <ele>6.23</ele>
        <time>2021-03-20T14:37:35Z</time>
      </trkpt>
      <trkpt lat="56.35744" lon="-6.05772">
        <ele>7.92</ele>
        <time>2021-03-20T14:37:38Z</time>
      </trkpt>
      <trkpt lat="56.3578" lon="-6.05592">
        <ele>16.35</ele>
        <time>2021-03-20T14:37:41Z</time>
      </trkpt>
      <trkpt lat="56.35822" lon="-6.05437">
        <ele>14.16</ele>
        <time>2021-03-20T14:37:44Z</time>
      </trkpt>
      <trkpt lat="56.35829" lon="-6.05391">
        <ele>7.11</ele>
        <time>2021-03-20T14:37:48Z</time>
      </trkpt>
      <trkpt lat="56.3586" lon="-6.05241">
        <ele>11.35</ele>
        <time>2021-03-20T14:37:51Z</time>
      </trkpt>
      <trkpt lat="56.35926" lon="-6.05015">
        <ele>8.92</ele>
        <time>2021-03-20T14:37:54Z</time>
      </trkpt>
      <trkpt lat="56.35937" lon="-6.04973">
        <ele>5.8</ele>
        <time>2021-03-20T14:37:57Z</time>
      </trkpt>
      <trkpt lat="56.35962" lon="-6.0474">
        <ele>10.23</ele>
        <time>2021-03-20T14:38:00Z</time>
      </trkpt>
      <trkpt lat="56.35978" lon="-6.04542">
        <ele>10.99</ele>
        <time>2021-03-20T14:38:03Z</time>
      </trkpt>
      <trkpt lat="56.35988" lon="-6.04391">
        <ele>9.65</ele>
        <time>2021-03-20T14:38:06Z</time>
      </trkpt>
      <trkpt lat="56.35994" lon="-6.04357">
        <ele>8.39</ele>
        <time>2021-03-20T14:38:10Z</time>
      </trkpt>
      <trkpt lat="56.36004" lon="-6.04327">
        <ele>7.77</ele>
        <time>2021-03-20T14:38:13Z</time>
      </trkpt>
      <trkpt lat="56.36039" lon="-6.04269">
        <ele>6.11</ele>
        <time>2021-03-20T14:38:16Z</time>
      </trkpt>
      <trkpt lat="56.36119" lon="-6.04162">
        <ele>4.73</ele>
        <time>2021-03-20T14:38:19Z</time>
      </trkpt>
      <trkpt lat="56.36127" lon="-6.04145">
        <ele>4.93</ele>
        <time>2021-03-20T14:38:22Z</time>
      </trkpt>
      <trkpt lat="56.36187" lon="-6.03925">
        <ele>6.51</ele>
        <time>2021-03-20T14:38:25Z</time>
      </trkpt>
      <trkpt lat="56.36212" lon="-6.03848">
        <ele>4.88</ele>
        <time>2021-03-20T14:38:28Z</time>
      </trkpt>
      <trkpt lat="56.36227" lon="-6.03778">
        <ele>3.68</ele>
        <time>2021-03-20T14:38:32Z</time>
      </trkpt>
      <trkpt lat="56.36236" lon="-6.03722">
        <ele>4.54</ele>
        <time>2021-03-20T14:38:35Z</time>
      </trkpt>
      <trkpt lat="56.3628" lon="-6.0336">
        <ele>11.66</ele>
        <time>2021-03-20T14:38:38Z</time>
      </trkpt>
      <trkpt lat="56.36298" lon="-6.03286">
        <ele>11.14</ele>
        <time>2021-03-20T14:38:41Z</time>
      </trkpt>
      <trkpt lat="56.36339" lon="-6.02989">
        <ele>13.39</ele>
        <time>2021-03-20T14:38:44Z</time>
      </trkpt>
      <trkpt lat="56.36357" lon="-6.02878">
        <ele>12.37</ele>
        <time>2021-03-20T14:38:47Z</time>
      </trkpt>
      <trkpt lat="56.36376" lon="-6.02808">
        <ele>9.19</ele>
        <time>2021-03-20T14:38:51Z</time>
      </trkpt>
      <trkpt lat="56.36389" lon="-6.02775">
        <ele>7.07</ele>
        <time>2021-03-20T14:38:54Z</time>
      </trkpt>
      <trkpt lat="56.36399" lon="-6.02726">
        <ele>9.76</ele>
        <time>2021-03-20T14:38:57Z</time>
      </trkpt>
      <trkpt lat="56.364" lon="-6.02686">
        <ele>10.25</ele>
        <time>2021-03-20T14:39:00Z</time>
      </trkpt>
      <trkpt lat="56.364" lon="-6.02541">
        <ele>11.74</ele>
        <time>2021-03-20T14:39:03Z</time>
      </trkpt>
      <trkpt lat="56.36412" lon="-6.02451">
        <ele>3.95</ele>
        <time>2021-03-20T14:39:06Z</time>
      </trkpt>
      <trkpt lat="56.36428" lon="-6.02393">
        <ele>9.59</ele>
        <time>2021-03-20T14:39:09Z</time>
      </trkpt>
      <trkpt lat="56.36435" lon="-6.02336">
        <ele>13.75</ele>
        <time>2021-03-20T14:39:13Z</time>
      </trkpt>
      <trkpt lat="56.36436" lon="-6.02305">
        <ele>14.77</ele>
        <time>2021-03-20T14:39:16Z</time>
      </trkpt>
      <trkpt lat="56.36433" lon="-6.0228">
        <ele>13.67</ele>
        <time>2021-03-20T14:39:19Z</time>
      </trkpt>
      <trkpt lat="56.36432" lon="-6.02218">
        <ele>12.09</ele>
        <time>2021-03-20T14:39:22Z</time>
      </trkpt>
      <trkpt lat="56.36461" lon="-6.01965">
        <ele>2.92</ele>
        <time>2021-03-20T14:39:25Z</time>
      </trkpt>
      <trkpt lat="56.36461" lon="-6.01928">
        <ele>3.55</ele>
        <time>2021-03-20T14:39:28Z</time>
      </trkpt>
      <trkpt lat="56.36466" lon="-6.01907">
        <ele>3.03</ele>
        <time>2021-03-20T14:39:31Z</time>
      </trkpt>
      <trkpt lat="56.36474" lon="-6.01884">
        <ele>2.18</ele>
        <time>2021-03-20T14:39:35Z</time>
      </trkpt>
      <trkpt lat="56.36484" lon="-6.01865">
        <ele>2.5</ele>
        <time>2021-03-20T14:39:38Z</time>
      </trkpt>
      <trkpt lat="56.36494" lon="-6.01855">
        <ele>2.42</ele>
        <time>2021-03-20T14:39:41Z</time>
      </trkpt>
      <trkpt lat="56.36523" lon="-6.01848">
        <ele>1.64</ele>
        <time>2021-03-20T14:39:44Z</time>
      </trkpt>
      <trkpt lat="56.36536" lon="-6.0184">
        <ele>1.91</ele>
        <time>2021-03-20T14:39:47Z</time>
      </trkpt>
      <trkpt lat="56.36583" lon="-6.01797">
        <ele>2.3</ele>
        <time>2021-03-20T14:39:50Z</time>
      </trkpt>
      <trkpt lat="56.36599" lon="-6.0178">
        <ele>1.95</ele>
        <time>2021-03-20T14:39:54Z</time>
      </trkpt>
      <trkpt lat="56.36683" lon="-6.01669">
        <ele>6.83</ele>
        <time>2021-03-20T14:39:57Z</time>
      </trkpt>
      <trkpt lat="56.36748" lon="-6.01594">
        <ele>4.72</ele>
        <time>2021-03-20T14:40:00Z</time>
      </trkpt>
      <trkpt lat="56.3678" lon="-6.0156">
        <ele>4.48</ele>
        <time>2021-03-20T14:40:03Z</time>
      </trkpt>
      <trkpt lat="56.36829" lon="-6.01512">
        <ele>4.96</ele>
        <time>2021-03-20T14:40:06Z</time>
      </trkpt>
      <trkpt lat="56.37114" lon="-6.01285">
        <ele>5.98</ele>
        <time>2021-03-20T14:40:09Z</time>
      </trkpt>
      <trkpt lat="56.37148" lon="-6.0124">
        <ele>4.89</ele>
        <time>2021-03-20T14:40:12Z</time>
      </trkpt>
      <trkpt lat="56.37189" lon="-6.01128">
        <ele>3.71</ele>
        <time>2021-03-20T14:40:16Z</time>
      </trkpt>
      <trkpt lat="56.37237" lon="-6.01058">
        <ele>4.28</ele>
        <time>2021-03-20T14:40:19Z</time>
      </trkpt>
      <trkpt lat="56.37332" lon="-6.00965">
        <ele>5.31</ele>
        <time>2021-03-20T14:40:22Z</time>
      </trkpt>
      <trkpt lat="56.37365" lon="-6.00927">
        <ele>3.26</ele>
        <time>2021-03-20T14:40:25Z</time>
      </trkpt>
      <trkpt lat="56.37375" lon="-6.00882">
        <ele>3.82</ele>
        <time>2021-03-20T14:40:28Z</time>
      </trkpt>
      <trkpt lat="56.37386" lon="-6.00858">
        <ele>2.76</ele>
        <time>2021-03-20T14:40:31Z</time>
      </trkpt>
      <trkpt lat="56.3741" lon="-6.00831">
        <ele>2.56</ele>
        <time>2021-03-20T14:40:35Z</time>
      </trkpt>
      <trkpt lat="56.37433" lon="-6.00794">
        <ele>4.74</ele>
        <time>2021-03-20T14:40:38Z</time>
      </trkpt>
      <trkpt lat="56.37451" lon="-6.00743">
        <ele>3.43</ele>
        <time>2021-03-20T14:40:41Z</time>
      </trkpt>
      <trkpt lat="56.37491" lon="-6.00653">
        <ele>5.81</ele>
        <time>2021-03-20T14:40:44Z</time>
      </trkpt>
      <trkpt lat="56.37509" lon="-6.00599">
        <ele>5.28</ele>
        <time>2021-03-20T14:40:47Z</time>
      </trkpt>
      <trkpt lat="56.37528" lon="-6.00549">
        <ele>4.64</ele>
        <time>2021-03-20T14:40:50Z</time>
      </trkpt>
      <trkpt lat="56.3754" lon="-6.00529">
        <ele>5.61</ele>
        <time>2021-03-20T14:40:53Z</time>
      </trkpt>
      <trkpt lat="56.37551" lon="-6.00514">
        <ele>5.58</ele>
        <time>2021-03-20T14:40:57Z</time>
      </trkpt>
      <trkpt lat="56.37578" lon="-6.00489">
        <ele>6.51</ele>
        <time>2021-03-20T14:41:00Z</time>
      </trkpt>
      <trkpt lat="56.37603" lon="-6.00478">
        <ele>6.07</ele>
        <time>2021-03-20T14:41:03Z</time>
      </trkpt>
      <trkpt lat="56.37688" lon="-6.00385">
        <ele>5.12</ele>
        <time>2021-03-20T14:41:06Z</time>
      </trkpt>
      <trkpt lat="56.3779" lon="-6.00297">
        <ele>7.26</ele>
        <time>2021-03-20T14:41:09Z</time>
      </trkpt>
      <trkpt lat="56.37855" lon="-6.00264">
        <ele>6.87</ele>
        <time>2021-03-20T14:41:12Z</time>
      </trkpt>
      <trkpt lat="56.3792" lon="-6.00217">
        <ele>7.38</ele>
        <time>2021-03-20T14:41:15Z</time>
      </trkpt>
      <trkpt lat="56.37931" lon="-6.00204">
        <ele>7.95</ele>
        <time>2021-03-20T14:41:19Z</time>
      </trkpt>
      <trkpt lat="56.37955" lon="-6.00187">
        <ele>7.75</ele>
        <time>2021-03-20T14:41:22Z</time>
      </trkpt>
      <trkpt lat="56.37977" lon="-6.00178">
        <ele>6.92</ele>
        <time>2021-03-20T14:41:25Z</time>
      </trkpt>
      <trkpt lat="56.37994" lon="-6.00167">
        <ele>6.44</ele>
        <time>2021-03-20T14:41:28Z</time>
      </trkpt>
      <trkpt lat="56.38052" lon="-6.00149">
        <ele>4.2</ele>
        <time>2021-03-20T14:41:31Z</time>
      </trkpt>
      <trkpt lat="56.38097" lon="-6.00126">
        <ele>4.25</ele>
        <time>2021-03-20T14:41:34Z</time>
      </trkpt>
      <trkpt lat="56.38123" lon="-6.00106">
        <ele>4</ele>
        <time>2021-03-20T14:41:38Z</time>
      </trkpt>
      <trkpt lat="56.38233" lon="-5.99888">
        <ele>4.66</ele>
        <time>2021-03-20T14:41:41Z</time>
      </trkpt>
      <trkpt lat="56.38256" lon="-5.99826">
        <ele>6.22</ele>
        <time>2021-03-20T14:41:44Z</time>
      </trkpt>
      <trkpt lat="56.38266" lon="-5.9977">
        <ele>7.57</ele>
        <time>2021-03-20T14:41:47Z</time>
      </trkpt>
      <trkpt lat="56.3828" lon="-5.99642">
        <ele>10.9</ele>
        <time>2021-03-20T14:41:50Z</time>
      </trkpt>
      <trkpt lat="56.38284" lon="-5.99461">
        <ele>6.3</ele>
        <time>2021-03-20T14:41:53Z</time>
      </trkpt>
      <trkpt lat="56.38283" lon="-5.99417">
        <ele>5.53</ele>
        <time>2021-03-20T14:41:56Z</time>
      </trkpt>
      <trkpt lat="56.38271" lon="-5.99326">
        <ele>3.49</ele>
        <time>2021-03-20T14:42:00Z</time>
      </trkpt>
      <trkpt lat="56.38264" lon="-5.99285">
        <ele>3.62</ele>
        <time>2021-03-20T14:42:03Z</time>
      </trkpt>
      <trkpt lat="56.38263" lon="-5.99229">
        <ele>3.89</ele>
        <time>2021-03-20T14:42:06Z</time>
      </trkpt>
      <trkpt lat="56.38266" lon="-5.99174">
        <ele>2.67</ele>
        <time>2021-03-20T14:42:09Z</time>
      </trkpt>
      <trkpt lat="56.38305" lon="-5.98999">
        <ele>2</ele>
        <time>2021-03-20T14:42:12Z</time>
      </trkpt>
      <trkpt lat="56.38331" lon="-5.9889">
        <ele>2.08</ele>
        <time>2021-03-20T14:42:15Z</time>
      </trkpt>
      <trkpt lat="56.38338" lon="-5.98806">
        <ele>1.83</ele>
        <time>2021-03-20T14:42:18Z</time>
      </trkpt>
      <trkpt lat="56.38338" lon="-5.98714">
        <ele>3</ele>
        <time>2021-03-20T14:42:22Z</time>
      </trkpt>
      <trkpt lat="56.38334" lon="-5.98493">
        <ele>4</ele>
        <time>2021-03-20T14:42:25Z</time>
      </trkpt>
      <trkpt lat="56.38334" lon="-5.98398">
        <ele>3.34</ele>
        <time>2021-03-20T14:42:28Z</time>
      </trkpt>
      <trkpt lat="56.38338" lon="-5.9834">
        <ele>2.23</ele>
        <time>2021-03-20T14:42:31Z</time>
      </trkpt>
      <trkpt lat="56.38344" lon="-5.98301">
        <ele>1.94</ele>
        <time>2021-03-20T14:42:34Z</time>
      </trkpt>
      <trkpt lat="56.3836" lon="-5.9824">
        <ele>1.38</ele>
        <time>2021-03-20T14:42:37Z</time>
      </trkpt>
      <trkpt lat="56.38382" lon="-5.98181">
        <ele>2.88</ele>
        <time>2021-03-20T14:42:41Z</time>
      </trkpt>
      <trkpt lat="56.38526" lon="-5.97933">
        <ele>4</ele>
        <time>2021-03-20T14:42:44Z</time>
      </trkpt>
      <trkpt lat="56.38558" lon="-5.97887">
        <ele>4.06</ele>
        <time>2021-03-20T14:42:47Z</time>
      </trkpt>
      <trkpt lat="56.38575" lon="-5.97872">
        <ele>4.62</ele>
        <time>2021-03-20T14:42:50Z</time>
      </trkpt>
      <trkpt lat="56.38595" lon="-5.97858">
        <ele>5.61</ele>
        <time>2021-03-20T14:42:53Z</time>
      </trkpt>
      <trkpt lat="56.38612" lon="-5.97852">
        <ele>6.71</ele>
        <time>2021-03-20T14:42:56Z</time>
      </trkpt>
      <trkpt lat="56.38633" lon="-5.97847">
        <ele>7.8</ele>
        <time>2021-03-20T14:42:59Z</time>
      </trkpt>
      <trkpt lat="56.38732" lon="-5.9784">
        <ele>7.51</ele>
        <time>2021-03-20T14:43:03Z</time>
      </trkpt>
      <trkpt lat="56.39127" lon="-5.97697">
        <ele>6.57</ele>
        <time>2021-03-20T14:43:06Z</time>
      </trkpt>
      <trkpt lat="56.39132" lon="-5.97755">
        <ele>7.53</ele>
        <time>2021-03-20T14:43:09Z</time>
      </trkpt>
      <trkpt lat="56.39133" lon="-5.97784">
        <ele>7.39</ele>
        <time>2021-03-20T14:43:12Z</time>
      </trkpt>
      <trkpt lat="56.39131" lon="-5.97822">
        <ele>6.31</ele>
        <time>2021-03-20T14:43:15Z</time>
      </trkpt>
      <trkpt lat="56.39128" lon="-5.97855">
        <ele>5.22</ele>
        <time>2021-03-20T14:43:18Z</time>
      </trkpt>
      <trkpt lat="56.39114" lon="-5.9793">
        <ele>5</ele>
        <time>2021-03-20T14:43:22Z</time>
      </trkpt>
      <trkpt lat="56.39108" lon="-5.97973">
        <ele>5</ele>
        <time>2021-03-20T14:43:25Z</time>
      </trkpt>
      <trkpt lat="56.39109" lon="-5.98045">
        <ele>4.92</ele>
        <time>2021-03-20T14:43:28Z</time>
      </trkpt>
      <trkpt lat="56.39114" lon="-5.98083">
        <ele>4</ele>
        <time>2021-03-20T14:43:31Z</time>
      </trkpt>
      <trkpt lat="56.39129" lon="-5.9817">
        <ele>4</ele>
        <time>2021-03-20T14:43:34Z</time>
      </trkpt>
      <trkpt lat="56.39132" lon="-5.98208">
        <ele>4</ele>
        <time>2021-03-20T14:43:37Z</time>
      </trkpt>
      <trkpt lat="56.39135" lon="-5.98288">
        <ele>3.47</ele>
        <time>2021-03-20T14:43:40Z</time>
      </trkpt>
      <trkpt lat="56.39138" lon="-5.98747">
        <ele>4.86</ele>
        <time>2021-03-20T14:43:44Z</time>
      </trkpt>
      <trkpt lat="56.39138" lon="-5.98801">
        <ele>4.99</ele>
        <time>2021-03-20T14:43:47Z</time>
      </trkpt>
      <trkpt lat="56.39135" lon="-5.98854">
        <ele>5.62</ele>
        <time>2021-03-20T14:43:50Z</time>
      </trkpt>
      <trkpt lat="56.39127" lon="-5.98898">
        <ele>5.88</ele>
        <time>2021-03-20T14:43:53Z</time>
      </trkpt>
      <trkpt lat="56.39109" lon="-5.98948">
        <ele>5.96</ele>
        <time>2021-03-20T14:43:56Z</time>
      </trkpt>
      <trkpt lat="56.39083" lon="-5.99001">
        <ele>5.01</ele>
        <time>2021-03-20T14:43:59Z</time>
      </trkpt>
      <trkpt lat="56.39069" lon="-5.99023">
        <ele>5.32</ele>
        <time>2021-03-20T14:44:02Z</time>
      </trkpt>
      <trkpt lat="56.39054" lon="-5.99042">
        <ele>5.53</ele>
        <time>2021-03-20T14:44:06Z</time>
      </trkpt>
      <trkpt lat="56.39007" lon="-5.99091">
        <ele>6.26</ele>
        <time>2021-03-20T14:44:09Z</time>
      </trkpt>
      <trkpt lat="56.38995" lon="-5.9911">
        <ele>5.81</ele>
        <time>2021-03-20T14:44:12Z</time>
      </trkpt>
      <trkpt lat="56.38975" lon="-5.99174">
        <ele>5.24</ele>
        <time>2021-03-20T14:44:15Z</time>
      </trkpt>
      <trkpt lat="56.3895" lon="-5.99288">
        <ele>4.44</ele>
        <time>2021-03-20T14:44:18Z</time>
      </trkpt>
      <trkpt lat="56.38933" lon="-5.99342">
        <ele>3.49</ele>
        <time>2021-03-20T14:44:21Z</time>
      </trkpt>
      <trkpt lat="56.38911" lon="-5.99378">
        <ele>3.3</ele>
        <time>2021-03-20T14:44:24Z</time>
      </trkpt>
      <trkpt lat="56.38905" lon="-5.99425">
        <ele>4.13</ele>
        <time>2021-03-20T14:44:28Z</time>
      </trkpt>
      <trkpt lat="56.38911" lon="-5.99531">
        <ele>4.78</ele>
        <time>2021-03-20T14:44:31Z</time>
      </trkpt>
      <trkpt lat="56.3892" lon="-5.99587">
        <ele>4.34</ele>
        <time>2021-03-20T14:44:34Z</time>
      </trkpt>
      <trkpt lat="56.38921" lon="-5.99641">
        <ele>4.46</ele>
        <time>2021-03-20T14:44:37Z</time>
      </trkpt>
      <trkpt lat="56.38913" lon="-5.99685">
        <ele>3.16</ele>
        <time>2021-03-20T14:44:40Z</time>
      </trkpt>
      <trkpt lat="56.38924" lon="-5.99727">
        <ele>2.84</ele>
        <time>2021-03-20T14:44:43Z</time>
      </trkpt>
      <trkpt lat="56.38947" lon="-5.99774">
        <ele>3.48</ele>
        <time>2021-03-20T14:44:46Z</time>
      </trkpt>
      <trkpt lat="56.38993" lon="-5.9988">
        <ele>5.54</ele>
        <time>2021-03-20T14:44:50Z</time>
      </trkpt>
      <trkpt lat="56.39023" lon="-5.99924">
        <ele>6.43</ele>
        <time>2021-03-20T14:44:53Z</time>
      </trkpt>
      <trkpt lat="56.39089" lon="-5.9999">
        <ele>4.91</ele>
        <time>2021-03-20T14:44:56Z</time>
      </trkpt>
      <trkpt lat="56.39271" lon="-6.00161">
        <ele>1.75</ele>
        <time>2021-03-20T14:44:59Z</time>
      </trkpt>
      <trkpt lat="56.39304" lon="-6.00177">
        <ele>1.63</ele>
        <time>2021-03-20T14:45:02Z</time>
      </trkpt>
      <trkpt lat="56.39337" lon="-6.00212">
        <ele>2.79</ele>
        <time>2021-03-20T14:45:05Z</time>
      </trkpt>
      <trkpt lat="56.39383" lon="-6.00299">
        <ele>4.62</ele>
        <time>2021-03-20T14:45:09Z</time>
      </trkpt>
      <trkpt lat="56.39396" lon="-6.0036">
        <ele>3.54</ele>
        <time>2021-03-20T14:45:12Z</time>
      </trkpt>
      <trkpt lat="56.39395" lon="-6.00428">
        <ele>3.2</ele>
        <time>2021-03-20T14:45:15Z</time>
      </trkpt>
      <trkpt lat="56.39386" lon="-6.00503">
        <ele>3.94</ele>
        <time>2021-03-20T14:45:18Z</time>
      </trkpt>
      <trkpt lat="56.39372" lon="-6.00574">
        <ele>5.22</ele>
        <time>2021-03-20T14:45:21Z</time>
      </trkpt>
      <trkpt lat="56.39348" lon="-6.0064">
        <ele>4.62</ele>
        <time>2021-03-20T14:45:24Z</time>
      </trkpt>
      <trkpt lat="56.39286" lon="-6.00825">
        <ele>7.8</ele>
        <time>2021-03-20T14:45:27Z</time>
      </trkpt>
      <trkpt lat="56.39195" lon="-6.0104">
        <ele>5.07</ele>
        <time>2021-03-20T14:45:31Z</time>
      </trkpt>
      <trkpt lat="56.39181" lon="-6.01105">
        <ele>7.22</ele>
        <time>2021-03-20T14:45:34Z</time>
      </trkpt>
      <trkpt lat="56.39173" lon="-6.01176">
        <ele>7.57</ele>
        <time>2021-03-20T14:45:37Z</time>
      </trkpt>
      <trkpt lat="56.3917" lon="-6.01257">
        <ele>7.26</ele>
        <time>2021-03-20T14:45:40Z</time>
      </trkpt>
      <trkpt lat="56.39172" lon="-6.01384">
        <ele>7.2</ele>
        <time>2021-03-20T14:45:43Z</time>
      </trkpt>
      <trkpt lat="56.39186" lon="-6.01524">
        <ele>5.98</ele>
        <time>2021-03-20T14:45:46Z</time>
      </trkpt>
      <trkpt lat="56.39202" lon="-6.0158">
        <ele>5.89</ele>
        <time>2021-03-20T14:45:49Z</time>
      </trkpt>
      <trkpt lat="56.39274" lon="-6.01757">
        <ele>7.11</ele>
        <time>2021-03-20T14:45:53Z</time>
      </trkpt>
      <trkpt lat="56.39319" lon="-6.01831">
        <ele>6.13</ele>
        <time>2021-03-20T14:45:56Z</time>
      </trkpt>
      <trkpt lat="56.39341" lon="-6.01859">
        <ele>12.72</ele>
        <time>2021-03-20T14:45:59Z</time>
      </trkpt>
      <trkpt lat="56.39405" lon="-6.01912">
        <ele>6.47</ele>
        <time>2021-03-20T14:46:02Z</time>
      </trkpt>
      <trkpt lat="56.39435" lon="-6.01974">
        <ele>4.88</ele>
        <time>2021-03-20T14:46:05Z</time>
      </trkpt>
      <trkpt lat="56.39471" lon="-6.02074">
        <ele>5.27</ele>
        <time>2021-03-20T14:46:08Z</time>
      </trkpt>
      <trkpt lat="56.3948" lon="-6.02139">
        <ele>7.94</ele>
        <time>2021-03-20T14:46:11Z</time>
      </trkpt>
      <trkpt lat="56.39482" lon="-6.02204">
        <ele>9.42</ele>
        <time>2021-03-20T14:46:15Z</time>
      </trkpt>
      <trkpt lat="56.39479" lon="-6.02283">
        <ele>11.02</ele>
        <time>2021-03-20T14:46:18Z</time>
      </trkpt>
      <trkpt lat="56.3946" lon="-6.02362">
        <ele>10.31</ele>
        <time>2021-03-20T14:46:21Z</time>
      </trkpt>
      <trkpt lat="56.39433" lon="-6.02458">
        <ele>8.1</ele>
        <time>2021-03-20T14:46:24Z</time>
      </trkpt>
      <trkpt lat="56.39419" lon="-6.02521">
        <ele>7.05</ele>
        <time>2021-03-20T14:46:27Z</time>
      </trkpt>
      <trkpt lat="56.39389" lon="-6.02703">
        <ele>7.36</ele>
        <time>2021-03-20T14:46:30Z</time>
      </trkpt>
      <trkpt lat="56.39363" lon="-6.02812">
        <ele>6.3</ele>
        <time>2021-03-20T14:46:34Z</time>
      </trkpt>
      <trkpt lat="56.39356" lon="-6.02928">
        <ele>7.2</ele>
        <time>2021-03-20T14:46:37Z</time>
      </trkpt>
      <trkpt lat="56.3933" lon="-6.03036">
        <ele>7.84</ele>
        <time>2021-03-20T14:46:40Z</time>
      </trkpt>
      <trkpt lat="56.3924" lon="-6.03334">
        <ele>4.69</ele>
        <time>2021-03-20T14:46:43Z</time>
      </trkpt>
      <trkpt lat="56.39189" lon="-6.0351">
        <ele>8.6</ele>
        <time>2021-03-20T14:46:46Z</time>
      </trkpt>
      <trkpt lat="56.39069" lon="-6.03698">
        <ele>7.45</ele>
        <time>2021-03-20T14:46:49Z</time>
      </trkpt>
      <trkpt lat="56.39035" lon="-6.0383">
        <ele>9.43</ele>
        <time>2021-03-20T14:46:52Z</time>
      </trkpt>
      <trkpt lat="56.38983" lon="-6.03951">
        <ele>11.62</ele>
        <time>2021-03-20T14:46:56Z</time>
      </trkpt>
      <trkpt lat="56.38827" lon="-6.04212">
        <ele>15.75</ele>
        <time>2021-03-20T14:46:59Z</time>
      </trkpt>
      <trkpt lat="56.38774" lon="-6.04318">
        <ele>19.2</ele>
        <time>2021-03-20T14:47:02Z</time>
      </trkpt>
      <trkpt lat="56.38646" lon="-6.04494">
        <ele>9.17</ele>
        <time>2021-03-20T14:47:05Z</time>
      </trkpt>
      <trkpt lat="56.38604" lon="-6.04553">
        <ele>8.21</ele>
        <time>2021-03-20T14:47:08Z</time>
      </trkpt>
      <trkpt lat="56.38544" lon="-6.04621">
        <ele>6.47</ele>
        <time>2021-03-20T14:47:11Z</time>
      </trkpt>
      <trkpt lat="56.38476" lon="-6.0473">
        <ele>4.88</ele>
        <time>2021-03-20T14:47:14Z</time>
      </trkpt>
      <trkpt lat="56.38413" lon="-6.04816">
        <ele>5.07</ele>
        <time>2021-03-20T14:47:18Z</time>
      </trkpt>
      <trkpt lat="56.38328" lon="-6.04982">
        <ele>4.29</ele>
        <time>2021-03-20T14:47:21Z</time>
      </trkpt>
      <trkpt lat="56.38293" lon="-6.05105">
        <ele>7.68</ele>
        <time>2021-03-20T14:47:24Z</time>
      </trkpt>
      <trkpt lat="56.38281" lon="-6.05122">
        <ele>8.76</ele>
        <time>2021-03-20T14:47:27Z</time>
      </trkpt>
      <trkpt lat="56.38207" lon="-6.05168">
        <ele>6.13</ele>
        <time>2021-03-20T14:47:30Z</time>
      </trkpt>
      <trkpt lat="56.38186" lon="-6.05216">
        <ele>8.15</ele>
        <time>2021-03-20T14:47:33Z</time>
      </trkpt>
      <trkpt lat="56.38107" lon="-6.05448">
        <ele>7.98</ele>
        <time>2021-03-20T14:47:36Z</time>
      </trkpt>
      <trkpt lat="56.38102" lon="-6.05473">
        <ele>9.01</ele>
        <time>2021-03-20T14:47:40Z</time>
      </trkpt>
      <trkpt lat="56.381" lon="-6.05496">
        <ele>9.25</ele>
        <time>2021-03-20T14:47:43Z</time>
      </trkpt>
      <trkpt lat="56.38101" lon="-6.05525">
        <ele>9.55</ele>
        <time>2021-03-20T14:47:46Z</time>
      </trkpt>
      <trkpt lat="56.38133" lon="-6.05651">
        <ele>11.8</ele>
        <time>2021-03-20T14:47:49Z</time>
      </trkpt>
      <trkpt lat="56.38154" lon="-6.05763">
        <ele>12.55</ele>
        <time>2021-03-20T14:47:52Z</time>
      </trkpt>
      <trkpt lat="56.38163" lon="-6.05912">
        <ele>9.91</ele>
        <time>2021-03-20T14:47:55Z</time>
      </trkpt>
      <trkpt lat="56.38168" lon="-6.05931">
        <ele>9.57</ele>
        <time>2021-03-20T14:47:59Z</time>
      </trkpt>
      <trkpt lat="56.38189" lon="-6.05982">
        <ele>9.25</ele>
        <time>2021-03-20T14:48:02Z</time>
      </trkpt>
      <trkpt lat="56.38203" lon="-6.06006">
        <ele>9.74</ele>
        <time>2021-03-20T14:48:05Z</time>
      </trkpt>
      <trkpt lat="56.38209" lon="-6.06022">
        <ele>9.78</ele>
        <time>2021-03-20T14:48:08Z</time>
      </trkpt>
      <trkpt lat="56.38219" lon="-6.06093">
        <ele>9.62</ele>
        <time>2021-03-20T14:48:11Z</time>
      </trkpt>
      <trkpt lat="56.38236" lon="-6.06156">
        <ele>12.82</ele>
        <time>2021-03-20T14:48:14Z</time>
      </trkpt>
      <trkpt lat="56.38244" lon="-6.06232">
        <ele>11.75</ele>
        <time>2021-03-20T14:48:17Z</time>
      </trkpt>
      <trkpt lat="56.38317" lon="-6.06504">
        <ele>9.77</ele>
        <time>2021-03-20T14:48:21Z</time>
      </trkpt>
      <trkpt lat="56.3835" lon="-6.06619">
        <ele>12.26</ele>
        <time>2021-03-20T14:48:24Z</time>
      </trkpt>
      <trkpt lat="56.38399" lon="-6.0674">
        <ele>14.77</ele>
        <time>2021-03-20T14:48:27Z</time>
      </trkpt>
      <trkpt lat="56.38421" lon="-6.06779">
        <ele>14.22</ele>
        <time>2021-03-20T14:48:30Z</time>
      </trkpt>
      <trkpt lat="56.38448" lon="-6.0679">
        <ele>15.64</ele>
        <time>2021-03-20T14:48:33Z</time>
      </trkpt>
      <trkpt lat="56.38477" lon="-6.06788">
        <ele>19.56</ele>
        <time>2021-03-20T14:48:36Z</time>
      </trkpt>
      <trkpt lat="56.38513" lon="-6.06817">
        <ele>20.72</ele>
        <time>2021-03-20T14:48:39Z</time>
      </trkpt>
      <trkpt lat="56.38543" lon="-6.06826">
        <ele>23.83</ele>
        <time>2021-03-20T14:48:43Z</time>
      </trkpt>
      <trkpt lat="56.38582" lon="-6.06823">
        <ele>28.58</ele>
        <time>2021-03-20T14:48:46Z</time>
      </trkpt>
      <trkpt lat="56.38618" lon="-6.06847">
        <ele>29.2</ele>
        <time>2021-03-20T14:48:49Z</time>
      </trkpt>
      <trkpt lat="56.38717" lon="-6.06987">
        <ele>33.23</ele>
        <time>2021-03-20T14:48:52Z</time>
      </trkpt>
      <trkpt lat="56.38897" lon="-6.07146">
        <ele>36.38</ele>
        <time>2021-03-20T14:48:55Z</time>
      </trkpt>
      <trkpt lat="56.38957" lon="-6.07217">
        <ele>38.24</ele>
        <time>2021-03-20T14:48:58Z</time>
      </trkpt>
      <trkpt lat="56.39296" lon="-6.07677">
        <ele>41.15</ele>
        <time>2021-03-20T14:49:01Z</time>
      </trkpt>
      <trkpt lat="56.39384" lon="-6.07807">
        <ele>52.04</ele>
        <time>2021-03-20T14:49:05Z</time>
      </trkpt>
      <trkpt lat="56.39502" lon="-6.08019">
        <ele>59.53</ele>
        <time>2021-03-20T14:49:08Z</time>
      </trkpt>
      <trkpt lat="56.3979" lon="-6.08595">
        <ele>78.95</ele>
        <time>2021-03-20T14:49:11Z</time>
      </trkpt>
      <trkpt lat="56.3979" lon="-6.08595">
        <ele>78.95</ele>
        <time>2021-03-20T14:49:11Z</time>
      </trkpt>
      <trkpt lat="56.39957" lon="-6.08933">
        <ele>91.52</ele>
        <time>2021-03-20T14:49:13Z</time>
      </trkpt>
      <trkpt lat="56.40037" lon="-6.09059">
        <ele>94.77</ele>
        <time>2021-03-20T14:49:16Z</time>
      </trkpt>
      <trkpt lat="56.40259" lon="-6.09337">
        <ele>111.42</ele>
        <time>2021-03-20T14:49:18Z</time>
      </trkpt>
      <trkpt lat="56.40368" lon="-6.09482">
        <ele>110.21</ele>
        <time>2021-03-20T14:49:20Z</time>
      </trkpt>
      <trkpt lat="56.40402" lon="-6.09551">
        <ele>112.87</ele>
        <time>2021-03-20T14:49:23Z</time>
      </trkpt>
      <trkpt lat="56.40425" lon="-6.09606">
        <ele>116.84</ele>
        <time>2021-03-20T14:49:25Z</time>
      </trkpt>
      <trkpt lat="56.40591" lon="-6.10023">
        <ele>128.4</ele>
        <time>2021-03-20T14:49:27Z</time>
      </trkpt>
      <trkpt lat="56.40652" lon="-6.10151">
        <ele>128.87</ele>
        <time>2021-03-20T14:49:30Z</time>
      </trkpt>
      <trkpt lat="56.40686" lon="-6.10206">
        <ele>130.66</ele>
        <time>2021-03-20T14:49:32Z</time>
      </trkpt>
      <trkpt lat="56.40726" lon="-6.10253">
        <ele>131.28</ele>
        <time>2021-03-20T14:49:34Z</time>
      </trkpt>
      <trkpt lat="56.40949" lon="-6.10501">
        <ele>141.44</ele>
        <time>2021-03-20T14:49:37Z</time>
      </trkpt>
      <trkpt lat="56.40993" lon="-6.10553">
        <ele>141.62</ele>
        <time>2021-03-20T14:49:39Z</time>
      </trkpt>
      <trkpt lat="56.41013" lon="-6.10588">
        <ele>142.21</ele>
        <time>2021-03-20T14:49:41Z</time>
      </trkpt>
      <trkpt lat="56.41047" lon="-6.10655">
        <ele>143.66</ele>
        <time>2021-03-20T14:49:44Z</time>
      </trkpt>
      <trkpt lat="56.41075" lon="-6.10721">
        <ele>143.41</ele>
        <time>2021-03-20T14:49:46Z</time>
      </trkpt>
      <trkpt lat="56.41101" lon="-6.10793">
        <ele>144.91</ele>
        <time>2021-03-20T14:49:48Z</time>
      </trkpt>
      <trkpt lat="56.41152" lon="-6.10967">
        <ele>146.11</ele>
        <time>2021-03-20T14:49:51Z</time>
      </trkpt>
      <trkpt lat="56.41304" lon="-6.11669">
        <ele>142.64</ele>
        <time>2021-03-20T14:49:53Z</time>
      </trkpt>
      <trkpt lat="56.41329" lon="-6.1178">
        <ele>143.25</ele>
        <time>2021-03-20T14:49:55Z</time>
      </trkpt>
      <trkpt lat="56.41347" lon="-6.11854">
        <ele>143.5</ele>
        <time>2021-03-20T14:49:58Z</time>
      </trkpt>
      <trkpt lat="56.41368" lon="-6.11927">
        <ele>143.13</ele>
        <time>2021-03-20T14:50:00Z</time>
      </trkpt>
      <trkpt lat="56.41424" lon="-6.12084">
        <ele>142.52</ele>
        <time>2021-03-20T14:50:02Z</time>
      </trkpt>
      <trkpt lat="56.41443" lon="-6.12131">
        <ele>142.36</ele>
        <time>2021-03-20T14:50:05Z</time>
      </trkpt>
      <trkpt lat="56.41469" lon="-6.12183">
        <ele>140.95</ele>
        <time>2021-03-20T14:50:07Z</time>
      </trkpt>
      <trkpt lat="56.41511" lon="-6.12259">
        <ele>141.21</ele>
        <time>2021-03-20T14:50:09Z</time>
      </trkpt>
      <trkpt lat="56.41534" lon="-6.12297">
        <ele>140.75</ele>
        <time>2021-03-20T14:50:12Z</time>
      </trkpt>
      <trkpt lat="56.41577" lon="-6.1236">
        <ele>138.24</ele>
        <time>2021-03-20T14:50:14Z</time>
      </trkpt>
      <trkpt lat="56.41637" lon="-6.12454">
        <ele>133.9</ele>
        <time>2021-03-20T14:50:16Z</time>
      </trkpt>
      <trkpt lat="56.41722" lon="-6.12569">
        <ele>131.07</ele>
        <time>2021-03-20T14:50:19Z</time>
      </trkpt>
      <trkpt lat="56.41755" lon="-6.12617">
        <ele>127.25</ele>
        <time>2021-03-20T14:50:21Z</time>
      </trkpt>
      <trkpt lat="56.41819" lon="-6.1272">
        <ele>123.71</ele>
        <time>2021-03-20T14:50:23Z</time>
      </trkpt>
      <trkpt lat="56.41851" lon="-6.12768">
        <ele>120.6</ele>
        <time>2021-03-20T14:50:26Z</time>
      </trkpt>
      <trkpt lat="56.4192" lon="-6.12852">
        <ele>111.74</ele>
        <time>2021-03-20T14:50:28Z</time>
      </trkpt>
      <trkpt lat="56.41955" lon="-6.12891">
        <ele>104.4</ele>
        <time>2021-03-20T14:50:30Z</time>
      </trkpt>
      <trkpt lat="56.42002" lon="-6.12938">
        <ele>102.29</ele>
        <time>2021-03-20T14:50:33Z</time>
      </trkpt>
      <trkpt lat="56.42024" lon="-6.12952">
        <ele>105.57</ele>
        <time>2021-03-20T14:50:35Z</time>
      </trkpt>
      <trkpt lat="56.42064" lon="-6.12965">
        <ele>107.72</ele>
        <time>2021-03-20T14:50:37Z</time>
      </trkpt>
      <trkpt lat="56.42147" lon="-6.13">
        <ele>94.26</ele>
        <time>2021-03-20T14:50:40Z</time>
      </trkpt>
      <trkpt lat="56.42203" lon="-6.13016">
        <ele>87.07</ele>
        <time>2021-03-20T14:50:42Z</time>
      </trkpt>
      <trkpt lat="56.42231" lon="-6.13026">
        <ele>85.95</ele>
        <time>2021-03-20T14:50:44Z</time>
      </trkpt>
      <trkpt lat="56.42259" lon="-6.1304">
        <ele>87.04</ele>
        <time>2021-03-20T14:50:47Z</time>
      </trkpt>
      <trkpt lat="56.42274" lon="-6.13054">
        <ele>85.76</ele>
        <time>2021-03-20T14:50:49Z</time>
      </trkpt>
      <trkpt lat="56.42287" lon="-6.13079">
        <ele>84.24</ele>
        <time>2021-03-20T14:50:51Z</time>
      </trkpt>
      <trkpt lat="56.42296" lon="-6.13103">
        <ele>82.34</ele>
        <time>2021-03-20T14:50:54Z</time>
      </trkpt>
      <trkpt lat="56.42303" lon="-6.13129">
        <ele>80.63</ele>
        <time>2021-03-20T14:50:56Z</time>
      </trkpt>
      <trkpt lat="56.42312" lon="-6.13174">
        <ele>79.13</ele>
        <time>2021-03-20T14:50:58Z</time>
      </trkpt>
      <trkpt lat="56.42314" lon="-6.1319">
        <ele>78.86</ele>
        <time>2021-03-20T14:51:01Z</time>
      </trkpt>
      <trkpt lat="56.42311" lon="-6.13284">
        <ele>75.15</ele>
        <time>2021-03-20T14:51:03Z</time>
      </trkpt>
      <trkpt lat="56.42315" lon="-6.13371">
        <ele>72.61</ele>
        <time>2021-03-20T14:51:05Z</time>
      </trkpt>
      <trkpt lat="56.42319" lon="-6.13426">
        <ele>69.25</ele>
        <time>2021-03-20T14:51:08Z</time>
      </trkpt>
      <trkpt lat="56.42323" lon="-6.13442">
        <ele>68.91</ele>
        <time>2021-03-20T14:51:10Z</time>
      </trkpt>
      <trkpt lat="56.42328" lon="-6.13453">
        <ele>68.6</ele>
        <time>2021-03-20T14:51:12Z</time>
      </trkpt>
      <trkpt lat="56.42335" lon="-6.1346">
        <ele>68.95</ele>
        <time>2021-03-20T14:51:15Z</time>
      </trkpt>
      <trkpt lat="56.4239" lon="-6.13489">
        <ele>68.77</ele>
        <time>2021-03-20T14:51:17Z</time>
      </trkpt>
      <trkpt lat="56.42404" lon="-6.13493">
        <ele>66.31</ele>
        <time>2021-03-20T14:51:19Z</time>
      </trkpt>
      <trkpt lat="56.42411" lon="-6.13492">
        <ele>65.76</ele>
        <time>2021-03-20T14:51:22Z</time>
      </trkpt>
      <trkpt lat="56.42451" lon="-6.13472">
        <ele>66.13</ele>
        <time>2021-03-20T14:51:24Z</time>
      </trkpt>
      <trkpt lat="56.42529" lon="-6.13446">
        <ele>61.86</ele>
        <time>2021-03-20T14:51:26Z</time>
      </trkpt>
      <trkpt lat="56.42549" lon="-6.13435">
        <ele>65.02</ele>
        <time>2021-03-20T14:51:29Z</time>
      </trkpt>
      <trkpt lat="56.42562" lon="-6.13431">
        <ele>66.86</ele>
        <time>2021-03-20T14:51:31Z</time>
      </trkpt>
      <trkpt lat="56.42573" lon="-6.13433">
        <ele>68.18</ele>
        <time>2021-03-20T14:51:33Z</time>
      </trkpt>
      <trkpt lat="56.42582" lon="-6.13448">
        <ele>68.36</ele>
        <time>2021-03-20T14:51:36Z</time>
      </trkpt>
      <trkpt lat="56.42587" lon="-6.13472">
        <ele>66.58</ele>
        <time>2021-03-20T14:51:38Z</time>
      </trkpt>
      <trkpt lat="56.4259" lon="-6.13529">
        <ele>60.96</ele>
        <time>2021-03-20T14:51:40Z</time>
      </trkpt>
      <trkpt lat="56.4259" lon="-6.13618">
        <ele>53.49</ele>
        <time>2021-03-20T14:51:43Z</time>
      </trkpt>
      <trkpt lat="56.42592" lon="-6.13626">
        <ele>52.99</ele>
        <time>2021-03-20T14:51:45Z</time>
      </trkpt>
      <trkpt lat="56.42599" lon="-6.1364">
        <ele>52.6</ele>
        <time>2021-03-20T14:51:47Z</time>
      </trkpt>
      <trkpt lat="56.42614" lon="-6.13653">
        <ele>52.4</ele>
        <time>2021-03-20T14:51:50Z</time>
      </trkpt>
      <trkpt lat="56.42628" lon="-6.13662">
        <ele>50.53</ele>
        <time>2021-03-20T14:51:52Z</time>
      </trkpt>
      <trkpt lat="56.42637" lon="-6.13662">
        <ele>50.04</ele>
        <time>2021-03-20T14:51:54Z</time>
      </trkpt>
      <trkpt lat="56.42645" lon="-6.13658">
        <ele>49.82</ele>
        <time>2021-03-20T14:51:57Z</time>
      </trkpt>
      <trkpt lat="56.42666" lon="-6.13638">
        <ele>50.32</ele>
        <time>2021-03-20T14:51:59Z</time>
      </trkpt>
      <trkpt lat="56.42712" lon="-6.13565">
        <ele>47.49</ele>
        <time>2021-03-20T14:52:01Z</time>
      </trkpt>
      <trkpt lat="56.42749" lon="-6.13467">
        <ele>46.94</ele>
        <time>2021-03-20T14:52:04Z</time>
      </trkpt>
      <trkpt lat="56.42759" lon="-6.13446">
        <ele>47.83</ele>
        <time>2021-03-20T14:52:06Z</time>
      </trkpt>
      <trkpt lat="56.42786" lon="-6.13419">
        <ele>47.38</ele>
        <time>2021-03-20T14:52:08Z</time>
      </trkpt>
      <trkpt lat="56.42812" lon="-6.1337">
        <ele>48</ele>
        <time>2021-03-20T14:52:11Z</time>
      </trkpt>
      <trkpt lat="56.42825" lon="-6.13355">
        <ele>47.19</ele>
        <time>2021-03-20T14:52:13Z</time>
      </trkpt>
      <trkpt lat="56.42843" lon="-6.1334">
        <ele>46.94</ele>
        <time>2021-03-20T14:52:15Z</time>
      </trkpt>
      <trkpt lat="56.42873" lon="-6.13327">
        <ele>47.05</ele>
        <time>2021-03-20T14:52:18Z</time>
      </trkpt>
      <trkpt lat="56.42932" lon="-6.13307">
        <ele>46.32</ele>
        <time>2021-03-20T14:52:20Z</time>
      </trkpt>
      <trkpt lat="56.42963" lon="-6.133">
        <ele>46.06</ele>
        <time>2021-03-20T14:52:22Z</time>
      </trkpt>
      <trkpt lat="56.43" lon="-6.13298">
        <ele>43.84</ele>
        <time>2021-03-20T14:52:25Z</time>
      </trkpt>
      <trkpt lat="56.43036" lon="-6.13306">
        <ele>41.94</ele>
        <time>2021-03-20T14:52:27Z</time>
      </trkpt>
      <trkpt lat="56.4307" lon="-6.13324">
        <ele>41.54</ele>
        <time>2021-03-20T14:52:29Z</time>
      </trkpt>
      <trkpt lat="56.43162" lon="-6.13387">
        <ele>42.05</ele>
        <time>2021-03-20T14:52:32Z</time>
      </trkpt>
      <trkpt lat="56.43196" lon="-6.13405">
        <ele>43.36</ele>
        <time>2021-03-20T14:52:34Z</time>
      </trkpt>
      <trkpt lat="56.43286" lon="-6.1343">
        <ele>39.2</ele>
        <time>2021-03-20T14:52:36Z</time>
      </trkpt>
      <trkpt lat="56.43349" lon="-6.13441">
        <ele>33.47</ele>
        <time>2021-03-20T14:52:39Z</time>
      </trkpt>
      <trkpt lat="56.43381" lon="-6.1344">
        <ele>29.36</ele>
        <time>2021-03-20T14:52:41Z</time>
      </trkpt>
      <trkpt lat="56.43473" lon="-6.1342">
        <ele>20.88</ele>
        <time>2021-03-20T14:52:43Z</time>
      </trkpt>
      <trkpt lat="56.43549" lon="-6.13397">
        <ele>16.84</ele>
        <time>2021-03-20T14:52:46Z</time>
      </trkpt>
      <trkpt lat="56.43601" lon="-6.13377">
        <ele>15.42</ele>
        <time>2021-03-20T14:52:48Z</time>
      </trkpt>
      <trkpt lat="56.43914" lon="-6.13235">
        <ele>6.36</ele>
        <time>2021-03-20T14:52:50Z</time>
      </trkpt>
      <trkpt lat="56.44031" lon="-6.13177">
        <ele>4.15</ele>
        <time>2021-03-20T14:52:53Z</time>
      </trkpt>
      <trkpt lat="56.44108" lon="-6.13133">
        <ele>7.04</ele>
        <time>2021-03-20T14:52:55Z</time>
      </trkpt>
      <trkpt lat="56.44195" lon="-6.13073">
        <ele>12.41</ele>
        <time>2021-03-20T14:52:57Z</time>
      </trkpt>
      <trkpt lat="56.44391" lon="-6.12916">
        <ele>22.13</ele>
        <time>2021-03-20T14:53:00Z</time>
      </trkpt>
      <trkpt lat="56.44434" lon="-6.12889">
        <ele>2.8</ele>
        <time>2021-03-20T14:53:02Z</time>
      </trkpt>
      <trkpt lat="56.44455" lon="-6.12879">
        <ele>3.69</ele>
        <time>2021-03-20T14:53:04Z</time>
      </trkpt>
      <trkpt lat="56.44474" lon="-6.12875">
        <ele>4.51</ele>
        <time>2021-03-20T14:53:07Z</time>
      </trkpt>
      <trkpt lat="56.44555" lon="-6.1287">
        <ele>6.07</ele>
        <time>2021-03-20T14:53:09Z</time>
      </trkpt>
      <trkpt lat="56.44655" lon="-6.12857">
        <ele>7.49</ele>
        <time>2021-03-20T14:53:11Z</time>
      </trkpt>
      <trkpt lat="56.44685" lon="-6.12847">
        <ele>7.26</ele>
        <time>2021-03-20T14:53:14Z</time>
      </trkpt>
      <trkpt lat="56.44801" lon="-6.12791">
        <ele>8.26</ele>
        <time>2021-03-20T14:53:16Z</time>
      </trkpt>
      <trkpt lat="56.4483" lon="-6.1277">
        <ele>9.47</ele>
        <time>2021-03-20T14:53:18Z</time>
      </trkpt>
      <trkpt lat="56.4484" lon="-6.1276">
        <ele>10.16</ele>
        <time>2021-03-20T14:53:21Z</time>
      </trkpt>
      <trkpt lat="56.44888" lon="-6.1269">
        <ele>10.89</ele>
        <time>2021-03-20T14:53:23Z</time>
      </trkpt>
      <trkpt lat="56.44918" lon="-6.12653">
        <ele>10.2</ele>
        <time>2021-03-20T14:53:25Z</time>
      </trkpt>
      <trkpt lat="56.44947" lon="-6.12605">
        <ele>10.61</ele>
        <time>2021-03-20T14:53:28Z</time>
      </trkpt>
      <trkpt lat="56.44973" lon="-6.12556">
        <ele>9.92</ele>
        <time>2021-03-20T14:53:30Z</time>
      </trkpt>
      <trkpt lat="56.44995" lon="-6.125">
        <ele>9.95</ele>
        <time>2021-03-20T14:53:32Z</time>
      </trkpt>
      <trkpt lat="56.45011" lon="-6.12451">
        <ele>11.58</ele>
        <time>2021-03-20T14:53:35Z</time>
      </trkpt>
      <trkpt lat="56.45024" lon="-6.12399">
        <ele>11.93</ele>
        <time>2021-03-20T14:53:37Z</time>
      </trkpt>
      <trkpt lat="56.45058" lon="-6.12178">
        <ele>10.48</ele>
        <time>2021-03-20T14:53:39Z</time>
      </trkpt>
      <trkpt lat="56.45063" lon="-6.1211">
        <ele>10.81</ele>
        <time>2021-03-20T14:53:42Z</time>
      </trkpt>
      <trkpt lat="56.45069" lon="-6.12067">
        <ele>9.13</ele>
        <time>2021-03-20T14:53:44Z</time>
      </trkpt>
      <trkpt lat="56.45074" lon="-6.12047">
        <ele>9.03</ele>
        <time>2021-03-20T14:53:46Z</time>
      </trkpt>
      <trkpt lat="56.45085" lon="-6.12008">
        <ele>8.13</ele>
        <time>2021-03-20T14:53:49Z</time>
      </trkpt>
      <trkpt lat="56.45112" lon="-6.11925">
        <ele>6.84</ele>
        <time>2021-03-20T14:53:51Z</time>
      </trkpt>
      <trkpt lat="56.45119" lon="-6.11881">
        <ele>12.77</ele>
        <time>2021-03-20T14:53:53Z</time>
      </trkpt>
      <trkpt lat="56.45123" lon="-6.11846">
        <ele>15.5</ele>
        <time>2021-03-20T14:53:56Z</time>
      </trkpt>
      <trkpt lat="56.45123" lon="-6.11788">
        <ele>15.78</ele>
        <time>2021-03-20T14:53:58Z</time>
      </trkpt>
      <trkpt lat="56.45109" lon="-6.11692">
        <ele>5.62</ele>
        <time>2021-03-20T14:54:00Z</time>
      </trkpt>
      <trkpt lat="56.45099" lon="-6.11569">
        <ele>7.95</ele>
        <time>2021-03-20T14:54:03Z</time>
      </trkpt>
      <trkpt lat="56.45097" lon="-6.11262">
        <ele>11.77</ele>
        <time>2021-03-20T14:54:05Z</time>
      </trkpt>
      <trkpt lat="56.45091" lon="-6.11149">
        <ele>14.21</ele>
        <time>2021-03-20T14:54:07Z</time>
      </trkpt>
      <trkpt lat="56.45089" lon="-6.11129">
        <ele>13.06</ele>
        <time>2021-03-20T14:54:10Z</time>
      </trkpt>
      <trkpt lat="56.45071" lon="-6.11038">
        <ele>12.67</ele>
        <time>2021-03-20T14:54:12Z</time>
      </trkpt>
      <trkpt lat="56.4506" lon="-6.10885">
        <ele>10.51</ele>
        <time>2021-03-20T14:54:14Z</time>
      </trkpt>
      <trkpt lat="56.45058" lon="-6.10832">
        <ele>9.71</ele>
        <time>2021-03-20T14:54:17Z</time>
      </trkpt>
      <trkpt lat="56.45058" lon="-6.10729">
        <ele>11.48</ele>
        <time>2021-03-20T14:54:19Z</time>
      </trkpt>
      <trkpt lat="56.45065" lon="-6.10671">
        <ele>12.32</ele>
        <time>2021-03-20T14:54:21Z</time>
      </trkpt>
      <trkpt lat="56.45067" lon="-6.10629">
        <ele>15.21</ele>
        <time>2021-03-20T14:54:24Z</time>
      </trkpt>
      <trkpt lat="56.45066" lon="-6.10565">
        <ele>17.24</ele>
        <time>2021-03-20T14:54:26Z</time>
      </trkpt>
      <trkpt lat="56.45059" lon="-6.10437">
        <ele>2.11</ele>
        <time>2021-03-20T14:54:28Z</time>
      </trkpt>
      <trkpt lat="56.4505" lon="-6.10365">
        <ele>7.43</ele>
        <time>2021-03-20T14:54:31Z</time>
      </trkpt>
      <trkpt lat="56.45051" lon="-6.10323">
        <ele>7.35</ele>
        <time>2021-03-20T14:54:33Z</time>
      </trkpt>
      <trkpt lat="56.45046" lon="-6.10216">
        <ele>12.84</ele>
        <time>2021-03-20T14:54:35Z</time>
      </trkpt>
      <trkpt lat="56.45043" lon="-6.10181">
        <ele>21.43</ele>
        <time>2021-03-20T14:54:38Z</time>
      </trkpt>
      <trkpt lat="56.45043" lon="-6.10155">
        <ele>24.13</ele>
        <time>2021-03-20T14:54:40Z</time>
      </trkpt>
      <trkpt lat="56.45052" lon="-6.1011">
        <ele>18.59</ele>
        <time>2021-03-20T14:54:42Z</time>
      </trkpt>
      <trkpt lat="56.45052" lon="-6.10064">
        <ele>15.62</ele>
        <time>2021-03-20T14:54:44Z</time>
      </trkpt>
      <trkpt lat="56.4505" lon="-6.10019">
        <ele>14.91</ele>
        <time>2021-03-20T14:54:47Z</time>
      </trkpt>
      <trkpt lat="56.45059" lon="-6.09963">
        <ele>7.49</ele>
        <time>2021-03-20T14:54:49Z</time>
      </trkpt>
      <trkpt lat="56.45063" lon="-6.09923">
        <ele>5.3</ele>
        <time>2021-03-20T14:54:51Z</time>
      </trkpt>
      <trkpt lat="56.45064" lon="-6.09881">
        <ele>5.23</ele>
        <time>2021-03-20T14:54:54Z</time>
      </trkpt>
      <trkpt lat="56.4506" lon="-6.09865">
        <ele>5.43</ele>
        <time>2021-03-20T14:54:56Z</time>
      </trkpt>
      <trkpt lat="56.44992" lon="-6.09694">
        <ele>4.95</ele>
        <time>2021-03-20T14:54:58Z</time>
      </trkpt>
      <trkpt lat="56.44963" lon="-6.09609">
        <ele>7.1</ele>
        <time>2021-03-20T14:55:01Z</time>
      </trkpt>
      <trkpt lat="56.44956" lon="-6.0958">
        <ele>8.49</ele>
        <time>2021-03-20T14:55:03Z</time>
      </trkpt>
      <trkpt lat="56.44951" lon="-6.09547">
        <ele>8.24</ele>
        <time>2021-03-20T14:55:05Z</time>
      </trkpt>
      <trkpt lat="56.44939" lon="-6.09338">
        <ele>5.06</ele>
        <time>2021-03-20T14:55:08Z</time>
      </trkpt>
      <trkpt lat="56.44934" lon="-6.09268">
        <ele>9.05</ele>
        <time>2021-03-20T14:55:10Z</time>
      </trkpt>
      <trkpt lat="56.4493" lon="-6.09231">
        <ele>13.04</ele>
        <time>2021-03-20T14:55:12Z</time>
      </trkpt>
      <trkpt lat="56.44907" lon="-6.09146">
        <ele>5.13</ele>
        <time>2021-03-20T14:55:15Z</time>
      </trkpt>
      <trkpt lat="56.44884" lon="-6.09079">
        <ele>6.62</ele>
        <time>2021-03-20T14:55:17Z</time>
      </trkpt>
      <trkpt lat="56.44875" lon="-6.09046">
        <ele>8.82</ele>
        <time>2021-03-20T14:55:19Z</time>
      </trkpt>
      <trkpt lat="56.44868" lon="-6.09013">
        <ele>9.94</ele>
        <time>2021-03-20T14:55:22Z</time>
      </trkpt>
      <trkpt lat="56.44864" lon="-6.08943">
        <ele>8.74</ele>
        <time>2021-03-20T14:55:24Z</time>
      </trkpt>
      <trkpt lat="56.44858" lon="-6.08817">
        <ele>13.24</ele>
        <time>2021-03-20T14:55:26Z</time>
      </trkpt>
      <trkpt lat="56.44856" lon="-6.08792">
        <ele>12.01</ele>
        <time>2021-03-20T14:55:29Z</time>
      </trkpt>
      <trkpt lat="56.44833" lon="-6.08647">
        <ele>14.19</ele>
        <time>2021-03-20T14:55:31Z</time>
      </trkpt>
      <trkpt lat="56.44826" lon="-6.08609">
        <ele>11.74</ele>
        <time>2021-03-20T14:55:33Z</time>
      </trkpt>
      <trkpt lat="56.44817" lon="-6.08574">
        <ele>8.06</ele>
        <time>2021-03-20T14:55:36Z</time>
      </trkpt>
      <trkpt lat="56.44789" lon="-6.08483">
        <ele>9.34</ele>
        <time>2021-03-20T14:55:38Z</time>
      </trkpt>
      <trkpt lat="56.44786" lon="-6.08465">
        <ele>9.86</ele>
        <time>2021-03-20T14:55:40Z</time>
      </trkpt>
      <trkpt lat="56.44785" lon="-6.08443">
        <ele>8.49</ele>
        <time>2021-03-20T14:55:43Z</time>
      </trkpt>
      <trkpt lat="56.44792" lon="-6.08321">
        <ele>13.68</ele>
        <time>2021-03-20T14:55:45Z</time>
      </trkpt>
      <trkpt lat="56.44805" lon="-6.08186">
        <ele>28.26</ele>
        <time>2021-03-20T14:55:47Z</time>
      </trkpt>
      <trkpt lat="56.44804" lon="-6.08166">
        <ele>27</ele>
        <time>2021-03-20T14:55:50Z</time>
      </trkpt>
      <trkpt lat="56.44803" lon="-6.08147">
        <ele>25.4</ele>
        <time>2021-03-20T14:55:52Z</time>
      </trkpt>
      <trkpt lat="56.44763" lon="-6.07949">
        <ele>2.8</ele>
        <time>2021-03-20T14:55:54Z</time>
      </trkpt>
      <trkpt lat="56.44753" lon="-6.07886">
        <ele>2.81</ele>
        <time>2021-03-20T14:55:57Z</time>
      </trkpt>
      <trkpt lat="56.44757" lon="-6.07815">
        <ele>1.74</ele>
        <time>2021-03-20T14:55:59Z</time>
      </trkpt>
      <trkpt lat="56.44772" lon="-6.07666">
        <ele>4.05</ele>
        <time>2021-03-20T14:56:01Z</time>
      </trkpt>
      <trkpt lat="56.4481" lon="-6.07375">
        <ele>2.83</ele>
        <time>2021-03-20T14:56:04Z</time>
      </trkpt>
      <trkpt lat="56.44813" lon="-6.07344">
        <ele>3.37</ele>
        <time>2021-03-20T14:56:06Z</time>
      </trkpt>
      <trkpt lat="56.44811" lon="-6.07313">
        <ele>3.82</ele>
        <time>2021-03-20T14:56:08Z</time>
      </trkpt>
      <trkpt lat="56.44779" lon="-6.0719">
        <ele>4.73</ele>
        <time>2021-03-20T14:56:11Z</time>
      </trkpt>
      <trkpt lat="56.44777" lon="-6.0717">
        <ele>4.17</ele>
        <time>2021-03-20T14:56:13Z</time>
      </trkpt>
      <trkpt lat="56.44778" lon="-6.07155">
        <ele>4.02</ele>
        <time>2021-03-20T14:56:15Z</time>
      </trkpt>
      <trkpt lat="56.4478" lon="-6.07138">
        <ele>3.84</ele>
        <time>2021-03-20T14:56:18Z</time>
      </trkpt>
      <trkpt lat="56.44885" lon="-6.06831">
        <ele>4.26</ele>
        <time>2021-03-20T14:56:20Z</time>
      </trkpt>
      <trkpt lat="56.44904" lon="-6.06766">
        <ele>4.76</ele>
        <time>2021-03-20T14:56:22Z</time>
      </trkpt>
      <trkpt lat="56.44908" lon="-6.06726">
        <ele>5.66</ele>
        <time>2021-03-20T14:56:25Z</time>
      </trkpt>
      <trkpt lat="56.44913" lon="-6.06643">
        <ele>7.61</ele>
        <time>2021-03-20T14:56:27Z</time>
      </trkpt>
      <trkpt lat="56.44917" lon="-6.06602">
        <ele>4.02</ele>
        <time>2021-03-20T14:56:29Z</time>
      </trkpt>
      <trkpt lat="56.44932" lon="-6.06496">
        <ele>3.37</ele>
        <time>2021-03-20T14:56:32Z</time>
      </trkpt>
      <trkpt lat="56.44938" lon="-6.06415">
        <ele>4.25</ele>
        <time>2021-03-20T14:56:34Z</time>
      </trkpt>
      <trkpt lat="56.44942" lon="-6.0639">
        <ele>4.58</ele>
        <time>2021-03-20T14:56:36Z</time>
      </trkpt>
      <trkpt lat="56.44947" lon="-6.06369">
        <ele>4.51</ele>
        <time>2021-03-20T14:56:39Z</time>
      </trkpt>
      <trkpt lat="56.44969" lon="-6.06313">
        <ele>5.11</ele>
        <time>2021-03-20T14:56:41Z</time>
      </trkpt>
      <trkpt lat="56.44991" lon="-6.06261">
        <ele>4.56</ele>
        <time>2021-03-20T14:56:43Z</time>
      </trkpt>
      <trkpt lat="56.45017" lon="-6.06213">
        <ele>3.64</ele>
        <time>2021-03-20T14:56:46Z</time>
      </trkpt>
      <trkpt lat="56.45026" lon="-6.06191">
        <ele>2.41</ele>
        <time>2021-03-20T14:56:48Z</time>
      </trkpt>
      <trkpt lat="56.45034" lon="-6.06168">
        <ele>3.63</ele>
        <time>2021-03-20T14:56:50Z</time>
      </trkpt>
      <trkpt lat="56.45045" lon="-6.06113">
        <ele>2.64</ele>
        <time>2021-03-20T14:56:53Z</time>
      </trkpt>
      <trkpt lat="56.45084" lon="-6.05854">
        <ele>5.5</ele>
        <time>2021-03-20T14:56:55Z</time>
      </trkpt>
      <trkpt lat="56.45104" lon="-6.05742">
        <ele>8.04</ele>
        <time>2021-03-20T14:56:57Z</time>
      </trkpt>
      <trkpt lat="56.45108" lon="-6.05628">
        <ele>4.28</ele>
        <time>2021-03-20T14:57:00Z</time>
      </trkpt>
      <trkpt lat="56.45117" lon="-6.0556">
        <ele>5.24</ele>
        <time>2021-03-20T14:57:02Z</time>
      </trkpt>
      <trkpt lat="56.45122" lon="-6.05488">
        <ele>7.72</ele>
        <time>2021-03-20T14:57:04Z</time>
      </trkpt>
      <trkpt lat="56.45125" lon="-6.05461">
        <ele>8.88</ele>
        <time>2021-03-20T14:57:07Z</time>
      </trkpt>
      <trkpt lat="56.45131" lon="-6.05445">
        <ele>8.65</ele>
        <time>2021-03-20T14:57:09Z</time>
      </trkpt>
      <trkpt lat="56.45137" lon="-6.05431">
        <ele>7.98</ele>
        <time>2021-03-20T14:57:11Z</time>
      </trkpt>
      <trkpt lat="56.45201" lon="-6.05348">
        <ele>5.46</ele>
        <time>2021-03-20T14:57:14Z</time>
      </trkpt>
      <trkpt lat="56.45261" lon="-6.0526">
        <ele>4.72</ele>
        <time>2021-03-20T14:57:16Z</time>
      </trkpt>
      <trkpt lat="56.45273" lon="-6.05245">
        <ele>5.03</ele>
        <time>2021-03-20T14:57:18Z</time>
      </trkpt>
      <trkpt lat="56.45313" lon="-6.05211">
        <ele>5.27</ele>
        <time>2021-03-20T14:57:21Z</time>
      </trkpt>
      <trkpt lat="56.45364" lon="-6.05176">
        <ele>8.35</ele>
        <time>2021-03-20T14:57:23Z</time>
      </trkpt>
      <trkpt lat="56.45377" lon="-6.05151">
        <ele>9.57</ele>
        <time>2021-03-20T14:57:25Z</time>
      </trkpt>
      <trkpt lat="56.45384" lon="-6.05133">
        <ele>10.07</ele>
        <time>2021-03-20T14:57:28Z</time>
      </trkpt>
      <trkpt lat="56.4542" lon="-6.05023">
        <ele>4.84</ele>
        <time>2021-03-20T14:57:30Z</time>
      </trkpt>
      <trkpt lat="56.45433" lon="-6.04991">
        <ele>5.16</ele>
        <time>2021-03-20T14:57:32Z</time>
      </trkpt>
      <trkpt lat="56.45439" lon="-6.04979">
        <ele>5.11</ele>
        <time>2021-03-20T14:57:35Z</time>
      </trkpt>
      <trkpt lat="56.45446" lon="-6.04972">
        <ele>4.98</ele>
        <time>2021-03-20T14:57:37Z</time>
      </trkpt>
      <trkpt lat="56.45467" lon="-6.04958">
        <ele>5.16</ele>
        <time>2021-03-20T14:57:39Z</time>
      </trkpt>
      <trkpt lat="56.45563" lon="-6.04926">
        <ele>4.14</ele>
        <time>2021-03-20T14:57:42Z</time>
      </trkpt>
      <trkpt lat="56.45602" lon="-6.04901">
        <ele>3.76</ele>
        <time>2021-03-20T14:57:44Z</time>
      </trkpt>
      <trkpt lat="56.45666" lon="-6.04847">
        <ele>5.54</ele>
        <time>2021-03-20T14:57:46Z</time>
      </trkpt>
      <trkpt lat="56.45699" lon="-6.04816">
        <ele>4.38</ele>
        <time>2021-03-20T14:57:49Z</time>
      </trkpt>
      <trkpt lat="56.45764" lon="-6.04745">
        <ele>3.68</ele>
        <time>2021-03-20T14:57:51Z</time>
      </trkpt>
      <trkpt lat="56.45795" lon="-6.04707">
        <ele>3.91</ele>
        <time>2021-03-20T14:57:53Z</time>
      </trkpt>
      <trkpt lat="56.45823" lon="-6.04661">
        <ele>5.65</ele>
        <time>2021-03-20T14:57:56Z</time>
      </trkpt>
      <trkpt lat="56.4584" lon="-6.04638">
        <ele>5.57</ele>
        <time>2021-03-20T14:57:58Z</time>
      </trkpt>
      <trkpt lat="56.45886" lon="-6.04588">
        <ele>5.95</ele>
        <time>2021-03-20T14:58:00Z</time>
      </trkpt>
      <trkpt lat="56.45917" lon="-6.04548">
        <ele>6.25</ele>
        <time>2021-03-20T14:58:03Z</time>
      </trkpt>
      <trkpt lat="56.45934" lon="-6.04524">
        <ele>6.68</ele>
        <time>2021-03-20T14:58:05Z</time>
      </trkpt>
      <trkpt lat="56.45985" lon="-6.04423">
        <ele>5.87</ele>
        <time>2021-03-20T14:58:07Z</time>
      </trkpt>
      <trkpt lat="56.46057" lon="-6.043">
        <ele>4.16</ele>
        <time>2021-03-20T14:58:10Z</time>
      </trkpt>
      <trkpt lat="56.46135" lon="-6.04136">
        <ele>10.14</ele>
        <time>2021-03-20T14:58:12Z</time>
      </trkpt>
      <trkpt lat="56.46168" lon="-6.04047">
        <ele>9.93</ele>
        <time>2021-03-20T14:58:14Z</time>
      </trkpt>
      <trkpt lat="56.46198" lon="-6.03952">
        <ele>8.82</ele>
        <time>2021-03-20T14:58:17Z</time>
      </trkpt>
      <trkpt lat="56.46236" lon="-6.03809">
        <ele>8.51</ele>
        <time>2021-03-20T14:58:19Z</time>
      </trkpt>
      <trkpt lat="56.46284" lon="-6.03591">
        <ele>6.77</ele>
        <time>2021-03-20T14:58:21Z</time>
      </trkpt>
      <trkpt lat="56.46288" lon="-6.03562">
        <ele>6.33</ele>
        <time>2021-03-20T14:58:24Z</time>
      </trkpt>
      <trkpt lat="56.46298" lon="-6.03469">
        <ele>4.5</ele>
        <time>2021-03-20T14:58:26Z</time>
      </trkpt>
      <trkpt lat="56.46304" lon="-6.03434">
        <ele>4.07</ele>
        <time>2021-03-20T14:58:28Z</time>
      </trkpt>
      <trkpt lat="56.4632" lon="-6.03378">
        <ele>4</ele>
        <time>2021-03-20T14:58:31Z</time>
      </trkpt>
      <trkpt lat="56.46331" lon="-6.03349">
        <ele>4.45</ele>
        <time>2021-03-20T14:58:33Z</time>
      </trkpt>
      <trkpt lat="56.46359" lon="-6.03284">
        <ele>5</ele>
        <time>2021-03-20T14:58:35Z</time>
      </trkpt>
      <trkpt lat="56.46387" lon="-6.03226">
        <ele>4.87</ele>
        <time>2021-03-20T14:58:38Z</time>
      </trkpt>
      <trkpt lat="56.46401" lon="-6.03213">
        <ele>4.57</ele>
        <time>2021-03-20T14:58:40Z</time>
      </trkpt>
      <trkpt lat="56.46476" lon="-6.03161">
        <ele>5.3</ele>
        <time>2021-03-20T14:58:42Z</time>
      </trkpt>
      <trkpt lat="56.46489" lon="-6.03149">
        <ele>5.86</ele>
        <time>2021-03-20T14:58:45Z</time>
      </trkpt>
      <trkpt lat="56.46502" lon="-6.03133">
        <ele>6.13</ele>
        <time>2021-03-20T14:58:47Z</time>
      </trkpt>
      <trkpt lat="56.46545" lon="-6.03057">
        <ele>4.22</ele>
        <time>2021-03-20T14:58:49Z</time>
      </trkpt>
      <trkpt lat="56.46549" lon="-6.03041">
        <ele>3.67</ele>
        <time>2021-03-20T14:58:52Z</time>
      </trkpt>
      <trkpt lat="56.46562" lon="-6.02976">
        <ele>3</ele>
        <time>2021-03-20T14:58:54Z</time>
      </trkpt>
      <trkpt lat="56.46623" lon="-6.02781">
        <ele>4.05</ele>
        <time>2021-03-20T14:58:56Z</time>
      </trkpt>
      <trkpt lat="56.46629" lon="-6.02752">
        <ele>3.71</ele>
        <time>2021-03-20T14:58:59Z</time>
      </trkpt>
      <trkpt lat="56.46633" lon="-6.02719">
        <ele>4.2</ele>
        <time>2021-03-20T14:59:01Z</time>
      </trkpt>
      <trkpt lat="56.46646" lon="-6.02449">
        <ele>3.73</ele>
        <time>2021-03-20T14:59:03Z</time>
      </trkpt>
      <trkpt lat="56.46649" lon="-6.02413">
        <ele>3.66</ele>
        <time>2021-03-20T14:59:06Z</time>
      </trkpt>
      <trkpt lat="56.46665" lon="-6.02278">
        <ele>4.29</ele>
        <time>2021-03-20T14:59:08Z</time>
      </trkpt>
      <trkpt lat="56.4667" lon="-6.02077">
        <ele>6.76</ele>
        <time>2021-03-20T14:59:10Z</time>
      </trkpt>
      <trkpt lat="56.46675" lon="-6.02053">
        <ele>6.82</ele>
        <time>2021-03-20T14:59:13Z</time>
      </trkpt>
      <trkpt lat="56.46682" lon="-6.02032">
        <ele>6.14</ele>
        <time>2021-03-20T14:59:15Z</time>
      </trkpt>
      <trkpt lat="56.46733" lon="-6.01902">
        <ele>5.11</ele>
        <time>2021-03-20T14:59:17Z</time>
      </trkpt>
      <trkpt lat="56.4674" lon="-6.01876">
        <ele>5.39</ele>
        <time>2021-03-20T14:59:20Z</time>
      </trkpt>
      <trkpt lat="56.46753" lon="-6.01817">
        <ele>5.94</ele>
        <time>2021-03-20T14:59:22Z</time>
      </trkpt>
      <trkpt lat="56.4676" lon="-6.01789">
        <ele>7.22</ele>
        <time>2021-03-20T14:59:24Z</time>
      </trkpt>
      <trkpt lat="56.46778" lon="-6.01742">
        <ele>7.84</ele>
        <time>2021-03-20T14:59:27Z</time>
      </trkpt>
      <trkpt lat="56.46787" lon="-6.01727">
        <ele>7.82</ele>
        <time>2021-03-20T14:59:29Z</time>
      </trkpt>
      <trkpt lat="56.46799" lon="-6.01717">
        <ele>7.02</ele>
        <time>2021-03-20T14:59:31Z</time>
      </trkpt>
      <trkpt lat="56.46903" lon="-6.01662">
        <ele>8.1</ele>
        <time>2021-03-20T14:59:34Z</time>
      </trkpt>
      <trkpt lat="56.46949" lon="-6.01634">
        <ele>6.97</ele>
        <time>2021-03-20T14:59:36Z</time>
      </trkpt>
      <trkpt lat="56.46974" lon="-6.01614">
        <ele>4.63</ele>
        <time>2021-03-20T14:59:38Z</time>
      </trkpt>
      <trkpt lat="56.47004" lon="-6.01575">
        <ele>4.29</ele>
        <time>2021-03-20T14:59:41Z</time>
      </trkpt>
      <trkpt lat="56.47015" lon="-6.01557">
        <ele>4.25</ele>
        <time>2021-03-20T14:59:43Z</time>
      </trkpt>
      <trkpt lat="56.47039" lon="-6.01514">
        <ele>4.64</ele>
        <time>2021-03-20T14:59:45Z</time>
      </trkpt>
      <trkpt lat="56.4708" lon="-6.01456">
        <ele>4.71</ele>
        <time>2021-03-20T14:59:48Z</time>
      </trkpt>
      <trkpt lat="56.4711" lon="-6.0142">
        <ele>5.81</ele>
        <time>2021-03-20T14:59:50Z</time>
      </trkpt>
      <trkpt lat="56.47124" lon="-6.01409">
        <ele>8.63</ele>
        <time>2021-03-20T14:59:52Z</time>
      </trkpt>
      <trkpt lat="56.47148" lon="-6.01395">
        <ele>7.49</ele>
        <time>2021-03-20T14:59:55Z</time>
      </trkpt>
      <trkpt lat="56.47153" lon="-6.01387">
        <ele>6.61</ele>
        <time>2021-03-20T14:59:57Z</time>
      </trkpt>
      <trkpt lat="56.47157" lon="-6.01375">
        <ele>7.03</ele>
        <time>2021-03-20T14:59:59Z</time>
      </trkpt>
      <trkpt lat="56.47167" lon="-6.01336">
        <ele>7.9</ele>
        <time>2021-03-20T15:00:02Z</time>
      </trkpt>
      <trkpt lat="56.47176" lon="-6.01313">
        <ele>7.43</ele>
        <time>2021-03-20T15:00:04Z</time>
      </trkpt>
      <trkpt lat="56.47188" lon="-6.01294">
        <ele>6.78</ele>
        <time>2021-03-20T15:00:06Z</time>
      </trkpt>
      <trkpt lat="56.47204" lon="-6.01281">
        <ele>6.14</ele>
        <time>2021-03-20T15:00:09Z</time>
      </trkpt>
      <trkpt lat="56.47227" lon="-6.01266">
        <ele>5.64</ele>
        <time>2021-03-20T15:00:11Z</time>
      </trkpt>
      <trkpt lat="56.47289" lon="-6.01216">
        <ele>5.64</ele>
        <time>2021-03-20T15:00:13Z</time>
      </trkpt>
      <trkpt lat="56.4732" lon="-6.01185">
        <ele>5.62</ele>
        <time>2021-03-20T15:00:16Z</time>
      </trkpt>
      <trkpt lat="56.47333" lon="-6.01168">
        <ele>5.93</ele>
        <time>2021-03-20T15:00:18Z</time>
      </trkpt>
      <trkpt lat="56.47343" lon="-6.01152">
        <ele>5.45</ele>
        <time>2021-03-20T15:00:20Z</time>
      </trkpt>
      <trkpt lat="56.47352" lon="-6.01134">
        <ele>5.25</ele>
        <time>2021-03-20T15:00:23Z</time>
      </trkpt>
      <trkpt lat="56.47386" lon="-6.01038">
        <ele>6.68</ele>
        <time>2021-03-20T15:00:25Z</time>
      </trkpt>
      <trkpt lat="56.47392" lon="-6.01025">
        <ele>6.9</ele>
        <time>2021-03-20T15:00:27Z</time>
      </trkpt>
      <trkpt lat="56.47399" lon="-6.01015">
        <ele>6.86</ele>
        <time>2021-03-20T15:00:30Z</time>
      </trkpt>
      <trkpt lat="56.47446" lon="-6.0097">
        <ele>5.2</ele>
        <time>2021-03-20T15:00:32Z</time>
      </trkpt>
      <trkpt lat="56.47462" lon="-6.00957">
        <ele>5.66</ele>
        <time>2021-03-20T15:00:34Z</time>
      </trkpt>
      <trkpt lat="56.47534" lon="-6.00922">
        <ele>4.8</ele>
        <time>2021-03-20T15:00:37Z</time>
      </trkpt>
      <trkpt lat="56.47665" lon="-6.00864">
        <ele>4.1</ele>
        <time>2021-03-20T15:00:39Z</time>
      </trkpt>
      <trkpt lat="56.47683" lon="-6.00849">
        <ele>3.87</ele>
        <time>2021-03-20T15:00:41Z</time>
      </trkpt>
      <trkpt lat="56.47695" lon="-6.00824">
        <ele>4.31</ele>
        <time>2021-03-20T15:00:44Z</time>
      </trkpt>
      <trkpt lat="56.47708" lon="-6.00781">
        <ele>4.91</ele>
        <time>2021-03-20T15:00:46Z</time>
      </trkpt>
      <trkpt lat="56.47719" lon="-6.00734">
        <ele>4.21</ele>
        <time>2021-03-20T15:00:48Z</time>
      </trkpt>
      <trkpt lat="56.47725" lon="-6.00695">
        <ele>4</ele>
        <time>2021-03-20T15:00:51Z</time>
      </trkpt>
      <trkpt lat="56.4773" lon="-6.00616">
        <ele>3.71</ele>
        <time>2021-03-20T15:00:53Z</time>
      </trkpt>
      <trkpt lat="56.47751" lon="-6.00435">
        <ele>4.24</ele>
        <time>2021-03-20T15:00:55Z</time>
      </trkpt>
      <trkpt lat="56.4777" lon="-6.00297">
        <ele>6.21</ele>
        <time>2021-03-20T15:00:58Z</time>
      </trkpt>
      <trkpt lat="56.47772" lon="-6.00259">
        <ele>6.05</ele>
        <time>2021-03-20T15:01:00Z</time>
      </trkpt>
      <trkpt lat="56.47772" lon="-6.00151">
        <ele>7.96</ele>
        <time>2021-03-20T15:01:02Z</time>
      </trkpt>
      <trkpt lat="56.47775" lon="-6.00102">
        <ele>8.41</ele>
        <time>2021-03-20T15:01:05Z</time>
      </trkpt>
      <trkpt lat="56.4778" lon="-6.00051">
        <ele>8.99</ele>
        <time>2021-03-20T15:01:07Z</time>
      </trkpt>
      <trkpt lat="56.47786" lon="-6.0002">
        <ele>9.7</ele>
        <time>2021-03-20T15:01:09Z</time>
      </trkpt>
      <trkpt lat="56.47793" lon="-5.99992">
        <ele>10.18</ele>
        <time>2021-03-20T15:01:12Z</time>
      </trkpt>
      <trkpt lat="56.47804" lon="-5.99961">
        <ele>10.93</ele>
        <time>2021-03-20T15:01:14Z</time>
      </trkpt>
      <trkpt lat="56.47855" lon="-5.99832">
        <ele>12.48</ele>
        <time>2021-03-20T15:01:16Z</time>
      </trkpt>
      <trkpt lat="56.4786" lon="-5.99815">
        <ele>12.1</ele>
        <time>2021-03-20T15:01:19Z</time>
      </trkpt>
      <trkpt lat="56.47866" lon="-5.9978">
        <ele>11.66</ele>
        <time>2021-03-20T15:01:21Z</time>
      </trkpt>
      <trkpt lat="56.47884" lon="-5.99547">
        <ele>16.69</ele>
        <time>2021-03-20T15:01:23Z</time>
      </trkpt>
      <trkpt lat="56.47887" lon="-5.9949">
        <ele>19.09</ele>
        <time>2021-03-20T15:01:26Z</time>
      </trkpt>
      <trkpt lat="56.47888" lon="-5.99432">
        <ele>20.09</ele>
        <time>2021-03-20T15:01:28Z</time>
      </trkpt>
      <trkpt lat="56.47888" lon="-5.99384">
        <ele>20.12</ele>
        <time>2021-03-20T15:01:30Z</time>
      </trkpt>
      <trkpt lat="56.47886" lon="-5.99342">
        <ele>19.85</ele>
        <time>2021-03-20T15:01:33Z</time>
      </trkpt>
      <trkpt lat="56.47879" lon="-5.99252">
        <ele>25.99</ele>
        <time>2021-03-20T15:01:35Z</time>
      </trkpt>
      <trkpt lat="56.47874" lon="-5.99217">
        <ele>29.07</ele>
        <time>2021-03-20T15:01:37Z</time>
      </trkpt>
      <trkpt lat="56.47864" lon="-5.99187">
        <ele>30.87</ele>
        <time>2021-03-20T15:01:40Z</time>
      </trkpt>
      <trkpt lat="56.47816" lon="-5.99066">
        <ele>29.3</ele>
        <time>2021-03-20T15:01:42Z</time>
      </trkpt>
      <trkpt lat="56.47804" lon="-5.99047">
        <ele>29.65</ele>
        <time>2021-03-20T15:01:44Z</time>
      </trkpt>
      <trkpt lat="56.47777" lon="-5.98967">
        <ele>27.52</ele>
        <time>2021-03-20T15:01:47Z</time>
      </trkpt>
      <trkpt lat="56.47724" lon="-5.98743">
        <ele>19.58</ele>
        <time>2021-03-20T15:01:49Z</time>
      </trkpt>
      <trkpt lat="56.47725" lon="-5.98715">
        <ele>18.9</ele>
        <time>2021-03-20T15:01:51Z</time>
      </trkpt>
      <trkpt lat="56.47729" lon="-5.9871">
        <ele>18.76</ele>
        <time>2021-03-20T15:01:54Z</time>
      </trkpt>
      <trkpt lat="56.47757" lon="-5.98708">
        <ele>18</ele>
        <time>2021-03-20T15:01:56Z</time>
      </trkpt>
      <trkpt lat="56.47794" lon="-5.98694">
        <ele>18.01</ele>
        <time>2021-03-20T15:01:58Z</time>
      </trkpt>
      <trkpt lat="56.4781" lon="-5.98671">
        <ele>17.73</ele>
        <time>2021-03-20T15:02:01Z</time>
      </trkpt>
      <trkpt lat="56.47824" lon="-5.98663">
        <ele>16.62</ele>
        <time>2021-03-20T15:02:03Z</time>
      </trkpt>
      <trkpt lat="56.47861" lon="-5.98672">
        <ele>15.03</ele>
        <time>2021-03-20T15:02:05Z</time>
      </trkpt>
      <trkpt lat="56.47876" lon="-5.98678">
        <ele>15.86</ele>
        <time>2021-03-20T15:02:08Z</time>
      </trkpt>
      <trkpt lat="56.47882" lon="-5.98693">
        <ele>15.79</ele>
        <time>2021-03-20T15:02:10Z</time>
      </trkpt>
      <trkpt lat="56.47897" lon="-5.98751">
        <ele>15.28</ele>
        <time>2021-03-20T15:02:12Z</time>
      </trkpt>
      <trkpt lat="56.47909" lon="-5.98785">
        <ele>14.46</ele>
        <time>2021-03-20T15:02:15Z</time>
      </trkpt>
      <trkpt lat="56.47923" lon="-5.98814">
        <ele>13.92</ele>
        <time>2021-03-20T15:02:17Z</time>
      </trkpt>
      <trkpt lat="56.47976" lon="-5.98875">
        <ele>13.22</ele>
        <time>2021-03-20T15:02:19Z</time>
      </trkpt>
      <trkpt lat="56.48016" lon="-5.98889">
        <ele>14.59</ele>
        <time>2021-03-20T15:02:22Z</time>
      </trkpt>
      <trkpt lat="56.48147" lon="-5.98908">
        <ele>12.64</ele>
        <time>2021-03-20T15:02:24Z</time>
      </trkpt>
      <trkpt lat="56.48383" lon="-5.99">
        <ele>12.33</ele>
        <time>2021-03-20T15:02:26Z</time>
      </trkpt>
      <trkpt lat="56.48504" lon="-5.99043">
        <ele>15.69</ele>
        <time>2021-03-20T15:02:29Z</time>
      </trkpt>
      <trkpt lat="56.48563" lon="-5.99051">
        <ele>12.74</ele>
        <time>2021-03-20T15:02:31Z</time>
      </trkpt>
      <trkpt lat="56.48621" lon="-5.99051">
        <ele>12.3</ele>
        <time>2021-03-20T15:02:33Z</time>
      </trkpt>
      <trkpt lat="56.48795" lon="-5.99025">
        <ele>12.96</ele>
        <time>2021-03-20T15:02:36Z</time>
      </trkpt>
      <trkpt lat="56.48859" lon="-5.99005">
        <ele>13.75</ele>
        <time>2021-03-20T15:02:38Z</time>
      </trkpt>
      <trkpt lat="56.49038" lon="-5.98945">
        <ele>12.63</ele>
        <time>2021-03-20T15:02:40Z</time>
      </trkpt>
      <trkpt lat="56.49067" lon="-5.98933">
        <ele>12</ele>
        <time>2021-03-20T15:02:43Z</time>
      </trkpt>
      <trkpt lat="56.49074" lon="-5.98932">
        <ele>12</ele>
        <time>2021-03-20T15:02:45Z</time>
      </trkpt>
      <trkpt lat="56.49198" lon="-5.98884">
        <ele>12.08</ele>
        <time>2021-03-20T15:02:47Z</time>
      </trkpt>
      <trkpt lat="56.49306" lon="-5.98815">
        <ele>10.95</ele>
        <time>2021-03-20T15:02:50Z</time>
      </trkpt>
      <trkpt lat="56.49382" lon="-5.98758">
        <ele>10</ele>
        <time>2021-03-20T15:02:52Z</time>
      </trkpt>
      <trkpt lat="56.49406" lon="-5.98736">
        <ele>10.49</ele>
        <time>2021-03-20T15:02:54Z</time>
      </trkpt>
      <trkpt lat="56.49645" lon="-5.98199">
        <ele>12.44</ele>
        <time>2021-03-20T15:02:59Z</time>
      </trkpt>
      <trkpt lat="56.49729" lon="-5.97903">
        <ele>16.12</ele>
        <time>2021-03-20T15:03:04Z</time>
      </trkpt>
      <trkpt lat="56.49764" lon="-5.97802">
        <ele>16.59</ele>
        <time>2021-03-20T15:03:09Z</time>
      </trkpt>
      <trkpt lat="56.49792" lon="-5.97746">
        <ele>19.1</ele>
        <time>2021-03-20T15:03:14Z</time>
      </trkpt>
      <trkpt lat="56.49825" lon="-5.977">
        <ele>20.71</ele>
        <time>2021-03-20T15:03:19Z</time>
      </trkpt>
      <trkpt lat="56.50551" lon="-5.9676">
        <ele>23</ele>
        <time>2021-03-20T15:03:24Z</time>
      </trkpt>
      <trkpt lat="56.50572" lon="-5.96722">
        <ele>22.42</ele>
        <time>2021-03-20T15:03:29Z</time>
      </trkpt>
      <trkpt lat="56.50591" lon="-5.96676">
        <ele>22</ele>
        <time>2021-03-20T15:03:33Z</time>
      </trkpt>
      <trkpt lat="56.50769" lon="-5.96192">
        <ele>33.76</ele>
        <time>2021-03-20T15:03:38Z</time>
      </trkpt>
      <trkpt lat="56.5078" lon="-5.96146">
        <ele>35.67</ele>
        <time>2021-03-20T15:03:43Z</time>
      </trkpt>
      <trkpt lat="56.50797" lon="-5.9602">
        <ele>41.06</ele>
        <time>2021-03-20T15:03:48Z</time>
      </trkpt>
      <trkpt lat="56.50806" lon="-5.95975">
        <ele>42.84</ele>
        <time>2021-03-20T15:03:53Z</time>
      </trkpt>
      <trkpt lat="56.5082" lon="-5.95943">
        <ele>42.94</ele>
        <time>2021-03-20T15:03:58Z</time>
      </trkpt>
      <trkpt lat="56.50842" lon="-5.95918">
        <ele>41.4</ele>
        <time>2021-03-20T15:04:03Z</time>
      </trkpt>
      <trkpt lat="56.50896" lon="-5.95861">
        <ele>39.77</ele>
        <time>2021-03-20T15:04:08Z</time>
      </trkpt>
      <trkpt lat="56.50923" lon="-5.95826">
        <ele>41.12</ele>
        <time>2021-03-20T15:04:13Z</time>
      </trkpt>
      <trkpt lat="56.50973" lon="-5.95731">
        <ele>44.85</ele>
        <time>2021-03-20T15:04:17Z</time>
      </trkpt>
      <trkpt lat="56.51006" lon="-5.95664">
        <ele>42.9</ele>
        <time>2021-03-20T15:04:22Z</time>
      </trkpt>
      <trkpt lat="56.51078" lon="-5.95453">
        <ele>34.19</ele>
        <time>2021-03-20T15:04:27Z</time>
      </trkpt>
      <trkpt lat="56.51084" lon="-5.95428">
        <ele>33</ele>
        <time>2021-03-20T15:04:32Z</time>
      </trkpt>
      <trkpt lat="56.51085" lon="-5.95399">
        <ele>32.96</ele>
        <time>2021-03-20T15:04:37Z</time>
      </trkpt>
      <trkpt lat="56.51081" lon="-5.95363">
        <ele>33.1</ele>
        <time>2021-03-20T15:04:42Z</time>
      </trkpt>
      <trkpt lat="56.5107" lon="-5.95333">
        <ele>32.01</ele>
        <time>2021-03-20T15:04:47Z</time>
      </trkpt>
      <trkpt lat="56.51002" lon="-5.95184">
        <ele>26.27</ele>
        <time>2021-03-20T15:04:52Z</time>
      </trkpt>
      <trkpt lat="56.50993" lon="-5.95151">
        <ele>24.61</ele>
        <time>2021-03-20T15:04:57Z</time>
      </trkpt>
      <trkpt lat="56.50991" lon="-5.95097">
        <ele>23.32</ele>
        <time>2021-03-20T15:05:01Z</time>
      </trkpt>
      <trkpt lat="56.51001" lon="-5.95026">
        <ele>20.77</ele>
        <time>2021-03-20T15:05:06Z</time>
      </trkpt>
      <trkpt lat="56.51021" lon="-5.9493">
        <ele>15.25</ele>
        <time>2021-03-20T15:05:11Z</time>
      </trkpt>
      <trkpt lat="56.51036" lon="-5.9491">
        <ele>14.64</ele>
        <time>2021-03-20T15:05:16Z</time>
      </trkpt>
      <trkpt lat="56.51169" lon="-5.9481">
        <ele>12</ele>
        <time>2021-03-20T15:05:21Z</time>
      </trkpt>
      <trkpt lat="56.51304" lon="-5.94703">
        <ele>13.06</ele>
        <time>2021-03-20T15:05:26Z</time>
      </trkpt>
      <trkpt lat="56.51343" lon="-5.94676">
        <ele>12.66</ele>
        <time>2021-03-20T15:05:31Z</time>
      </trkpt>
      <trkpt lat="56.51352" lon="-5.94674">
        <ele>12.75</ele>
        <time>2021-03-20T15:05:36Z</time>
      </trkpt>
      <trkpt lat="56.51378" lon="-5.94677">
        <ele>12.63</ele>
        <time>2021-03-20T15:05:41Z</time>
      </trkpt>
      <trkpt lat="56.51441" lon="-5.9469">
        <ele>13.16</ele>
        <time>2021-03-20T15:05:45Z</time>
      </trkpt>
      <trkpt lat="56.51499" lon="-5.94707">
        <ele>11.05</ele>
        <time>2021-03-20T15:05:50Z</time>
      </trkpt>
      <trkpt lat="56.51546" lon="-5.94734">
        <ele>12</ele>
        <time>2021-03-20T15:05:55Z</time>
      </trkpt>
      <trkpt lat="56.51676" lon="-5.94827">
        <ele>9.67</ele>
        <time>2021-03-20T15:06:00Z</time>
      </trkpt>
      <trkpt lat="56.51698" lon="-5.94832">
        <ele>8.88</ele>
        <time>2021-03-20T15:06:05Z</time>
      </trkpt>
      <trkpt lat="56.51719" lon="-5.94817">
        <ele>8.13</ele>
        <time>2021-03-20T15:06:10Z</time>
      </trkpt>
      <trkpt lat="56.5173" lon="-5.94865">
        <ele>8.18</ele>
        <time>2021-03-20T15:06:14Z</time>
      </trkpt>
      <trkpt lat="56.51748" lon="-5.94918">
        <ele>7.25</ele>
        <time>2021-03-20T15:06:17Z</time>
      </trkpt>
      <trkpt lat="56.51753" lon="-5.94945">
        <ele>6.64</ele>
        <time>2021-03-20T15:06:21Z</time>
      </trkpt>
      <trkpt lat="56.51754" lon="-5.95018">
        <ele>7.73</ele>
        <time>2021-03-20T15:06:25Z</time>
      </trkpt>
      <trkpt lat="56.51764" lon="-5.95073">
        <ele>9.6</ele>
        <time>2021-03-20T15:06:28Z</time>
      </trkpt>
      <trkpt lat="56.5178" lon="-5.95122">
        <ele>11.66</ele>
        <time>2021-03-20T15:06:32Z</time>
      </trkpt>
      <trkpt lat="56.51796" lon="-5.95154">
        <ele>10.98</ele>
        <time>2021-03-20T15:06:36Z</time>
      </trkpt>
      <trkpt lat="56.51925" lon="-5.95255">
        <ele>16.08</ele>
        <time>2021-03-20T15:06:39Z</time>
      </trkpt>
      <trkpt lat="56.51973" lon="-5.95296">
        <ele>16.65</ele>
        <time>2021-03-20T15:06:43Z</time>
      </trkpt>
      <trkpt lat="56.52009" lon="-5.95339">
        <ele>12.17</ele>
        <time>2021-03-20T15:06:47Z</time>
      </trkpt>
      <trkpt lat="56.52025" lon="-5.95367">
        <ele>13.83</ele>
        <time>2021-03-20T15:06:50Z</time>
      </trkpt>
      <trkpt lat="56.52048" lon="-5.95393">
        <ele>15.49</ele>
        <time>2021-03-20T15:06:54Z</time>
      </trkpt>
      <trkpt lat="56.52128" lon="-5.95461">
        <ele>13.53</ele>
        <time>2021-03-20T15:06:58Z</time>
      </trkpt>
      <trkpt lat="56.52167" lon="-5.95506">
        <ele>14.08</ele>
        <time>2021-03-20T15:07:01Z</time>
      </trkpt>
      <trkpt lat="56.52213" lon="-5.9558">
        <ele>12.23</ele>
        <time>2021-03-20T15:07:05Z</time>
      </trkpt>
      <trkpt lat="56.5232" lon="-5.95734">
        <ele>11.14</ele>
        <time>2021-03-20T15:07:08Z</time>
      </trkpt>
      <trkpt lat="56.52385" lon="-5.95796">
        <ele>9.32</ele>
        <time>2021-03-20T15:07:12Z</time>
      </trkpt>
      <trkpt lat="56.52472" lon="-5.95865">
        <ele>9.68</ele>
        <time>2021-03-20T15:07:16Z</time>
      </trkpt>
      <trkpt lat="56.52532" lon="-5.95907">
        <ele>6.82</ele>
        <time>2021-03-20T15:07:19Z</time>
      </trkpt>
      <trkpt lat="56.52581" lon="-5.95931">
        <ele>8.74</ele>
        <time>2021-03-20T15:07:23Z</time>
      </trkpt>
      <trkpt lat="56.52581" lon="-5.95931">
        <ele>8.74</ele>
        <time>2021-03-20T15:07:23Z</time>
      </trkpt>
      <trkpt lat="56.52619" lon="-5.95954">
        <ele>9.59</ele>
        <time>2021-03-20T15:07:28Z</time>
      </trkpt>
      <trkpt lat="56.52767" lon="-5.96122">
        <ele>7.62</ele>
        <time>2021-03-20T15:07:33Z</time>
      </trkpt>
      <trkpt lat="56.52844" lon="-5.96213">
        <ele>9.24</ele>
        <time>2021-03-20T15:07:38Z</time>
      </trkpt>
      <trkpt lat="56.52888" lon="-5.9627">
        <ele>7.56</ele>
        <time>2021-03-20T15:07:43Z</time>
      </trkpt>
      <trkpt lat="56.52952" lon="-5.96368">
        <ele>5.61</ele>
        <time>2021-03-20T15:07:48Z</time>
      </trkpt>
      <trkpt lat="56.52981" lon="-5.96418">
        <ele>4.84</ele>
        <time>2021-03-20T15:07:53Z</time>
      </trkpt>
      <trkpt lat="56.52999" lon="-5.96469">
        <ele>3.14</ele>
        <time>2021-03-20T15:07:58Z</time>
      </trkpt>
      <trkpt lat="56.53011" lon="-5.96541">
        <ele>4.38</ele>
        <time>2021-03-20T15:08:03Z</time>
      </trkpt>
      <trkpt lat="56.53006" lon="-5.96624">
        <ele>6.11</ele>
        <time>2021-03-20T15:08:08Z</time>
      </trkpt>
      <trkpt lat="56.53008" lon="-5.9669">
        <ele>7.11</ele>
        <time>2021-03-20T15:08:13Z</time>
      </trkpt>
      <trkpt lat="56.53025" lon="-5.96964">
        <ele>9.42</ele>
        <time>2021-03-20T15:08:18Z</time>
      </trkpt>
      <trkpt lat="56.5306" lon="-5.97214">
        <ele>6.25</ele>
        <time>2021-03-20T15:08:23Z</time>
      </trkpt>
      <trkpt lat="56.53076" lon="-5.97375">
        <ele>5.78</ele>
        <time>2021-03-20T15:08:28Z</time>
      </trkpt>
      <trkpt lat="56.53105" lon="-5.97522">
        <ele>7.39</ele>
        <time>2021-03-20T15:08:34Z</time>
      </trkpt>
      <trkpt lat="56.53119" lon="-5.97564">
        <ele>6.63</ele>
        <time>2021-03-20T15:08:39Z</time>
      </trkpt>
      <trkpt lat="56.53127" lon="-5.97577">
        <ele>6</ele>
        <time>2021-03-20T15:08:44Z</time>
      </trkpt>
      <trkpt lat="56.53153" lon="-5.97602">
        <ele>5.5</ele>
        <time>2021-03-20T15:08:49Z</time>
      </trkpt>
      <trkpt lat="56.53205" lon="-5.97643">
        <ele>9.43</ele>
        <time>2021-03-20T15:08:54Z</time>
      </trkpt>
      <trkpt lat="56.53263" lon="-5.97694">
        <ele>17.39</ele>
        <time>2021-03-20T15:08:59Z</time>
      </trkpt>
      <trkpt lat="56.53296" lon="-5.97731">
        <ele>20.52</ele>
        <time>2021-03-20T15:09:04Z</time>
      </trkpt>
      <trkpt lat="56.53371" lon="-5.97831">
        <ele>26.11</ele>
        <time>2021-03-20T15:09:09Z</time>
      </trkpt>
      <trkpt lat="56.53394" lon="-5.97855">
        <ele>26.75</ele>
        <time>2021-03-20T15:09:14Z</time>
      </trkpt>
      <trkpt lat="56.53834" lon="-5.98078">
        <ele>52.12</ele>
        <time>2021-03-20T15:09:19Z</time>
      </trkpt>
      <trkpt lat="56.5386" lon="-5.98096">
        <ele>54.48</ele>
        <time>2021-03-20T15:09:24Z</time>
      </trkpt>
      <trkpt lat="56.53923" lon="-5.98159">
        <ele>59.26</ele>
        <time>2021-03-20T15:09:29Z</time>
      </trkpt>
      <trkpt lat="56.53947" lon="-5.98171">
        <ele>60.83</ele>
        <time>2021-03-20T15:09:34Z</time>
      </trkpt>
      <trkpt lat="56.54042" lon="-5.98189">
        <ele>64.88</ele>
        <time>2021-03-20T15:09:39Z</time>
      </trkpt>
      <trkpt lat="56.54061" lon="-5.9818">
        <ele>66.08</ele>
        <time>2021-03-20T15:09:44Z</time>
      </trkpt>
      <trkpt lat="56.54082" lon="-5.98149">
        <ele>67.65</ele>
        <time>2021-03-20T15:09:49Z</time>
      </trkpt>
      <trkpt lat="56.54107" lon="-5.98085">
        <ele>69.29</ele>
        <time>2021-03-20T15:09:54Z</time>
      </trkpt>
      <trkpt lat="56.54142" lon="-5.97933">
        <ele>63.19</ele>
        <time>2021-03-20T15:09:59Z</time>
      </trkpt>
      <trkpt lat="56.54157" lon="-5.9789">
        <ele>62.06</ele>
        <time>2021-03-20T15:10:04Z</time>
      </trkpt>
      <trkpt lat="56.54185" lon="-5.97849">
        <ele>60.29</ele>
        <time>2021-03-20T15:10:09Z</time>
      </trkpt>
      <trkpt lat="56.54225" lon="-5.97818">
        <ele>55.71</ele>
        <time>2021-03-20T15:10:14Z</time>
      </trkpt>
      <trkpt lat="56.54393" lon="-5.97733">
        <ele>49.12</ele>
        <time>2021-03-20T15:10:19Z</time>
      </trkpt>
      <trkpt lat="56.54418" lon="-5.97703">
        <ele>50.5</ele>
        <time>2021-03-20T15:10:24Z</time>
      </trkpt>
      <trkpt lat="56.54476" lon="-5.97614">
        <ele>50.58</ele>
        <time>2021-03-20T15:10:29Z</time>
      </trkpt>
      <trkpt lat="56.54505" lon="-5.97584">
        <ele>47.48</ele>
        <time>2021-03-20T15:10:34Z</time>
      </trkpt>
      <trkpt lat="56.54538" lon="-5.97574">
        <ele>48.34</ele>
        <time>2021-03-20T15:10:39Z</time>
      </trkpt>
      <trkpt lat="56.54656" lon="-5.97594">
        <ele>49.16</ele>
        <time>2021-03-20T15:10:44Z</time>
      </trkpt>
      <trkpt lat="56.54701" lon="-5.97592">
        <ele>45.48</ele>
        <time>2021-03-20T15:10:49Z</time>
      </trkpt>
      <trkpt lat="56.54805" lon="-5.97538">
        <ele>39.84</ele>
        <time>2021-03-20T15:10:54Z</time>
      </trkpt>
      <trkpt lat="56.54846" lon="-5.97538">
        <ele>40.1</ele>
        <time>2021-03-20T15:10:59Z</time>
      </trkpt>
      <trkpt lat="56.55028" lon="-5.97618">
        <ele>42.19</ele>
        <time>2021-03-20T15:11:04Z</time>
      </trkpt>
      <trkpt lat="56.55087" lon="-5.9765">
        <ele>45.5</ele>
        <time>2021-03-20T15:11:09Z</time>
      </trkpt>
      <trkpt lat="56.55124" lon="-5.97683">
        <ele>48.39</ele>
        <time>2021-03-20T15:11:14Z</time>
      </trkpt>
      <trkpt lat="56.55239" lon="-5.97773">
        <ele>53.62</ele>
        <time>2021-03-20T15:11:19Z</time>
      </trkpt>
      <trkpt lat="56.55304" lon="-5.97804">
        <ele>52</ele>
        <time>2021-03-20T15:11:24Z</time>
      </trkpt>
      <trkpt lat="56.55318" lon="-5.97827">
        <ele>52.2</ele>
        <time>2021-03-20T15:11:29Z</time>
      </trkpt>
      <trkpt lat="56.55377" lon="-5.9795">
        <ele>53.14</ele>
        <time>2021-03-20T15:11:34Z</time>
      </trkpt>
      <trkpt lat="56.55646" lon="-5.98411">
        <ele>49.97</ele>
        <time>2021-03-20T15:11:39Z</time>
      </trkpt>
      <trkpt lat="56.55702" lon="-5.98494">
        <ele>51.25</ele>
        <time>2021-03-20T15:11:44Z</time>
      </trkpt>
      <trkpt lat="56.55761" lon="-5.98574">
        <ele>55.98</ele>
        <time>2021-03-20T15:11:49Z</time>
      </trkpt>
      <trkpt lat="56.55925" lon="-5.9872">
        <ele>47.33</ele>
        <time>2021-03-20T15:11:54Z</time>
      </trkpt>
      <trkpt lat="56.56027" lon="-5.98805">
        <ele>40.04</ele>
        <time>2021-03-20T15:11:59Z</time>
      </trkpt>
      <trkpt lat="56.56126" lon="-5.98924">
        <ele>38.12</ele>
        <time>2021-03-20T15:12:05Z</time>
      </trkpt>
      <trkpt lat="56.56175" lon="-5.98975">
        <ele>37.98</ele>
        <time>2021-03-20T15:12:10Z</time>
      </trkpt>
      <trkpt lat="56.56452" lon="-5.9917">
        <ele>28.3</ele>
        <time>2021-03-20T15:12:15Z</time>
      </trkpt>
      <trkpt lat="56.56499" lon="-5.99191">
        <ele>24.86</ele>
        <time>2021-03-20T15:12:20Z</time>
      </trkpt>
      <trkpt lat="56.56547" lon="-5.992">
        <ele>22.85</ele>
        <time>2021-03-20T15:12:25Z</time>
      </trkpt>
      <trkpt lat="56.5659" lon="-5.99226">
        <ele>22.08</ele>
        <time>2021-03-20T15:12:30Z</time>
      </trkpt>
      <trkpt lat="56.56668" lon="-5.99319">
        <ele>22.9</ele>
        <time>2021-03-20T15:12:35Z</time>
      </trkpt>
      <trkpt lat="56.57064" lon="-5.99675">
        <ele>30.62</ele>
        <time>2021-03-20T15:12:40Z</time>
      </trkpt>
      <trkpt lat="56.57092" lon="-5.99705">
        <ele>32.68</ele>
        <time>2021-03-20T15:12:45Z</time>
      </trkpt>
      <trkpt lat="56.57118" lon="-5.99746">
        <ele>35.23</ele>
        <time>2021-03-20T15:12:50Z</time>
      </trkpt>
      <trkpt lat="56.57178" lon="-5.99894">
        <ele>40.99</ele>
        <time>2021-03-20T15:12:55Z</time>
      </trkpt>
      <trkpt lat="56.57259" lon="-6.0006">
        <ele>43.55</ele>
        <time>2021-03-20T15:13:00Z</time>
      </trkpt>
      <trkpt lat="56.57296" lon="-6.00123">
        <ele>45.17</ele>
        <time>2021-03-20T15:13:05Z</time>
      </trkpt>
      <trkpt lat="56.57342" lon="-6.00173">
        <ele>47.48</ele>
        <time>2021-03-20T15:13:10Z</time>
      </trkpt>
      <trkpt lat="56.57376" lon="-6.00193">
        <ele>49.4</ele>
        <time>2021-03-20T15:13:15Z</time>
      </trkpt>
      <trkpt lat="56.57442" lon="-6.0019">
        <ele>56.14</ele>
        <time>2021-03-20T15:13:20Z</time>
      </trkpt>
      <trkpt lat="56.57517" lon="-6.002">
        <ele>58.51</ele>
        <time>2021-03-20T15:13:25Z</time>
      </trkpt>
      <trkpt lat="56.57552" lon="-6.00224">
        <ele>58.63</ele>
        <time>2021-03-20T15:13:30Z</time>
      </trkpt>
      <trkpt lat="56.57625" lon="-6.00295">
        <ele>63.78</ele>
        <time>2021-03-20T15:13:35Z</time>
      </trkpt>
      <trkpt lat="56.57712" lon="-6.00405">
        <ele>67.61</ele>
        <time>2021-03-20T15:13:40Z</time>
      </trkpt>
      <trkpt lat="56.57849" lon="-6.00548">
        <ele>72.44</ele>
        <time>2021-03-20T15:13:45Z</time>
      </trkpt>
      <trkpt lat="56.57884" lon="-6.0059">
        <ele>73.88</ele>
        <time>2021-03-20T15:13:50Z</time>
      </trkpt>
      <trkpt lat="56.5792" lon="-6.00643">
        <ele>76.04</ele>
        <time>2021-03-20T15:13:55Z</time>
      </trkpt>
      <trkpt lat="56.57951" lon="-6.00704">
        <ele>78.41</ele>
        <time>2021-03-20T15:14:00Z</time>
      </trkpt>
      <trkpt lat="56.58012" lon="-6.00895">
        <ele>83.85</ele>
        <time>2021-03-20T15:14:05Z</time>
      </trkpt>
      <trkpt lat="56.58029" lon="-6.00951">
        <ele>86.29</ele>
        <time>2021-03-20T15:14:10Z</time>
      </trkpt>
      <trkpt lat="56.5804" lon="-6.01013">
        <ele>87.93</ele>
        <time>2021-03-20T15:14:15Z</time>
      </trkpt>
      <trkpt lat="56.58055" lon="-6.01049">
        <ele>88.59</ele>
        <time>2021-03-20T15:14:20Z</time>
      </trkpt>
      <trkpt lat="56.58078" lon="-6.01067">
        <ele>88.57</ele>
        <time>2021-03-20T15:14:25Z</time>
      </trkpt>
      <trkpt lat="56.58219" lon="-6.01071">
        <ele>99.83</ele>
        <time>2021-03-20T15:14:30Z</time>
      </trkpt>
      <trkpt lat="56.58252" lon="-6.01097">
        <ele>103.96</ele>
        <time>2021-03-20T15:14:35Z</time>
      </trkpt>
      <trkpt lat="56.58282" lon="-6.01164">
        <ele>108.79</ele>
        <time>2021-03-20T15:14:40Z</time>
      </trkpt>
      <trkpt lat="56.58318" lon="-6.01224">
        <ele>112.76</ele>
        <time>2021-03-20T15:14:45Z</time>
      </trkpt>
      <trkpt lat="56.58375" lon="-6.01299">
        <ele>119.01</ele>
        <time>2021-03-20T15:14:50Z</time>
      </trkpt>
      <trkpt lat="56.58415" lon="-6.01343">
        <ele>120.75</ele>
        <time>2021-03-20T15:14:55Z</time>
      </trkpt>
      <trkpt lat="56.58455" lon="-6.01365">
        <ele>122.98</ele>
        <time>2021-03-20T15:15:00Z</time>
      </trkpt>
      <trkpt lat="56.58598" lon="-6.01388">
        <ele>133.94</ele>
        <time>2021-03-20T15:15:05Z</time>
      </trkpt>
      <trkpt lat="56.58638" lon="-6.01409">
        <ele>136.23</ele>
        <time>2021-03-20T15:15:10Z</time>
      </trkpt>
      <trkpt lat="56.58678" lon="-6.01438">
        <ele>137.45</ele>
        <time>2021-03-20T15:15:15Z</time>
      </trkpt>
      <trkpt lat="56.5896" lon="-6.0173">
        <ele>140.55</ele>
        <time>2021-03-20T15:15:20Z</time>
      </trkpt>
      <trkpt lat="56.59037" lon="-6.01806">
        <ele>138.01</ele>
        <time>2021-03-20T15:15:25Z</time>
      </trkpt>
      <trkpt lat="56.5922" lon="-6.01926">
        <ele>137.12</ele>
        <time>2021-03-20T15:15:30Z</time>
      </trkpt>
      <trkpt lat="56.59657" lon="-6.02323">
        <ele>106.61</ele>
        <time>2021-03-20T15:15:36Z</time>
      </trkpt>
      <trkpt lat="56.5975" lon="-6.02414">
        <ele>107.65</ele>
        <time>2021-03-20T15:15:41Z</time>
      </trkpt>
      <trkpt lat="56.59829" lon="-6.02527">
        <ele>111.96</ele>
        <time>2021-03-20T15:15:46Z</time>
      </trkpt>
      <trkpt lat="56.59894" lon="-6.02676">
        <ele>114.84</ele>
        <time>2021-03-20T15:15:51Z</time>
      </trkpt>
      <trkpt lat="56.59983" lon="-6.02994">
        <ele>115.85</ele>
        <time>2021-03-20T15:15:56Z</time>
      </trkpt>
      <trkpt lat="56.60094" lon="-6.03402">
        <ele>106.69</ele>
        <time>2021-03-20T15:16:01Z</time>
      </trkpt>
      <trkpt lat="56.60139" lon="-6.03547">
        <ele>95.33</ele>
        <time>2021-03-20T15:16:06Z</time>
      </trkpt>
      <trkpt lat="56.60203" lon="-6.03677">
        <ele>91.94</ele>
        <time>2021-03-20T15:16:11Z</time>
      </trkpt>
      <trkpt lat="56.60586" lon="-6.04285">
        <ele>83.65</ele>
        <time>2021-03-20T15:16:16Z</time>
      </trkpt>
      <trkpt lat="56.60632" lon="-6.04396">
        <ele>85.48</ele>
        <time>2021-03-20T15:16:21Z</time>
      </trkpt>
      <trkpt lat="56.60665" lon="-6.04531">
        <ele>82.5</ele>
        <time>2021-03-20T15:16:26Z</time>
      </trkpt>
      <trkpt lat="56.60705" lon="-6.04868">
        <ele>70.44</ele>
        <time>2021-03-20T15:16:31Z</time>
      </trkpt>
      <trkpt lat="56.60719" lon="-6.04933">
        <ele>68.22</ele>
        <time>2021-03-20T15:16:36Z</time>
      </trkpt>
      <trkpt lat="56.60731" lon="-6.04988">
        <ele>68.54</ele>
        <time>2021-03-20T15:16:41Z</time>
      </trkpt>
      <trkpt lat="56.60764" lon="-6.05085">
        <ele>71.03</ele>
        <time>2021-03-20T15:16:46Z</time>
      </trkpt>
      <trkpt lat="56.60858" lon="-6.05238">
        <ele>74.79</ele>
        <time>2021-03-20T15:16:51Z</time>
      </trkpt>
      <trkpt lat="56.61046" lon="-6.05558">
        <ele>78.03</ele>
        <time>2021-03-20T15:16:56Z</time>
      </trkpt>
      <trkpt lat="56.61116" lon="-6.05753">
        <ele>68.81</ele>
        <time>2021-03-20T15:17:01Z</time>
      </trkpt>
      <trkpt lat="56.61159" lon="-6.05986">
        <ele>66.62</ele>
        <time>2021-03-20T15:17:06Z</time>
      </trkpt>
      <trkpt lat="56.61172" lon="-6.06095">
        <ele>68.39</ele>
        <time>2021-03-20T15:17:11Z</time>
      </trkpt>
      <trkpt lat="56.61179" lon="-6.06167">
        <ele>68.26</ele>
        <time>2021-03-20T15:17:16Z</time>
      </trkpt>
      <trkpt lat="56.61179" lon="-6.06167">
        <ele>68.26</ele>
        <time>2021-03-20T15:17:16Z</time>
      </trkpt>
      <trkpt lat="56.61208" lon="-6.06436">
        <ele>63.46</ele>
        <time>2021-03-20T15:17:20Z</time>
      </trkpt>
      <trkpt lat="56.61217" lon="-6.06514">
        <ele>64.57</ele>
        <time>2021-03-20T15:17:24Z</time>
      </trkpt>
      <trkpt lat="56.61235" lon="-6.06612">
        <ele>66.18</ele>
        <time>2021-03-20T15:17:28Z</time>
      </trkpt>
      <trkpt lat="56.61258" lon="-6.06709">
        <ele>64.69</ele>
        <time>2021-03-20T15:17:32Z</time>
      </trkpt>
      <trkpt lat="56.61283" lon="-6.06786">
        <ele>64.28</ele>
        <time>2021-03-20T15:17:37Z</time>
      </trkpt>
      <trkpt lat="56.61313" lon="-6.06852">
        <ele>63.94</ele>
        <time>2021-03-20T15:17:41Z</time>
      </trkpt>
      <trkpt lat="56.61352" lon="-6.06921">
        <ele>62.7</ele>
        <time>2021-03-20T15:17:45Z</time>
      </trkpt>
      <trkpt lat="56.61419" lon="-6.07013">
        <ele>62.89</ele>
        <time>2021-03-20T15:17:49Z</time>
      </trkpt>
      <trkpt lat="56.6145" lon="-6.07046">
        <ele>63.48</ele>
        <time>2021-03-20T15:17:53Z</time>
      </trkpt>
      <trkpt lat="56.61512" lon="-6.07103">
        <ele>64.71</ele>
        <time>2021-03-20T15:17:57Z</time>
      </trkpt>
      <trkpt lat="56.61564" lon="-6.07138">
        <ele>63.67</ele>
        <time>2021-03-20T15:18:01Z</time>
      </trkpt>
      <trkpt lat="56.61577" lon="-6.07144">
        <ele>63.41</ele>
        <time>2021-03-20T15:18:05Z</time>
      </trkpt>
      <trkpt lat="56.61687" lon="-6.07177">
        <ele>57.9</ele>
        <time>2021-03-20T15:18:09Z</time>
      </trkpt>
      <trkpt lat="56.61721" lon="-6.07201">
        <ele>56.64</ele>
        <time>2021-03-20T15:18:14Z</time>
      </trkpt>
      <trkpt lat="56.61784" lon="-6.07283">
        <ele>54.5</ele>
        <time>2021-03-20T15:18:18Z</time>
      </trkpt>
      <trkpt lat="56.61805" lon="-6.073">
        <ele>52.04</ele>
        <time>2021-03-20T15:18:22Z</time>
      </trkpt>
      <trkpt lat="56.61818" lon="-6.07303">
        <ele>51.17</ele>
        <time>2021-03-20T15:18:26Z</time>
      </trkpt>
      <trkpt lat="56.61832" lon="-6.07298">
        <ele>50.36</ele>
        <time>2021-03-20T15:18:30Z</time>
      </trkpt>
      <trkpt lat="56.61835" lon="-6.07304">
        <ele>50.06</ele>
        <time>2021-03-20T15:18:32Z</time>
      </trkpt>
      <trkpt lat="56.61838" lon="-6.07304">
        <ele>50.06</ele>
        <time>2021-03-20T15:18:34Z</time>
      </trkpt>
      <trkpt lat="56.61841" lon="-6.07296">
        <ele>50.25</ele>
        <time>2021-03-20T15:18:36Z</time>
      </trkpt>
      <trkpt lat="56.6184" lon="-6.0729">
        <ele>50.43</ele>
        <time>2021-03-20T15:18:38Z</time>
      </trkpt>
      <trkpt lat="56.61837" lon="-6.07286">
        <ele>50.6</ele>
        <time>2021-03-20T15:18:39Z</time>
      </trkpt>
      <trkpt lat="56.61846" lon="-6.07214">
        <ele>50.08</ele>
        <time>2021-03-20T15:18:41Z</time>
      </trkpt>
      <trkpt lat="56.61854" lon="-6.07169">
        <ele>48.87</ele>
        <time>2021-03-20T15:18:43Z</time>
      </trkpt>
      <trkpt lat="56.61868" lon="-6.07122">
        <ele>47.95</ele>
        <time>2021-03-20T15:18:45Z</time>
      </trkpt>
      <trkpt lat="56.61876" lon="-6.07104">
        <ele>47.35</ele>
        <time>2021-03-20T15:18:47Z</time>
      </trkpt>
      <trkpt lat="56.61904" lon="-6.07081">
        <ele>44.48</ele>
        <time>2021-03-20T15:18:49Z</time>
      </trkpt>
      <trkpt lat="56.61934" lon="-6.07072">
        <ele>41.18</ele>
        <time>2021-03-20T15:18:51Z</time>
      </trkpt>
      <trkpt lat="56.62014" lon="-6.07105">
        <ele>33.91</ele>
        <time>2021-03-20T15:18:53Z</time>
      </trkpt>
      <trkpt lat="56.62034" lon="-6.07101">
        <ele>30.06</ele>
        <time>2021-03-20T15:18:54Z</time>
      </trkpt>
      <trkpt lat="56.62062" lon="-6.07083">
        <ele>21.76</ele>
        <time>2021-03-20T15:18:56Z</time>
      </trkpt>
      <trkpt lat="56.62091" lon="-6.07051">
        <ele>15.3</ele>
        <time>2021-03-20T15:18:58Z</time>
      </trkpt>
      <trkpt lat="56.6211" lon="-6.07033">
        <ele>14.64</ele>
        <time>2021-03-20T15:19:00Z</time>
      </trkpt>
      <trkpt lat="56.62124" lon="-6.07014">
        <ele>13.95</ele>
        <time>2021-03-20T15:19:02Z</time>
      </trkpt>
      <trkpt lat="56.62243" lon="-6.06901">
        <ele>11.06</ele>
        <time>2021-03-20T15:19:04Z</time>
      </trkpt>
      <trkpt lat="56.62272" lon="-6.06844">
        <ele>7.8</ele>
        <time>2021-03-20T15:19:06Z</time>
      </trkpt>
      <trkpt lat="56.62291" lon="-6.06812">
        <ele>8.94</ele>
        <time>2021-03-20T15:19:08Z</time>
      </trkpt>
      <trkpt lat="56.62317" lon="-6.06741">
        <ele>11.64</ele>
        <time>2021-03-20T15:19:10Z</time>
      </trkpt>
      <trkpt lat="56.62319" lon="-6.06732">
        <ele>11.41</ele>
        <time>2021-03-20T15:19:11Z</time>
      </trkpt>
      <trkpt lat="56.62298" lon="-6.06598">
        <ele>8.71</ele>
        <time>2021-03-20T15:19:13Z</time>
      </trkpt>
      <trkpt lat="56.62311" lon="-6.06479">
        <ele>8.61</ele>
        <time>2021-03-20T15:19:15Z</time>
      </trkpt>
      <trkpt lat="56.62319" lon="-6.06458">
        <ele>8.36</ele>
        <time>2021-03-20T15:19:17Z</time>
      </trkpt>
      <trkpt lat="56.62324" lon="-6.06422">
        <ele>7.29</ele>
        <time>2021-03-20T15:19:19Z</time>
      </trkpt>
      <trkpt lat="56.62347" lon="-6.06299">
        <ele>10.04</ele>
        <time>2021-03-20T15:20:25Z</time>
      </trkpt>
      <trkpt lat="56.6242" lon="-6.06038">
        <ele>9.73</ele>
        <time>2021-03-20T15:21:30Z</time>
      </trkpt>
      <trkpt lat="56.62482" lon="-6.05916">
        <ele>9.58</ele>
        <time>2021-03-20T15:22:36Z</time>
      </trkpt>
      <trkpt lat="56.62562" lon="-6.05832">
        <ele>9.47</ele>
        <time>2021-03-20T15:23:42Z</time>
      </trkpt>
      <trkpt lat="56.62657" lon="-6.05713">
        <ele>9.32</ele>
        <time>2021-03-20T15:24:47Z</time>
      </trkpt>
      <trkpt lat="56.62772" lon="-6.05659">
        <ele>9.2</ele>
        <time>2021-03-20T15:25:53Z</time>
      </trkpt>
      <trkpt lat="56.63036" lon="-6.05698">
        <ele>9.03</ele>
        <time>2021-03-20T15:26:58Z</time>
      </trkpt>
      <trkpt lat="56.6313" lon="-6.05701">
        <ele>8.95</ele>
        <time>2021-03-20T15:28:04Z</time>
      </trkpt>
      <trkpt lat="56.63258" lon="-6.05687">
        <ele>8.83</ele>
        <time>2021-03-20T15:29:10Z</time>
      </trkpt>
      <trkpt lat="56.63332" lon="-6.05705">
        <ele>8.77</ele>
        <time>2021-03-20T15:30:15Z</time>
      </trkpt>
      <trkpt lat="56.63453" lon="-6.05698">
        <ele>8.65</ele>
        <time>2021-03-20T15:31:21Z</time>
      </trkpt>
      <trkpt lat="56.63543" lon="-6.05745">
        <ele>8.58</ele>
        <time>2021-03-20T15:32:26Z</time>
      </trkpt>
      <trkpt lat="56.66059" lon="-6.0713">
        <ele>5.63</ele>
        <time>2021-03-20T15:33:32Z</time>
      </trkpt>
      <trkpt lat="56.68087" lon="-6.08453">
        <ele>2.88</ele>
        <time>2021-03-20T15:34:38Z</time>
      </trkpt>
      <trkpt lat="56.6832" lon="-6.08651">
        <ele>2.53</ele>
        <time>2021-03-20T15:35:43Z</time>
      </trkpt>
      <trkpt lat="56.68542" lon="-6.08875">
        <ele>2.17</ele>
        <time>2021-03-20T15:36:49Z</time>
      </trkpt>
      <trkpt lat="56.68726" lon="-6.09096">
        <ele>1.84</ele>
        <time>2021-03-20T15:37:55Z</time>
      </trkpt>
      <trkpt lat="56.6883" lon="-6.09255">
        <ele>1.62</ele>
        <time>2021-03-20T15:39:00Z</time>
      </trkpt>
      <trkpt lat="56.68858" lon="-6.093">
        <ele>1.56</ele>
        <time>2021-03-20T15:40:06Z</time>
      </trkpt>
      <trkpt lat="56.68878" lon="-6.09418">
        <ele>1.42</ele>
        <time>2021-03-20T15:41:11Z</time>
      </trkpt>
      <trkpt lat="56.68874" lon="-6.09473">
        <ele>3.01</ele>
        <time>2021-03-20T15:42:17Z</time>
      </trkpt>
      <trkpt lat="56.68869" lon="-6.09497">
        <ele>3.65</ele>
        <time>2021-03-20T15:43:23Z</time>
      </trkpt>
      <trkpt lat="56.6887" lon="-6.09518">
        <ele>4.32</ele>
        <time>2021-03-20T15:44:28Z</time>
      </trkpt>
      <trkpt lat="56.68875" lon="-6.09535">
        <ele>4.64</ele>
        <time>2021-03-20T15:45:34Z</time>
      </trkpt>
      <trkpt lat="56.68924" lon="-6.09601">
        <ele>4.45</ele>
        <time>2021-03-20T15:46:40Z</time>
      </trkpt>
      <trkpt lat="56.68961" lon="-6.09619">
        <ele>4.89</ele>
        <time>2021-03-20T15:47:45Z</time>
      </trkpt>
      <trkpt lat="56.68977" lon="-6.09622">
        <ele>5.75</ele>
        <time>2021-03-20T15:48:51Z</time>
      </trkpt>
      <trkpt lat="56.69018" lon="-6.09603">
        <ele>8.66</ele>
        <time>2021-03-20T15:49:56Z</time>
      </trkpt>
      <trkpt lat="56.69029" lon="-6.09594">
        <ele>9.49</ele>
        <time>2021-03-20T15:51:02Z</time>
      </trkpt>
      <trkpt lat="56.69054" lon="-6.09567">
        <ele>10.27</ele>
        <time>2021-03-20T15:52:08Z</time>
      </trkpt>
      <trkpt lat="56.69073" lon="-6.09538">
        <ele>9.38</ele>
        <time>2021-03-20T15:53:13Z</time>
      </trkpt>
      <trkpt lat="56.69106" lon="-6.0948">
        <ele>9.63</ele>
        <time>2021-03-20T15:54:19Z</time>
      </trkpt>
      <trkpt lat="56.69121" lon="-6.09458">
        <ele>10.22</ele>
        <time>2021-03-20T15:55:24Z</time>
      </trkpt>
      <trkpt lat="56.69138" lon="-6.09437">
        <ele>11.94</ele>
        <time>2021-03-20T15:56:30Z</time>
      </trkpt>
      <trkpt lat="56.69149" lon="-6.0943">
        <ele>12.55</ele>
        <time>2021-03-20T15:57:36Z</time>
      </trkpt>
      <trkpt lat="56.69162" lon="-6.09431">
        <ele>13.24</ele>
        <time>2021-03-20T15:58:41Z</time>
      </trkpt>
      <trkpt lat="56.69199" lon="-6.09451">
        <ele>15.1</ele>
        <time>2021-03-20T15:59:47Z</time>
      </trkpt>
      <trkpt lat="56.69317" lon="-6.09525">
        <ele>16.65</ele>
        <time>2021-03-20T16:00:53Z</time>
      </trkpt>
      <trkpt lat="56.69339" lon="-6.09545">
        <ele>16.77</ele>
        <time>2021-03-20T16:01:58Z</time>
      </trkpt>
      <trkpt lat="56.69358" lon="-6.09569">
        <ele>16.87</ele>
        <time>2021-03-20T16:03:04Z</time>
      </trkpt>
      <trkpt lat="56.69411" lon="-6.09672">
        <ele>14.63</ele>
        <time>2021-03-20T16:04:09Z</time>
      </trkpt>
      <trkpt lat="56.69446" lon="-6.09746">
        <ele>14.29</ele>
        <time>2021-03-20T16:05:15Z</time>
      </trkpt>
      <trkpt lat="56.69473" lon="-6.0981">
        <ele>15.08</ele>
        <time>2021-03-20T16:06:21Z</time>
      </trkpt>
      <trkpt lat="56.69505" lon="-6.09899">
        <ele>12.84</ele>
        <time>2021-03-20T16:07:26Z</time>
      </trkpt>
      <trkpt lat="56.69515" lon="-6.09917">
        <ele>12.51</ele>
        <time>2021-03-20T16:08:32Z</time>
      </trkpt>
      <trkpt lat="56.6955" lon="-6.09966">
        <ele>11.24</ele>
        <time>2021-03-20T16:09:38Z</time>
      </trkpt>
      <trkpt lat="56.6969" lon="-6.10084">
        <ele>12.85</ele>
        <time>2021-03-20T16:10:43Z</time>
      </trkpt>
      <trkpt lat="56.69713" lon="-6.1013">
        <ele>14.36</ele>
        <time>2021-03-20T16:11:49Z</time>
      </trkpt>
      <trkpt lat="56.69728" lon="-6.10164">
        <ele>15.42</ele>
        <time>2021-03-20T16:12:54Z</time>
      </trkpt>
      <trkpt lat="56.69756" lon="-6.10278">
        <ele>13.22</ele>
        <time>2021-03-20T16:14:00Z</time>
      </trkpt>
      <trkpt lat="56.69774" lon="-6.10308">
        <ele>13.7</ele>
        <time>2021-03-20T16:15:06Z</time>
      </trkpt>
      <trkpt lat="56.69795" lon="-6.1033">
        <ele>14.6</ele>
        <time>2021-03-20T16:16:11Z</time>
      </trkpt>
      <trkpt lat="56.69821" lon="-6.10044">
        <ele>19</ele>
        <time>2021-03-20T16:16:21Z</time>
      </trkpt>
      <trkpt lat="56.69826" lon="-6.09952">
        <ele>18.55</ele>
        <time>2021-03-20T16:16:30Z</time>
      </trkpt>
      <trkpt lat="56.69827" lon="-6.0989">
        <ele>20.73</ele>
        <time>2021-03-20T16:16:40Z</time>
      </trkpt>
      <trkpt lat="56.69829" lon="-6.09852">
        <ele>21.35</ele>
        <time>2021-03-20T16:16:49Z</time>
      </trkpt>
      <trkpt lat="56.69863" lon="-6.09553">
        <ele>34.07</ele>
        <time>2021-03-20T16:16:59Z</time>
      </trkpt>
      <trkpt lat="56.699" lon="-6.09114">
        <ele>38.53</ele>
        <time>2021-03-20T16:17:08Z</time>
      </trkpt>
      <trkpt lat="56.69939" lon="-6.08756">
        <ele>35.62</ele>
        <time>2021-03-20T16:17:18Z</time>
      </trkpt>
      <trkpt lat="56.69959" lon="-6.08546">
        <ele>35.48</ele>
        <time>2021-03-20T16:17:27Z</time>
      </trkpt>
      <trkpt lat="56.69969" lon="-6.08423">
        <ele>35</ele>
        <time>2021-03-20T16:17:37Z</time>
      </trkpt>
      <trkpt lat="56.69987" lon="-6.08159">
        <ele>36.72</ele>
        <time>2021-03-20T16:17:46Z</time>
      </trkpt>
      <trkpt lat="56.69987" lon="-6.08159">
        <ele>36.72</ele>
        <time>2021-03-20T16:17:46Z</time>
      </trkpt>
      <trkpt lat="56.70005" lon="-6.07855">
        <ele>38.6</ele>
        <time>2021-03-20T16:17:49Z</time>
      </trkpt>
      <trkpt lat="56.70018" lon="-6.07733">
        <ele>41.89</ele>
        <time>2021-03-20T16:17:51Z</time>
      </trkpt>
      <trkpt lat="56.70073" lon="-6.07517">
        <ele>43.28</ele>
        <time>2021-03-20T16:17:53Z</time>
      </trkpt>
      <trkpt lat="56.70151" lon="-6.07292">
        <ele>46.52</ele>
        <time>2021-03-20T16:17:55Z</time>
      </trkpt>
      <trkpt lat="56.7024" lon="-6.07094">
        <ele>51.4</ele>
        <time>2021-03-20T16:17:58Z</time>
      </trkpt>
      <trkpt lat="56.70293" lon="-6.06952">
        <ele>57.54</ele>
        <time>2021-03-20T16:18:00Z</time>
      </trkpt>
      <trkpt lat="56.70339" lon="-6.06816">
        <ele>58.57</ele>
        <time>2021-03-20T16:18:02Z</time>
      </trkpt>
      <trkpt lat="56.70369" lon="-6.06778">
        <ele>58.58</ele>
        <time>2021-03-20T16:18:04Z</time>
      </trkpt>
      <trkpt lat="56.70399" lon="-6.06758">
        <ele>60.35</ele>
        <time>2021-03-20T16:18:07Z</time>
      </trkpt>
      <trkpt lat="56.70439" lon="-6.06766">
        <ele>63.38</ele>
        <time>2021-03-20T16:18:09Z</time>
      </trkpt>
      <trkpt lat="56.70472" lon="-6.06786">
        <ele>64.58</ele>
        <time>2021-03-20T16:18:11Z</time>
      </trkpt>
      <trkpt lat="56.70531" lon="-6.06853">
        <ele>68.69</ele>
        <time>2021-03-20T16:18:13Z</time>
      </trkpt>
      <trkpt lat="56.7059" lon="-6.06904">
        <ele>70.1</ele>
        <time>2021-03-20T16:18:16Z</time>
      </trkpt>
      <trkpt lat="56.70633" lon="-6.06911">
        <ele>71.33</ele>
        <time>2021-03-20T16:18:18Z</time>
      </trkpt>
      <trkpt lat="56.70716" lon="-6.06882">
        <ele>74.04</ele>
        <time>2021-03-20T16:18:20Z</time>
      </trkpt>
      <trkpt lat="56.70768" lon="-6.06857">
        <ele>77.96</ele>
        <time>2021-03-20T16:18:22Z</time>
      </trkpt>
      <trkpt lat="56.70808" lon="-6.06845">
        <ele>76.72</ele>
        <time>2021-03-20T16:18:25Z</time>
      </trkpt>
      <trkpt lat="56.7085" lon="-6.06838">
        <ele>74.52</ele>
        <time>2021-03-20T16:18:27Z</time>
      </trkpt>
      <trkpt lat="56.70887" lon="-6.06809">
        <ele>76.92</ele>
        <time>2021-03-20T16:18:29Z</time>
      </trkpt>
      <trkpt lat="56.70933" lon="-6.06746">
        <ele>77.54</ele>
        <time>2021-03-20T16:18:31Z</time>
      </trkpt>
      <trkpt lat="56.71033" lon="-6.06647">
        <ele>82.13</ele>
        <time>2021-03-20T16:18:34Z</time>
      </trkpt>
      <trkpt lat="56.71084" lon="-6.06624">
        <ele>86.49</ele>
        <time>2021-03-20T16:18:36Z</time>
      </trkpt>
      <trkpt lat="56.71125" lon="-6.06583">
        <ele>86.49</ele>
        <time>2021-03-20T16:18:38Z</time>
      </trkpt>
      <trkpt lat="56.71155" lon="-6.06589">
        <ele>88.14</ele>
        <time>2021-03-20T16:18:40Z</time>
      </trkpt>
      <trkpt lat="56.71184" lon="-6.06576">
        <ele>88.43</ele>
        <time>2021-03-20T16:18:42Z</time>
      </trkpt>
      <trkpt lat="56.7123" lon="-6.0651">
        <ele>87.37</ele>
        <time>2021-03-20T16:18:45Z</time>
      </trkpt>
      <trkpt lat="56.71297" lon="-6.06429">
        <ele>92.05</ele>
        <time>2021-03-20T16:18:47Z</time>
      </trkpt>
      <trkpt lat="56.71373" lon="-6.06354">
        <ele>101.57</ele>
        <time>2021-03-20T16:18:49Z</time>
      </trkpt>
      <trkpt lat="56.71406" lon="-6.06328">
        <ele>103.21</ele>
        <time>2021-03-20T16:18:51Z</time>
      </trkpt>
      <trkpt lat="56.7144" lon="-6.06279">
        <ele>104.7</ele>
        <time>2021-03-20T16:18:54Z</time>
      </trkpt>
      <trkpt lat="56.71504" lon="-6.06163">
        <ele>110.43</ele>
        <time>2021-03-20T16:18:56Z</time>
      </trkpt>
      <trkpt lat="56.71538" lon="-6.06086">
        <ele>113.71</ele>
        <time>2021-03-20T16:18:58Z</time>
      </trkpt>
      <trkpt lat="56.71568" lon="-6.06053">
        <ele>114.82</ele>
        <time>2021-03-20T16:19:00Z</time>
      </trkpt>
      <trkpt lat="56.71675" lon="-6.06017">
        <ele>122.21</ele>
        <time>2021-03-20T16:19:03Z</time>
      </trkpt>
      <trkpt lat="56.71706" lon="-6.05992">
        <ele>124.42</ele>
        <time>2021-03-20T16:19:05Z</time>
      </trkpt>
      <trkpt lat="56.71737" lon="-6.05954">
        <ele>127.03</ele>
        <time>2021-03-20T16:19:07Z</time>
      </trkpt>
      <trkpt lat="56.7176" lon="-6.05894">
        <ele>129.06</ele>
        <time>2021-03-20T16:19:09Z</time>
      </trkpt>
      <trkpt lat="56.71767" lon="-6.05847">
        <ele>129.55</ele>
        <time>2021-03-20T16:19:12Z</time>
      </trkpt>
      <trkpt lat="56.71767" lon="-6.05731">
        <ele>129.69</ele>
        <time>2021-03-20T16:19:14Z</time>
      </trkpt>
      <trkpt lat="56.71758" lon="-6.05631">
        <ele>128.49</ele>
        <time>2021-03-20T16:19:16Z</time>
      </trkpt>
      <trkpt lat="56.71767" lon="-6.05575">
        <ele>129.61</ele>
        <time>2021-03-20T16:19:18Z</time>
      </trkpt>
      <trkpt lat="56.71863" lon="-6.05428">
        <ele>136.13</ele>
        <time>2021-03-20T16:19:21Z</time>
      </trkpt>
      <trkpt lat="56.71922" lon="-6.05325">
        <ele>141.66</ele>
        <time>2021-03-20T16:19:23Z</time>
      </trkpt>
      <trkpt lat="56.71948" lon="-6.05232">
        <ele>144.77</ele>
        <time>2021-03-20T16:19:25Z</time>
      </trkpt>
      <trkpt lat="56.72032" lon="-6.05027">
        <ele>151.16</ele>
        <time>2021-03-20T16:19:27Z</time>
      </trkpt>
      <trkpt lat="56.72107" lon="-6.04934">
        <ele>152</ele>
        <time>2021-03-20T16:19:30Z</time>
      </trkpt>
      <trkpt lat="56.72307" lon="-6.04703">
        <ele>144.56</ele>
        <time>2021-03-20T16:19:32Z</time>
      </trkpt>
      <trkpt lat="56.72388" lon="-6.04659">
        <ele>136.43</ele>
        <time>2021-03-20T16:19:34Z</time>
      </trkpt>
      <trkpt lat="56.72434" lon="-6.04625">
        <ele>132.91</ele>
        <time>2021-03-20T16:19:36Z</time>
      </trkpt>
      <trkpt lat="56.72445" lon="-6.04611">
        <ele>131.97</ele>
        <time>2021-03-20T16:19:39Z</time>
      </trkpt>
      <trkpt lat="56.72468" lon="-6.04347">
        <ele>126.27</ele>
        <time>2021-03-20T16:19:41Z</time>
      </trkpt>
      <trkpt lat="56.72495" lon="-6.04126">
        <ele>123.07</ele>
        <time>2021-03-20T16:19:43Z</time>
      </trkpt>
      <trkpt lat="56.72484" lon="-6.03963">
        <ele>123.74</ele>
        <time>2021-03-20T16:19:45Z</time>
      </trkpt>
      <trkpt lat="56.72489" lon="-6.03943">
        <ele>122.2</ele>
        <time>2021-03-20T16:19:48Z</time>
      </trkpt>
      <trkpt lat="56.72495" lon="-6.03898">
        <ele>123.07</ele>
        <time>2021-03-20T16:19:50Z</time>
      </trkpt>
      <trkpt lat="56.7255" lon="-6.03824">
        <ele>128.17</ele>
        <time>2021-03-20T16:19:52Z</time>
      </trkpt>
      <trkpt lat="56.72668" lon="-6.03713">
        <ele>131.29</ele>
        <time>2021-03-20T16:19:54Z</time>
      </trkpt>
      <trkpt lat="56.72694" lon="-6.03695">
        <ele>132.02</ele>
        <time>2021-03-20T16:19:57Z</time>
      </trkpt>
      <trkpt lat="56.72788" lon="-6.03662">
        <ele>125.59</ele>
        <time>2021-03-20T16:19:59Z</time>
      </trkpt>
      <trkpt lat="56.72815" lon="-6.03631">
        <ele>124.96</ele>
        <time>2021-03-20T16:20:01Z</time>
      </trkpt>
      <trkpt lat="56.72825" lon="-6.03578">
        <ele>125.21</ele>
        <time>2021-03-20T16:20:03Z</time>
      </trkpt>
      <trkpt lat="56.72814" lon="-6.03499">
        <ele>127.57</ele>
        <time>2021-03-20T16:20:06Z</time>
      </trkpt>
      <trkpt lat="56.728" lon="-6.03433">
        <ele>131.54</ele>
        <time>2021-03-20T16:20:08Z</time>
      </trkpt>
      <trkpt lat="56.72801" lon="-6.03317">
        <ele>131.88</ele>
        <time>2021-03-20T16:20:10Z</time>
      </trkpt>
      <trkpt lat="56.72813" lon="-6.0322">
        <ele>135.03</ele>
        <time>2021-03-20T16:20:12Z</time>
      </trkpt>
      <trkpt lat="56.72823" lon="-6.0317">
        <ele>136.17</ele>
        <time>2021-03-20T16:20:15Z</time>
      </trkpt>
      <trkpt lat="56.72824" lon="-6.03109">
        <ele>135.21</ele>
        <time>2021-03-20T16:20:17Z</time>
      </trkpt>
      <trkpt lat="56.72795" lon="-6.02965">
        <ele>133.77</ele>
        <time>2021-03-20T16:20:19Z</time>
      </trkpt>
      <trkpt lat="56.72774" lon="-6.02876">
        <ele>132.71</ele>
        <time>2021-03-20T16:20:21Z</time>
      </trkpt>
      <trkpt lat="56.72709" lon="-6.02782">
        <ele>135.17</ele>
        <time>2021-03-20T16:20:24Z</time>
      </trkpt>
      <trkpt lat="56.72634" lon="-6.02658">
        <ele>135.77</ele>
        <time>2021-03-20T16:20:26Z</time>
      </trkpt>
      <trkpt lat="56.72548" lon="-6.02526">
        <ele>132.93</ele>
        <time>2021-03-20T16:20:28Z</time>
      </trkpt>
      <trkpt lat="56.7252" lon="-6.02501">
        <ele>130.95</ele>
        <time>2021-03-20T16:20:30Z</time>
      </trkpt>
      <trkpt lat="56.72486" lon="-6.02482">
        <ele>132.87</ele>
        <time>2021-03-20T16:20:33Z</time>
      </trkpt>
      <trkpt lat="56.72456" lon="-6.02453">
        <ele>131.82</ele>
        <time>2021-03-20T16:20:35Z</time>
      </trkpt>
      <trkpt lat="56.72401" lon="-6.02409">
        <ele>132.36</ele>
        <time>2021-03-20T16:20:37Z</time>
      </trkpt>
      <trkpt lat="56.72316" lon="-6.02401">
        <ele>137.77</ele>
        <time>2021-03-20T16:20:39Z</time>
      </trkpt>
      <trkpt lat="56.723" lon="-6.02391">
        <ele>136.81</ele>
        <time>2021-03-20T16:20:42Z</time>
      </trkpt>
      <trkpt lat="56.72278" lon="-6.02352">
        <ele>132.68</ele>
        <time>2021-03-20T16:20:44Z</time>
      </trkpt>
      <trkpt lat="56.72255" lon="-6.02306">
        <ele>129.48</ele>
        <time>2021-03-20T16:20:46Z</time>
      </trkpt>
      <trkpt lat="56.72196" lon="-6.02272">
        <ele>131.54</ele>
        <time>2021-03-20T16:20:48Z</time>
      </trkpt>
      <trkpt lat="56.7216" lon="-6.02246">
        <ele>133.07</ele>
        <time>2021-03-20T16:20:51Z</time>
      </trkpt>
      <trkpt lat="56.72109" lon="-6.02132">
        <ele>127.46</ele>
        <time>2021-03-20T16:20:53Z</time>
      </trkpt>
      <trkpt lat="56.72089" lon="-6.02112">
        <ele>126.68</ele>
        <time>2021-03-20T16:20:55Z</time>
      </trkpt>
      <trkpt lat="56.72057" lon="-6.02115">
        <ele>129.44</ele>
        <time>2021-03-20T16:20:57Z</time>
      </trkpt>
      <trkpt lat="56.71996" lon="-6.0209">
        <ele>127.65</ele>
        <time>2021-03-20T16:21:00Z</time>
      </trkpt>
      <trkpt lat="56.71847" lon="-6.02045">
        <ele>129.51</ele>
        <time>2021-03-20T16:21:02Z</time>
      </trkpt>
      <trkpt lat="56.71804" lon="-6.02049">
        <ele>130.63</ele>
        <time>2021-03-20T16:21:04Z</time>
      </trkpt>
      <trkpt lat="56.71703" lon="-6.01995">
        <ele>131.74</ele>
        <time>2021-03-20T16:21:06Z</time>
      </trkpt>
      <trkpt lat="56.71638" lon="-6.01976">
        <ele>134.12</ele>
        <time>2021-03-20T16:21:09Z</time>
      </trkpt>
      <trkpt lat="56.71619" lon="-6.0196">
        <ele>133.09</ele>
        <time>2021-03-20T16:21:11Z</time>
      </trkpt>
      <trkpt lat="56.71602" lon="-6.01929">
        <ele>132.11</ele>
        <time>2021-03-20T16:21:13Z</time>
      </trkpt>
      <trkpt lat="56.71594" lon="-6.01895">
        <ele>131.44</ele>
        <time>2021-03-20T16:21:15Z</time>
      </trkpt>
      <trkpt lat="56.71573" lon="-6.01784">
        <ele>131.32</ele>
        <time>2021-03-20T16:21:18Z</time>
      </trkpt>
      <trkpt lat="56.71553" lon="-6.01713">
        <ele>129.24</ele>
        <time>2021-03-20T16:21:20Z</time>
      </trkpt>
      <trkpt lat="56.7153" lon="-6.01686">
        <ele>127.91</ele>
        <time>2021-03-20T16:21:22Z</time>
      </trkpt>
      <trkpt lat="56.71487" lon="-6.0166">
        <ele>129.8</ele>
        <time>2021-03-20T16:21:24Z</time>
      </trkpt>
      <trkpt lat="56.71479" lon="-6.01642">
        <ele>130.26</ele>
        <time>2021-03-20T16:21:27Z</time>
      </trkpt>
      <trkpt lat="56.71475" lon="-6.01623">
        <ele>130.17</ele>
        <time>2021-03-20T16:21:29Z</time>
      </trkpt>
      <trkpt lat="56.71469" lon="-6.0154">
        <ele>130.26</ele>
        <time>2021-03-20T16:21:31Z</time>
      </trkpt>
      <trkpt lat="56.71445" lon="-6.01392">
        <ele>132.08</ele>
        <time>2021-03-20T16:21:33Z</time>
      </trkpt>
      <trkpt lat="56.71438" lon="-6.01361">
        <ele>131.25</ele>
        <time>2021-03-20T16:21:36Z</time>
      </trkpt>
      <trkpt lat="56.71426" lon="-6.01335">
        <ele>130.46</ele>
        <time>2021-03-20T16:21:38Z</time>
      </trkpt>
      <trkpt lat="56.71399" lon="-6.01285">
        <ele>130.99</ele>
        <time>2021-03-20T16:21:40Z</time>
      </trkpt>
      <trkpt lat="56.7138" lon="-6.01241">
        <ele>130.13</ele>
        <time>2021-03-20T16:21:42Z</time>
      </trkpt>
      <trkpt lat="56.7133" lon="-6.01177">
        <ele>132.59</ele>
        <time>2021-03-20T16:21:45Z</time>
      </trkpt>
      <trkpt lat="56.71232" lon="-6.01073">
        <ele>133.41</ele>
        <time>2021-03-20T16:21:47Z</time>
      </trkpt>
      <trkpt lat="56.71192" lon="-6.01045">
        <ele>133.64</ele>
        <time>2021-03-20T16:21:49Z</time>
      </trkpt>
      <trkpt lat="56.71181" lon="-6.0103">
        <ele>132.22</ele>
        <time>2021-03-20T16:21:51Z</time>
      </trkpt>
      <trkpt lat="56.71165" lon="-6.00964">
        <ele>129.02</ele>
        <time>2021-03-20T16:21:54Z</time>
      </trkpt>
      <trkpt lat="56.71156" lon="-6.00944">
        <ele>129.55</ele>
        <time>2021-03-20T16:21:56Z</time>
      </trkpt>
      <trkpt lat="56.71127" lon="-6.00908">
        <ele>133.59</ele>
        <time>2021-03-20T16:21:58Z</time>
      </trkpt>
      <trkpt lat="56.71103" lon="-6.00869">
        <ele>135.95</ele>
        <time>2021-03-20T16:22:00Z</time>
      </trkpt>
      <trkpt lat="56.71084" lon="-6.00834">
        <ele>134.08</ele>
        <time>2021-03-20T16:22:03Z</time>
      </trkpt>
      <trkpt lat="56.71067" lon="-6.00799">
        <ele>134.19</ele>
        <time>2021-03-20T16:22:05Z</time>
      </trkpt>
      <trkpt lat="56.71049" lon="-6.00754">
        <ele>133.8</ele>
        <time>2021-03-20T16:22:07Z</time>
      </trkpt>
      <trkpt lat="56.7103" lon="-6.0072">
        <ele>136.77</ele>
        <time>2021-03-20T16:22:09Z</time>
      </trkpt>
      <trkpt lat="56.70992" lon="-6.00674">
        <ele>143.1</ele>
        <time>2021-03-20T16:22:12Z</time>
      </trkpt>
      <trkpt lat="56.70961" lon="-6.00632">
        <ele>146.55</ele>
        <time>2021-03-20T16:22:14Z</time>
      </trkpt>
      <trkpt lat="56.70933" lon="-6.00603">
        <ele>149.26</ele>
        <time>2021-03-20T16:22:16Z</time>
      </trkpt>
      <trkpt lat="56.70869" lon="-6.00563">
        <ele>153.8</ele>
        <time>2021-03-20T16:22:18Z</time>
      </trkpt>
      <trkpt lat="56.70816" lon="-6.00511">
        <ele>157.23</ele>
        <time>2021-03-20T16:22:21Z</time>
      </trkpt>
      <trkpt lat="56.70766" lon="-6.00482">
        <ele>162.84</ele>
        <time>2021-03-20T16:22:23Z</time>
      </trkpt>
      <trkpt lat="56.70718" lon="-6.00441">
        <ele>163.07</ele>
        <time>2021-03-20T16:22:25Z</time>
      </trkpt>
      <trkpt lat="56.70653" lon="-6.00401">
        <ele>164.8</ele>
        <time>2021-03-20T16:22:27Z</time>
      </trkpt>
      <trkpt lat="56.70573" lon="-6.00331">
        <ele>171.3</ele>
        <time>2021-03-20T16:22:30Z</time>
      </trkpt>
      <trkpt lat="56.70483" lon="-6.0027">
        <ele>174.13</ele>
        <time>2021-03-20T16:22:32Z</time>
      </trkpt>
      <trkpt lat="56.70431" lon="-6.00229">
        <ele>171.3</ele>
        <time>2021-03-20T16:22:34Z</time>
      </trkpt>
      <trkpt lat="56.70386" lon="-6.00204">
        <ele>167.04</ele>
        <time>2021-03-20T16:22:36Z</time>
      </trkpt>
      <trkpt lat="56.70359" lon="-6.00206">
        <ele>163.73</ele>
        <time>2021-03-20T16:22:39Z</time>
      </trkpt>
      <trkpt lat="56.70352" lon="-6.00212">
        <ele>162.61</ele>
        <time>2021-03-20T16:22:41Z</time>
      </trkpt>
      <trkpt lat="56.70336" lon="-6.00233">
        <ele>161.53</ele>
        <time>2021-03-20T16:22:43Z</time>
      </trkpt>
      <trkpt lat="56.70329" lon="-6.00239">
        <ele>161.39</ele>
        <time>2021-03-20T16:22:45Z</time>
      </trkpt>
      <trkpt lat="56.70319" lon="-6.00241">
        <ele>160.82</ele>
        <time>2021-03-20T16:22:48Z</time>
      </trkpt>
      <trkpt lat="56.70304" lon="-6.00238">
        <ele>159.27</ele>
        <time>2021-03-20T16:22:50Z</time>
      </trkpt>
      <trkpt lat="56.70183" lon="-6.00187">
        <ele>150.57</ele>
        <time>2021-03-20T16:22:52Z</time>
      </trkpt>
      <trkpt lat="56.70122" lon="-6.00169">
        <ele>146.03</ele>
        <time>2021-03-20T16:22:54Z</time>
      </trkpt>
      <trkpt lat="56.70038" lon="-6.00129">
        <ele>139.47</ele>
        <time>2021-03-20T16:22:57Z</time>
      </trkpt>
      <trkpt lat="56.70015" lon="-6.00125">
        <ele>137.37</ele>
        <time>2021-03-20T16:22:59Z</time>
      </trkpt>
      <trkpt lat="56.69929" lon="-6.00131">
        <ele>130.79</ele>
        <time>2021-03-20T16:23:01Z</time>
      </trkpt>
      <trkpt lat="56.6987" lon="-6.00139">
        <ele>127.32</ele>
        <time>2021-03-20T16:23:03Z</time>
      </trkpt>
      <trkpt lat="56.69828" lon="-6.00138">
        <ele>124.7</ele>
        <time>2021-03-20T16:23:06Z</time>
      </trkpt>
      <trkpt lat="56.69706" lon="-6.00123">
        <ele>118.85</ele>
        <time>2021-03-20T16:23:08Z</time>
      </trkpt>
      <trkpt lat="56.69556" lon="-6.00109">
        <ele>109.84</ele>
        <time>2021-03-20T16:23:10Z</time>
      </trkpt>
      <trkpt lat="56.69524" lon="-6.00102">
        <ele>108.18</ele>
        <time>2021-03-20T16:23:12Z</time>
      </trkpt>
      <trkpt lat="56.69505" lon="-6.00086">
        <ele>106.38</ele>
        <time>2021-03-20T16:23:15Z</time>
      </trkpt>
      <trkpt lat="56.69494" lon="-6.00067">
        <ele>104.84</ele>
        <time>2021-03-20T16:23:17Z</time>
      </trkpt>
      <trkpt lat="56.69458" lon="-5.99974">
        <ele>103</ele>
        <time>2021-03-20T16:23:19Z</time>
      </trkpt>
      <trkpt lat="56.69421" lon="-5.99867">
        <ele>103.85</ele>
        <time>2021-03-20T16:23:21Z</time>
      </trkpt>
      <trkpt lat="56.69411" lon="-5.99832">
        <ele>104.39</ele>
        <time>2021-03-20T16:23:23Z</time>
      </trkpt>
      <trkpt lat="56.69402" lon="-5.99766">
        <ele>105.08</ele>
        <time>2021-03-20T16:23:26Z</time>
      </trkpt>
      <trkpt lat="56.69399" lon="-5.99582">
        <ele>106.92</ele>
        <time>2021-03-20T16:23:28Z</time>
      </trkpt>
      <trkpt lat="56.69395" lon="-5.99512">
        <ele>108.72</ele>
        <time>2021-03-20T16:23:30Z</time>
      </trkpt>
      <trkpt lat="56.69391" lon="-5.99473">
        <ele>108.82</ele>
        <time>2021-03-20T16:23:32Z</time>
      </trkpt>
      <trkpt lat="56.69387" lon="-5.9946">
        <ele>108.6</ele>
        <time>2021-03-20T16:23:35Z</time>
      </trkpt>
      <trkpt lat="56.69381" lon="-5.99451">
        <ele>108.32</ele>
        <time>2021-03-20T16:23:37Z</time>
      </trkpt>
      <trkpt lat="56.69373" lon="-5.99447">
        <ele>108.14</ele>
        <time>2021-03-20T16:23:39Z</time>
      </trkpt>
      <trkpt lat="56.69364" lon="-5.99447">
        <ele>108.16</ele>
        <time>2021-03-20T16:23:41Z</time>
      </trkpt>
      <trkpt lat="56.69343" lon="-5.99453">
        <ele>106.85</ele>
        <time>2021-03-20T16:23:44Z</time>
      </trkpt>
      <trkpt lat="56.69322" lon="-5.99451">
        <ele>105.25</ele>
        <time>2021-03-20T16:23:46Z</time>
      </trkpt>
      <trkpt lat="56.69306" lon="-5.9944">
        <ele>103.53</ele>
        <time>2021-03-20T16:23:48Z</time>
      </trkpt>
      <trkpt lat="56.69274" lon="-5.99398">
        <ele>100.14</ele>
        <time>2021-03-20T16:23:50Z</time>
      </trkpt>
      <trkpt lat="56.69187" lon="-5.99316">
        <ele>94.32</ele>
        <time>2021-03-20T16:23:53Z</time>
      </trkpt>
      <trkpt lat="56.6915" lon="-5.99251">
        <ele>86.44</ele>
        <time>2021-03-20T16:23:55Z</time>
      </trkpt>
      <trkpt lat="56.69115" lon="-5.99182">
        <ele>86.17</ele>
        <time>2021-03-20T16:23:57Z</time>
      </trkpt>
      <trkpt lat="56.69044" lon="-5.98999">
        <ele>86.75</ele>
        <time>2021-03-20T16:23:59Z</time>
      </trkpt>
      <trkpt lat="56.69036" lon="-5.98955">
        <ele>86.06</ele>
        <time>2021-03-20T16:24:02Z</time>
      </trkpt>
      <trkpt lat="56.69028" lon="-5.98898">
        <ele>86.68</ele>
        <time>2021-03-20T16:24:04Z</time>
      </trkpt>
      <trkpt lat="56.69022" lon="-5.98877">
        <ele>86.78</ele>
        <time>2021-03-20T16:24:06Z</time>
      </trkpt>
      <trkpt lat="56.68955" lon="-5.98703">
        <ele>83.26</ele>
        <time>2021-03-20T16:24:08Z</time>
      </trkpt>
      <trkpt lat="56.68948" lon="-5.98684">
        <ele>83.36</ele>
        <time>2021-03-20T16:24:11Z</time>
      </trkpt>
      <trkpt lat="56.68939" lon="-5.98632">
        <ele>86.23</ele>
        <time>2021-03-20T16:24:13Z</time>
      </trkpt>
      <trkpt lat="56.68934" lon="-5.98618">
        <ele>86.82</ele>
        <time>2021-03-20T16:24:15Z</time>
      </trkpt>
      <trkpt lat="56.68907" lon="-5.98557">
        <ele>86.08</ele>
        <time>2021-03-20T16:24:17Z</time>
      </trkpt>
      <trkpt lat="56.68879" lon="-5.98523">
        <ele>81.53</ele>
        <time>2021-03-20T16:24:20Z</time>
      </trkpt>
      <trkpt lat="56.68851" lon="-5.98467">
        <ele>81.47</ele>
        <time>2021-03-20T16:24:22Z</time>
      </trkpt>
      <trkpt lat="56.68829" lon="-5.98429">
        <ele>79.35</ele>
        <time>2021-03-20T16:24:24Z</time>
      </trkpt>
      <trkpt lat="56.68748" lon="-5.98255">
        <ele>78.97</ele>
        <time>2021-03-20T16:24:26Z</time>
      </trkpt>
      <trkpt lat="56.68714" lon="-5.98197">
        <ele>77.33</ele>
        <time>2021-03-20T16:24:29Z</time>
      </trkpt>
      <trkpt lat="56.68697" lon="-5.98174">
        <ele>75.26</ele>
        <time>2021-03-20T16:24:31Z</time>
      </trkpt>
      <trkpt lat="56.68673" lon="-5.98148">
        <ele>74.59</ele>
        <time>2021-03-20T16:24:33Z</time>
      </trkpt>
      <trkpt lat="56.6866" lon="-5.98137">
        <ele>74.63</ele>
        <time>2021-03-20T16:24:35Z</time>
      </trkpt>
      <trkpt lat="56.68648" lon="-5.98131">
        <ele>74.8</ele>
        <time>2021-03-20T16:24:38Z</time>
      </trkpt>
      <trkpt lat="56.6863" lon="-5.98127">
        <ele>73.88</ele>
        <time>2021-03-20T16:24:40Z</time>
      </trkpt>
      <trkpt lat="56.68593" lon="-5.98131">
        <ele>68.22</ele>
        <time>2021-03-20T16:24:42Z</time>
      </trkpt>
      <trkpt lat="56.68582" lon="-5.98129">
        <ele>67.76</ele>
        <time>2021-03-20T16:24:44Z</time>
      </trkpt>
      <trkpt lat="56.68542" lon="-5.9811">
        <ele>71.45</ele>
        <time>2021-03-20T16:24:47Z</time>
      </trkpt>
      <trkpt lat="56.68495" lon="-5.98108">
        <ele>69.18</ele>
        <time>2021-03-20T16:24:49Z</time>
      </trkpt>
      <trkpt lat="56.68445" lon="-5.98125">
        <ele>62.64</ele>
        <time>2021-03-20T16:24:51Z</time>
      </trkpt>
      <trkpt lat="56.68416" lon="-5.98124">
        <ele>63.33</ele>
        <time>2021-03-20T16:24:53Z</time>
      </trkpt>
      <trkpt lat="56.68375" lon="-5.98118">
        <ele>66.91</ele>
        <time>2021-03-20T16:24:56Z</time>
      </trkpt>
      <trkpt lat="56.68319" lon="-5.9814">
        <ele>60.73</ele>
        <time>2021-03-20T16:24:58Z</time>
      </trkpt>
      <trkpt lat="56.68289" lon="-5.98141">
        <ele>62.26</ele>
        <time>2021-03-20T16:25:00Z</time>
      </trkpt>
      <trkpt lat="56.68268" lon="-5.9813">
        <ele>63.65</ele>
        <time>2021-03-20T16:25:02Z</time>
      </trkpt>
      <trkpt lat="56.68245" lon="-5.98085">
        <ele>67.85</ele>
        <time>2021-03-20T16:25:05Z</time>
      </trkpt>
      <trkpt lat="56.68205" lon="-5.97943">
        <ele>71.9</ele>
        <time>2021-03-20T16:25:07Z</time>
      </trkpt>
      <trkpt lat="56.68184" lon="-5.97842">
        <ele>73.59</ele>
        <time>2021-03-20T16:25:09Z</time>
      </trkpt>
      <trkpt lat="56.68163" lon="-5.97717">
        <ele>69.87</ele>
        <time>2021-03-20T16:25:11Z</time>
      </trkpt>
      <trkpt lat="56.68139" lon="-5.97587">
        <ele>67.02</ele>
        <time>2021-03-20T16:25:14Z</time>
      </trkpt>
      <trkpt lat="56.68137" lon="-5.97564">
        <ele>66.9</ele>
        <time>2021-03-20T16:25:16Z</time>
      </trkpt>
      <trkpt lat="56.68138" lon="-5.97542">
        <ele>66.42</ele>
        <time>2021-03-20T16:25:18Z</time>
      </trkpt>
      <trkpt lat="56.68142" lon="-5.97528">
        <ele>66.16</ele>
        <time>2021-03-20T16:25:20Z</time>
      </trkpt>
      <trkpt lat="56.68148" lon="-5.97517">
        <ele>65.72</ele>
        <time>2021-03-20T16:25:23Z</time>
      </trkpt>
      <trkpt lat="56.68158" lon="-5.97512">
        <ele>65.83</ele>
        <time>2021-03-20T16:25:25Z</time>
      </trkpt>
      <trkpt lat="56.68169" lon="-5.97512">
        <ele>66.44</ele>
        <time>2021-03-20T16:25:27Z</time>
      </trkpt>
      <trkpt lat="56.6822" lon="-5.97523">
        <ele>71.8</ele>
        <time>2021-03-20T16:25:29Z</time>
      </trkpt>
      <trkpt lat="56.68244" lon="-5.97516">
        <ele>70.92</ele>
        <time>2021-03-20T16:25:32Z</time>
      </trkpt>
      <trkpt lat="56.68262" lon="-5.97505">
        <ele>69.66</ele>
        <time>2021-03-20T16:25:34Z</time>
      </trkpt>
      <trkpt lat="56.68279" lon="-5.97492">
        <ele>67.56</ele>
        <time>2021-03-20T16:25:36Z</time>
      </trkpt>
      <trkpt lat="56.68292" lon="-5.97477">
        <ele>65.63</ele>
        <time>2021-03-20T16:25:38Z</time>
      </trkpt>
      <trkpt lat="56.68352" lon="-5.97371">
        <ele>56.12</ele>
        <time>2021-03-20T16:25:41Z</time>
      </trkpt>
      <trkpt lat="56.68394" lon="-5.97243">
        <ele>42.49</ele>
        <time>2021-03-20T16:25:43Z</time>
      </trkpt>
      <trkpt lat="56.68407" lon="-5.97167">
        <ele>36.55</ele>
        <time>2021-03-20T16:25:45Z</time>
      </trkpt>
      <trkpt lat="56.68399" lon="-5.97124">
        <ele>31.17</ele>
        <time>2021-03-20T16:25:47Z</time>
      </trkpt>
      <trkpt lat="56.68371" lon="-5.97051">
        <ele>25.87</ele>
        <time>2021-03-20T16:25:50Z</time>
      </trkpt>
      <trkpt lat="56.6836" lon="-5.96977">
        <ele>25.81</ele>
        <time>2021-03-20T16:25:52Z</time>
      </trkpt>
      <trkpt lat="56.68353" lon="-5.96875">
        <ele>24.88</ele>
        <time>2021-03-20T16:25:54Z</time>
      </trkpt>
      <trkpt lat="56.68357" lon="-5.96786">
        <ele>22.17</ele>
        <time>2021-03-20T16:25:56Z</time>
      </trkpt>
      <trkpt lat="56.68391" lon="-5.96655">
        <ele>26.29</ele>
        <time>2021-03-20T16:25:59Z</time>
      </trkpt>
      <trkpt lat="56.68398" lon="-5.96292">
        <ele>10.86</ele>
        <time>2021-03-20T16:26:01Z</time>
      </trkpt>
      <trkpt lat="56.68405" lon="-5.96251">
        <ele>9.77</ele>
        <time>2021-03-20T16:26:03Z</time>
      </trkpt>
      <trkpt lat="56.68417" lon="-5.96221">
        <ele>8.99</ele>
        <time>2021-03-20T16:26:05Z</time>
      </trkpt>
      <trkpt lat="56.68441" lon="-5.96181">
        <ele>10.16</ele>
        <time>2021-03-20T16:26:08Z</time>
      </trkpt>
      <trkpt lat="56.6848" lon="-5.96141">
        <ele>10.73</ele>
        <time>2021-03-20T16:26:10Z</time>
      </trkpt>
      <trkpt lat="56.6851" lon="-5.96117">
        <ele>10.31</ele>
        <time>2021-03-20T16:26:12Z</time>
      </trkpt>
      <trkpt lat="56.6854" lon="-5.9611">
        <ele>11.36</ele>
        <time>2021-03-20T16:26:14Z</time>
      </trkpt>
      <trkpt lat="56.68553" lon="-5.96103">
        <ele>11.3</ele>
        <time>2021-03-20T16:26:17Z</time>
      </trkpt>
      <trkpt lat="56.68562" lon="-5.96088">
        <ele>10.56</ele>
        <time>2021-03-20T16:26:19Z</time>
      </trkpt>
      <trkpt lat="56.68573" lon="-5.96061">
        <ele>8.65</ele>
        <time>2021-03-20T16:26:21Z</time>
      </trkpt>
      <trkpt lat="56.68582" lon="-5.96031">
        <ele>7.19</ele>
        <time>2021-03-20T16:26:23Z</time>
      </trkpt>
      <trkpt lat="56.68591" lon="-5.95942">
        <ele>6.88</ele>
        <time>2021-03-20T16:26:26Z</time>
      </trkpt>
      <trkpt lat="56.6859" lon="-5.95853">
        <ele>7.35</ele>
        <time>2021-03-20T16:26:28Z</time>
      </trkpt>
      <trkpt lat="56.68576" lon="-5.95742">
        <ele>6</ele>
        <time>2021-03-20T16:26:30Z</time>
      </trkpt>
      <trkpt lat="56.68568" lon="-5.95705">
        <ele>7.33</ele>
        <time>2021-03-20T16:26:32Z</time>
      </trkpt>
      <trkpt lat="56.68559" lon="-5.95674">
        <ele>8.75</ele>
        <time>2021-03-20T16:26:35Z</time>
      </trkpt>
      <trkpt lat="56.68525" lon="-5.95607">
        <ele>10.12</ele>
        <time>2021-03-20T16:26:37Z</time>
      </trkpt>
      <trkpt lat="56.68521" lon="-5.95594">
        <ele>10.46</ele>
        <time>2021-03-20T16:26:39Z</time>
      </trkpt>
      <trkpt lat="56.68515" lon="-5.95566">
        <ele>11.15</ele>
        <time>2021-03-20T16:26:41Z</time>
      </trkpt>
      <trkpt lat="56.685" lon="-5.9542">
        <ele>12.1</ele>
        <time>2021-03-20T16:26:44Z</time>
      </trkpt>
      <trkpt lat="56.68501" lon="-5.95387">
        <ele>10.93</ele>
        <time>2021-03-20T16:26:46Z</time>
      </trkpt>
      <trkpt lat="56.68508" lon="-5.95371">
        <ele>10.19</ele>
        <time>2021-03-20T16:26:48Z</time>
      </trkpt>
      <trkpt lat="56.6856" lon="-5.95275">
        <ele>5.91</ele>
        <time>2021-03-20T16:26:50Z</time>
      </trkpt>
      <trkpt lat="56.6862" lon="-5.95122">
        <ele>7.99</ele>
        <time>2021-03-20T16:26:53Z</time>
      </trkpt>
      <trkpt lat="56.68638" lon="-5.95028">
        <ele>8.92</ele>
        <time>2021-03-20T16:26:55Z</time>
      </trkpt>
      <trkpt lat="56.68649" lon="-5.94992">
        <ele>8.07</ele>
        <time>2021-03-20T16:26:57Z</time>
      </trkpt>
      <trkpt lat="56.68662" lon="-5.94972">
        <ele>8.48</ele>
        <time>2021-03-20T16:26:59Z</time>
      </trkpt>
      <trkpt lat="56.68695" lon="-5.94935">
        <ele>8.39</ele>
        <time>2021-03-20T16:27:02Z</time>
      </trkpt>
      <trkpt lat="56.68709" lon="-5.94916">
        <ele>8.46</ele>
        <time>2021-03-20T16:27:04Z</time>
      </trkpt>
      <trkpt lat="56.68719" lon="-5.94886">
        <ele>6.6</ele>
        <time>2021-03-20T16:27:06Z</time>
      </trkpt>
      <trkpt lat="56.68755" lon="-5.94745">
        <ele>6.18</ele>
        <time>2021-03-20T16:27:08Z</time>
      </trkpt>
      <trkpt lat="56.6879" lon="-5.94699">
        <ele>6.09</ele>
        <time>2021-03-20T16:27:11Z</time>
      </trkpt>
      <trkpt lat="56.68882" lon="-5.94646">
        <ele>7.18</ele>
        <time>2021-03-20T16:27:13Z</time>
      </trkpt>
      <trkpt lat="56.68944" lon="-5.94576">
        <ele>11.28</ele>
        <time>2021-03-20T16:27:15Z</time>
      </trkpt>
      <trkpt lat="56.68972" lon="-5.94533">
        <ele>13.1</ele>
        <time>2021-03-20T16:27:17Z</time>
      </trkpt>
      <trkpt lat="56.68994" lon="-5.94512">
        <ele>15</ele>
        <time>2021-03-20T16:27:20Z</time>
      </trkpt>
      <trkpt lat="56.69" lon="-5.945">
        <ele>14.93</ele>
        <time>2021-03-20T16:27:22Z</time>
      </trkpt>
      <trkpt lat="56.6902" lon="-5.94441">
        <ele>14.9</ele>
        <time>2021-03-20T16:27:24Z</time>
      </trkpt>
      <trkpt lat="56.69024" lon="-5.94433">
        <ele>14.85</ele>
        <time>2021-03-20T16:27:26Z</time>
      </trkpt>
      <trkpt lat="56.69036" lon="-5.94423">
        <ele>15</ele>
        <time>2021-03-20T16:27:29Z</time>
      </trkpt>
      <trkpt lat="56.69088" lon="-5.9439">
        <ele>15.43</ele>
        <time>2021-03-20T16:27:31Z</time>
      </trkpt>
      <trkpt lat="56.691" lon="-5.94378">
        <ele>15.38</ele>
        <time>2021-03-20T16:27:33Z</time>
      </trkpt>
      <trkpt lat="56.69114" lon="-5.94351">
        <ele>14.65</ele>
        <time>2021-03-20T16:27:35Z</time>
      </trkpt>
      <trkpt lat="56.69143" lon="-5.9427">
        <ele>14.79</ele>
        <time>2021-03-20T16:27:38Z</time>
      </trkpt>
      <trkpt lat="56.69148" lon="-5.94246">
        <ele>16.4</ele>
        <time>2021-03-20T16:27:40Z</time>
      </trkpt>
      <trkpt lat="56.69147" lon="-5.94215">
        <ele>17.33</ele>
        <time>2021-03-20T16:27:42Z</time>
      </trkpt>
      <trkpt lat="56.69138" lon="-5.94189">
        <ele>17.1</ele>
        <time>2021-03-20T16:27:44Z</time>
      </trkpt>
      <trkpt lat="56.69045" lon="-5.93962">
        <ele>14.48</ele>
        <time>2021-03-20T16:27:47Z</time>
      </trkpt>
      <trkpt lat="56.68967" lon="-5.93828">
        <ele>17.2</ele>
        <time>2021-03-20T16:27:49Z</time>
      </trkpt>
      <trkpt lat="56.68918" lon="-5.93762">
        <ele>19.44</ele>
        <time>2021-03-20T16:27:51Z</time>
      </trkpt>
      <trkpt lat="56.68813" lon="-5.93679">
        <ele>21.05</ele>
        <time>2021-03-20T16:27:53Z</time>
      </trkpt>
      <trkpt lat="56.68767" lon="-5.93621">
        <ele>21.03</ele>
        <time>2021-03-20T16:27:56Z</time>
      </trkpt>
      <trkpt lat="56.68747" lon="-5.9359">
        <ele>19.64</ele>
        <time>2021-03-20T16:27:58Z</time>
      </trkpt>
      <trkpt lat="56.68736" lon="-5.93558">
        <ele>20.22</ele>
        <time>2021-03-20T16:28:00Z</time>
      </trkpt>
      <trkpt lat="56.68737" lon="-5.9353">
        <ele>21.74</ele>
        <time>2021-03-20T16:28:02Z</time>
      </trkpt>
      <trkpt lat="56.68746" lon="-5.93495">
        <ele>25.07</ele>
        <time>2021-03-20T16:28:04Z</time>
      </trkpt>
      <trkpt lat="56.68746" lon="-5.93448">
        <ele>27.08</ele>
        <time>2021-03-20T16:28:07Z</time>
      </trkpt>
      <trkpt lat="56.68736" lon="-5.934">
        <ele>26.35</ele>
        <time>2021-03-20T16:28:09Z</time>
      </trkpt>
      <trkpt lat="56.68592" lon="-5.93168">
        <ele>26.29</ele>
        <time>2021-03-20T16:28:11Z</time>
      </trkpt>
      <trkpt lat="56.68522" lon="-5.93013">
        <ele>30.05</ele>
        <time>2021-03-20T16:28:13Z</time>
      </trkpt>
      <trkpt lat="56.68512" lon="-5.92969">
        <ele>31.94</ele>
        <time>2021-03-20T16:28:16Z</time>
      </trkpt>
      <trkpt lat="56.68497" lon="-5.92924">
        <ele>32.83</ele>
        <time>2021-03-20T16:28:18Z</time>
      </trkpt>
      <trkpt lat="56.68452" lon="-5.92837">
        <ele>25.39</ele>
        <time>2021-03-20T16:28:20Z</time>
      </trkpt>
      <trkpt lat="56.68406" lon="-5.92762">
        <ele>19.7</ele>
        <time>2021-03-20T16:28:22Z</time>
      </trkpt>
      <trkpt lat="56.68352" lon="-5.9271">
        <ele>18.4</ele>
        <time>2021-03-20T16:28:25Z</time>
      </trkpt>
      <trkpt lat="56.68304" lon="-5.92679">
        <ele>19.07</ele>
        <time>2021-03-20T16:28:27Z</time>
      </trkpt>
      <trkpt lat="56.68161" lon="-5.92669">
        <ele>10.4</ele>
        <time>2021-03-20T16:28:29Z</time>
      </trkpt>
      <trkpt lat="56.68107" lon="-5.92642">
        <ele>11.37</ele>
        <time>2021-03-20T16:28:31Z</time>
      </trkpt>
      <trkpt lat="56.6805" lon="-5.92592">
        <ele>13.88</ele>
        <time>2021-03-20T16:28:34Z</time>
      </trkpt>
      <trkpt lat="56.67977" lon="-5.92507">
        <ele>23.29</ele>
        <time>2021-03-20T16:28:36Z</time>
      </trkpt>
      <trkpt lat="56.67834" lon="-5.92248">
        <ele>28.98</ele>
        <time>2021-03-20T16:28:38Z</time>
      </trkpt>
      <trkpt lat="56.67803" lon="-5.92134">
        <ele>22.6</ele>
        <time>2021-03-20T16:28:40Z</time>
      </trkpt>
      <trkpt lat="56.67771" lon="-5.92049">
        <ele>18.43</ele>
        <time>2021-03-20T16:28:43Z</time>
      </trkpt>
      <trkpt lat="56.67764" lon="-5.91996">
        <ele>19.55</ele>
        <time>2021-03-20T16:28:45Z</time>
      </trkpt>
      <trkpt lat="56.67751" lon="-5.91924">
        <ele>17.63</ele>
        <time>2021-03-20T16:28:47Z</time>
      </trkpt>
      <trkpt lat="56.67755" lon="-5.91852">
        <ele>15.11</ele>
        <time>2021-03-20T16:28:49Z</time>
      </trkpt>
      <trkpt lat="56.67752" lon="-5.91817">
        <ele>12.63</ele>
        <time>2021-03-20T16:28:52Z</time>
      </trkpt>
      <trkpt lat="56.67735" lon="-5.91711">
        <ele>15.31</ele>
        <time>2021-03-20T16:28:54Z</time>
      </trkpt>
      <trkpt lat="56.67729" lon="-5.91568">
        <ele>18.46</ele>
        <time>2021-03-20T16:28:56Z</time>
      </trkpt>
      <trkpt lat="56.6773" lon="-5.91514">
        <ele>18.09</ele>
        <time>2021-03-20T16:28:58Z</time>
      </trkpt>
      <trkpt lat="56.67696" lon="-5.91305">
        <ele>13.37</ele>
        <time>2021-03-20T16:29:01Z</time>
      </trkpt>
      <trkpt lat="56.67696" lon="-5.91273">
        <ele>12.35</ele>
        <time>2021-03-20T16:29:03Z</time>
      </trkpt>
      <trkpt lat="56.67706" lon="-5.91212">
        <ele>14.63</ele>
        <time>2021-03-20T16:29:05Z</time>
      </trkpt>
      <trkpt lat="56.67709" lon="-5.9117">
        <ele>16.03</ele>
        <time>2021-03-20T16:29:07Z</time>
      </trkpt>
      <trkpt lat="56.67703" lon="-5.91107">
        <ele>18.85</ele>
        <time>2021-03-20T16:29:10Z</time>
      </trkpt>
      <trkpt lat="56.67699" lon="-5.9104">
        <ele>22</ele>
        <time>2021-03-20T16:29:12Z</time>
      </trkpt>
      <trkpt lat="56.677" lon="-5.90978">
        <ele>22.35</ele>
        <time>2021-03-20T16:29:14Z</time>
      </trkpt>
      <trkpt lat="56.67702" lon="-5.90954">
        <ele>21.64</ele>
        <time>2021-03-20T16:29:16Z</time>
      </trkpt>
      <trkpt lat="56.67718" lon="-5.90912">
        <ele>19.32</ele>
        <time>2021-03-20T16:29:19Z</time>
      </trkpt>
      <trkpt lat="56.67744" lon="-5.9086">
        <ele>17.2</ele>
        <time>2021-03-20T16:29:21Z</time>
      </trkpt>
      <trkpt lat="56.67782" lon="-5.90798">
        <ele>15.92</ele>
        <time>2021-03-20T16:29:23Z</time>
      </trkpt>
      <trkpt lat="56.67843" lon="-5.90752">
        <ele>19.67</ele>
        <time>2021-03-20T16:29:25Z</time>
      </trkpt>
      <trkpt lat="56.67913" lon="-5.90693">
        <ele>16.41</ele>
        <time>2021-03-20T16:29:28Z</time>
      </trkpt>
      <trkpt lat="56.67995" lon="-5.90509">
        <ele>11.79</ele>
        <time>2021-03-20T16:29:30Z</time>
      </trkpt>
      <trkpt lat="56.68009" lon="-5.90491">
        <ele>12.76</ele>
        <time>2021-03-20T16:29:32Z</time>
      </trkpt>
      <trkpt lat="56.68019" lon="-5.90472">
        <ele>13.8</ele>
        <time>2021-03-20T16:29:34Z</time>
      </trkpt>
      <trkpt lat="56.68026" lon="-5.90456">
        <ele>14.08</ele>
        <time>2021-03-20T16:29:37Z</time>
      </trkpt>
      <trkpt lat="56.68027" lon="-5.90438">
        <ele>13.88</ele>
        <time>2021-03-20T16:29:39Z</time>
      </trkpt>
      <trkpt lat="56.68025" lon="-5.90423">
        <ele>13.54</ele>
        <time>2021-03-20T16:29:41Z</time>
      </trkpt>
      <trkpt lat="56.68013" lon="-5.90388">
        <ele>10.26</ele>
        <time>2021-03-20T16:29:43Z</time>
      </trkpt>
      <trkpt lat="56.67966" lon="-5.90309">
        <ele>5.76</ele>
        <time>2021-03-20T16:29:46Z</time>
      </trkpt>
      <trkpt lat="56.67953" lon="-5.90292">
        <ele>5.79</ele>
        <time>2021-03-20T16:29:48Z</time>
      </trkpt>
      <trkpt lat="56.67921" lon="-5.9026">
        <ele>5.68</ele>
        <time>2021-03-20T16:29:50Z</time>
      </trkpt>
      <trkpt lat="56.67913" lon="-5.9025">
        <ele>5.87</ele>
        <time>2021-03-20T16:29:52Z</time>
      </trkpt>
      <trkpt lat="56.67905" lon="-5.90235">
        <ele>6.1</ele>
        <time>2021-03-20T16:29:55Z</time>
      </trkpt>
      <trkpt lat="56.67886" lon="-5.90195">
        <ele>6.96</ele>
        <time>2021-03-20T16:29:57Z</time>
      </trkpt>
      <trkpt lat="56.67874" lon="-5.9018">
        <ele>8.04</ele>
        <time>2021-03-20T16:29:59Z</time>
      </trkpt>
      <trkpt lat="56.67862" lon="-5.90168">
        <ele>8.9</ele>
        <time>2021-03-20T16:30:01Z</time>
      </trkpt>
      <trkpt lat="56.67851" lon="-5.90161">
        <ele>9.76</ele>
        <time>2021-03-20T16:30:04Z</time>
      </trkpt>
      <trkpt lat="56.67833" lon="-5.90154">
        <ele>11.02</ele>
        <time>2021-03-20T16:30:06Z</time>
      </trkpt>
      <trkpt lat="56.67812" lon="-5.90149">
        <ele>13.6</ele>
        <time>2021-03-20T16:30:08Z</time>
      </trkpt>
      <trkpt lat="56.67789" lon="-5.90139">
        <ele>15.62</ele>
        <time>2021-03-20T16:30:10Z</time>
      </trkpt>
      <trkpt lat="56.67779" lon="-5.90131">
        <ele>16.26</ele>
        <time>2021-03-20T16:30:13Z</time>
      </trkpt>
      <trkpt lat="56.67765" lon="-5.90105">
        <ele>16.09</ele>
        <time>2021-03-20T16:30:15Z</time>
      </trkpt>
      <trkpt lat="56.67752" lon="-5.90063">
        <ele>15.85</ele>
        <time>2021-03-20T16:30:17Z</time>
      </trkpt>
      <trkpt lat="56.67747" lon="-5.90038">
        <ele>16</ele>
        <time>2021-03-20T16:30:19Z</time>
      </trkpt>
      <trkpt lat="56.67741" lon="-5.89961">
        <ele>16.71</ele>
        <time>2021-03-20T16:30:22Z</time>
      </trkpt>
      <trkpt lat="56.6774" lon="-5.89929">
        <ele>16.36</ele>
        <time>2021-03-20T16:30:24Z</time>
      </trkpt>
      <trkpt lat="56.67732" lon="-5.89865">
        <ele>18.2</ele>
        <time>2021-03-20T16:30:26Z</time>
      </trkpt>
      <trkpt lat="56.67732" lon="-5.89843">
        <ele>18.76</ele>
        <time>2021-03-20T16:30:28Z</time>
      </trkpt>
      <trkpt lat="56.67735" lon="-5.89689">
        <ele>17.36</ele>
        <time>2021-03-20T16:30:31Z</time>
      </trkpt>
      <trkpt lat="56.67735" lon="-5.8937">
        <ele>13.82</ele>
        <time>2021-03-20T16:30:33Z</time>
      </trkpt>
      <trkpt lat="56.67737" lon="-5.89228">
        <ele>14.07</ele>
        <time>2021-03-20T16:30:35Z</time>
      </trkpt>
      <trkpt lat="56.67731" lon="-5.88834">
        <ele>11.28</ele>
        <time>2021-03-20T16:30:37Z</time>
      </trkpt>
      <trkpt lat="56.67733" lon="-5.88793">
        <ele>11.62</ele>
        <time>2021-03-20T16:30:40Z</time>
      </trkpt>
      <trkpt lat="56.67737" lon="-5.88763">
        <ele>12.06</ele>
        <time>2021-03-20T16:30:42Z</time>
      </trkpt>
      <trkpt lat="56.67765" lon="-5.88652">
        <ele>17.73</ele>
        <time>2021-03-20T16:30:44Z</time>
      </trkpt>
      <trkpt lat="56.67793" lon="-5.88559">
        <ele>24.82</ele>
        <time>2021-03-20T16:30:46Z</time>
      </trkpt>
      <trkpt lat="56.67811" lon="-5.88389">
        <ele>25.64</ele>
        <time>2021-03-20T16:30:49Z</time>
      </trkpt>
      <trkpt lat="56.67818" lon="-5.88325">
        <ele>31.17</ele>
        <time>2021-03-20T16:30:51Z</time>
      </trkpt>
      <trkpt lat="56.67811" lon="-5.88259">
        <ele>37.47</ele>
        <time>2021-03-20T16:30:53Z</time>
      </trkpt>
      <trkpt lat="56.67794" lon="-5.88148">
        <ele>47.69</ele>
        <time>2021-03-20T16:30:55Z</time>
      </trkpt>
      <trkpt lat="56.67792" lon="-5.88079">
        <ele>48.28</ele>
        <time>2021-03-20T16:30:58Z</time>
      </trkpt>
      <trkpt lat="56.6779" lon="-5.87884">
        <ele>32.09</ele>
        <time>2021-03-20T16:31:00Z</time>
      </trkpt>
      <trkpt lat="56.67785" lon="-5.87841">
        <ele>29.26</ele>
        <time>2021-03-20T16:31:02Z</time>
      </trkpt>
      <trkpt lat="56.67773" lon="-5.87791">
        <ele>25.38</ele>
        <time>2021-03-20T16:31:04Z</time>
      </trkpt>
      <trkpt lat="56.6777" lon="-5.87748">
        <ele>23.82</ele>
        <time>2021-03-20T16:31:07Z</time>
      </trkpt>
      <trkpt lat="56.67773" lon="-5.87701">
        <ele>23.42</ele>
        <time>2021-03-20T16:31:09Z</time>
      </trkpt>
      <trkpt lat="56.67773" lon="-5.87632">
        <ele>24.15</ele>
        <time>2021-03-20T16:31:11Z</time>
      </trkpt>
      <trkpt lat="56.67769" lon="-5.87605">
        <ele>25.34</ele>
        <time>2021-03-20T16:31:13Z</time>
      </trkpt>
      <trkpt lat="56.67755" lon="-5.87575">
        <ele>23.62</ele>
        <time>2021-03-20T16:31:16Z</time>
      </trkpt>
      <trkpt lat="56.6774" lon="-5.87549">
        <ele>21.44</ele>
        <time>2021-03-20T16:31:18Z</time>
      </trkpt>
      <trkpt lat="56.6773" lon="-5.87522">
        <ele>20.31</ele>
        <time>2021-03-20T16:31:20Z</time>
      </trkpt>
      <trkpt lat="56.67725" lon="-5.87481">
        <ele>19.69</ele>
        <time>2021-03-20T16:31:22Z</time>
      </trkpt>
      <trkpt lat="56.67722" lon="-5.87405">
        <ele>14.6</ele>
        <time>2021-03-20T16:31:25Z</time>
      </trkpt>
      <trkpt lat="56.67724" lon="-5.87359">
        <ele>12.47</ele>
        <time>2021-03-20T16:31:27Z</time>
      </trkpt>
      <trkpt lat="56.67731" lon="-5.87321">
        <ele>13.49</ele>
        <time>2021-03-20T16:31:29Z</time>
      </trkpt>
      <trkpt lat="56.67748" lon="-5.87293">
        <ele>15.97</ele>
        <time>2021-03-20T16:31:31Z</time>
      </trkpt>
      <trkpt lat="56.67778" lon="-5.87275">
        <ele>24.4</ele>
        <time>2021-03-20T16:31:34Z</time>
      </trkpt>
      <trkpt lat="56.67819" lon="-5.87259">
        <ele>29.55</ele>
        <time>2021-03-20T16:31:36Z</time>
      </trkpt>
      <trkpt lat="56.67836" lon="-5.87247">
        <ele>29.75</ele>
        <time>2021-03-20T16:31:38Z</time>
      </trkpt>
      <trkpt lat="56.67845" lon="-5.8723">
        <ele>27.59</ele>
        <time>2021-03-20T16:31:40Z</time>
      </trkpt>
      <trkpt lat="56.67856" lon="-5.87201">
        <ele>27.83</ele>
        <time>2021-03-20T16:31:43Z</time>
      </trkpt>
      <trkpt lat="56.67907" lon="-5.87134">
        <ele>34.3</ele>
        <time>2021-03-20T16:31:45Z</time>
      </trkpt>
      <trkpt lat="56.6794" lon="-5.8706">
        <ele>30.75</ele>
        <time>2021-03-20T16:31:47Z</time>
      </trkpt>
      <trkpt lat="56.67998" lon="-5.86913">
        <ele>25.2</ele>
        <time>2021-03-20T16:31:49Z</time>
      </trkpt>
      <trkpt lat="56.68038" lon="-5.86803">
        <ele>23.73</ele>
        <time>2021-03-20T16:31:52Z</time>
      </trkpt>
      <trkpt lat="56.68093" lon="-5.86725">
        <ele>27.7</ele>
        <time>2021-03-20T16:31:54Z</time>
      </trkpt>
      <trkpt lat="56.68143" lon="-5.86637">
        <ele>23.33</ele>
        <time>2021-03-20T16:31:56Z</time>
      </trkpt>
      <trkpt lat="56.68162" lon="-5.86596">
        <ele>22.5</ele>
        <time>2021-03-20T16:31:58Z</time>
      </trkpt>
      <trkpt lat="56.68173" lon="-5.8654">
        <ele>22.96</ele>
        <time>2021-03-20T16:32:01Z</time>
      </trkpt>
      <trkpt lat="56.68198" lon="-5.86431">
        <ele>27.01</ele>
        <time>2021-03-20T16:32:03Z</time>
      </trkpt>
      <trkpt lat="56.68182" lon="-5.86151">
        <ele>28.32</ele>
        <time>2021-03-20T16:32:05Z</time>
      </trkpt>
      <trkpt lat="56.68171" lon="-5.86087">
        <ele>28.18</ele>
        <time>2021-03-20T16:32:07Z</time>
      </trkpt>
      <trkpt lat="56.68156" lon="-5.86045">
        <ele>27.45</ele>
        <time>2021-03-20T16:32:10Z</time>
      </trkpt>
      <trkpt lat="56.68125" lon="-5.85971">
        <ele>24.05</ele>
        <time>2021-03-20T16:32:12Z</time>
      </trkpt>
      <trkpt lat="56.68108" lon="-5.85861">
        <ele>27</ele>
        <time>2021-03-20T16:32:14Z</time>
      </trkpt>
      <trkpt lat="56.68077" lon="-5.85742">
        <ele>29.71</ele>
        <time>2021-03-20T16:32:16Z</time>
      </trkpt>
      <trkpt lat="56.68049" lon="-5.85694">
        <ele>26.61</ele>
        <time>2021-03-20T16:32:19Z</time>
      </trkpt>
      <trkpt lat="56.68008" lon="-5.85617">
        <ele>27.95</ele>
        <time>2021-03-20T16:32:21Z</time>
      </trkpt>
      <trkpt lat="56.67992" lon="-5.85576">
        <ele>32.59</ele>
        <time>2021-03-20T16:32:23Z</time>
      </trkpt>
      <trkpt lat="56.67982" lon="-5.85531">
        <ele>36.16</ele>
        <time>2021-03-20T16:32:25Z</time>
      </trkpt>
      <trkpt lat="56.67965" lon="-5.85361">
        <ele>44.49</ele>
        <time>2021-03-20T16:32:28Z</time>
      </trkpt>
      <trkpt lat="56.67959" lon="-5.8525">
        <ele>51.08</ele>
        <time>2021-03-20T16:32:30Z</time>
      </trkpt>
      <trkpt lat="56.67942" lon="-5.85135">
        <ele>53.12</ele>
        <time>2021-03-20T16:32:32Z</time>
      </trkpt>
      <trkpt lat="56.67909" lon="-5.84939">
        <ele>64.9</ele>
        <time>2021-03-20T16:32:34Z</time>
      </trkpt>
      <trkpt lat="56.67895" lon="-5.84827">
        <ele>71.45</ele>
        <time>2021-03-20T16:32:37Z</time>
      </trkpt>
      <trkpt lat="56.67869" lon="-5.84687">
        <ele>72.1</ele>
        <time>2021-03-20T16:32:39Z</time>
      </trkpt>
      <trkpt lat="56.67837" lon="-5.8455">
        <ele>62.1</ele>
        <time>2021-03-20T16:32:41Z</time>
      </trkpt>
      <trkpt lat="56.67837" lon="-5.84509">
        <ele>58.66</ele>
        <time>2021-03-20T16:32:43Z</time>
      </trkpt>
      <trkpt lat="56.6785" lon="-5.84382">
        <ele>53.5</ele>
        <time>2021-03-20T16:32:45Z</time>
      </trkpt>
      <trkpt lat="56.67853" lon="-5.84334">
        <ele>51.61</ele>
        <time>2021-03-20T16:32:48Z</time>
      </trkpt>
      <trkpt lat="56.67842" lon="-5.84227">
        <ele>49.99</ele>
        <time>2021-03-20T16:32:50Z</time>
      </trkpt>
      <trkpt lat="56.67837" lon="-5.84153">
        <ele>48.83</ele>
        <time>2021-03-20T16:32:52Z</time>
      </trkpt>
      <trkpt lat="56.67857" lon="-5.84022">
        <ele>56.94</ele>
        <time>2021-03-20T16:32:54Z</time>
      </trkpt>
      <trkpt lat="56.67856" lon="-5.83932">
        <ele>60.41</ele>
        <time>2021-03-20T16:32:57Z</time>
      </trkpt>
      <trkpt lat="56.67851" lon="-5.83886">
        <ele>59.01</ele>
        <time>2021-03-20T16:32:59Z</time>
      </trkpt>
      <trkpt lat="56.6784" lon="-5.83816">
        <ele>53.56</ele>
        <time>2021-03-20T16:33:01Z</time>
      </trkpt>
      <trkpt lat="56.67838" lon="-5.83782">
        <ele>52.23</ele>
        <time>2021-03-20T16:33:03Z</time>
      </trkpt>
      <trkpt lat="56.67863" lon="-5.8357">
        <ele>50.26</ele>
        <time>2021-03-20T16:33:06Z</time>
      </trkpt>
      <trkpt lat="56.67879" lon="-5.83512">
        <ele>49.57</ele>
        <time>2021-03-20T16:33:08Z</time>
      </trkpt>
      <trkpt lat="56.6791" lon="-5.83471">
        <ele>49.25</ele>
        <time>2021-03-20T16:33:10Z</time>
      </trkpt>
      <trkpt lat="56.67948" lon="-5.83409">
        <ele>50.3</ele>
        <time>2021-03-20T16:33:12Z</time>
      </trkpt>
      <trkpt lat="56.67953" lon="-5.83374">
        <ele>47.58</ele>
        <time>2021-03-20T16:33:15Z</time>
      </trkpt>
      <trkpt lat="56.67951" lon="-5.83307">
        <ele>39.15</ele>
        <time>2021-03-20T16:33:17Z</time>
      </trkpt>
      <trkpt lat="56.67957" lon="-5.8328">
        <ele>37.99</ele>
        <time>2021-03-20T16:33:19Z</time>
      </trkpt>
      <trkpt lat="56.6798" lon="-5.83242">
        <ele>41.31</ele>
        <time>2021-03-20T16:33:21Z</time>
      </trkpt>
      <trkpt lat="56.68029" lon="-5.83169">
        <ele>39.8</ele>
        <time>2021-03-20T16:33:24Z</time>
      </trkpt>
      <trkpt lat="56.68049" lon="-5.83128">
        <ele>37.15</ele>
        <time>2021-03-20T16:33:26Z</time>
      </trkpt>
      <trkpt lat="56.68058" lon="-5.8306">
        <ele>29.29</ele>
        <time>2021-03-20T16:33:28Z</time>
      </trkpt>
      <trkpt lat="56.6806" lon="-5.83027">
        <ele>28.13</ele>
        <time>2021-03-20T16:33:30Z</time>
      </trkpt>
      <trkpt lat="56.68057" lon="-5.82946">
        <ele>22.41</ele>
        <time>2021-03-20T16:33:33Z</time>
      </trkpt>
      <trkpt lat="56.68076" lon="-5.82845">
        <ele>22.13</ele>
        <time>2021-03-20T16:33:35Z</time>
      </trkpt>
      <trkpt lat="56.6809" lon="-5.82822">
        <ele>22.3</ele>
        <time>2021-03-20T16:33:37Z</time>
      </trkpt>
      <trkpt lat="56.68104" lon="-5.82807">
        <ele>23.14</ele>
        <time>2021-03-20T16:33:39Z</time>
      </trkpt>
      <trkpt lat="56.68146" lon="-5.82812">
        <ele>27.39</ele>
        <time>2021-03-20T16:33:42Z</time>
      </trkpt>
      <trkpt lat="56.68169" lon="-5.82802">
        <ele>26.56</ele>
        <time>2021-03-20T16:33:44Z</time>
      </trkpt>
      <trkpt lat="56.68233" lon="-5.82795">
        <ele>26.84</ele>
        <time>2021-03-20T16:33:46Z</time>
      </trkpt>
      <trkpt lat="56.68246" lon="-5.82798">
        <ele>26.4</ele>
        <time>2021-03-20T16:33:48Z</time>
      </trkpt>
      <trkpt lat="56.68264" lon="-5.82784">
        <ele>26.4</ele>
        <time>2021-03-20T16:33:51Z</time>
      </trkpt>
      <trkpt lat="56.68274" lon="-5.82768">
        <ele>27.06</ele>
        <time>2021-03-20T16:33:53Z</time>
      </trkpt>
      <trkpt lat="56.68292" lon="-5.82692">
        <ele>25.83</ele>
        <time>2021-03-20T16:33:55Z</time>
      </trkpt>
      <trkpt lat="56.68304" lon="-5.82612">
        <ele>19.79</ele>
        <time>2021-03-20T16:33:57Z</time>
      </trkpt>
      <trkpt lat="56.68315" lon="-5.82572">
        <ele>22.06</ele>
        <time>2021-03-20T16:34:00Z</time>
      </trkpt>
      <trkpt lat="56.68349" lon="-5.82473">
        <ele>22.96</ele>
        <time>2021-03-20T16:34:02Z</time>
      </trkpt>
      <trkpt lat="56.68376" lon="-5.82429">
        <ele>23</ele>
        <time>2021-03-20T16:34:04Z</time>
      </trkpt>
      <trkpt lat="56.68393" lon="-5.82395">
        <ele>21.67</ele>
        <time>2021-03-20T16:34:06Z</time>
      </trkpt>
      <trkpt lat="56.68398" lon="-5.82376">
        <ele>20.63</ele>
        <time>2021-03-20T16:34:09Z</time>
      </trkpt>
      <trkpt lat="56.684" lon="-5.82353">
        <ele>19.01</ele>
        <time>2021-03-20T16:34:11Z</time>
      </trkpt>
      <trkpt lat="56.68397" lon="-5.82306">
        <ele>14.35</ele>
        <time>2021-03-20T16:34:13Z</time>
      </trkpt>
      <trkpt lat="56.684" lon="-5.8226">
        <ele>12.76</ele>
        <time>2021-03-20T16:34:15Z</time>
      </trkpt>
      <trkpt lat="56.68416" lon="-5.82197">
        <ele>12.89</ele>
        <time>2021-03-20T16:34:18Z</time>
      </trkpt>
      <trkpt lat="56.68439" lon="-5.82141">
        <ele>15.02</ele>
        <time>2021-03-20T16:34:20Z</time>
      </trkpt>
      <trkpt lat="56.6845" lon="-5.82106">
        <ele>13.6</ele>
        <time>2021-03-20T16:34:22Z</time>
      </trkpt>
      <trkpt lat="56.68455" lon="-5.82067">
        <ele>12.29</ele>
        <time>2021-03-20T16:34:24Z</time>
      </trkpt>
      <trkpt lat="56.68454" lon="-5.82041">
        <ele>10.85</ele>
        <time>2021-03-20T16:34:27Z</time>
      </trkpt>
      <trkpt lat="56.68451" lon="-5.82015">
        <ele>9.02</ele>
        <time>2021-03-20T16:34:29Z</time>
      </trkpt>
      <trkpt lat="56.68446" lon="-5.81998">
        <ele>7.26</ele>
        <time>2021-03-20T16:34:31Z</time>
      </trkpt>
      <trkpt lat="56.68412" lon="-5.81928">
        <ele>6.2</ele>
        <time>2021-03-20T16:34:33Z</time>
      </trkpt>
      <trkpt lat="56.68405" lon="-5.819">
        <ele>5.22</ele>
        <time>2021-03-20T16:34:36Z</time>
      </trkpt>
      <trkpt lat="56.68409" lon="-5.81877">
        <ele>5.93</ele>
        <time>2021-03-20T16:34:38Z</time>
      </trkpt>
      <trkpt lat="56.6842" lon="-5.81856">
        <ele>7.22</ele>
        <time>2021-03-20T16:34:40Z</time>
      </trkpt>
      <trkpt lat="56.68433" lon="-5.81844">
        <ele>8.2</ele>
        <time>2021-03-20T16:34:42Z</time>
      </trkpt>
      <trkpt lat="56.68507" lon="-5.81809">
        <ele>12.09</ele>
        <time>2021-03-20T16:34:45Z</time>
      </trkpt>
      <trkpt lat="56.68524" lon="-5.81794">
        <ele>12.34</ele>
        <time>2021-03-20T16:34:47Z</time>
      </trkpt>
      <trkpt lat="56.68535" lon="-5.81778">
        <ele>12.68</ele>
        <time>2021-03-20T16:34:49Z</time>
      </trkpt>
      <trkpt lat="56.68541" lon="-5.81747">
        <ele>12.69</ele>
        <time>2021-03-20T16:34:51Z</time>
      </trkpt>
      <trkpt lat="56.68539" lon="-5.81696">
        <ele>11</ele>
        <time>2021-03-20T16:34:54Z</time>
      </trkpt>
      <trkpt lat="56.68542" lon="-5.81681">
        <ele>11.29</ele>
        <time>2021-03-20T16:34:56Z</time>
      </trkpt>
      <trkpt lat="56.68555" lon="-5.81655">
        <ele>12.46</ele>
        <time>2021-03-20T16:34:58Z</time>
      </trkpt>
      <trkpt lat="56.68563" lon="-5.81632">
        <ele>13.9</ele>
        <time>2021-03-20T16:35:00Z</time>
      </trkpt>
      <trkpt lat="56.68569" lon="-5.81608">
        <ele>14.14</ele>
        <time>2021-03-20T16:35:03Z</time>
      </trkpt>
      <trkpt lat="56.68581" lon="-5.81581">
        <ele>15.32</ele>
        <time>2021-03-20T16:35:05Z</time>
      </trkpt>
      <trkpt lat="56.68589" lon="-5.81552">
        <ele>15.4</ele>
        <time>2021-03-20T16:35:07Z</time>
      </trkpt>
      <trkpt lat="56.6861" lon="-5.815">
        <ele>18.78</ele>
        <time>2021-03-20T16:35:09Z</time>
      </trkpt>
      <trkpt lat="56.68646" lon="-5.81455">
        <ele>24.35</ele>
        <time>2021-03-20T16:35:12Z</time>
      </trkpt>
      <trkpt lat="56.68654" lon="-5.81431">
        <ele>24.69</ele>
        <time>2021-03-20T16:35:14Z</time>
      </trkpt>
      <trkpt lat="56.68659" lon="-5.8139">
        <ele>24.06</ele>
        <time>2021-03-20T16:35:16Z</time>
      </trkpt>
      <trkpt lat="56.6867" lon="-5.81363">
        <ele>25.97</ele>
        <time>2021-03-20T16:35:18Z</time>
      </trkpt>
      <trkpt lat="56.68673" lon="-5.81333">
        <ele>24.55</ele>
        <time>2021-03-20T16:35:21Z</time>
      </trkpt>
      <trkpt lat="56.68671" lon="-5.81305">
        <ele>23.06</ele>
        <time>2021-03-20T16:35:23Z</time>
      </trkpt>
      <trkpt lat="56.68661" lon="-5.81259">
        <ele>19.22</ele>
        <time>2021-03-20T16:35:25Z</time>
      </trkpt>
      <trkpt lat="56.68658" lon="-5.81236">
        <ele>18.13</ele>
        <time>2021-03-20T16:35:27Z</time>
      </trkpt>
      <trkpt lat="56.68667" lon="-5.81192">
        <ele>17.87</ele>
        <time>2021-03-20T16:35:30Z</time>
      </trkpt>
      <trkpt lat="56.68682" lon="-5.81165">
        <ele>19.49</ele>
        <time>2021-03-20T16:35:32Z</time>
      </trkpt>
      <trkpt lat="56.68705" lon="-5.81137">
        <ele>21.17</ele>
        <time>2021-03-20T16:35:34Z</time>
      </trkpt>
      <trkpt lat="56.68716" lon="-5.81117">
        <ele>21.17</ele>
        <time>2021-03-20T16:35:36Z</time>
      </trkpt>
      <trkpt lat="56.68727" lon="-5.81073">
        <ele>20.08</ele>
        <time>2021-03-20T16:35:39Z</time>
      </trkpt>
      <trkpt lat="56.68738" lon="-5.81008">
        <ele>14.88</ele>
        <time>2021-03-20T16:35:41Z</time>
      </trkpt>
      <trkpt lat="56.68746" lon="-5.80988">
        <ele>14.11</ele>
        <time>2021-03-20T16:35:43Z</time>
      </trkpt>
      <trkpt lat="56.68756" lon="-5.80971">
        <ele>14.35</ele>
        <time>2021-03-20T16:35:45Z</time>
      </trkpt>
      <trkpt lat="56.68766" lon="-5.80959">
        <ele>14.89</ele>
        <time>2021-03-20T16:35:48Z</time>
      </trkpt>
      <trkpt lat="56.6897" lon="-5.80837">
        <ele>22.32</ele>
        <time>2021-03-20T16:35:50Z</time>
      </trkpt>
      <trkpt lat="56.68993" lon="-5.8082">
        <ele>20.27</ele>
        <time>2021-03-20T16:35:52Z</time>
      </trkpt>
      <trkpt lat="56.68993" lon="-5.8082">
        <ele>20.27</ele>
        <time>2021-03-20T16:35:52Z</time>
      </trkpt>
      <trkpt lat="56.69017" lon="-5.80802">
        <ele>18.22</ele>
        <time>2021-03-20T16:35:55Z</time>
      </trkpt>
      <trkpt lat="56.69053" lon="-5.80744">
        <ele>11.1</ele>
        <time>2021-03-20T16:35:57Z</time>
      </trkpt>
      <trkpt lat="56.69068" lon="-5.80699">
        <ele>10.81</ele>
        <time>2021-03-20T16:35:59Z</time>
      </trkpt>
      <trkpt lat="56.69083" lon="-5.80662">
        <ele>11.64</ele>
        <time>2021-03-20T16:36:01Z</time>
      </trkpt>
      <trkpt lat="56.69111" lon="-5.80621">
        <ele>13.09</ele>
        <time>2021-03-20T16:36:03Z</time>
      </trkpt>
      <trkpt lat="56.69193" lon="-5.8053">
        <ele>15.06</ele>
        <time>2021-03-20T16:36:05Z</time>
      </trkpt>
      <trkpt lat="56.69242" lon="-5.8046">
        <ele>9.13</ele>
        <time>2021-03-20T16:36:08Z</time>
      </trkpt>
      <trkpt lat="56.69287" lon="-5.80391">
        <ele>12.07</ele>
        <time>2021-03-20T16:36:10Z</time>
      </trkpt>
      <trkpt lat="56.69353" lon="-5.80333">
        <ele>17.2</ele>
        <time>2021-03-20T16:36:12Z</time>
      </trkpt>
      <trkpt lat="56.69372" lon="-5.80293">
        <ele>15.81</ele>
        <time>2021-03-20T16:36:14Z</time>
      </trkpt>
      <trkpt lat="56.69401" lon="-5.802">
        <ele>15.98</ele>
        <time>2021-03-20T16:36:16Z</time>
      </trkpt>
      <trkpt lat="56.69415" lon="-5.80099">
        <ele>15.33</ele>
        <time>2021-03-20T16:36:18Z</time>
      </trkpt>
      <trkpt lat="56.69434" lon="-5.80058">
        <ele>13.78</ele>
        <time>2021-03-20T16:36:21Z</time>
      </trkpt>
      <trkpt lat="56.69465" lon="-5.80027">
        <ele>14.08</ele>
        <time>2021-03-20T16:36:23Z</time>
      </trkpt>
      <trkpt lat="56.69479" lon="-5.80003">
        <ele>12.72</ele>
        <time>2021-03-20T16:36:25Z</time>
      </trkpt>
      <trkpt lat="56.69493" lon="-5.79947">
        <ele>10.22</ele>
        <time>2021-03-20T16:36:27Z</time>
      </trkpt>
      <trkpt lat="56.69492" lon="-5.79897">
        <ele>5.93</ele>
        <time>2021-03-20T16:36:29Z</time>
      </trkpt>
      <trkpt lat="56.69504" lon="-5.79802">
        <ele>5.35</ele>
        <time>2021-03-20T16:36:31Z</time>
      </trkpt>
      <trkpt lat="56.69536" lon="-5.79753">
        <ele>7.25</ele>
        <time>2021-03-20T16:36:33Z</time>
      </trkpt>
      <trkpt lat="56.69551" lon="-5.79717">
        <ele>7.51</ele>
        <time>2021-03-20T16:36:36Z</time>
      </trkpt>
      <trkpt lat="56.69579" lon="-5.7968">
        <ele>8.08</ele>
        <time>2021-03-20T16:36:38Z</time>
      </trkpt>
      <trkpt lat="56.69596" lon="-5.7964">
        <ele>9.22</ele>
        <time>2021-03-20T16:36:40Z</time>
      </trkpt>
      <trkpt lat="56.69596" lon="-5.79528">
        <ele>8.68</ele>
        <time>2021-03-20T16:36:42Z</time>
      </trkpt>
      <trkpt lat="56.69605" lon="-5.79485">
        <ele>11.4</ele>
        <time>2021-03-20T16:36:44Z</time>
      </trkpt>
      <trkpt lat="56.69627" lon="-5.7943">
        <ele>12.04</ele>
        <time>2021-03-20T16:36:46Z</time>
      </trkpt>
      <trkpt lat="56.69648" lon="-5.79416">
        <ele>13.23</ele>
        <time>2021-03-20T16:36:49Z</time>
      </trkpt>
      <trkpt lat="56.69662" lon="-5.79416">
        <ele>13.81</ele>
        <time>2021-03-20T16:36:51Z</time>
      </trkpt>
      <trkpt lat="56.69675" lon="-5.79412">
        <ele>14.04</ele>
        <time>2021-03-20T16:36:53Z</time>
      </trkpt>
      <trkpt lat="56.69691" lon="-5.79402">
        <ele>13.72</ele>
        <time>2021-03-20T16:36:55Z</time>
      </trkpt>
      <trkpt lat="56.69707" lon="-5.79364">
        <ele>11.62</ele>
        <time>2021-03-20T16:36:57Z</time>
      </trkpt>
      <trkpt lat="56.69722" lon="-5.79343">
        <ele>10.06</ele>
        <time>2021-03-20T16:36:59Z</time>
      </trkpt>
      <trkpt lat="56.69743" lon="-5.79329">
        <ele>9.38</ele>
        <time>2021-03-20T16:37:02Z</time>
      </trkpt>
      <trkpt lat="56.69792" lon="-5.79276">
        <ele>9.49</ele>
        <time>2021-03-20T16:37:04Z</time>
      </trkpt>
      <trkpt lat="56.69844" lon="-5.7925">
        <ele>15.78</ele>
        <time>2021-03-20T16:37:06Z</time>
      </trkpt>
      <trkpt lat="56.69876" lon="-5.79226">
        <ele>15.43</ele>
        <time>2021-03-20T16:37:08Z</time>
      </trkpt>
      <trkpt lat="56.69908" lon="-5.79197">
        <ele>15.15</ele>
        <time>2021-03-20T16:37:10Z</time>
      </trkpt>
      <trkpt lat="56.69929" lon="-5.79163">
        <ele>12.56</ele>
        <time>2021-03-20T16:37:12Z</time>
      </trkpt>
      <trkpt lat="56.69944" lon="-5.79127">
        <ele>11.1</ele>
        <time>2021-03-20T16:37:15Z</time>
      </trkpt>
      <trkpt lat="56.69969" lon="-5.79108">
        <ele>12.32</ele>
        <time>2021-03-20T16:37:17Z</time>
      </trkpt>
      <trkpt lat="56.69995" lon="-5.79106">
        <ele>13.31</ele>
        <time>2021-03-20T16:37:19Z</time>
      </trkpt>
      <trkpt lat="56.70022" lon="-5.79098">
        <ele>12.93</ele>
        <time>2021-03-20T16:37:21Z</time>
      </trkpt>
      <trkpt lat="56.70059" lon="-5.791">
        <ele>15.66</ele>
        <time>2021-03-20T16:37:23Z</time>
      </trkpt>
      <trkpt lat="56.70087" lon="-5.79106">
        <ele>15.65</ele>
        <time>2021-03-20T16:37:25Z</time>
      </trkpt>
      <trkpt lat="56.70117" lon="-5.79104">
        <ele>13.7</ele>
        <time>2021-03-20T16:37:28Z</time>
      </trkpt>
      <trkpt lat="56.70147" lon="-5.79082">
        <ele>14.88</ele>
        <time>2021-03-20T16:37:30Z</time>
      </trkpt>
      <trkpt lat="56.70276" lon="-5.78966">
        <ele>17.71</ele>
        <time>2021-03-20T16:37:32Z</time>
      </trkpt>
      <trkpt lat="56.70339" lon="-5.789">
        <ele>16.66</ele>
        <time>2021-03-20T16:37:34Z</time>
      </trkpt>
      <trkpt lat="56.70361" lon="-5.78851">
        <ele>14.87</ele>
        <time>2021-03-20T16:37:36Z</time>
      </trkpt>
      <trkpt lat="56.70402" lon="-5.78703">
        <ele>12.31</ele>
        <time>2021-03-20T16:37:38Z</time>
      </trkpt>
      <trkpt lat="56.70411" lon="-5.78662">
        <ele>9.22</ele>
        <time>2021-03-20T16:37:41Z</time>
      </trkpt>
      <trkpt lat="56.70412" lon="-5.78613">
        <ele>5.65</ele>
        <time>2021-03-20T16:37:43Z</time>
      </trkpt>
      <trkpt lat="56.70419" lon="-5.78585">
        <ele>6.16</ele>
        <time>2021-03-20T16:37:45Z</time>
      </trkpt>
      <trkpt lat="56.70429" lon="-5.78572">
        <ele>6.25</ele>
        <time>2021-03-20T16:37:47Z</time>
      </trkpt>
      <trkpt lat="56.70438" lon="-5.78568">
        <ele>6.6</ele>
        <time>2021-03-20T16:37:49Z</time>
      </trkpt>
      <trkpt lat="56.70511" lon="-5.78577">
        <ele>17.45</ele>
        <time>2021-03-20T16:37:51Z</time>
      </trkpt>
      <trkpt lat="56.70535" lon="-5.78578">
        <ele>18.51</ele>
        <time>2021-03-20T16:37:54Z</time>
      </trkpt>
      <trkpt lat="56.70551" lon="-5.78573">
        <ele>18.82</ele>
        <time>2021-03-20T16:37:56Z</time>
      </trkpt>
      <trkpt lat="56.70567" lon="-5.78545">
        <ele>14.62</ele>
        <time>2021-03-20T16:37:58Z</time>
      </trkpt>
      <trkpt lat="56.7058" lon="-5.7851">
        <ele>10.32</ele>
        <time>2021-03-20T16:38:00Z</time>
      </trkpt>
      <trkpt lat="56.70615" lon="-5.78453">
        <ele>9.58</ele>
        <time>2021-03-20T16:38:02Z</time>
      </trkpt>
      <trkpt lat="56.70629" lon="-5.78413">
        <ele>9.24</ele>
        <time>2021-03-20T16:38:04Z</time>
      </trkpt>
      <trkpt lat="56.70632" lon="-5.78375">
        <ele>7.93</ele>
        <time>2021-03-20T16:38:06Z</time>
      </trkpt>
      <trkpt lat="56.70631" lon="-5.78346">
        <ele>7.07</ele>
        <time>2021-03-20T16:38:09Z</time>
      </trkpt>
      <trkpt lat="56.70625" lon="-5.78281">
        <ele>6.82</ele>
        <time>2021-03-20T16:38:11Z</time>
      </trkpt>
      <trkpt lat="56.70627" lon="-5.78255">
        <ele>7.32</ele>
        <time>2021-03-20T16:38:13Z</time>
      </trkpt>
      <trkpt lat="56.70636" lon="-5.78239">
        <ele>8.26</ele>
        <time>2021-03-20T16:38:15Z</time>
      </trkpt>
      <trkpt lat="56.70647" lon="-5.78233">
        <ele>8.35</ele>
        <time>2021-03-20T16:38:17Z</time>
      </trkpt>
      <trkpt lat="56.70682" lon="-5.78245">
        <ele>10.62</ele>
        <time>2021-03-20T16:38:19Z</time>
      </trkpt>
      <trkpt lat="56.70697" lon="-5.78241">
        <ele>11.28</ele>
        <time>2021-03-20T16:38:22Z</time>
      </trkpt>
      <trkpt lat="56.70738" lon="-5.78217">
        <ele>13.56</ele>
        <time>2021-03-20T16:38:24Z</time>
      </trkpt>
      <trkpt lat="56.70752" lon="-5.78206">
        <ele>14.74</ele>
        <time>2021-03-20T16:38:26Z</time>
      </trkpt>
      <trkpt lat="56.70773" lon="-5.78183">
        <ele>16.85</ele>
        <time>2021-03-20T16:38:28Z</time>
      </trkpt>
      <trkpt lat="56.70807" lon="-5.78161">
        <ele>17.64</ele>
        <time>2021-03-20T16:38:30Z</time>
      </trkpt>
      <trkpt lat="56.70832" lon="-5.78138">
        <ele>14.9</ele>
        <time>2021-03-20T16:38:32Z</time>
      </trkpt>
      <trkpt lat="56.70854" lon="-5.7811">
        <ele>11.69</ele>
        <time>2021-03-20T16:38:35Z</time>
      </trkpt>
      <trkpt lat="56.70866" lon="-5.78086">
        <ele>11.72</ele>
        <time>2021-03-20T16:38:37Z</time>
      </trkpt>
      <trkpt lat="56.70873" lon="-5.78066">
        <ele>12.11</ele>
        <time>2021-03-20T16:38:39Z</time>
      </trkpt>
      <trkpt lat="56.70889" lon="-5.77998">
        <ele>13.88</ele>
        <time>2021-03-20T16:38:41Z</time>
      </trkpt>
      <trkpt lat="56.709" lon="-5.77978">
        <ele>13.67</ele>
        <time>2021-03-20T16:38:43Z</time>
      </trkpt>
      <trkpt lat="56.70912" lon="-5.77968">
        <ele>13.49</ele>
        <time>2021-03-20T16:38:45Z</time>
      </trkpt>
      <trkpt lat="56.70949" lon="-5.77948">
        <ele>11.54</ele>
        <time>2021-03-20T16:38:48Z</time>
      </trkpt>
      <trkpt lat="56.70977" lon="-5.77948">
        <ele>12.24</ele>
        <time>2021-03-20T16:38:50Z</time>
      </trkpt>
      <trkpt lat="56.70999" lon="-5.77942">
        <ele>11.85</ele>
        <time>2021-03-20T16:38:52Z</time>
      </trkpt>
      <trkpt lat="56.7102" lon="-5.77933">
        <ele>10.77</ele>
        <time>2021-03-20T16:38:54Z</time>
      </trkpt>
      <trkpt lat="56.71031" lon="-5.77932">
        <ele>10.34</ele>
        <time>2021-03-20T16:38:56Z</time>
      </trkpt>
      <trkpt lat="56.7108" lon="-5.77949">
        <ele>7.65</ele>
        <time>2021-03-20T16:38:58Z</time>
      </trkpt>
      <trkpt lat="56.71104" lon="-5.77963">
        <ele>8.99</ele>
        <time>2021-03-20T16:39:01Z</time>
      </trkpt>
      <trkpt lat="56.71147" lon="-5.77981">
        <ele>10.63</ele>
        <time>2021-03-20T16:39:03Z</time>
      </trkpt>
      <trkpt lat="56.71164" lon="-5.77987">
        <ele>11.06</ele>
        <time>2021-03-20T16:39:05Z</time>
      </trkpt>
      <trkpt lat="56.71197" lon="-5.77988">
        <ele>11.06</ele>
        <time>2021-03-20T16:39:07Z</time>
      </trkpt>
      <trkpt lat="56.71251" lon="-5.7798">
        <ele>9.54</ele>
        <time>2021-03-20T16:39:09Z</time>
      </trkpt>
      <trkpt lat="56.71435" lon="-5.7796">
        <ele>5.55</ele>
        <time>2021-03-20T16:39:11Z</time>
      </trkpt>
      <trkpt lat="56.71445" lon="-5.77962">
        <ele>5.64</ele>
        <time>2021-03-20T16:39:14Z</time>
      </trkpt>
      <trkpt lat="56.71491" lon="-5.78003">
        <ele>8.49</ele>
        <time>2021-03-20T16:39:16Z</time>
      </trkpt>
      <trkpt lat="56.71506" lon="-5.78007">
        <ele>9.71</ele>
        <time>2021-03-20T16:39:18Z</time>
      </trkpt>
      <trkpt lat="56.71516" lon="-5.78003">
        <ele>10.3</ele>
        <time>2021-03-20T16:39:20Z</time>
      </trkpt>
      <trkpt lat="56.71526" lon="-5.77994">
        <ele>10.39</ele>
        <time>2021-03-20T16:39:22Z</time>
      </trkpt>
      <trkpt lat="56.71553" lon="-5.7795">
        <ele>7.54</ele>
        <time>2021-03-20T16:39:24Z</time>
      </trkpt>
      <trkpt lat="56.71568" lon="-5.77932">
        <ele>7.85</ele>
        <time>2021-03-20T16:39:27Z</time>
      </trkpt>
      <trkpt lat="56.71584" lon="-5.77897">
        <ele>8.45</ele>
        <time>2021-03-20T16:39:29Z</time>
      </trkpt>
      <trkpt lat="56.71596" lon="-5.77881">
        <ele>9.46</ele>
        <time>2021-03-20T16:39:31Z</time>
      </trkpt>
      <trkpt lat="56.71706" lon="-5.77815">
        <ele>9.35</ele>
        <time>2021-03-20T16:39:33Z</time>
      </trkpt>
      <trkpt lat="56.71712" lon="-5.77808">
        <ele>9.08</ele>
        <time>2021-03-20T16:39:35Z</time>
      </trkpt>
      <trkpt lat="56.71717" lon="-5.77798">
        <ele>8.67</ele>
        <time>2021-03-20T16:39:37Z</time>
      </trkpt>
      <trkpt lat="56.71721" lon="-5.77781">
        <ele>8.08</ele>
        <time>2021-03-20T16:39:39Z</time>
      </trkpt>
      <trkpt lat="56.71718" lon="-5.77731">
        <ele>9.3</ele>
        <time>2021-03-20T16:39:42Z</time>
      </trkpt>
      <trkpt lat="56.71712" lon="-5.77703">
        <ele>9.84</ele>
        <time>2021-03-20T16:39:44Z</time>
      </trkpt>
      <trkpt lat="56.71687" lon="-5.77647">
        <ele>12.36</ele>
        <time>2021-03-20T16:39:46Z</time>
      </trkpt>
      <trkpt lat="56.7168" lon="-5.7761">
        <ele>16.03</ele>
        <time>2021-03-20T16:39:48Z</time>
      </trkpt>
      <trkpt lat="56.71684" lon="-5.77569">
        <ele>25.21</ele>
        <time>2021-03-20T16:39:50Z</time>
      </trkpt>
      <trkpt lat="56.71745" lon="-5.77611">
        <ele>23.28</ele>
        <time>2021-03-20T16:39:53Z</time>
      </trkpt>
      <trkpt lat="56.7179" lon="-5.77634">
        <ele>29.49</ele>
        <time>2021-03-20T16:39:57Z</time>
      </trkpt>
      <trkpt lat="56.71822" lon="-5.77647">
        <ele>32.58</ele>
        <time>2021-03-20T16:40:00Z</time>
      </trkpt>
      <trkpt lat="56.7184" lon="-5.77652">
        <ele>33.1</ele>
        <time>2021-03-20T16:40:03Z</time>
      </trkpt>
      <trkpt lat="56.71869" lon="-5.77652">
        <ele>33.14</ele>
        <time>2021-03-20T16:40:06Z</time>
      </trkpt>
      <trkpt lat="56.71891" lon="-5.77648">
        <ele>33.46</ele>
        <time>2021-03-20T16:40:09Z</time>
      </trkpt>
      <trkpt lat="56.71922" lon="-5.77632">
        <ele>33.18</ele>
        <time>2021-03-20T16:40:12Z</time>
      </trkpt>
      <trkpt lat="56.71959" lon="-5.77605">
        <ele>35.44</ele>
        <time>2021-03-20T16:40:15Z</time>
      </trkpt>
      <trkpt lat="56.72028" lon="-5.77546">
        <ele>42.35</ele>
        <time>2021-03-20T16:40:18Z</time>
      </trkpt>
      <trkpt lat="56.72066" lon="-5.77523">
        <ele>41.26</ele>
        <time>2021-03-20T16:40:22Z</time>
      </trkpt>
      <trkpt lat="56.72094" lon="-5.77512">
        <ele>39.59</ele>
        <time>2021-03-20T16:40:25Z</time>
      </trkpt>
      <trkpt lat="56.72112" lon="-5.7751">
        <ele>39.62</ele>
        <time>2021-03-20T16:40:28Z</time>
      </trkpt>
      <trkpt lat="56.72127" lon="-5.77516">
        <ele>40.21</ele>
        <time>2021-03-20T16:40:31Z</time>
      </trkpt>
      <trkpt lat="56.72201" lon="-5.7756">
        <ele>41.19</ele>
        <time>2021-03-20T16:40:34Z</time>
      </trkpt>
      <trkpt lat="56.72274" lon="-5.77572">
        <ele>49.15</ele>
        <time>2021-03-20T16:40:37Z</time>
      </trkpt>
      <trkpt lat="56.72353" lon="-5.77604">
        <ele>53</ele>
        <time>2021-03-20T16:40:40Z</time>
      </trkpt>
      <trkpt lat="56.72379" lon="-5.77626">
        <ele>54.82</ele>
        <time>2021-03-20T16:40:43Z</time>
      </trkpt>
      <trkpt lat="56.72423" lon="-5.77675">
        <ele>62.14</ele>
        <time>2021-03-20T16:40:47Z</time>
      </trkpt>
      <trkpt lat="56.72478" lon="-5.77668">
        <ele>66.31</ele>
        <time>2021-03-20T16:40:50Z</time>
      </trkpt>
      <trkpt lat="56.72547" lon="-5.77685">
        <ele>74.01</ele>
        <time>2021-03-20T16:40:53Z</time>
      </trkpt>
      <trkpt lat="56.72633" lon="-5.77681">
        <ele>73.28</ele>
        <time>2021-03-20T16:40:56Z</time>
      </trkpt>
      <trkpt lat="56.72712" lon="-5.77704">
        <ele>78.42</ele>
        <time>2021-03-20T16:40:59Z</time>
      </trkpt>
      <trkpt lat="56.72803" lon="-5.77715">
        <ele>74.4</ele>
        <time>2021-03-20T16:41:02Z</time>
      </trkpt>
      <trkpt lat="56.72993" lon="-5.77753">
        <ele>68.94</ele>
        <time>2021-03-20T16:41:05Z</time>
      </trkpt>
      <trkpt lat="56.73056" lon="-5.77756">
        <ele>67.83</ele>
        <time>2021-03-20T16:41:08Z</time>
      </trkpt>
      <trkpt lat="56.73125" lon="-5.77742">
        <ele>66.54</ele>
        <time>2021-03-20T16:41:12Z</time>
      </trkpt>
      <trkpt lat="56.73303" lon="-5.77719">
        <ele>67.11</ele>
        <time>2021-03-20T16:41:15Z</time>
      </trkpt>
      <trkpt lat="56.73365" lon="-5.7772">
        <ele>66.7</ele>
        <time>2021-03-20T16:41:18Z</time>
      </trkpt>
      <trkpt lat="56.73418" lon="-5.77711">
        <ele>63.16</ele>
        <time>2021-03-20T16:41:21Z</time>
      </trkpt>
      <trkpt lat="56.73524" lon="-5.77701">
        <ele>60.44</ele>
        <time>2021-03-20T16:41:24Z</time>
      </trkpt>
      <trkpt lat="56.73616" lon="-5.77703">
        <ele>57.46</ele>
        <time>2021-03-20T16:41:27Z</time>
      </trkpt>
      <trkpt lat="56.73677" lon="-5.77716">
        <ele>52.59</ele>
        <time>2021-03-20T16:41:30Z</time>
      </trkpt>
      <trkpt lat="56.73727" lon="-5.77733">
        <ele>48.11</ele>
        <time>2021-03-20T16:41:33Z</time>
      </trkpt>
      <trkpt lat="56.73772" lon="-5.77751">
        <ele>46.37</ele>
        <time>2021-03-20T16:41:36Z</time>
      </trkpt>
      <trkpt lat="56.73803" lon="-5.77755">
        <ele>44.76</ele>
        <time>2021-03-20T16:41:40Z</time>
      </trkpt>
      <trkpt lat="56.73877" lon="-5.7778">
        <ele>42.67</ele>
        <time>2021-03-20T16:41:43Z</time>
      </trkpt>
      <trkpt lat="56.73936" lon="-5.77779">
        <ele>37.96</ele>
        <time>2021-03-20T16:41:46Z</time>
      </trkpt>
      <trkpt lat="56.73956" lon="-5.77788">
        <ele>36.58</ele>
        <time>2021-03-20T16:41:49Z</time>
      </trkpt>
      <trkpt lat="56.73988" lon="-5.77843">
        <ele>33.72</ele>
        <time>2021-03-20T16:41:52Z</time>
      </trkpt>
      <trkpt lat="56.74017" lon="-5.77932">
        <ele>29.56</ele>
        <time>2021-03-20T16:41:55Z</time>
      </trkpt>
      <trkpt lat="56.74021" lon="-5.77982">
        <ele>27.15</ele>
        <time>2021-03-20T16:41:58Z</time>
      </trkpt>
      <trkpt lat="56.7407" lon="-5.78266">
        <ele>14.41</ele>
        <time>2021-03-20T16:42:01Z</time>
      </trkpt>
      <trkpt lat="56.74081" lon="-5.78339">
        <ele>13.12</ele>
        <time>2021-03-20T16:42:05Z</time>
      </trkpt>
      <trkpt lat="56.7408" lon="-5.78385">
        <ele>11.51</ele>
        <time>2021-03-20T16:42:08Z</time>
      </trkpt>
      <trkpt lat="56.74073" lon="-5.7845">
        <ele>11.31</ele>
        <time>2021-03-20T16:42:11Z</time>
      </trkpt>
      <trkpt lat="56.74072" lon="-5.78515">
        <ele>12.04</ele>
        <time>2021-03-20T16:42:14Z</time>
      </trkpt>
      <trkpt lat="56.74078" lon="-5.7858">
        <ele>10.5</ele>
        <time>2021-03-20T16:42:17Z</time>
      </trkpt>
      <trkpt lat="56.74131" lon="-5.78779">
        <ele>9.26</ele>
        <time>2021-03-20T16:42:20Z</time>
      </trkpt>
      <trkpt lat="56.74138" lon="-5.78818">
        <ele>8.05</ele>
        <time>2021-03-20T16:42:23Z</time>
      </trkpt>
      <trkpt lat="56.7415" lon="-5.78862">
        <ele>6.6</ele>
        <time>2021-03-20T16:42:26Z</time>
      </trkpt>
      <trkpt lat="56.74175" lon="-5.78915">
        <ele>6.96</ele>
        <time>2021-03-20T16:42:30Z</time>
      </trkpt>
      <trkpt lat="56.7422" lon="-5.78984">
        <ele>9.41</ele>
        <time>2021-03-20T16:42:33Z</time>
      </trkpt>
      <trkpt lat="56.74227" lon="-5.79002">
        <ele>9.91</ele>
        <time>2021-03-20T16:42:36Z</time>
      </trkpt>
      <trkpt lat="56.74236" lon="-5.79085">
        <ele>10.49</ele>
        <time>2021-03-20T16:42:39Z</time>
      </trkpt>
      <trkpt lat="56.74239" lon="-5.79173">
        <ele>10.38</ele>
        <time>2021-03-20T16:42:42Z</time>
      </trkpt>
      <trkpt lat="56.74249" lon="-5.79223">
        <ele>10.05</ele>
        <time>2021-03-20T16:42:45Z</time>
      </trkpt>
      <trkpt lat="56.74294" lon="-5.79351">
        <ele>9</ele>
        <time>2021-03-20T16:42:48Z</time>
      </trkpt>
      <trkpt lat="56.74355" lon="-5.7954">
        <ele>8</ele>
        <time>2021-03-20T16:42:51Z</time>
      </trkpt>
      <trkpt lat="56.74433" lon="-5.79715">
        <ele>6.4</ele>
        <time>2021-03-20T16:42:55Z</time>
      </trkpt>
      <trkpt lat="56.74458" lon="-5.79764">
        <ele>6</ele>
        <time>2021-03-20T16:42:58Z</time>
      </trkpt>
      <trkpt lat="56.74561" lon="-5.79923">
        <ele>9</ele>
        <time>2021-03-20T16:43:01Z</time>
      </trkpt>
      <trkpt lat="56.74724" lon="-5.8012">
        <ele>8.52</ele>
        <time>2021-03-20T16:43:04Z</time>
      </trkpt>
      <trkpt lat="56.74824" lon="-5.8023">
        <ele>13.08</ele>
        <time>2021-03-20T16:43:07Z</time>
      </trkpt>
      <trkpt lat="56.74847" lon="-5.8026">
        <ele>15.1</ele>
        <time>2021-03-20T16:43:10Z</time>
      </trkpt>
      <trkpt lat="56.74867" lon="-5.80276">
        <ele>15.19</ele>
        <time>2021-03-20T16:43:13Z</time>
      </trkpt>
      <trkpt lat="56.74882" lon="-5.80282">
        <ele>14.04</ele>
        <time>2021-03-20T16:43:16Z</time>
      </trkpt>
      <trkpt lat="56.74977" lon="-5.8028">
        <ele>10.07</ele>
        <time>2021-03-20T16:43:20Z</time>
      </trkpt>
      <trkpt lat="56.75016" lon="-5.80281">
        <ele>10.13</ele>
        <time>2021-03-20T16:43:23Z</time>
      </trkpt>
      <trkpt lat="56.75085" lon="-5.80268">
        <ele>9.64</ele>
        <time>2021-03-20T16:43:26Z</time>
      </trkpt>
      <trkpt lat="56.75134" lon="-5.80254">
        <ele>10.94</ele>
        <time>2021-03-20T16:43:29Z</time>
      </trkpt>
      <trkpt lat="56.75181" lon="-5.80237">
        <ele>13.84</ele>
        <time>2021-03-20T16:43:32Z</time>
      </trkpt>
      <trkpt lat="56.75227" lon="-5.80214">
        <ele>16.52</ele>
        <time>2021-03-20T16:43:35Z</time>
      </trkpt>
      <trkpt lat="56.75255" lon="-5.80216">
        <ele>18.11</ele>
        <time>2021-03-20T16:43:38Z</time>
      </trkpt>
      <trkpt lat="56.7529" lon="-5.8021">
        <ele>14.2</ele>
        <time>2021-03-20T16:43:41Z</time>
      </trkpt>
      <trkpt lat="56.75318" lon="-5.80187">
        <ele>8.09</ele>
        <time>2021-03-20T16:43:44Z</time>
      </trkpt>
      <trkpt lat="56.75381" lon="-5.80125">
        <ele>6.71</ele>
        <time>2021-03-20T16:43:48Z</time>
      </trkpt>
      <trkpt lat="56.754" lon="-5.8012">
        <ele>7.65</ele>
        <time>2021-03-20T16:43:51Z</time>
      </trkpt>
      <trkpt lat="56.75413" lon="-5.80133">
        <ele>8.04</ele>
        <time>2021-03-20T16:43:54Z</time>
      </trkpt>
      <trkpt lat="56.75499" lon="-5.80282">
        <ele>9.58</ele>
        <time>2021-03-20T16:43:57Z</time>
      </trkpt>
      <trkpt lat="56.75582" lon="-5.80447">
        <ele>12.02</ele>
        <time>2021-03-20T16:44:00Z</time>
      </trkpt>
      <trkpt lat="56.75591" lon="-5.80458">
        <ele>13.83</ele>
        <time>2021-03-20T16:44:03Z</time>
      </trkpt>
      <trkpt lat="56.75723" lon="-5.80399">
        <ele>21.47</ele>
        <time>2021-03-20T16:44:06Z</time>
      </trkpt>
      <trkpt lat="56.75741" lon="-5.80387">
        <ele>22.8</ele>
        <time>2021-03-20T16:44:09Z</time>
      </trkpt>
      <trkpt lat="56.75784" lon="-5.80335">
        <ele>22.13</ele>
        <time>2021-03-20T16:44:13Z</time>
      </trkpt>
      <trkpt lat="56.75793" lon="-5.80319">
        <ele>22.41</ele>
        <time>2021-03-20T16:44:16Z</time>
      </trkpt>
      <trkpt lat="56.75802" lon="-5.80294">
        <ele>21.38</ele>
        <time>2021-03-20T16:44:19Z</time>
      </trkpt>
      <trkpt lat="56.75803" lon="-5.80252">
        <ele>19.79</ele>
        <time>2021-03-20T16:44:22Z</time>
      </trkpt>
      <trkpt lat="56.75797" lon="-5.80232">
        <ele>19.37</ele>
        <time>2021-03-20T16:44:25Z</time>
      </trkpt>
      <trkpt lat="56.75776" lon="-5.80199">
        <ele>17.83</ele>
        <time>2021-03-20T16:44:28Z</time>
      </trkpt>
      <trkpt lat="56.75769" lon="-5.80181">
        <ele>17.59</ele>
        <time>2021-03-20T16:44:31Z</time>
      </trkpt>
      <trkpt lat="56.75765" lon="-5.80158">
        <ele>17.67</ele>
        <time>2021-03-20T16:44:34Z</time>
      </trkpt>
      <trkpt lat="56.75767" lon="-5.80135">
        <ele>17.77</ele>
        <time>2021-03-20T16:44:38Z</time>
      </trkpt>
      <trkpt lat="56.75785" lon="-5.80048">
        <ele>20.08</ele>
        <time>2021-03-20T16:44:41Z</time>
      </trkpt>
      <trkpt lat="56.75788" lon="-5.8001">
        <ele>20.5</ele>
        <time>2021-03-20T16:44:44Z</time>
      </trkpt>
      <trkpt lat="56.75787" lon="-5.79983">
        <ele>20.39</ele>
        <time>2021-03-20T16:44:47Z</time>
      </trkpt>
      <trkpt lat="56.75781" lon="-5.79952">
        <ele>20.23</ele>
        <time>2021-03-20T16:44:50Z</time>
      </trkpt>
      <trkpt lat="56.75771" lon="-5.79913">
        <ele>20.64</ele>
        <time>2021-03-20T16:44:53Z</time>
      </trkpt>
      <trkpt lat="56.75763" lon="-5.79898">
        <ele>20.64</ele>
        <time>2021-03-20T16:44:56Z</time>
      </trkpt>
      <trkpt lat="56.75745" lon="-5.79872">
        <ele>19.63</ele>
        <time>2021-03-20T16:44:59Z</time>
      </trkpt>
      <trkpt lat="56.75732" lon="-5.79847">
        <ele>19.21</ele>
        <time>2021-03-20T16:45:03Z</time>
      </trkpt>
      <trkpt lat="56.75726" lon="-5.79827">
        <ele>19.32</ele>
        <time>2021-03-20T16:45:06Z</time>
      </trkpt>
      <trkpt lat="56.75687" lon="-5.7962">
        <ele>20.92</ele>
        <time>2021-03-20T16:45:09Z</time>
      </trkpt>
      <trkpt lat="56.75683" lon="-5.79591">
        <ele>20.76</ele>
        <time>2021-03-20T16:45:12Z</time>
      </trkpt>
      <trkpt lat="56.75683" lon="-5.79549">
        <ele>20.09</ele>
        <time>2021-03-20T16:45:15Z</time>
      </trkpt>
      <trkpt lat="56.75686" lon="-5.79513">
        <ele>18.89</ele>
        <time>2021-03-20T16:45:18Z</time>
      </trkpt>
      <trkpt lat="56.75695" lon="-5.79481">
        <ele>18.44</ele>
        <time>2021-03-20T16:45:21Z</time>
      </trkpt>
      <trkpt lat="56.75715" lon="-5.79441">
        <ele>19.93</ele>
        <time>2021-03-20T16:45:24Z</time>
      </trkpt>
      <trkpt lat="56.75723" lon="-5.79413">
        <ele>21.29</ele>
        <time>2021-03-20T16:45:28Z</time>
      </trkpt>
      <trkpt lat="56.75726" lon="-5.79313">
        <ele>22.78</ele>
        <time>2021-03-20T16:45:31Z</time>
      </trkpt>
      <trkpt lat="56.75722" lon="-5.79279">
        <ele>22.85</ele>
        <time>2021-03-20T16:45:34Z</time>
      </trkpt>
      <trkpt lat="56.75709" lon="-5.79252">
        <ele>21.07</ele>
        <time>2021-03-20T16:45:37Z</time>
      </trkpt>
      <trkpt lat="56.75706" lon="-5.79235">
        <ele>20.91</ele>
        <time>2021-03-20T16:45:40Z</time>
      </trkpt>
      <trkpt lat="56.75709" lon="-5.79218">
        <ele>21.43</ele>
        <time>2021-03-20T16:45:43Z</time>
      </trkpt>
      <trkpt lat="56.75727" lon="-5.79179">
        <ele>22.33</ele>
        <time>2021-03-20T16:45:46Z</time>
      </trkpt>
      <trkpt lat="56.75793" lon="-5.79114">
        <ele>26.46</ele>
        <time>2021-03-20T16:45:49Z</time>
      </trkpt>
      <trkpt lat="56.75818" lon="-5.79078">
        <ele>25.74</ele>
        <time>2021-03-20T16:45:52Z</time>
      </trkpt>
      <trkpt lat="56.75842" lon="-5.79061">
        <ele>26.36</ele>
        <time>2021-03-20T16:45:56Z</time>
      </trkpt>
      <trkpt lat="56.7586" lon="-5.79029">
        <ele>26.91</ele>
        <time>2021-03-20T16:45:59Z</time>
      </trkpt>
      <trkpt lat="56.75894" lon="-5.78889">
        <ele>24.68</ele>
        <time>2021-03-20T16:46:02Z</time>
      </trkpt>
      <trkpt lat="56.75933" lon="-5.78815">
        <ele>26.86</ele>
        <time>2021-03-20T16:46:05Z</time>
      </trkpt>
      <trkpt lat="56.75943" lon="-5.78767">
        <ele>24.1</ele>
        <time>2021-03-20T16:46:08Z</time>
      </trkpt>
      <trkpt lat="56.75945" lon="-5.78718">
        <ele>20.01</ele>
        <time>2021-03-20T16:46:11Z</time>
      </trkpt>
      <trkpt lat="56.75941" lon="-5.78653">
        <ele>20.18</ele>
        <time>2021-03-20T16:46:14Z</time>
      </trkpt>
      <trkpt lat="56.7592" lon="-5.78571">
        <ele>19.96</ele>
        <time>2021-03-20T16:46:17Z</time>
      </trkpt>
      <trkpt lat="56.75917" lon="-5.78542">
        <ele>20.09</ele>
        <time>2021-03-20T16:46:21Z</time>
      </trkpt>
      <trkpt lat="56.75917" lon="-5.78457">
        <ele>19.58</ele>
        <time>2021-03-20T16:46:24Z</time>
      </trkpt>
      <trkpt lat="56.75913" lon="-5.7843">
        <ele>19.11</ele>
        <time>2021-03-20T16:46:27Z</time>
      </trkpt>
      <trkpt lat="56.75906" lon="-5.7841">
        <ele>18.7</ele>
        <time>2021-03-20T16:46:30Z</time>
      </trkpt>
      <trkpt lat="56.7589" lon="-5.78384">
        <ele>16.31</ele>
        <time>2021-03-20T16:46:33Z</time>
      </trkpt>
      <trkpt lat="56.75885" lon="-5.78372">
        <ele>16.05</ele>
        <time>2021-03-20T16:46:36Z</time>
      </trkpt>
      <trkpt lat="56.7586" lon="-5.78269">
        <ele>19.73</ele>
        <time>2021-03-20T16:46:39Z</time>
      </trkpt>
      <trkpt lat="56.7584" lon="-5.78201">
        <ele>20.97</ele>
        <time>2021-03-20T16:46:42Z</time>
      </trkpt>
      <trkpt lat="56.75837" lon="-5.78175">
        <ele>21.47</ele>
        <time>2021-03-20T16:46:46Z</time>
      </trkpt>
      <trkpt lat="56.75838" lon="-5.7815">
        <ele>22.36</ele>
        <time>2021-03-20T16:46:49Z</time>
      </trkpt>
      <trkpt lat="56.75847" lon="-5.78085">
        <ele>26.3</ele>
        <time>2021-03-20T16:46:52Z</time>
      </trkpt>
      <trkpt lat="56.75846" lon="-5.77959">
        <ele>26.74</ele>
        <time>2021-03-20T16:46:55Z</time>
      </trkpt>
      <trkpt lat="56.75862" lon="-5.77815">
        <ele>31.16</ele>
        <time>2021-03-20T16:46:58Z</time>
      </trkpt>
      <trkpt lat="56.75861" lon="-5.77789">
        <ele>30.96</ele>
        <time>2021-03-20T16:47:01Z</time>
      </trkpt>
      <trkpt lat="56.75828" lon="-5.77688">
        <ele>26.2</ele>
        <time>2021-03-20T16:47:04Z</time>
      </trkpt>
      <trkpt lat="56.75802" lon="-5.77583">
        <ele>17.73</ele>
        <time>2021-03-20T16:47:07Z</time>
      </trkpt>
      <trkpt lat="56.75756" lon="-5.77283">
        <ele>11.23</ele>
        <time>2021-03-20T16:47:11Z</time>
      </trkpt>
      <trkpt lat="56.75746" lon="-5.77246">
        <ele>10.98</ele>
        <time>2021-03-20T16:47:14Z</time>
      </trkpt>
      <trkpt lat="56.75742" lon="-5.77215">
        <ele>11.42</ele>
        <time>2021-03-20T16:47:17Z</time>
      </trkpt>
      <trkpt lat="56.75742" lon="-5.77198">
        <ele>11.44</ele>
        <time>2021-03-20T16:47:20Z</time>
      </trkpt>
      <trkpt lat="56.75744" lon="-5.77186">
        <ele>11.58</ele>
        <time>2021-03-20T16:47:23Z</time>
      </trkpt>
      <trkpt lat="56.75753" lon="-5.77161">
        <ele>12.22</ele>
        <time>2021-03-20T16:47:26Z</time>
      </trkpt>
      <trkpt lat="56.75769" lon="-5.77142">
        <ele>13.35</ele>
        <time>2021-03-20T16:47:29Z</time>
      </trkpt>
      <trkpt lat="56.75835" lon="-5.77072">
        <ele>14.27</ele>
        <time>2021-03-20T16:47:32Z</time>
      </trkpt>
      <trkpt lat="56.75854" lon="-5.77046">
        <ele>14.41</ele>
        <time>2021-03-20T16:47:36Z</time>
      </trkpt>
      <trkpt lat="56.75867" lon="-5.77017">
        <ele>15.02</ele>
        <time>2021-03-20T16:47:39Z</time>
      </trkpt>
      <trkpt lat="56.75876" lon="-5.76968">
        <ele>13.88</ele>
        <time>2021-03-20T16:47:42Z</time>
      </trkpt>
      <trkpt lat="56.75898" lon="-5.76897">
        <ele>11.62</ele>
        <time>2021-03-20T16:47:45Z</time>
      </trkpt>
      <trkpt lat="56.759" lon="-5.76873">
        <ele>11.62</ele>
        <time>2021-03-20T16:47:48Z</time>
      </trkpt>
      <trkpt lat="56.75896" lon="-5.76852">
        <ele>11.83</ele>
        <time>2021-03-20T16:47:51Z</time>
      </trkpt>
      <trkpt lat="56.75857" lon="-5.76754">
        <ele>10.69</ele>
        <time>2021-03-20T16:47:54Z</time>
      </trkpt>
      <trkpt lat="56.75854" lon="-5.76721">
        <ele>10.25</ele>
        <time>2021-03-20T16:47:57Z</time>
      </trkpt>
      <trkpt lat="56.75858" lon="-5.76679">
        <ele>10.17</ele>
        <time>2021-03-20T16:48:00Z</time>
      </trkpt>
      <trkpt lat="56.75865" lon="-5.7665">
        <ele>10.36</ele>
        <time>2021-03-20T16:48:04Z</time>
      </trkpt>
      <trkpt lat="56.75988" lon="-5.76392">
        <ele>15.29</ele>
        <time>2021-03-20T16:48:07Z</time>
      </trkpt>
      <trkpt lat="56.76032" lon="-5.76347">
        <ele>15.43</ele>
        <time>2021-03-20T16:48:10Z</time>
      </trkpt>
      <trkpt lat="56.76111" lon="-5.76157">
        <ele>14.99</ele>
        <time>2021-03-20T16:48:13Z</time>
      </trkpt>
      <trkpt lat="56.7613" lon="-5.76087">
        <ele>17.06</ele>
        <time>2021-03-20T16:48:16Z</time>
      </trkpt>
      <trkpt lat="56.76147" lon="-5.76016">
        <ele>17.85</ele>
        <time>2021-03-20T16:48:19Z</time>
      </trkpt>
      <trkpt lat="56.76159" lon="-5.75932">
        <ele>15.73</ele>
        <time>2021-03-20T16:48:22Z</time>
      </trkpt>
      <trkpt lat="56.76161" lon="-5.75895">
        <ele>15.01</ele>
        <time>2021-03-20T16:48:25Z</time>
      </trkpt>
      <trkpt lat="56.76157" lon="-5.75855">
        <ele>14.66</ele>
        <time>2021-03-20T16:48:29Z</time>
      </trkpt>
      <trkpt lat="56.76142" lon="-5.75764">
        <ele>14.12</ele>
        <time>2021-03-20T16:48:32Z</time>
      </trkpt>
      <trkpt lat="56.7614" lon="-5.7572">
        <ele>13.05</ele>
        <time>2021-03-20T16:48:35Z</time>
      </trkpt>
      <trkpt lat="56.76155" lon="-5.75535">
        <ele>12.15</ele>
        <time>2021-03-20T16:48:38Z</time>
      </trkpt>
      <trkpt lat="56.76168" lon="-5.75338">
        <ele>14.14</ele>
        <time>2021-03-20T16:48:41Z</time>
      </trkpt>
      <trkpt lat="56.76175" lon="-5.75289">
        <ele>13.99</ele>
        <time>2021-03-20T16:48:44Z</time>
      </trkpt>
      <trkpt lat="56.76186" lon="-5.7526">
        <ele>13.73</ele>
        <time>2021-03-20T16:48:47Z</time>
      </trkpt>
      <trkpt lat="56.76222" lon="-5.75186">
        <ele>11.69</ele>
        <time>2021-03-20T16:48:50Z</time>
      </trkpt>
      <trkpt lat="56.7628" lon="-5.75104">
        <ele>11.73</ele>
        <time>2021-03-20T16:48:54Z</time>
      </trkpt>
      <trkpt lat="56.76292" lon="-5.75072">
        <ele>10.58</ele>
        <time>2021-03-20T16:48:57Z</time>
      </trkpt>
      <trkpt lat="56.76296" lon="-5.75043">
        <ele>10</ele>
        <time>2021-03-20T16:49:00Z</time>
      </trkpt>
      <trkpt lat="56.76303" lon="-5.74773">
        <ele>9.98</ele>
        <time>2021-03-20T16:49:03Z</time>
      </trkpt>
      <trkpt lat="56.76275" lon="-5.74616">
        <ele>13.56</ele>
        <time>2021-03-20T16:49:06Z</time>
      </trkpt>
      <trkpt lat="56.76276" lon="-5.74579">
        <ele>15.12</ele>
        <time>2021-03-20T16:49:09Z</time>
      </trkpt>
      <trkpt lat="56.76282" lon="-5.74544">
        <ele>18.08</ele>
        <time>2021-03-20T16:49:12Z</time>
      </trkpt>
      <trkpt lat="56.76305" lon="-5.74475">
        <ele>22.93</ele>
        <time>2021-03-20T16:49:15Z</time>
      </trkpt>
      <trkpt lat="56.76321" lon="-5.74383">
        <ele>28.92</ele>
        <time>2021-03-20T16:49:19Z</time>
      </trkpt>
      <trkpt lat="56.76328" lon="-5.74359">
        <ele>30.45</ele>
        <time>2021-03-20T16:49:22Z</time>
      </trkpt>
      <trkpt lat="56.76353" lon="-5.74299">
        <ele>35.57</ele>
        <time>2021-03-20T16:49:25Z</time>
      </trkpt>
      <trkpt lat="56.7637" lon="-5.74241">
        <ele>37.49</ele>
        <time>2021-03-20T16:49:28Z</time>
      </trkpt>
      <trkpt lat="56.76389" lon="-5.74194">
        <ele>38.9</ele>
        <time>2021-03-20T16:49:31Z</time>
      </trkpt>
      <trkpt lat="56.76417" lon="-5.74133">
        <ele>39.81</ele>
        <time>2021-03-20T16:49:34Z</time>
      </trkpt>
      <trkpt lat="56.76436" lon="-5.74109">
        <ele>41.65</ele>
        <time>2021-03-20T16:49:37Z</time>
      </trkpt>
      <trkpt lat="56.76505" lon="-5.74036">
        <ele>47.16</ele>
        <time>2021-03-20T16:49:40Z</time>
      </trkpt>
      <trkpt lat="56.76515" lon="-5.74003">
        <ele>47.82</ele>
        <time>2021-03-20T16:49:44Z</time>
      </trkpt>
      <trkpt lat="56.76516" lon="-5.73952">
        <ele>47.42</ele>
        <time>2021-03-20T16:49:47Z</time>
      </trkpt>
      <trkpt lat="56.76527" lon="-5.73895">
        <ele>47.19</ele>
        <time>2021-03-20T16:49:50Z</time>
      </trkpt>
      <trkpt lat="56.76541" lon="-5.73867">
        <ele>49.35</ele>
        <time>2021-03-20T16:49:53Z</time>
      </trkpt>
      <trkpt lat="56.76584" lon="-5.73805">
        <ele>58.17</ele>
        <time>2021-03-20T16:49:56Z</time>
      </trkpt>
      <trkpt lat="56.76602" lon="-5.73759">
        <ele>59.88</ele>
        <time>2021-03-20T16:49:59Z</time>
      </trkpt>
      <trkpt lat="56.76643" lon="-5.73711">
        <ele>65.47</ele>
        <time>2021-03-20T16:50:02Z</time>
      </trkpt>
      <trkpt lat="56.76651" lon="-5.73685">
        <ele>65.94</ele>
        <time>2021-03-20T16:50:05Z</time>
      </trkpt>
      <trkpt lat="56.76652" lon="-5.73657">
        <ele>65.36</ele>
        <time>2021-03-20T16:50:09Z</time>
      </trkpt>
      <trkpt lat="56.76647" lon="-5.73632">
        <ele>64.1</ele>
        <time>2021-03-20T16:50:12Z</time>
      </trkpt>
      <trkpt lat="56.76629" lon="-5.73607">
        <ele>61.58</ele>
        <time>2021-03-20T16:50:15Z</time>
      </trkpt>
      <trkpt lat="56.76618" lon="-5.73585">
        <ele>61.08</ele>
        <time>2021-03-20T16:50:18Z</time>
      </trkpt>
      <trkpt lat="56.76611" lon="-5.73525">
        <ele>64.09</ele>
        <time>2021-03-20T16:50:21Z</time>
      </trkpt>
      <trkpt lat="56.76612" lon="-5.73489">
        <ele>65.1</ele>
        <time>2021-03-20T16:50:24Z</time>
      </trkpt>
      <trkpt lat="56.7662" lon="-5.7346">
        <ele>65.51</ele>
        <time>2021-03-20T16:50:27Z</time>
      </trkpt>
      <trkpt lat="56.76639" lon="-5.7342">
        <ele>66.19</ele>
        <time>2021-03-20T16:50:30Z</time>
      </trkpt>
      <trkpt lat="56.76644" lon="-5.73397">
        <ele>66.17</ele>
        <time>2021-03-20T16:50:33Z</time>
      </trkpt>
      <trkpt lat="56.76645" lon="-5.73278">
        <ele>67.66</ele>
        <time>2021-03-20T16:50:37Z</time>
      </trkpt>
      <trkpt lat="56.76657" lon="-5.73192">
        <ele>71.01</ele>
        <time>2021-03-20T16:50:40Z</time>
      </trkpt>
      <trkpt lat="56.76658" lon="-5.73164">
        <ele>72.68</ele>
        <time>2021-03-20T16:50:43Z</time>
      </trkpt>
      <trkpt lat="56.76645" lon="-5.73046">
        <ele>79.85</ele>
        <time>2021-03-20T16:50:46Z</time>
      </trkpt>
      <trkpt lat="56.76632" lon="-5.72908">
        <ele>83.58</ele>
        <time>2021-03-20T16:50:49Z</time>
      </trkpt>
      <trkpt lat="56.76634" lon="-5.72864">
        <ele>84.79</ele>
        <time>2021-03-20T16:50:52Z</time>
      </trkpt>
      <trkpt lat="56.7664" lon="-5.72829">
        <ele>85.21</ele>
        <time>2021-03-20T16:50:55Z</time>
      </trkpt>
      <trkpt lat="56.76651" lon="-5.72794">
        <ele>86.74</ele>
        <time>2021-03-20T16:50:58Z</time>
      </trkpt>
      <trkpt lat="56.7666" lon="-5.72778">
        <ele>87.82</ele>
        <time>2021-03-20T16:51:02Z</time>
      </trkpt>
      <trkpt lat="56.76674" lon="-5.72774">
        <ele>90.02</ele>
        <time>2021-03-20T16:51:05Z</time>
      </trkpt>
      <trkpt lat="56.76741" lon="-5.72806">
        <ele>98.35</ele>
        <time>2021-03-20T16:51:08Z</time>
      </trkpt>
      <trkpt lat="56.76759" lon="-5.728">
        <ele>99.53</ele>
        <time>2021-03-20T16:51:11Z</time>
      </trkpt>
      <trkpt lat="56.76781" lon="-5.72787">
        <ele>100.09</ele>
        <time>2021-03-20T16:51:14Z</time>
      </trkpt>
      <trkpt lat="56.76832" lon="-5.72764">
        <ele>101.85</ele>
        <time>2021-03-20T16:51:17Z</time>
      </trkpt>
      <trkpt lat="56.76869" lon="-5.72704">
        <ele>100.63</ele>
        <time>2021-03-20T16:51:20Z</time>
      </trkpt>
      <trkpt lat="56.76885" lon="-5.72696">
        <ele>101.78</ele>
        <time>2021-03-20T16:51:23Z</time>
      </trkpt>
      <trkpt lat="56.77174" lon="-5.72763">
        <ele>97.07</ele>
        <time>2021-03-20T16:51:27Z</time>
      </trkpt>
      <trkpt lat="56.77237" lon="-5.72811">
        <ele>96.57</ele>
        <time>2021-03-20T16:51:30Z</time>
      </trkpt>
      <trkpt lat="56.77299" lon="-5.72832">
        <ele>94.13</ele>
        <time>2021-03-20T16:51:33Z</time>
      </trkpt>
      <trkpt lat="56.77332" lon="-5.72853">
        <ele>93.31</ele>
        <time>2021-03-20T16:51:36Z</time>
      </trkpt>
      <trkpt lat="56.77365" lon="-5.72889">
        <ele>92.61</ele>
        <time>2021-03-20T16:51:39Z</time>
      </trkpt>
      <trkpt lat="56.77391" lon="-5.72928">
        <ele>92.49</ele>
        <time>2021-03-20T16:51:42Z</time>
      </trkpt>
      <trkpt lat="56.77522" lon="-5.73165">
        <ele>73.79</ele>
        <time>2021-03-20T16:51:45Z</time>
      </trkpt>
      <trkpt lat="56.77585" lon="-5.73337">
        <ele>61.67</ele>
        <time>2021-03-20T16:51:48Z</time>
      </trkpt>
      <trkpt lat="56.77595" lon="-5.73377">
        <ele>58.77</ele>
        <time>2021-03-20T16:51:52Z</time>
      </trkpt>
      <trkpt lat="56.77606" lon="-5.73445">
        <ele>53.87</ele>
        <time>2021-03-20T16:51:55Z</time>
      </trkpt>
      <trkpt lat="56.77611" lon="-5.73566">
        <ele>52.92</ele>
        <time>2021-03-20T16:51:58Z</time>
      </trkpt>
      <trkpt lat="56.7763" lon="-5.73686">
        <ele>55.74</ele>
        <time>2021-03-20T16:52:01Z</time>
      </trkpt>
      <trkpt lat="56.77642" lon="-5.73728">
        <ele>57.72</ele>
        <time>2021-03-20T16:52:04Z</time>
      </trkpt>
      <trkpt lat="56.77661" lon="-5.73756">
        <ele>59.6</ele>
        <time>2021-03-20T16:52:07Z</time>
      </trkpt>
      <trkpt lat="56.77691" lon="-5.7381">
        <ele>64.69</ele>
        <time>2021-03-20T16:52:10Z</time>
      </trkpt>
      <trkpt lat="56.7771" lon="-5.73854">
        <ele>68.84</ele>
        <time>2021-03-20T16:52:13Z</time>
      </trkpt>
      <trkpt lat="56.7773" lon="-5.73914">
        <ele>71.36</ele>
        <time>2021-03-20T16:52:17Z</time>
      </trkpt>
      <trkpt lat="56.77756" lon="-5.73974">
        <ele>70.56</ele>
        <time>2021-03-20T16:52:20Z</time>
      </trkpt>
      <trkpt lat="56.77796" lon="-5.74054">
        <ele>64.51</ele>
        <time>2021-03-20T16:52:23Z</time>
      </trkpt>
      <trkpt lat="56.77919" lon="-5.74238">
        <ele>45.76</ele>
        <time>2021-03-20T16:52:26Z</time>
      </trkpt>
      <trkpt lat="56.77984" lon="-5.74324">
        <ele>35.2</ele>
        <time>2021-03-20T16:52:29Z</time>
      </trkpt>
      <trkpt lat="56.78002" lon="-5.74365">
        <ele>30.72</ele>
        <time>2021-03-20T16:52:32Z</time>
      </trkpt>
      <trkpt lat="56.7802" lon="-5.74424">
        <ele>26.91</ele>
        <time>2021-03-20T16:52:35Z</time>
      </trkpt>
      <trkpt lat="56.78076" lon="-5.74579">
        <ele>17.35</ele>
        <time>2021-03-20T16:52:38Z</time>
      </trkpt>
      <trkpt lat="56.78084" lon="-5.74597">
        <ele>16.1</ele>
        <time>2021-03-20T16:52:41Z</time>
      </trkpt>
      <trkpt lat="56.78101" lon="-5.74614">
        <ele>16.03</ele>
        <time>2021-03-20T16:52:45Z</time>
      </trkpt>
      <trkpt lat="56.78156" lon="-5.74679">
        <ele>13.53</ele>
        <time>2021-03-20T16:52:48Z</time>
      </trkpt>
      <trkpt lat="56.78185" lon="-5.74721">
        <ele>9.82</ele>
        <time>2021-03-20T16:52:51Z</time>
      </trkpt>
      <trkpt lat="56.78194" lon="-5.74726">
        <ele>9.66</ele>
        <time>2021-03-20T16:52:54Z</time>
      </trkpt>
      <trkpt lat="56.78218" lon="-5.74721">
        <ele>8.53</ele>
        <time>2021-03-20T16:52:57Z</time>
      </trkpt>
      <trkpt lat="56.78313" lon="-5.74653">
        <ele>7.08</ele>
        <time>2021-03-20T16:53:00Z</time>
      </trkpt>
      <trkpt lat="56.78349" lon="-5.7465">
        <ele>5.34</ele>
        <time>2021-03-20T16:53:03Z</time>
      </trkpt>
      <trkpt lat="56.78373" lon="-5.74661">
        <ele>3.77</ele>
        <time>2021-03-20T16:53:06Z</time>
      </trkpt>
      <trkpt lat="56.78387" lon="-5.74663">
        <ele>3.2</ele>
        <time>2021-03-20T16:53:10Z</time>
      </trkpt>
      <trkpt lat="56.78438" lon="-5.74657">
        <ele>3.36</ele>
        <time>2021-03-20T16:53:13Z</time>
      </trkpt>
      <trkpt lat="56.78455" lon="-5.74659">
        <ele>3.28</ele>
        <time>2021-03-20T16:53:16Z</time>
      </trkpt>
      <trkpt lat="56.78477" lon="-5.74672">
        <ele>2.96</ele>
        <time>2021-03-20T16:53:19Z</time>
      </trkpt>
      <trkpt lat="56.78497" lon="-5.74694">
        <ele>2.93</ele>
        <time>2021-03-20T16:53:22Z</time>
      </trkpt>
      <trkpt lat="56.78652" lon="-5.74909">
        <ele>4.63</ele>
        <time>2021-03-20T16:53:25Z</time>
      </trkpt>
      <trkpt lat="56.78668" lon="-5.74927">
        <ele>5</ele>
        <time>2021-03-20T16:53:28Z</time>
      </trkpt>
      <trkpt lat="56.78759" lon="-5.74982">
        <ele>3</ele>
        <time>2021-03-20T16:53:31Z</time>
      </trkpt>
      <trkpt lat="56.78831" lon="-5.75011">
        <ele>3.51</ele>
        <time>2021-03-20T16:53:35Z</time>
      </trkpt>
      <trkpt lat="56.78863" lon="-5.75041">
        <ele>4.07</ele>
        <time>2021-03-20T16:53:38Z</time>
      </trkpt>
      <trkpt lat="56.78899" lon="-5.75093">
        <ele>3.77</ele>
        <time>2021-03-20T16:53:41Z</time>
      </trkpt>
      <trkpt lat="56.7895" lon="-5.75184">
        <ele>4.78</ele>
        <time>2021-03-20T16:53:44Z</time>
      </trkpt>
      <trkpt lat="56.7896" lon="-5.75222">
        <ele>6.18</ele>
        <time>2021-03-20T16:53:47Z</time>
      </trkpt>
      <trkpt lat="56.7899" lon="-5.75628">
        <ele>9.41</ele>
        <time>2021-03-20T16:53:50Z</time>
      </trkpt>
      <trkpt lat="56.79004" lon="-5.75703">
        <ele>8.98</ele>
        <time>2021-03-20T16:53:53Z</time>
      </trkpt>
      <trkpt lat="56.79068" lon="-5.75974">
        <ele>15.7</ele>
        <time>2021-03-20T16:53:56Z</time>
      </trkpt>
      <trkpt lat="56.79071" lon="-5.76028">
        <ele>17.91</ele>
        <time>2021-03-20T16:54:00Z</time>
      </trkpt>
      <trkpt lat="56.7906" lon="-5.76306">
        <ele>22.19</ele>
        <time>2021-03-20T16:54:03Z</time>
      </trkpt>
      <trkpt lat="56.7905" lon="-5.76351">
        <ele>23.26</ele>
        <time>2021-03-20T16:54:06Z</time>
      </trkpt>
      <trkpt lat="56.79016" lon="-5.76421">
        <ele>22.94</ele>
        <time>2021-03-20T16:54:09Z</time>
      </trkpt>
      <trkpt lat="56.79006" lon="-5.76456">
        <ele>23.96</ele>
        <time>2021-03-20T16:54:12Z</time>
      </trkpt>
      <trkpt lat="56.78994" lon="-5.76539">
        <ele>21.98</ele>
        <time>2021-03-20T16:54:15Z</time>
      </trkpt>
      <trkpt lat="56.78963" lon="-5.76725">
        <ele>11.34</ele>
        <time>2021-03-20T16:54:18Z</time>
      </trkpt>
      <trkpt lat="56.78943" lon="-5.76866">
        <ele>10.74</ele>
        <time>2021-03-20T16:54:21Z</time>
      </trkpt>
      <trkpt lat="56.78941" lon="-5.76913">
        <ele>11.12</ele>
        <time>2021-03-20T16:54:25Z</time>
      </trkpt>
      <trkpt lat="56.78943" lon="-5.76968">
        <ele>12.38</ele>
        <time>2021-03-20T16:54:28Z</time>
      </trkpt>
      <trkpt lat="56.78953" lon="-5.77058">
        <ele>15.53</ele>
        <time>2021-03-20T16:54:31Z</time>
      </trkpt>
      <trkpt lat="56.78981" lon="-5.77156">
        <ele>16.72</ele>
        <time>2021-03-20T16:54:34Z</time>
      </trkpt>
      <trkpt lat="56.78993" lon="-5.77213">
        <ele>22.8</ele>
        <time>2021-03-20T16:54:37Z</time>
      </trkpt>
      <trkpt lat="56.79001" lon="-5.77282">
        <ele>22.4</ele>
        <time>2021-03-20T16:54:40Z</time>
      </trkpt>
      <trkpt lat="56.79" lon="-5.77485">
        <ele>13.68</ele>
        <time>2021-03-20T16:54:43Z</time>
      </trkpt>
      <trkpt lat="56.79007" lon="-5.7753">
        <ele>12.77</ele>
        <time>2021-03-20T16:54:46Z</time>
      </trkpt>
      <trkpt lat="56.79015" lon="-5.77566">
        <ele>12.64</ele>
        <time>2021-03-20T16:54:49Z</time>
      </trkpt>
      <trkpt lat="56.79043" lon="-5.77661">
        <ele>15.13</ele>
        <time>2021-03-20T16:54:53Z</time>
      </trkpt>
      <trkpt lat="56.79051" lon="-5.77707">
        <ele>17.15</ele>
        <time>2021-03-20T16:54:56Z</time>
      </trkpt>
      <trkpt lat="56.79069" lon="-5.77843">
        <ele>13.46</ele>
        <time>2021-03-20T16:54:59Z</time>
      </trkpt>
      <trkpt lat="56.79077" lon="-5.77875">
        <ele>12.61</ele>
        <time>2021-03-20T16:55:02Z</time>
      </trkpt>
      <trkpt lat="56.79088" lon="-5.77907">
        <ele>17.27</ele>
        <time>2021-03-20T16:55:05Z</time>
      </trkpt>
      <trkpt lat="56.79215" lon="-5.7815">
        <ele>23.97</ele>
        <time>2021-03-20T16:55:08Z</time>
      </trkpt>
      <trkpt lat="56.79236" lon="-5.78213">
        <ele>20.06</ele>
        <time>2021-03-20T16:55:11Z</time>
      </trkpt>
      <trkpt lat="56.79245" lon="-5.78261">
        <ele>17.94</ele>
        <time>2021-03-20T16:55:14Z</time>
      </trkpt>
      <trkpt lat="56.79267" lon="-5.78445">
        <ele>15.24</ele>
        <time>2021-03-20T16:55:18Z</time>
      </trkpt>
      <trkpt lat="56.79274" lon="-5.78481">
        <ele>15.51</ele>
        <time>2021-03-20T16:55:21Z</time>
      </trkpt>
      <trkpt lat="56.79332" lon="-5.78674">
        <ele>15.86</ele>
        <time>2021-03-20T16:55:24Z</time>
      </trkpt>
      <trkpt lat="56.79357" lon="-5.78744">
        <ele>13.39</ele>
        <time>2021-03-20T16:55:27Z</time>
      </trkpt>
      <trkpt lat="56.79376" lon="-5.78782">
        <ele>13.39</ele>
        <time>2021-03-20T16:55:30Z</time>
      </trkpt>
      <trkpt lat="56.79396" lon="-5.78833">
        <ele>13.12</ele>
        <time>2021-03-20T16:55:33Z</time>
      </trkpt>
      <trkpt lat="56.79415" lon="-5.78901">
        <ele>13.36</ele>
        <time>2021-03-20T16:55:36Z</time>
      </trkpt>
      <trkpt lat="56.79449" lon="-5.79057">
        <ele>22.53</ele>
        <time>2021-03-20T16:55:39Z</time>
      </trkpt>
      <trkpt lat="56.79456" lon="-5.79142">
        <ele>28.64</ele>
        <time>2021-03-20T16:55:43Z</time>
      </trkpt>
      <trkpt lat="56.79457" lon="-5.79296">
        <ele>23.65</ele>
        <time>2021-03-20T16:55:46Z</time>
      </trkpt>
      <trkpt lat="56.79509" lon="-5.797">
        <ele>19.83</ele>
        <time>2021-03-20T16:55:49Z</time>
      </trkpt>
      <trkpt lat="56.79521" lon="-5.79783">
        <ele>16.4</ele>
        <time>2021-03-20T16:55:52Z</time>
      </trkpt>
      <trkpt lat="56.79538" lon="-5.79851">
        <ele>15.44</ele>
        <time>2021-03-20T16:55:55Z</time>
      </trkpt>
      <trkpt lat="56.79553" lon="-5.79893">
        <ele>16.06</ele>
        <time>2021-03-20T16:55:58Z</time>
      </trkpt>
      <trkpt lat="56.79565" lon="-5.79914">
        <ele>16.3</ele>
        <time>2021-03-20T16:56:01Z</time>
      </trkpt>
      <trkpt lat="56.79624" lon="-5.79961">
        <ele>22.91</ele>
        <time>2021-03-20T16:56:04Z</time>
      </trkpt>
      <trkpt lat="56.79664" lon="-5.79975">
        <ele>27.96</ele>
        <time>2021-03-20T16:56:08Z</time>
      </trkpt>
      <trkpt lat="56.79708" lon="-5.80001">
        <ele>34.35</ele>
        <time>2021-03-20T16:56:11Z</time>
      </trkpt>
      <trkpt lat="56.79731" lon="-5.8003">
        <ele>36.58</ele>
        <time>2021-03-20T16:56:14Z</time>
      </trkpt>
      <trkpt lat="56.79747" lon="-5.80074">
        <ele>37.52</ele>
        <time>2021-03-20T16:56:17Z</time>
      </trkpt>
      <trkpt lat="56.79789" lon="-5.80213">
        <ele>34.82</ele>
        <time>2021-03-20T16:56:20Z</time>
      </trkpt>
      <trkpt lat="56.79807" lon="-5.80255">
        <ele>32.65</ele>
        <time>2021-03-20T16:56:23Z</time>
      </trkpt>
      <trkpt lat="56.79831" lon="-5.80289">
        <ele>31.57</ele>
        <time>2021-03-20T16:56:26Z</time>
      </trkpt>
      <trkpt lat="56.7992" lon="-5.80386">
        <ele>35.53</ele>
        <time>2021-03-20T16:56:29Z</time>
      </trkpt>
      <trkpt lat="56.79948" lon="-5.80429">
        <ele>36.06</ele>
        <time>2021-03-20T16:56:33Z</time>
      </trkpt>
      <trkpt lat="56.79977" lon="-5.80483">
        <ele>39.49</ele>
        <time>2021-03-20T16:56:36Z</time>
      </trkpt>
      <trkpt lat="56.80001" lon="-5.80537">
        <ele>43.08</ele>
        <time>2021-03-20T16:56:39Z</time>
      </trkpt>
      <trkpt lat="56.80019" lon="-5.80595">
        <ele>44.42</ele>
        <time>2021-03-20T16:56:42Z</time>
      </trkpt>
      <trkpt lat="56.80261" lon="-5.81162">
        <ele>69.86</ele>
        <time>2021-03-20T16:56:45Z</time>
      </trkpt>
      <trkpt lat="56.8029" lon="-5.81241">
        <ele>73.07</ele>
        <time>2021-03-20T16:56:48Z</time>
      </trkpt>
      <trkpt lat="56.80317" lon="-5.8133">
        <ele>77.08</ele>
        <time>2021-03-20T16:56:51Z</time>
      </trkpt>
      <trkpt lat="56.80373" lon="-5.815">
        <ele>77</ele>
        <time>2021-03-20T16:56:54Z</time>
      </trkpt>
      <trkpt lat="56.80396" lon="-5.8154">
        <ele>79.89</ele>
        <time>2021-03-20T16:56:57Z</time>
      </trkpt>
      <trkpt lat="56.80445" lon="-5.81605">
        <ele>86.68</ele>
        <time>2021-03-20T16:57:01Z</time>
      </trkpt>
      <trkpt lat="56.80492" lon="-5.81671">
        <ele>90.12</ele>
        <time>2021-03-20T16:57:04Z</time>
      </trkpt>
      <trkpt lat="56.80522" lon="-5.81699">
        <ele>91.82</ele>
        <time>2021-03-20T16:57:07Z</time>
      </trkpt>
      <trkpt lat="56.80561" lon="-5.81721">
        <ele>94.8</ele>
        <time>2021-03-20T16:57:10Z</time>
      </trkpt>
      <trkpt lat="56.80622" lon="-5.81728">
        <ele>108.35</ele>
        <time>2021-03-20T16:57:13Z</time>
      </trkpt>
      <trkpt lat="56.8065" lon="-5.81742">
        <ele>112.94</ele>
        <time>2021-03-20T16:57:16Z</time>
      </trkpt>
      <trkpt lat="56.80682" lon="-5.81777">
        <ele>115</ele>
        <time>2021-03-20T16:57:19Z</time>
      </trkpt>
      <trkpt lat="56.80736" lon="-5.81855">
        <ele>124.28</ele>
        <time>2021-03-20T16:57:22Z</time>
      </trkpt>
      <trkpt lat="56.80769" lon="-5.8189">
        <ele>127.3</ele>
        <time>2021-03-20T16:57:26Z</time>
      </trkpt>
      <trkpt lat="56.80808" lon="-5.8192">
        <ele>133.04</ele>
        <time>2021-03-20T16:57:29Z</time>
      </trkpt>
      <trkpt lat="56.8084" lon="-5.81931">
        <ele>136.36</ele>
        <time>2021-03-20T16:57:32Z</time>
      </trkpt>
      <trkpt lat="56.80887" lon="-5.81935">
        <ele>142.11</ele>
        <time>2021-03-20T16:57:35Z</time>
      </trkpt>
      <trkpt lat="56.80935" lon="-5.8193">
        <ele>143.34</ele>
        <time>2021-03-20T16:57:38Z</time>
      </trkpt>
      <trkpt lat="56.80961" lon="-5.81931">
        <ele>141.2</ele>
        <time>2021-03-20T16:57:41Z</time>
      </trkpt>
      <trkpt lat="56.80997" lon="-5.8195">
        <ele>137.34</ele>
        <time>2021-03-20T16:57:44Z</time>
      </trkpt>
      <trkpt lat="56.81147" lon="-5.82063">
        <ele>124.96</ele>
        <time>2021-03-20T16:57:47Z</time>
      </trkpt>
      <trkpt lat="56.8117" lon="-5.82075">
        <ele>123.29</ele>
        <time>2021-03-20T16:57:51Z</time>
      </trkpt>
      <trkpt lat="56.81187" lon="-5.82077">
        <ele>120.8</ele>
        <time>2021-03-20T16:57:54Z</time>
      </trkpt>
      <trkpt lat="56.8134" lon="-5.82063">
        <ele>98.84</ele>
        <time>2021-03-20T16:57:57Z</time>
      </trkpt>
      <trkpt lat="56.81527" lon="-5.82078">
        <ele>86.98</ele>
        <time>2021-03-20T16:58:00Z</time>
      </trkpt>
      <trkpt lat="56.81598" lon="-5.82098">
        <ele>81.07</ele>
        <time>2021-03-20T16:58:03Z</time>
      </trkpt>
      <trkpt lat="56.81701" lon="-5.82157">
        <ele>69.56</ele>
        <time>2021-03-20T16:58:06Z</time>
      </trkpt>
      <trkpt lat="56.81725" lon="-5.82161">
        <ele>67.48</ele>
        <time>2021-03-20T16:58:09Z</time>
      </trkpt>
      <trkpt lat="56.81752" lon="-5.8216">
        <ele>66.29</ele>
        <time>2021-03-20T16:58:12Z</time>
      </trkpt>
      <trkpt lat="56.81798" lon="-5.82142">
        <ele>63.66</ele>
        <time>2021-03-20T16:58:16Z</time>
      </trkpt>
      <trkpt lat="56.81914" lon="-5.82033">
        <ele>55.55</ele>
        <time>2021-03-20T16:58:19Z</time>
      </trkpt>
      <trkpt lat="56.81947" lon="-5.82011">
        <ele>56.13</ele>
        <time>2021-03-20T16:58:22Z</time>
      </trkpt>
      <trkpt lat="56.81972" lon="-5.82003">
        <ele>55.85</ele>
        <time>2021-03-20T16:58:25Z</time>
      </trkpt>
      <trkpt lat="56.82232" lon="-5.81956">
        <ele>44.89</ele>
        <time>2021-03-20T16:58:28Z</time>
      </trkpt>
      <trkpt lat="56.82258" lon="-5.81945">
        <ele>42.86</ele>
        <time>2021-03-20T16:58:31Z</time>
      </trkpt>
      <trkpt lat="56.82302" lon="-5.8192">
        <ele>39.42</ele>
        <time>2021-03-20T16:58:34Z</time>
      </trkpt>
      <trkpt lat="56.82371" lon="-5.81867">
        <ele>33.87</ele>
        <time>2021-03-20T16:58:37Z</time>
      </trkpt>
      <trkpt lat="56.82422" lon="-5.81832">
        <ele>36</ele>
        <time>2021-03-20T16:58:41Z</time>
      </trkpt>
      <trkpt lat="56.82478" lon="-5.81821">
        <ele>35.87</ele>
        <time>2021-03-20T16:58:44Z</time>
      </trkpt>
      <trkpt lat="56.82534" lon="-5.81822">
        <ele>32.08</ele>
        <time>2021-03-20T16:58:47Z</time>
      </trkpt>
      <trkpt lat="56.82561" lon="-5.81816">
        <ele>29.43</ele>
        <time>2021-03-20T16:58:50Z</time>
      </trkpt>
      <trkpt lat="56.82582" lon="-5.81804">
        <ele>25.65</ele>
        <time>2021-03-20T16:58:53Z</time>
      </trkpt>
      <trkpt lat="56.82603" lon="-5.81786">
        <ele>20.93</ele>
        <time>2021-03-20T16:58:56Z</time>
      </trkpt>
      <trkpt lat="56.82632" lon="-5.81749">
        <ele>18.8</ele>
        <time>2021-03-20T16:58:59Z</time>
      </trkpt>
      <trkpt lat="56.82689" lon="-5.81664">
        <ele>15.31</ele>
        <time>2021-03-20T16:59:02Z</time>
      </trkpt>
      <trkpt lat="56.82725" lon="-5.81625">
        <ele>13.03</ele>
        <time>2021-03-20T16:59:05Z</time>
      </trkpt>
      <trkpt lat="56.82737" lon="-5.81616">
        <ele>11.5</ele>
        <time>2021-03-20T16:59:09Z</time>
      </trkpt>
      <trkpt lat="56.82763" lon="-5.81605">
        <ele>9.04</ele>
        <time>2021-03-20T16:59:12Z</time>
      </trkpt>
      <trkpt lat="56.82849" lon="-5.81624">
        <ele>6.07</ele>
        <time>2021-03-20T16:59:15Z</time>
      </trkpt>
      <trkpt lat="56.8287" lon="-5.81626">
        <ele>5.91</ele>
        <time>2021-03-20T16:59:18Z</time>
      </trkpt>
      <trkpt lat="56.82891" lon="-5.81625">
        <ele>5.97</ele>
        <time>2021-03-20T16:59:21Z</time>
      </trkpt>
      <trkpt lat="56.82905" lon="-5.8162">
        <ele>5.77</ele>
        <time>2021-03-20T16:59:24Z</time>
      </trkpt>
      <trkpt lat="56.8292" lon="-5.81614">
        <ele>5.7</ele>
        <time>2021-03-20T16:59:27Z</time>
      </trkpt>
      <trkpt lat="56.82943" lon="-5.81596">
        <ele>6.2</ele>
        <time>2021-03-20T16:59:30Z</time>
      </trkpt>
      <trkpt lat="56.83032" lon="-5.81507">
        <ele>5.38</ele>
        <time>2021-03-20T16:59:34Z</time>
      </trkpt>
      <trkpt lat="56.83071" lon="-5.81477">
        <ele>7.46</ele>
        <time>2021-03-20T16:59:37Z</time>
      </trkpt>
      <trkpt lat="56.83092" lon="-5.81466">
        <ele>9.26</ele>
        <time>2021-03-20T16:59:40Z</time>
      </trkpt>
      <trkpt lat="56.83189" lon="-5.81419">
        <ele>7.18</ele>
        <time>2021-03-20T16:59:43Z</time>
      </trkpt>
      <trkpt lat="56.83216" lon="-5.8141">
        <ele>6.79</ele>
        <time>2021-03-20T16:59:46Z</time>
      </trkpt>
      <trkpt lat="56.83257" lon="-5.8141">
        <ele>4.22</ele>
        <time>2021-03-20T16:59:49Z</time>
      </trkpt>
      <trkpt lat="56.83325" lon="-5.81414">
        <ele>5.88</ele>
        <time>2021-03-20T16:59:52Z</time>
      </trkpt>
      <trkpt lat="56.8335" lon="-5.81406">
        <ele>5.57</ele>
        <time>2021-03-20T16:59:55Z</time>
      </trkpt>
      <trkpt lat="56.83371" lon="-5.81393">
        <ele>5.4</ele>
        <time>2021-03-20T16:59:59Z</time>
      </trkpt>
      <trkpt lat="56.83394" lon="-5.81366">
        <ele>7.14</ele>
        <time>2021-03-20T17:00:02Z</time>
      </trkpt>
      <trkpt lat="56.83412" lon="-5.81337">
        <ele>8.18</ele>
        <time>2021-03-20T17:00:05Z</time>
      </trkpt>
      <trkpt lat="56.83441" lon="-5.81267">
        <ele>11.79</ele>
        <time>2021-03-20T17:00:08Z</time>
      </trkpt>
      <trkpt lat="56.83483" lon="-5.81153">
        <ele>12.94</ele>
        <time>2021-03-20T17:00:11Z</time>
      </trkpt>
      <trkpt lat="56.83494" lon="-5.8113">
        <ele>12.64</ele>
        <time>2021-03-20T17:00:14Z</time>
      </trkpt>
      <trkpt lat="56.83512" lon="-5.81099">
        <ele>11.73</ele>
        <time>2021-03-20T17:00:17Z</time>
      </trkpt>
      <trkpt lat="56.83529" lon="-5.8108">
        <ele>10.2</ele>
        <time>2021-03-20T17:00:20Z</time>
      </trkpt>
      <trkpt lat="56.83551" lon="-5.81064">
        <ele>8.74</ele>
        <time>2021-03-20T17:00:24Z</time>
      </trkpt>
      <trkpt lat="56.83627" lon="-5.81024">
        <ele>13.1</ele>
        <time>2021-03-20T17:00:27Z</time>
      </trkpt>
      <trkpt lat="56.83668" lon="-5.80996">
        <ele>10.49</ele>
        <time>2021-03-20T17:00:30Z</time>
      </trkpt>
      <trkpt lat="56.83697" lon="-5.80967">
        <ele>9.65</ele>
        <time>2021-03-20T17:00:33Z</time>
      </trkpt>
      <trkpt lat="56.83717" lon="-5.80935">
        <ele>7.21</ele>
        <time>2021-03-20T17:00:36Z</time>
      </trkpt>
      <trkpt lat="56.83734" lon="-5.80889">
        <ele>15.79</ele>
        <time>2021-03-20T17:00:39Z</time>
      </trkpt>
      <trkpt lat="56.83745" lon="-5.80844">
        <ele>14.2</ele>
        <time>2021-03-20T17:00:42Z</time>
      </trkpt>
      <trkpt lat="56.83753" lon="-5.80799">
        <ele>10.18</ele>
        <time>2021-03-20T17:00:45Z</time>
      </trkpt>
      <trkpt lat="56.83756" lon="-5.80747">
        <ele>11</ele>
        <time>2021-03-20T17:00:49Z</time>
      </trkpt>
      <trkpt lat="56.83754" lon="-5.80673">
        <ele>14.92</ele>
        <time>2021-03-20T17:00:52Z</time>
      </trkpt>
      <trkpt lat="56.83748" lon="-5.80578">
        <ele>9.4</ele>
        <time>2021-03-20T17:00:55Z</time>
      </trkpt>
      <trkpt lat="56.83736" lon="-5.80469">
        <ele>10.13</ele>
        <time>2021-03-20T17:00:58Z</time>
      </trkpt>
      <trkpt lat="56.83675" lon="-5.80173">
        <ele>7.42</ele>
        <time>2021-03-20T17:01:01Z</time>
      </trkpt>
      <trkpt lat="56.83671" lon="-5.80128">
        <ele>7.76</ele>
        <time>2021-03-20T17:01:04Z</time>
      </trkpt>
      <trkpt lat="56.83675" lon="-5.79856">
        <ele>18.26</ele>
        <time>2021-03-20T17:01:07Z</time>
      </trkpt>
      <trkpt lat="56.83673" lon="-5.79819">
        <ele>16.07</ele>
        <time>2021-03-20T17:01:10Z</time>
      </trkpt>
      <trkpt lat="56.83668" lon="-5.79781">
        <ele>11.4</ele>
        <time>2021-03-20T17:01:13Z</time>
      </trkpt>
      <trkpt lat="56.83613" lon="-5.79559">
        <ele>10.61</ele>
        <time>2021-03-20T17:01:17Z</time>
      </trkpt>
      <trkpt lat="56.83606" lon="-5.79506">
        <ele>10.05</ele>
        <time>2021-03-20T17:01:20Z</time>
      </trkpt>
      <trkpt lat="56.83604" lon="-5.79465">
        <ele>9.77</ele>
        <time>2021-03-20T17:01:23Z</time>
      </trkpt>
      <trkpt lat="56.83605" lon="-5.79387">
        <ele>7.81</ele>
        <time>2021-03-20T17:01:26Z</time>
      </trkpt>
      <trkpt lat="56.83633" lon="-5.79091">
        <ele>13.61</ele>
        <time>2021-03-20T17:01:29Z</time>
      </trkpt>
      <trkpt lat="56.83635" lon="-5.79027">
        <ele>12.42</ele>
        <time>2021-03-20T17:01:32Z</time>
      </trkpt>
      <trkpt lat="56.83633" lon="-5.7896">
        <ele>13.98</ele>
        <time>2021-03-20T17:01:35Z</time>
      </trkpt>
      <trkpt lat="56.83621" lon="-5.78814">
        <ele>9.8</ele>
        <time>2021-03-20T17:01:38Z</time>
      </trkpt>
      <trkpt lat="56.83622" lon="-5.78759">
        <ele>8.31</ele>
        <time>2021-03-20T17:01:42Z</time>
      </trkpt>
      <trkpt lat="56.83626" lon="-5.78724">
        <ele>9.15</ele>
        <time>2021-03-20T17:01:45Z</time>
      </trkpt>
      <trkpt lat="56.83637" lon="-5.78665">
        <ele>10.57</ele>
        <time>2021-03-20T17:01:48Z</time>
      </trkpt>
      <trkpt lat="56.83686" lon="-5.78496">
        <ele>10.44</ele>
        <time>2021-03-20T17:01:51Z</time>
      </trkpt>
      <trkpt lat="56.83708" lon="-5.78425">
        <ele>14.79</ele>
        <time>2021-03-20T17:01:54Z</time>
      </trkpt>
      <trkpt lat="56.83776" lon="-5.78288">
        <ele>22.99</ele>
        <time>2021-03-20T17:01:57Z</time>
      </trkpt>
      <trkpt lat="56.83829" lon="-5.78163">
        <ele>21.87</ele>
        <time>2021-03-20T17:02:00Z</time>
      </trkpt>
      <trkpt lat="56.83851" lon="-5.78105">
        <ele>21.91</ele>
        <time>2021-03-20T17:02:03Z</time>
      </trkpt>
      <trkpt lat="56.83862" lon="-5.78063">
        <ele>23.97</ele>
        <time>2021-03-20T17:02:07Z</time>
      </trkpt>
      <trkpt lat="56.83869" lon="-5.78018">
        <ele>24.98</ele>
        <time>2021-03-20T17:02:10Z</time>
      </trkpt>
      <trkpt lat="56.8387" lon="-5.77965">
        <ele>25.74</ele>
        <time>2021-03-20T17:02:13Z</time>
      </trkpt>
      <trkpt lat="56.83863" lon="-5.77884">
        <ele>22.32</ele>
        <time>2021-03-20T17:02:16Z</time>
      </trkpt>
      <trkpt lat="56.83858" lon="-5.77768">
        <ele>20.84</ele>
        <time>2021-03-20T17:02:19Z</time>
      </trkpt>
      <trkpt lat="56.83859" lon="-5.77732">
        <ele>20.5</ele>
        <time>2021-03-20T17:02:22Z</time>
      </trkpt>
      <trkpt lat="56.83873" lon="-5.7756">
        <ele>21.59</ele>
        <time>2021-03-20T17:02:25Z</time>
      </trkpt>
      <trkpt lat="56.83874" lon="-5.77502">
        <ele>23.43</ele>
        <time>2021-03-20T17:02:28Z</time>
      </trkpt>
      <trkpt lat="56.83867" lon="-5.77308">
        <ele>21.61</ele>
        <time>2021-03-20T17:02:32Z</time>
      </trkpt>
      <trkpt lat="56.8387" lon="-5.77262">
        <ele>21.05</ele>
        <time>2021-03-20T17:02:35Z</time>
      </trkpt>
      <trkpt lat="56.83918" lon="-5.76984">
        <ele>24.48</ele>
        <time>2021-03-20T17:02:38Z</time>
      </trkpt>
      <trkpt lat="56.83934" lon="-5.76904">
        <ele>25.23</ele>
        <time>2021-03-20T17:02:41Z</time>
      </trkpt>
      <trkpt lat="56.83952" lon="-5.76841">
        <ele>24.18</ele>
        <time>2021-03-20T17:02:44Z</time>
      </trkpt>
      <trkpt lat="56.83975" lon="-5.76792">
        <ele>22.19</ele>
        <time>2021-03-20T17:02:47Z</time>
      </trkpt>
      <trkpt lat="56.83996" lon="-5.76758">
        <ele>20.97</ele>
        <time>2021-03-20T17:02:50Z</time>
      </trkpt>
      <trkpt lat="56.84039" lon="-5.76708">
        <ele>20.84</ele>
        <time>2021-03-20T17:02:53Z</time>
      </trkpt>
      <trkpt lat="56.84075" lon="-5.76677">
        <ele>21.6</ele>
        <time>2021-03-20T17:02:57Z</time>
      </trkpt>
      <trkpt lat="56.84112" lon="-5.76632">
        <ele>21.47</ele>
        <time>2021-03-20T17:03:00Z</time>
      </trkpt>
      <trkpt lat="56.84137" lon="-5.7661">
        <ele>21.21</ele>
        <time>2021-03-20T17:03:03Z</time>
      </trkpt>
      <trkpt lat="56.84158" lon="-5.76575">
        <ele>19.66</ele>
        <time>2021-03-20T17:03:06Z</time>
      </trkpt>
      <trkpt lat="56.84171" lon="-5.7655">
        <ele>18.81</ele>
        <time>2021-03-20T17:03:09Z</time>
      </trkpt>
      <trkpt lat="56.84188" lon="-5.76509">
        <ele>19.88</ele>
        <time>2021-03-20T17:03:12Z</time>
      </trkpt>
      <trkpt lat="56.84202" lon="-5.76455">
        <ele>24.65</ele>
        <time>2021-03-20T17:03:15Z</time>
      </trkpt>
      <trkpt lat="56.84209" lon="-5.76398">
        <ele>29.3</ele>
        <time>2021-03-20T17:03:18Z</time>
      </trkpt>
      <trkpt lat="56.84213" lon="-5.76343">
        <ele>32.96</ele>
        <time>2021-03-20T17:03:21Z</time>
      </trkpt>
      <trkpt lat="56.84211" lon="-5.76285">
        <ele>36.44</ele>
        <time>2021-03-20T17:03:25Z</time>
      </trkpt>
      <trkpt lat="56.8414" lon="-5.75911">
        <ele>36.71</ele>
        <time>2021-03-20T17:03:28Z</time>
      </trkpt>
      <trkpt lat="56.84139" lon="-5.75856">
        <ele>34.83</ele>
        <time>2021-03-20T17:03:31Z</time>
      </trkpt>
      <trkpt lat="56.84142" lon="-5.75813">
        <ele>34.14</ele>
        <time>2021-03-20T17:03:34Z</time>
      </trkpt>
      <trkpt lat="56.84156" lon="-5.75747">
        <ele>34.33</ele>
        <time>2021-03-20T17:03:37Z</time>
      </trkpt>
      <trkpt lat="56.84262" lon="-5.75477">
        <ele>43.17</ele>
        <time>2021-03-20T17:03:40Z</time>
      </trkpt>
      <trkpt lat="56.84284" lon="-5.75414">
        <ele>43.39</ele>
        <time>2021-03-20T17:03:43Z</time>
      </trkpt>
      <trkpt lat="56.84298" lon="-5.75358">
        <ele>43.94</ele>
        <time>2021-03-20T17:03:46Z</time>
      </trkpt>
      <trkpt lat="56.84304" lon="-5.75303">
        <ele>44.2</ele>
        <time>2021-03-20T17:03:50Z</time>
      </trkpt>
      <trkpt lat="56.84305" lon="-5.75247">
        <ele>43</ele>
        <time>2021-03-20T17:03:53Z</time>
      </trkpt>
      <trkpt lat="56.84302" lon="-5.75196">
        <ele>41.93</ele>
        <time>2021-03-20T17:03:56Z</time>
      </trkpt>
      <trkpt lat="56.84259" lon="-5.74961">
        <ele>35.58</ele>
        <time>2021-03-20T17:03:59Z</time>
      </trkpt>
      <trkpt lat="56.84255" lon="-5.74922">
        <ele>35.13</ele>
        <time>2021-03-20T17:04:02Z</time>
      </trkpt>
      <trkpt lat="56.84251" lon="-5.74837">
        <ele>34.69</ele>
        <time>2021-03-20T17:04:05Z</time>
      </trkpt>
      <trkpt lat="56.84249" lon="-5.74661">
        <ele>29.06</ele>
        <time>2021-03-20T17:04:08Z</time>
      </trkpt>
      <trkpt lat="56.84241" lon="-5.74577">
        <ele>28.15</ele>
        <time>2021-03-20T17:04:11Z</time>
      </trkpt>
      <trkpt lat="56.84174" lon="-5.74144">
        <ele>20.94</ele>
        <time>2021-03-20T17:04:15Z</time>
      </trkpt>
      <trkpt lat="56.84173" lon="-5.74096">
        <ele>18.81</ele>
        <time>2021-03-20T17:04:18Z</time>
      </trkpt>
      <trkpt lat="56.84174" lon="-5.7406">
        <ele>18.03</ele>
        <time>2021-03-20T17:04:21Z</time>
      </trkpt>
      <trkpt lat="56.84177" lon="-5.7401">
        <ele>19.54</ele>
        <time>2021-03-20T17:04:24Z</time>
      </trkpt>
      <trkpt lat="56.8426" lon="-5.73407">
        <ele>12.52</ele>
        <time>2021-03-20T17:04:27Z</time>
      </trkpt>
      <trkpt lat="56.84286" lon="-5.73194">
        <ele>8.15</ele>
        <time>2021-03-20T17:04:30Z</time>
      </trkpt>
      <trkpt lat="56.8429" lon="-5.73131">
        <ele>9.49</ele>
        <time>2021-03-20T17:04:33Z</time>
      </trkpt>
      <trkpt lat="56.84293" lon="-5.72821">
        <ele>33.78</ele>
        <time>2021-03-20T17:04:36Z</time>
      </trkpt>
      <trkpt lat="56.84323" lon="-5.72664">
        <ele>35.95</ele>
        <time>2021-03-20T17:04:40Z</time>
      </trkpt>
      <trkpt lat="56.84328" lon="-5.72593">
        <ele>39.07</ele>
        <time>2021-03-20T17:04:43Z</time>
      </trkpt>
      <trkpt lat="56.84328" lon="-5.72349">
        <ele>9.55</ele>
        <time>2021-03-20T17:04:46Z</time>
      </trkpt>
      <trkpt lat="56.84342" lon="-5.7221">
        <ele>7.77</ele>
        <time>2021-03-20T17:04:49Z</time>
      </trkpt>
      <trkpt lat="56.84345" lon="-5.7215">
        <ele>8.02</ele>
        <time>2021-03-20T17:04:52Z</time>
      </trkpt>
      <trkpt lat="56.84348" lon="-5.71957">
        <ele>6.14</ele>
        <time>2021-03-20T17:04:55Z</time>
      </trkpt>
      <trkpt lat="56.84359" lon="-5.71871">
        <ele>10.85</ele>
        <time>2021-03-20T17:04:58Z</time>
      </trkpt>
      <trkpt lat="56.84377" lon="-5.71786">
        <ele>13.5</ele>
        <time>2021-03-20T17:05:01Z</time>
      </trkpt>
      <trkpt lat="56.84391" lon="-5.71738">
        <ele>11.91</ele>
        <time>2021-03-20T17:05:05Z</time>
      </trkpt>
      <trkpt lat="56.84427" lon="-5.71651">
        <ele>10.28</ele>
        <time>2021-03-20T17:05:08Z</time>
      </trkpt>
      <trkpt lat="56.84501" lon="-5.71512">
        <ele>9.56</ele>
        <time>2021-03-20T17:05:11Z</time>
      </trkpt>
      <trkpt lat="56.84526" lon="-5.71449">
        <ele>7.23</ele>
        <time>2021-03-20T17:05:14Z</time>
      </trkpt>
      <trkpt lat="56.84568" lon="-5.71312">
        <ele>8.71</ele>
        <time>2021-03-20T17:05:17Z</time>
      </trkpt>
      <trkpt lat="56.84591" lon="-5.71257">
        <ele>9.23</ele>
        <time>2021-03-20T17:05:20Z</time>
      </trkpt>
      <trkpt lat="56.84615" lon="-5.71213">
        <ele>6.95</ele>
        <time>2021-03-20T17:05:23Z</time>
      </trkpt>
      <trkpt lat="56.84639" lon="-5.7118">
        <ele>5.59</ele>
        <time>2021-03-20T17:05:26Z</time>
      </trkpt>
      <trkpt lat="56.84708" lon="-5.71095">
        <ele>4.95</ele>
        <time>2021-03-20T17:05:29Z</time>
      </trkpt>
      <trkpt lat="56.8473" lon="-5.71058">
        <ele>4.65</ele>
        <time>2021-03-20T17:05:33Z</time>
      </trkpt>
      <trkpt lat="56.84788" lon="-5.70953">
        <ele>4.55</ele>
        <time>2021-03-20T17:05:36Z</time>
      </trkpt>
      <trkpt lat="56.84808" lon="-5.70927">
        <ele>2.63</ele>
        <time>2021-03-20T17:05:39Z</time>
      </trkpt>
      <trkpt lat="56.84833" lon="-5.70905">
        <ele>3.44</ele>
        <time>2021-03-20T17:05:42Z</time>
      </trkpt>
      <trkpt lat="56.84941" lon="-5.70849">
        <ele>8.69</ele>
        <time>2021-03-20T17:05:45Z</time>
      </trkpt>
      <trkpt lat="56.85086" lon="-5.70782">
        <ele>9.6</ele>
        <time>2021-03-20T17:05:48Z</time>
      </trkpt>
      <trkpt lat="56.85255" lon="-5.70757">
        <ele>7.71</ele>
        <time>2021-03-20T17:05:51Z</time>
      </trkpt>
      <trkpt lat="56.85289" lon="-5.70744">
        <ele>9.69</ele>
        <time>2021-03-20T17:05:54Z</time>
      </trkpt>
      <trkpt lat="56.85318" lon="-5.70724">
        <ele>11.39</ele>
        <time>2021-03-20T17:05:58Z</time>
      </trkpt>
      <trkpt lat="56.85347" lon="-5.70695">
        <ele>12.47</ele>
        <time>2021-03-20T17:06:01Z</time>
      </trkpt>
      <trkpt lat="56.85424" lon="-5.70599">
        <ele>11.08</ele>
        <time>2021-03-20T17:06:04Z</time>
      </trkpt>
      <trkpt lat="56.85456" lon="-5.70567">
        <ele>9.49</ele>
        <time>2021-03-20T17:06:07Z</time>
      </trkpt>
      <trkpt lat="56.8552" lon="-5.70533">
        <ele>2.76</ele>
        <time>2021-03-20T17:06:10Z</time>
      </trkpt>
      <trkpt lat="56.85703" lon="-5.70445">
        <ele>7.65</ele>
        <time>2021-03-20T17:06:13Z</time>
      </trkpt>
      <trkpt lat="56.85747" lon="-5.70429">
        <ele>9.87</ele>
        <time>2021-03-20T17:06:16Z</time>
      </trkpt>
      <trkpt lat="56.85793" lon="-5.7042">
        <ele>11.27</ele>
        <time>2021-03-20T17:06:19Z</time>
      </trkpt>
      <trkpt lat="56.85839" lon="-5.70419">
        <ele>9.58</ele>
        <time>2021-03-20T17:06:23Z</time>
      </trkpt>
      <trkpt lat="56.85898" lon="-5.70428">
        <ele>7.83</ele>
        <time>2021-03-20T17:06:26Z</time>
      </trkpt>
      <trkpt lat="56.85988" lon="-5.70454">
        <ele>11.23</ele>
        <time>2021-03-20T17:06:29Z</time>
      </trkpt>
      <trkpt lat="56.86022" lon="-5.70454">
        <ele>10.43</ele>
        <time>2021-03-20T17:06:32Z</time>
      </trkpt>
      <trkpt lat="56.86048" lon="-5.70449">
        <ele>6.97</ele>
        <time>2021-03-20T17:06:35Z</time>
      </trkpt>
      <trkpt lat="56.8608" lon="-5.70436">
        <ele>4.95</ele>
        <time>2021-03-20T17:06:38Z</time>
      </trkpt>
      <trkpt lat="56.86109" lon="-5.70417">
        <ele>5.99</ele>
        <time>2021-03-20T17:06:41Z</time>
      </trkpt>
      <trkpt lat="56.86135" lon="-5.70392">
        <ele>5.16</ele>
        <time>2021-03-20T17:06:44Z</time>
      </trkpt>
      <trkpt lat="56.86162" lon="-5.70358">
        <ele>6.57</ele>
        <time>2021-03-20T17:06:48Z</time>
      </trkpt>
      <trkpt lat="56.86187" lon="-5.7032">
        <ele>7.37</ele>
        <time>2021-03-20T17:06:51Z</time>
      </trkpt>
      <trkpt lat="56.86247" lon="-5.70192">
        <ele>9.54</ele>
        <time>2021-03-20T17:06:54Z</time>
      </trkpt>
      <trkpt lat="56.86267" lon="-5.70144">
        <ele>9.18</ele>
        <time>2021-03-20T17:06:57Z</time>
      </trkpt>
      <trkpt lat="56.86284" lon="-5.70096">
        <ele>12.99</ele>
        <time>2021-03-20T17:07:00Z</time>
      </trkpt>
      <trkpt lat="56.8632" lon="-5.6995">
        <ele>20.44</ele>
        <time>2021-03-20T17:07:03Z</time>
      </trkpt>
      <trkpt lat="56.86347" lon="-5.69856">
        <ele>22.8</ele>
        <time>2021-03-20T17:07:06Z</time>
      </trkpt>
      <trkpt lat="56.86397" lon="-5.69723">
        <ele>10.58</ele>
        <time>2021-03-20T17:07:09Z</time>
      </trkpt>
      <trkpt lat="56.86421" lon="-5.69664">
        <ele>9.31</ele>
        <time>2021-03-20T17:07:13Z</time>
      </trkpt>
      <trkpt lat="56.86448" lon="-5.69614">
        <ele>7.41</ele>
        <time>2021-03-20T17:07:16Z</time>
      </trkpt>
      <trkpt lat="56.86473" lon="-5.69577">
        <ele>7.37</ele>
        <time>2021-03-20T17:07:19Z</time>
      </trkpt>
      <trkpt lat="56.86506" lon="-5.69538">
        <ele>8.49</ele>
        <time>2021-03-20T17:07:22Z</time>
      </trkpt>
      <trkpt lat="56.86543" lon="-5.69507">
        <ele>8.65</ele>
        <time>2021-03-20T17:07:25Z</time>
      </trkpt>
      <trkpt lat="56.86572" lon="-5.69489">
        <ele>7.58</ele>
        <time>2021-03-20T17:07:28Z</time>
      </trkpt>
      <trkpt lat="56.866" lon="-5.69477">
        <ele>5.67</ele>
        <time>2021-03-20T17:07:31Z</time>
      </trkpt>
      <trkpt lat="56.86648" lon="-5.69463">
        <ele>4.96</ele>
        <time>2021-03-20T17:07:34Z</time>
      </trkpt>
      <trkpt lat="56.86679" lon="-5.69449">
        <ele>4.74</ele>
        <time>2021-03-20T17:07:37Z</time>
      </trkpt>
      <trkpt lat="56.86704" lon="-5.6943">
        <ele>5.62</ele>
        <time>2021-03-20T17:07:41Z</time>
      </trkpt>
      <trkpt lat="56.8672" lon="-5.69409">
        <ele>7.66</ele>
        <time>2021-03-20T17:07:44Z</time>
      </trkpt>
      <trkpt lat="56.86739" lon="-5.6938">
        <ele>9.11</ele>
        <time>2021-03-20T17:07:47Z</time>
      </trkpt>
      <trkpt lat="56.86754" lon="-5.69347">
        <ele>10.04</ele>
        <time>2021-03-20T17:07:50Z</time>
      </trkpt>
      <trkpt lat="56.86816" lon="-5.69195">
        <ele>8.4</ele>
        <time>2021-03-20T17:07:53Z</time>
      </trkpt>
      <trkpt lat="56.86827" lon="-5.69161">
        <ele>8.1</ele>
        <time>2021-03-20T17:07:56Z</time>
      </trkpt>
      <trkpt lat="56.86834" lon="-5.69128">
        <ele>7.59</ele>
        <time>2021-03-20T17:07:59Z</time>
      </trkpt>
      <trkpt lat="56.86855" lon="-5.68996">
        <ele>9.84</ele>
        <time>2021-03-20T17:08:02Z</time>
      </trkpt>
      <trkpt lat="56.86862" lon="-5.68933">
        <ele>8.84</ele>
        <time>2021-03-20T17:08:06Z</time>
      </trkpt>
      <trkpt lat="56.86867" lon="-5.68881">
        <ele>8.83</ele>
        <time>2021-03-20T17:08:09Z</time>
      </trkpt>
      <trkpt lat="56.86867" lon="-5.6884">
        <ele>10.87</ele>
        <time>2021-03-20T17:08:12Z</time>
      </trkpt>
      <trkpt lat="56.86863" lon="-5.68792">
        <ele>8.88</ele>
        <time>2021-03-20T17:08:15Z</time>
      </trkpt>
      <trkpt lat="56.86855" lon="-5.68756">
        <ele>9.34</ele>
        <time>2021-03-20T17:08:18Z</time>
      </trkpt>
      <trkpt lat="56.86839" lon="-5.68697">
        <ele>11.5</ele>
        <time>2021-03-20T17:08:21Z</time>
      </trkpt>
      <trkpt lat="56.86811" lon="-5.68602">
        <ele>7.45</ele>
        <time>2021-03-20T17:08:24Z</time>
      </trkpt>
      <trkpt lat="56.86799" lon="-5.68545">
        <ele>6.22</ele>
        <time>2021-03-20T17:08:27Z</time>
      </trkpt>
      <trkpt lat="56.86793" lon="-5.68492">
        <ele>6.35</ele>
        <time>2021-03-20T17:08:31Z</time>
      </trkpt>
      <trkpt lat="56.86793" lon="-5.68451">
        <ele>7.08</ele>
        <time>2021-03-20T17:08:34Z</time>
      </trkpt>
      <trkpt lat="56.86797" lon="-5.68405">
        <ele>8.38</ele>
        <time>2021-03-20T17:08:37Z</time>
      </trkpt>
      <trkpt lat="56.86802" lon="-5.68372">
        <ele>9.36</ele>
        <time>2021-03-20T17:08:40Z</time>
      </trkpt>
      <trkpt lat="56.86809" lon="-5.68337">
        <ele>10.52</ele>
        <time>2021-03-20T17:08:43Z</time>
      </trkpt>
      <trkpt lat="56.86844" lon="-5.68222">
        <ele>11.15</ele>
        <time>2021-03-20T17:08:46Z</time>
      </trkpt>
      <trkpt lat="56.86927" lon="-5.67862">
        <ele>12.45</ele>
        <time>2021-03-20T17:08:49Z</time>
      </trkpt>
      <trkpt lat="56.86972" lon="-5.6771">
        <ele>16.05</ele>
        <time>2021-03-20T17:08:52Z</time>
      </trkpt>
      <trkpt lat="56.87024" lon="-5.67562">
        <ele>11.07</ele>
        <time>2021-03-20T17:08:56Z</time>
      </trkpt>
      <trkpt lat="56.87059" lon="-5.67443">
        <ele>13.14</ele>
        <time>2021-03-20T17:08:59Z</time>
      </trkpt>
      <trkpt lat="56.87093" lon="-5.67294">
        <ele>13.6</ele>
        <time>2021-03-20T17:09:02Z</time>
      </trkpt>
      <trkpt lat="56.8711" lon="-5.67243">
        <ele>6.08</ele>
        <time>2021-03-20T17:09:05Z</time>
      </trkpt>
      <trkpt lat="56.87124" lon="-5.67209">
        <ele>4.45</ele>
        <time>2021-03-20T17:09:08Z</time>
      </trkpt>
      <trkpt lat="56.87138" lon="-5.67182">
        <ele>1.76</ele>
        <time>2021-03-20T17:09:11Z</time>
      </trkpt>
      <trkpt lat="56.87213" lon="-5.67068">
        <ele>4.09</ele>
        <time>2021-03-20T17:09:14Z</time>
      </trkpt>
      <trkpt lat="56.87243" lon="-5.67028">
        <ele>5.25</ele>
        <time>2021-03-20T17:09:17Z</time>
      </trkpt>
      <trkpt lat="56.87262" lon="-5.67008">
        <ele>4.84</ele>
        <time>2021-03-20T17:09:21Z</time>
      </trkpt>
      <trkpt lat="56.87285" lon="-5.66989">
        <ele>4</ele>
        <time>2021-03-20T17:09:24Z</time>
      </trkpt>
      <trkpt lat="56.87332" lon="-5.66971">
        <ele>3.05</ele>
        <time>2021-03-20T17:09:27Z</time>
      </trkpt>
      <trkpt lat="56.87392" lon="-5.66955">
        <ele>2.68</ele>
        <time>2021-03-20T17:09:30Z</time>
      </trkpt>
      <trkpt lat="56.87413" lon="-5.66945">
        <ele>3</ele>
        <time>2021-03-20T17:09:33Z</time>
      </trkpt>
      <trkpt lat="56.87438" lon="-5.66927">
        <ele>3</ele>
        <time>2021-03-20T17:09:36Z</time>
      </trkpt>
      <trkpt lat="56.87501" lon="-5.66873">
        <ele>2.04</ele>
        <time>2021-03-20T17:09:39Z</time>
      </trkpt>
      <trkpt lat="56.8753" lon="-5.66856">
        <ele>3.25</ele>
        <time>2021-03-20T17:09:42Z</time>
      </trkpt>
      <trkpt lat="56.87596" lon="-5.66835">
        <ele>8.35</ele>
        <time>2021-03-20T17:09:45Z</time>
      </trkpt>
      <trkpt lat="56.87633" lon="-5.66817">
        <ele>12.15</ele>
        <time>2021-03-20T17:09:49Z</time>
      </trkpt>
      <trkpt lat="56.87654" lon="-5.66798">
        <ele>14.6</ele>
        <time>2021-03-20T17:09:52Z</time>
      </trkpt>
      <trkpt lat="56.87667" lon="-5.6678">
        <ele>16.85</ele>
        <time>2021-03-20T17:09:55Z</time>
      </trkpt>
      <trkpt lat="56.87683" lon="-5.66754">
        <ele>17.59</ele>
        <time>2021-03-20T17:09:58Z</time>
      </trkpt>
      <trkpt lat="56.87752" lon="-5.66617">
        <ele>23.28</ele>
        <time>2021-03-20T17:10:01Z</time>
      </trkpt>
      <trkpt lat="56.87767" lon="-5.666">
        <ele>23.08</ele>
        <time>2021-03-20T17:10:04Z</time>
      </trkpt>
      <trkpt lat="56.87781" lon="-5.66597">
        <ele>23.7</ele>
        <time>2021-03-20T17:10:07Z</time>
      </trkpt>
      <trkpt lat="56.87796" lon="-5.66605">
        <ele>25.1</ele>
        <time>2021-03-20T17:10:10Z</time>
      </trkpt>
      <trkpt lat="56.87837" lon="-5.66661">
        <ele>31.22</ele>
        <time>2021-03-20T17:10:14Z</time>
      </trkpt>
      <trkpt lat="56.87859" lon="-5.66614">
        <ele>30.05</ele>
        <time>2021-03-20T17:10:16Z</time>
      </trkpt>
      <trkpt lat="56.87972" lon="-5.66414">
        <ele>26.6</ele>
        <time>2021-03-20T17:10:19Z</time>
      </trkpt>
      <trkpt lat="56.8799" lon="-5.66391">
        <ele>25.79</ele>
        <time>2021-03-20T17:10:21Z</time>
      </trkpt>
      <trkpt lat="56.88008" lon="-5.66374">
        <ele>25.92</ele>
        <time>2021-03-20T17:10:24Z</time>
      </trkpt>
      <trkpt lat="56.88031" lon="-5.66357">
        <ele>26.65</ele>
        <time>2021-03-20T17:10:26Z</time>
      </trkpt>
      <trkpt lat="56.88101" lon="-5.66315">
        <ele>27.88</ele>
        <time>2021-03-20T17:10:29Z</time>
      </trkpt>
      <trkpt lat="56.88159" lon="-5.66276">
        <ele>26.89</ele>
        <time>2021-03-20T17:10:31Z</time>
      </trkpt>
      <trkpt lat="56.88182" lon="-5.66253">
        <ele>27.57</ele>
        <time>2021-03-20T17:10:34Z</time>
      </trkpt>
      <trkpt lat="56.88202" lon="-5.66229">
        <ele>27.05</ele>
        <time>2021-03-20T17:10:36Z</time>
      </trkpt>
      <trkpt lat="56.88216" lon="-5.66201">
        <ele>26.81</ele>
        <time>2021-03-20T17:10:39Z</time>
      </trkpt>
      <trkpt lat="56.88226" lon="-5.66169">
        <ele>25.5</ele>
        <time>2021-03-20T17:10:41Z</time>
      </trkpt>
      <trkpt lat="56.88238" lon="-5.66109">
        <ele>27.19</ele>
        <time>2021-03-20T17:10:44Z</time>
      </trkpt>
      <trkpt lat="56.8828" lon="-5.65848">
        <ele>29.58</ele>
        <time>2021-03-20T17:10:46Z</time>
      </trkpt>
      <trkpt lat="56.88295" lon="-5.65777">
        <ele>31.62</ele>
        <time>2021-03-20T17:10:48Z</time>
      </trkpt>
      <trkpt lat="56.88306" lon="-5.65738">
        <ele>31.65</ele>
        <time>2021-03-20T17:10:51Z</time>
      </trkpt>
      <trkpt lat="56.8833" lon="-5.65677">
        <ele>31.36</ele>
        <time>2021-03-20T17:10:53Z</time>
      </trkpt>
      <trkpt lat="56.88438" lon="-5.65434">
        <ele>28.32</ele>
        <time>2021-03-20T17:10:56Z</time>
      </trkpt>
      <trkpt lat="56.88453" lon="-5.65387">
        <ele>28.01</ele>
        <time>2021-03-20T17:10:58Z</time>
      </trkpt>
      <trkpt lat="56.88496" lon="-5.65192">
        <ele>25.06</ele>
        <time>2021-03-20T17:11:01Z</time>
      </trkpt>
      <trkpt lat="56.88525" lon="-5.65084">
        <ele>30.09</ele>
        <time>2021-03-20T17:11:03Z</time>
      </trkpt>
      <trkpt lat="56.88559" lon="-5.64969">
        <ele>32.55</ele>
        <time>2021-03-20T17:11:06Z</time>
      </trkpt>
      <trkpt lat="56.88569" lon="-5.64922">
        <ele>33.07</ele>
        <time>2021-03-20T17:11:08Z</time>
      </trkpt>
      <trkpt lat="56.88575" lon="-5.64889">
        <ele>32.85</ele>
        <time>2021-03-20T17:11:11Z</time>
      </trkpt>
      <trkpt lat="56.88578" lon="-5.64861">
        <ele>33.1</ele>
        <time>2021-03-20T17:11:13Z</time>
      </trkpt>
      <trkpt lat="56.88593" lon="-5.64649">
        <ele>29.71</ele>
        <time>2021-03-20T17:11:16Z</time>
      </trkpt>
      <trkpt lat="56.886" lon="-5.6459">
        <ele>29.91</ele>
        <time>2021-03-20T17:11:18Z</time>
      </trkpt>
      <trkpt lat="56.88641" lon="-5.64343">
        <ele>30.48</ele>
        <time>2021-03-20T17:11:21Z</time>
      </trkpt>
      <trkpt lat="56.88658" lon="-5.64217">
        <ele>32.44</ele>
        <time>2021-03-20T17:11:23Z</time>
      </trkpt>
      <trkpt lat="56.88679" lon="-5.64079">
        <ele>30.56</ele>
        <time>2021-03-20T17:11:26Z</time>
      </trkpt>
      <trkpt lat="56.88684" lon="-5.64039">
        <ele>30.41</ele>
        <time>2021-03-20T17:11:28Z</time>
      </trkpt>
      <trkpt lat="56.88691" lon="-5.63941">
        <ele>29.29</ele>
        <time>2021-03-20T17:11:31Z</time>
      </trkpt>
      <trkpt lat="56.88709" lon="-5.63831">
        <ele>25.6</ele>
        <time>2021-03-20T17:11:33Z</time>
      </trkpt>
      <trkpt lat="56.88712" lon="-5.63803">
        <ele>25.47</ele>
        <time>2021-03-20T17:11:36Z</time>
      </trkpt>
      <trkpt lat="56.88712" lon="-5.63772">
        <ele>24.88</ele>
        <time>2021-03-20T17:11:38Z</time>
      </trkpt>
      <trkpt lat="56.88708" lon="-5.6374">
        <ele>24.68</ele>
        <time>2021-03-20T17:11:41Z</time>
      </trkpt>
      <trkpt lat="56.88703" lon="-5.63715">
        <ele>24.81</ele>
        <time>2021-03-20T17:11:43Z</time>
      </trkpt>
      <trkpt lat="56.88697" lon="-5.63694">
        <ele>25.12</ele>
        <time>2021-03-20T17:11:45Z</time>
      </trkpt>
      <trkpt lat="56.88626" lon="-5.63554">
        <ele>21.55</ele>
        <time>2021-03-20T17:11:48Z</time>
      </trkpt>
      <trkpt lat="56.88615" lon="-5.63529">
        <ele>21.96</ele>
        <time>2021-03-20T17:11:50Z</time>
      </trkpt>
      <trkpt lat="56.88604" lon="-5.63493">
        <ele>22.82</ele>
        <time>2021-03-20T17:11:53Z</time>
      </trkpt>
      <trkpt lat="56.88526" lon="-5.63156">
        <ele>32.45</ele>
        <time>2021-03-20T17:11:55Z</time>
      </trkpt>
      <trkpt lat="56.88518" lon="-5.63126">
        <ele>34.1</ele>
        <time>2021-03-20T17:11:58Z</time>
      </trkpt>
      <trkpt lat="56.88512" lon="-5.63113">
        <ele>34.9</ele>
        <time>2021-03-20T17:12:00Z</time>
      </trkpt>
      <trkpt lat="56.88504" lon="-5.63101">
        <ele>36.08</ele>
        <time>2021-03-20T17:12:03Z</time>
      </trkpt>
      <trkpt lat="56.88496" lon="-5.63092">
        <ele>37.31</ele>
        <time>2021-03-20T17:12:05Z</time>
      </trkpt>
      <trkpt lat="56.8848" lon="-5.63084">
        <ele>39.35</ele>
        <time>2021-03-20T17:12:08Z</time>
      </trkpt>
      <trkpt lat="56.88461" lon="-5.63085">
        <ele>40.54</ele>
        <time>2021-03-20T17:12:10Z</time>
      </trkpt>
      <trkpt lat="56.884" lon="-5.63103">
        <ele>38.1</ele>
        <time>2021-03-20T17:12:13Z</time>
      </trkpt>
      <trkpt lat="56.88379" lon="-5.63106">
        <ele>36.56</ele>
        <time>2021-03-20T17:12:15Z</time>
      </trkpt>
      <trkpt lat="56.88363" lon="-5.63103">
        <ele>36.24</ele>
        <time>2021-03-20T17:12:18Z</time>
      </trkpt>
      <trkpt lat="56.88352" lon="-5.63096">
        <ele>36.64</ele>
        <time>2021-03-20T17:12:20Z</time>
      </trkpt>
      <trkpt lat="56.88343" lon="-5.63085">
        <ele>37.42</ele>
        <time>2021-03-20T17:12:23Z</time>
      </trkpt>
      <trkpt lat="56.88334" lon="-5.63069">
        <ele>38.69</ele>
        <time>2021-03-20T17:12:25Z</time>
      </trkpt>
      <trkpt lat="56.88329" lon="-5.63047">
        <ele>39.52</ele>
        <time>2021-03-20T17:12:28Z</time>
      </trkpt>
      <trkpt lat="56.88327" lon="-5.63023">
        <ele>40.1</ele>
        <time>2021-03-20T17:12:30Z</time>
      </trkpt>
      <trkpt lat="56.88328" lon="-5.63002">
        <ele>41.82</ele>
        <time>2021-03-20T17:12:33Z</time>
      </trkpt>
      <trkpt lat="56.88331" lon="-5.62976">
        <ele>41.75</ele>
        <time>2021-03-20T17:12:35Z</time>
      </trkpt>
      <trkpt lat="56.88337" lon="-5.62952">
        <ele>41.15</ele>
        <time>2021-03-20T17:12:38Z</time>
      </trkpt>
      <trkpt lat="56.88387" lon="-5.62798">
        <ele>38.99</ele>
        <time>2021-03-20T17:12:40Z</time>
      </trkpt>
      <trkpt lat="56.88394" lon="-5.62769">
        <ele>37.83</ele>
        <time>2021-03-20T17:12:42Z</time>
      </trkpt>
      <trkpt lat="56.88397" lon="-5.62742">
        <ele>36.84</ele>
        <time>2021-03-20T17:12:45Z</time>
      </trkpt>
      <trkpt lat="56.884" lon="-5.62648">
        <ele>35</ele>
        <time>2021-03-20T17:12:47Z</time>
      </trkpt>
      <trkpt lat="56.88506" lon="-5.62067">
        <ele>35.88</ele>
        <time>2021-03-20T17:12:50Z</time>
      </trkpt>
      <trkpt lat="56.88511" lon="-5.62032">
        <ele>35.44</ele>
        <time>2021-03-20T17:12:52Z</time>
      </trkpt>
      <trkpt lat="56.88512" lon="-5.61992">
        <ele>35.12</ele>
        <time>2021-03-20T17:12:55Z</time>
      </trkpt>
      <trkpt lat="56.88508" lon="-5.61775">
        <ele>35.55</ele>
        <time>2021-03-20T17:12:57Z</time>
      </trkpt>
      <trkpt lat="56.88505" lon="-5.61719">
        <ele>35.19</ele>
        <time>2021-03-20T17:13:00Z</time>
      </trkpt>
      <trkpt lat="56.885" lon="-5.61666">
        <ele>34.05</ele>
        <time>2021-03-20T17:13:02Z</time>
      </trkpt>
      <trkpt lat="56.88495" lon="-5.61637">
        <ele>34.87</ele>
        <time>2021-03-20T17:13:05Z</time>
      </trkpt>
      <trkpt lat="56.88488" lon="-5.61608">
        <ele>35.34</ele>
        <time>2021-03-20T17:13:07Z</time>
      </trkpt>
      <trkpt lat="56.88472" lon="-5.61561">
        <ele>35.78</ele>
        <time>2021-03-20T17:13:10Z</time>
      </trkpt>
      <trkpt lat="56.88446" lon="-5.61509">
        <ele>34.91</ele>
        <time>2021-03-20T17:13:12Z</time>
      </trkpt>
      <trkpt lat="56.88377" lon="-5.61384">
        <ele>35.91</ele>
        <time>2021-03-20T17:13:15Z</time>
      </trkpt>
      <trkpt lat="56.88365" lon="-5.61354">
        <ele>36.98</ele>
        <time>2021-03-20T17:13:17Z</time>
      </trkpt>
      <trkpt lat="56.88356" lon="-5.61329">
        <ele>35.23</ele>
        <time>2021-03-20T17:13:20Z</time>
      </trkpt>
      <trkpt lat="56.8835" lon="-5.61304">
        <ele>35.81</ele>
        <time>2021-03-20T17:13:22Z</time>
      </trkpt>
      <trkpt lat="56.88346" lon="-5.61278">
        <ele>36.08</ele>
        <time>2021-03-20T17:13:25Z</time>
      </trkpt>
      <trkpt lat="56.88345" lon="-5.61252">
        <ele>36.74</ele>
        <time>2021-03-20T17:13:27Z</time>
      </trkpt>
      <trkpt lat="56.88345" lon="-5.61223">
        <ele>34.46</ele>
        <time>2021-03-20T17:13:30Z</time>
      </trkpt>
      <trkpt lat="56.88347" lon="-5.61195">
        <ele>37.01</ele>
        <time>2021-03-20T17:13:32Z</time>
      </trkpt>
      <trkpt lat="56.88357" lon="-5.6111">
        <ele>34.85</ele>
        <time>2021-03-20T17:13:34Z</time>
      </trkpt>
      <trkpt lat="56.8836" lon="-5.61052">
        <ele>35.92</ele>
        <time>2021-03-20T17:13:37Z</time>
      </trkpt>
      <trkpt lat="56.88358" lon="-5.6102">
        <ele>35.79</ele>
        <time>2021-03-20T17:13:39Z</time>
      </trkpt>
      <trkpt lat="56.88326" lon="-5.60775">
        <ele>36.56</ele>
        <time>2021-03-20T17:13:42Z</time>
      </trkpt>
      <trkpt lat="56.88324" lon="-5.60737">
        <ele>37.72</ele>
        <time>2021-03-20T17:13:44Z</time>
      </trkpt>
      <trkpt lat="56.88323" lon="-5.60697">
        <ele>39.48</ele>
        <time>2021-03-20T17:13:47Z</time>
      </trkpt>
      <trkpt lat="56.88327" lon="-5.60645">
        <ele>41.66</ele>
        <time>2021-03-20T17:13:49Z</time>
      </trkpt>
      <trkpt lat="56.88362" lon="-5.60293">
        <ele>40.81</ele>
        <time>2021-03-20T17:13:52Z</time>
      </trkpt>
      <trkpt lat="56.88367" lon="-5.60257">
        <ele>40.96</ele>
        <time>2021-03-20T17:13:54Z</time>
      </trkpt>
      <trkpt lat="56.88374" lon="-5.6022">
        <ele>40.35</ele>
        <time>2021-03-20T17:13:57Z</time>
      </trkpt>
      <trkpt lat="56.8841" lon="-5.60083">
        <ele>41.09</ele>
        <time>2021-03-20T17:13:59Z</time>
      </trkpt>
      <trkpt lat="56.8844" lon="-5.59949">
        <ele>40.39</ele>
        <time>2021-03-20T17:14:02Z</time>
      </trkpt>
      <trkpt lat="56.88449" lon="-5.59885">
        <ele>40.08</ele>
        <time>2021-03-20T17:14:04Z</time>
      </trkpt>
      <trkpt lat="56.88451" lon="-5.59856">
        <ele>39.42</ele>
        <time>2021-03-20T17:14:07Z</time>
      </trkpt>
      <trkpt lat="56.88451" lon="-5.59826">
        <ele>38.25</ele>
        <time>2021-03-20T17:14:09Z</time>
      </trkpt>
      <trkpt lat="56.8844" lon="-5.59687">
        <ele>36.21</ele>
        <time>2021-03-20T17:14:12Z</time>
      </trkpt>
      <trkpt lat="56.88439" lon="-5.5965">
        <ele>36.8</ele>
        <time>2021-03-20T17:14:14Z</time>
      </trkpt>
      <trkpt lat="56.8844" lon="-5.59606">
        <ele>36.47</ele>
        <time>2021-03-20T17:14:17Z</time>
      </trkpt>
      <trkpt lat="56.88447" lon="-5.59524">
        <ele>35.64</ele>
        <time>2021-03-20T17:14:19Z</time>
      </trkpt>
      <trkpt lat="56.88448" lon="-5.59486">
        <ele>37.06</ele>
        <time>2021-03-20T17:14:22Z</time>
      </trkpt>
      <trkpt lat="56.88447" lon="-5.5945">
        <ele>38.1</ele>
        <time>2021-03-20T17:14:24Z</time>
      </trkpt>
      <trkpt lat="56.8844" lon="-5.59404">
        <ele>38.3</ele>
        <time>2021-03-20T17:14:27Z</time>
      </trkpt>
      <trkpt lat="56.88416" lon="-5.59309">
        <ele>36.97</ele>
        <time>2021-03-20T17:14:29Z</time>
      </trkpt>
      <trkpt lat="56.88342" lon="-5.59035">
        <ele>36.88</ele>
        <time>2021-03-20T17:14:31Z</time>
      </trkpt>
      <trkpt lat="56.88326" lon="-5.58973">
        <ele>38.99</ele>
        <time>2021-03-20T17:14:34Z</time>
      </trkpt>
      <trkpt lat="56.88288" lon="-5.58727">
        <ele>35.91</ele>
        <time>2021-03-20T17:14:36Z</time>
      </trkpt>
      <trkpt lat="56.8828" lon="-5.58687">
        <ele>34.91</ele>
        <time>2021-03-20T17:14:39Z</time>
      </trkpt>
      <trkpt lat="56.8827" lon="-5.5865">
        <ele>34.04</ele>
        <time>2021-03-20T17:14:41Z</time>
      </trkpt>
      <trkpt lat="56.88156" lon="-5.58376">
        <ele>41.45</ele>
        <time>2021-03-20T17:14:44Z</time>
      </trkpt>
      <trkpt lat="56.88144" lon="-5.58344">
        <ele>40.32</ele>
        <time>2021-03-20T17:14:46Z</time>
      </trkpt>
      <trkpt lat="56.88135" lon="-5.58311">
        <ele>39.6</ele>
        <time>2021-03-20T17:14:49Z</time>
      </trkpt>
      <trkpt lat="56.88132" lon="-5.58284">
        <ele>38.42</ele>
        <time>2021-03-20T17:14:51Z</time>
      </trkpt>
      <trkpt lat="56.88131" lon="-5.58252">
        <ele>38.84</ele>
        <time>2021-03-20T17:14:54Z</time>
      </trkpt>
      <trkpt lat="56.88137" lon="-5.58171">
        <ele>41.73</ele>
        <time>2021-03-20T17:14:56Z</time>
      </trkpt>
      <trkpt lat="56.88137" lon="-5.58125">
        <ele>44.71</ele>
        <time>2021-03-20T17:14:59Z</time>
      </trkpt>
      <trkpt lat="56.88135" lon="-5.58084">
        <ele>46.05</ele>
        <time>2021-03-20T17:15:01Z</time>
      </trkpt>
      <trkpt lat="56.88129" lon="-5.58056">
        <ele>45.82</ele>
        <time>2021-03-20T17:15:04Z</time>
      </trkpt>
      <trkpt lat="56.8812" lon="-5.58029">
        <ele>45.75</ele>
        <time>2021-03-20T17:15:06Z</time>
      </trkpt>
      <trkpt lat="56.88109" lon="-5.58008">
        <ele>44.84</ele>
        <time>2021-03-20T17:15:09Z</time>
      </trkpt>
      <trkpt lat="56.88094" lon="-5.57989">
        <ele>44.45</ele>
        <time>2021-03-20T17:15:11Z</time>
      </trkpt>
      <trkpt lat="56.88072" lon="-5.57972">
        <ele>41.98</ele>
        <time>2021-03-20T17:15:14Z</time>
      </trkpt>
      <trkpt lat="56.87999" lon="-5.57939">
        <ele>33.15</ele>
        <time>2021-03-20T17:15:16Z</time>
      </trkpt>
      <trkpt lat="56.87971" lon="-5.57919">
        <ele>32.03</ele>
        <time>2021-03-20T17:15:19Z</time>
      </trkpt>
      <trkpt lat="56.87899" lon="-5.57854">
        <ele>32.35</ele>
        <time>2021-03-20T17:15:21Z</time>
      </trkpt>
      <trkpt lat="56.87865" lon="-5.57815">
        <ele>33.39</ele>
        <time>2021-03-20T17:15:24Z</time>
      </trkpt>
      <trkpt lat="56.87855" lon="-5.57799">
        <ele>34.47</ele>
        <time>2021-03-20T17:15:26Z</time>
      </trkpt>
      <trkpt lat="56.87845" lon="-5.57775">
        <ele>35.63</ele>
        <time>2021-03-20T17:15:28Z</time>
      </trkpt>
      <trkpt lat="56.87836" lon="-5.57744">
        <ele>36.02</ele>
        <time>2021-03-20T17:15:31Z</time>
      </trkpt>
      <trkpt lat="56.8783" lon="-5.57703">
        <ele>35.74</ele>
        <time>2021-03-20T17:15:33Z</time>
      </trkpt>
      <trkpt lat="56.87827" lon="-5.57655">
        <ele>36.78</ele>
        <time>2021-03-20T17:15:36Z</time>
      </trkpt>
      <trkpt lat="56.87817" lon="-5.57292">
        <ele>35.77</ele>
        <time>2021-03-20T17:15:38Z</time>
      </trkpt>
      <trkpt lat="56.87817" lon="-5.57209">
        <ele>35.42</ele>
        <time>2021-03-20T17:15:41Z</time>
      </trkpt>
      <trkpt lat="56.8782" lon="-5.57155">
        <ele>36.53</ele>
        <time>2021-03-20T17:15:43Z</time>
      </trkpt>
      <trkpt lat="56.8783" lon="-5.57051">
        <ele>37.72</ele>
        <time>2021-03-20T17:15:46Z</time>
      </trkpt>
      <trkpt lat="56.87836" lon="-5.56997">
        <ele>39.44</ele>
        <time>2021-03-20T17:15:48Z</time>
      </trkpt>
      <trkpt lat="56.87842" lon="-5.56959">
        <ele>40.54</ele>
        <time>2021-03-20T17:15:51Z</time>
      </trkpt>
      <trkpt lat="56.87886" lon="-5.5678">
        <ele>42.83</ele>
        <time>2021-03-20T17:15:53Z</time>
      </trkpt>
      <trkpt lat="56.87937" lon="-5.5661">
        <ele>41.38</ele>
        <time>2021-03-20T17:15:56Z</time>
      </trkpt>
      <trkpt lat="56.87945" lon="-5.56557">
        <ele>37.28</ele>
        <time>2021-03-20T17:15:58Z</time>
      </trkpt>
      <trkpt lat="56.87944" lon="-5.56507">
        <ele>35.25</ele>
        <time>2021-03-20T17:16:01Z</time>
      </trkpt>
      <trkpt lat="56.8791" lon="-5.56261">
        <ele>37.95</ele>
        <time>2021-03-20T17:16:03Z</time>
      </trkpt>
      <trkpt lat="56.87908" lon="-5.56235">
        <ele>37.72</ele>
        <time>2021-03-20T17:16:06Z</time>
      </trkpt>
      <trkpt lat="56.87908" lon="-5.56206">
        <ele>38.51</ele>
        <time>2021-03-20T17:16:08Z</time>
      </trkpt>
      <trkpt lat="56.87917" lon="-5.56134">
        <ele>41.19</ele>
        <time>2021-03-20T17:16:11Z</time>
      </trkpt>
      <trkpt lat="56.87916" lon="-5.56088">
        <ele>42.06</ele>
        <time>2021-03-20T17:16:13Z</time>
      </trkpt>
      <trkpt lat="56.87914" lon="-5.56067">
        <ele>42.56</ele>
        <time>2021-03-20T17:16:16Z</time>
      </trkpt>
      <trkpt lat="56.87909" lon="-5.56039">
        <ele>44.03</ele>
        <time>2021-03-20T17:16:18Z</time>
      </trkpt>
      <trkpt lat="56.87864" lon="-5.55852">
        <ele>42.4</ele>
        <time>2021-03-20T17:16:21Z</time>
      </trkpt>
      <trkpt lat="56.87855" lon="-5.558">
        <ele>40.65</ele>
        <time>2021-03-20T17:16:23Z</time>
      </trkpt>
      <trkpt lat="56.87836" lon="-5.55636">
        <ele>38.51</ele>
        <time>2021-03-20T17:16:25Z</time>
      </trkpt>
      <trkpt lat="56.87828" lon="-5.55551">
        <ele>41.06</ele>
        <time>2021-03-20T17:16:28Z</time>
      </trkpt>
      <trkpt lat="56.87827" lon="-5.55514">
        <ele>40.95</ele>
        <time>2021-03-20T17:16:30Z</time>
      </trkpt>
      <trkpt lat="56.87828" lon="-5.55478">
        <ele>41.24</ele>
        <time>2021-03-20T17:16:33Z</time>
      </trkpt>
      <trkpt lat="56.87845" lon="-5.55312">
        <ele>45.3</ele>
        <time>2021-03-20T17:16:35Z</time>
      </trkpt>
      <trkpt lat="56.87847" lon="-5.55266">
        <ele>47.22</ele>
        <time>2021-03-20T17:16:38Z</time>
      </trkpt>
      <trkpt lat="56.87845" lon="-5.55242">
        <ele>47.67</ele>
        <time>2021-03-20T17:16:40Z</time>
      </trkpt>
      <trkpt lat="56.87841" lon="-5.55219">
        <ele>47.54</ele>
        <time>2021-03-20T17:16:43Z</time>
      </trkpt>
      <trkpt lat="56.87834" lon="-5.55192">
        <ele>47.34</ele>
        <time>2021-03-20T17:16:45Z</time>
      </trkpt>
      <trkpt lat="56.87817" lon="-5.55155">
        <ele>47.71</ele>
        <time>2021-03-20T17:16:48Z</time>
      </trkpt>
      <trkpt lat="56.87736" lon="-5.54993">
        <ele>41.5</ele>
        <time>2021-03-20T17:16:50Z</time>
      </trkpt>
      <trkpt lat="56.87722" lon="-5.54951">
        <ele>38.85</ele>
        <time>2021-03-20T17:16:53Z</time>
      </trkpt>
      <trkpt lat="56.87706" lon="-5.54858">
        <ele>41.72</ele>
        <time>2021-03-20T17:16:55Z</time>
      </trkpt>
      <trkpt lat="56.877" lon="-5.54815">
        <ele>42.43</ele>
        <time>2021-03-20T17:16:58Z</time>
      </trkpt>
      <trkpt lat="56.87699" lon="-5.54784">
        <ele>45.17</ele>
        <time>2021-03-20T17:17:00Z</time>
      </trkpt>
      <trkpt lat="56.877" lon="-5.54757">
        <ele>46.9</ele>
        <time>2021-03-20T17:17:03Z</time>
      </trkpt>
      <trkpt lat="56.87714" lon="-5.54645">
        <ele>50.88</ele>
        <time>2021-03-20T17:17:05Z</time>
      </trkpt>
      <trkpt lat="56.87714" lon="-5.54616">
        <ele>48.41</ele>
        <time>2021-03-20T17:17:08Z</time>
      </trkpt>
      <trkpt lat="56.87713" lon="-5.54588">
        <ele>46.62</ele>
        <time>2021-03-20T17:17:10Z</time>
      </trkpt>
      <trkpt lat="56.87702" lon="-5.54543">
        <ele>42.48</ele>
        <time>2021-03-20T17:17:13Z</time>
      </trkpt>
      <trkpt lat="56.87631" lon="-5.5437">
        <ele>45.13</ele>
        <time>2021-03-20T17:17:15Z</time>
      </trkpt>
      <trkpt lat="56.87623" lon="-5.54353">
        <ele>41.65</ele>
        <time>2021-03-20T17:17:18Z</time>
      </trkpt>
      <trkpt lat="56.8761" lon="-5.54335">
        <ele>39.7</ele>
        <time>2021-03-20T17:17:20Z</time>
      </trkpt>
      <trkpt lat="56.876" lon="-5.54325">
        <ele>36.13</ele>
        <time>2021-03-20T17:17:22Z</time>
      </trkpt>
      <trkpt lat="56.87582" lon="-5.54312">
        <ele>33.65</ele>
        <time>2021-03-20T17:17:25Z</time>
      </trkpt>
      <trkpt lat="56.87529" lon="-5.54284">
        <ele>32.02</ele>
        <time>2021-03-20T17:17:27Z</time>
      </trkpt>
      <trkpt lat="56.87517" lon="-5.54274">
        <ele>32</ele>
        <time>2021-03-20T17:17:30Z</time>
      </trkpt>
      <trkpt lat="56.87504" lon="-5.54255">
        <ele>32</ele>
        <time>2021-03-20T17:17:32Z</time>
      </trkpt>
      <trkpt lat="56.87494" lon="-5.54236">
        <ele>32.28</ele>
        <time>2021-03-20T17:17:35Z</time>
      </trkpt>
      <trkpt lat="56.87486" lon="-5.54212">
        <ele>32.88</ele>
        <time>2021-03-20T17:17:37Z</time>
      </trkpt>
      <trkpt lat="56.87483" lon="-5.54183">
        <ele>33.78</ele>
        <time>2021-03-20T17:17:40Z</time>
      </trkpt>
      <trkpt lat="56.87483" lon="-5.54154">
        <ele>34.83</ele>
        <time>2021-03-20T17:17:42Z</time>
      </trkpt>
      <trkpt lat="56.87485" lon="-5.54125">
        <ele>36.2</ele>
        <time>2021-03-20T17:17:45Z</time>
      </trkpt>
      <trkpt lat="56.87524" lon="-5.53933">
        <ele>39.84</ele>
        <time>2021-03-20T17:17:47Z</time>
      </trkpt>
      <trkpt lat="56.87533" lon="-5.53896">
        <ele>39.98</ele>
        <time>2021-03-20T17:17:50Z</time>
      </trkpt>
      <trkpt lat="56.87545" lon="-5.53862">
        <ele>42.97</ele>
        <time>2021-03-20T17:17:52Z</time>
      </trkpt>
      <trkpt lat="56.87576" lon="-5.53793">
        <ele>45.04</ele>
        <time>2021-03-20T17:17:55Z</time>
      </trkpt>
      <trkpt lat="56.87586" lon="-5.53767">
        <ele>43.46</ele>
        <time>2021-03-20T17:17:57Z</time>
      </trkpt>
      <trkpt lat="56.87593" lon="-5.53742">
        <ele>42.34</ele>
        <time>2021-03-20T17:18:00Z</time>
      </trkpt>
      <trkpt lat="56.87598" lon="-5.53713">
        <ele>40.83</ele>
        <time>2021-03-20T17:18:02Z</time>
      </trkpt>
      <trkpt lat="56.87604" lon="-5.53393">
        <ele>37.06</ele>
        <time>2021-03-20T17:18:05Z</time>
      </trkpt>
      <trkpt lat="56.87606" lon="-5.53363">
        <ele>37.44</ele>
        <time>2021-03-20T17:18:07Z</time>
      </trkpt>
      <trkpt lat="56.87611" lon="-5.53331">
        <ele>38.85</ele>
        <time>2021-03-20T17:18:10Z</time>
      </trkpt>
      <trkpt lat="56.87624" lon="-5.53278">
        <ele>39.29</ele>
        <time>2021-03-20T17:18:12Z</time>
      </trkpt>
      <trkpt lat="56.87662" lon="-5.53166">
        <ele>42.24</ele>
        <time>2021-03-20T17:18:15Z</time>
      </trkpt>
      <trkpt lat="56.87707" lon="-5.53025">
        <ele>51.05</ele>
        <time>2021-03-20T17:18:17Z</time>
      </trkpt>
      <trkpt lat="56.87716" lon="-5.52983">
        <ele>52.73</ele>
        <time>2021-03-20T17:18:19Z</time>
      </trkpt>
      <trkpt lat="56.87748" lon="-5.52549">
        <ele>71.7</ele>
        <time>2021-03-20T17:18:22Z</time>
      </trkpt>
      <trkpt lat="56.87749" lon="-5.5248">
        <ele>75.94</ele>
        <time>2021-03-20T17:18:24Z</time>
      </trkpt>
      <trkpt lat="56.87745" lon="-5.52437">
        <ele>79.53</ele>
        <time>2021-03-20T17:18:27Z</time>
      </trkpt>
      <trkpt lat="56.87724" lon="-5.52343">
        <ele>86.4</ele>
        <time>2021-03-20T17:18:29Z</time>
      </trkpt>
      <trkpt lat="56.87717" lon="-5.52323">
        <ele>87.79</ele>
        <time>2021-03-20T17:18:32Z</time>
      </trkpt>
      <trkpt lat="56.87706" lon="-5.52302">
        <ele>87.47</ele>
        <time>2021-03-20T17:18:34Z</time>
      </trkpt>
      <trkpt lat="56.87675" lon="-5.52261">
        <ele>79.9</ele>
        <time>2021-03-20T17:18:37Z</time>
      </trkpt>
      <trkpt lat="56.87666" lon="-5.52245">
        <ele>78.95</ele>
        <time>2021-03-20T17:18:39Z</time>
      </trkpt>
      <trkpt lat="56.87658" lon="-5.52224">
        <ele>80.97</ele>
        <time>2021-03-20T17:18:42Z</time>
      </trkpt>
      <trkpt lat="56.87653" lon="-5.52198">
        <ele>83.51</ele>
        <time>2021-03-20T17:18:44Z</time>
      </trkpt>
      <trkpt lat="56.87637" lon="-5.52095">
        <ele>95.65</ele>
        <time>2021-03-20T17:18:47Z</time>
      </trkpt>
      <trkpt lat="56.87632" lon="-5.52077">
        <ele>96.26</ele>
        <time>2021-03-20T17:18:49Z</time>
      </trkpt>
      <trkpt lat="56.87622" lon="-5.52058">
        <ele>95.93</ele>
        <time>2021-03-20T17:18:52Z</time>
      </trkpt>
      <trkpt lat="56.87614" lon="-5.52049">
        <ele>94.68</ele>
        <time>2021-03-20T17:18:54Z</time>
      </trkpt>
      <trkpt lat="56.87603" lon="-5.52044">
        <ele>93.38</ele>
        <time>2021-03-20T17:18:57Z</time>
      </trkpt>
      <trkpt lat="56.87587" lon="-5.52044">
        <ele>90.58</ele>
        <time>2021-03-20T17:18:59Z</time>
      </trkpt>
      <trkpt lat="56.87564" lon="-5.5205">
        <ele>89.58</ele>
        <time>2021-03-20T17:19:02Z</time>
      </trkpt>
      <trkpt lat="56.87506" lon="-5.52071">
        <ele>89.18</ele>
        <time>2021-03-20T17:19:04Z</time>
      </trkpt>
      <trkpt lat="56.87484" lon="-5.52075">
        <ele>91.44</ele>
        <time>2021-03-20T17:19:07Z</time>
      </trkpt>
      <trkpt lat="56.87475" lon="-5.52071">
        <ele>93.39</ele>
        <time>2021-03-20T17:19:09Z</time>
      </trkpt>
      <trkpt lat="56.87466" lon="-5.52063">
        <ele>96.23</ele>
        <time>2021-03-20T17:19:12Z</time>
      </trkpt>
      <trkpt lat="56.87457" lon="-5.52051">
        <ele>99.06</ele>
        <time>2021-03-20T17:19:14Z</time>
      </trkpt>
      <trkpt lat="56.87448" lon="-5.52031">
        <ele>101.6</ele>
        <time>2021-03-20T17:19:16Z</time>
      </trkpt>
      <trkpt lat="56.87426" lon="-5.51971">
        <ele>105.76</ele>
        <time>2021-03-20T17:19:19Z</time>
      </trkpt>
      <trkpt lat="56.87412" lon="-5.51946">
        <ele>105.78</ele>
        <time>2021-03-20T17:19:21Z</time>
      </trkpt>
      <trkpt lat="56.87365" lon="-5.51876">
        <ele>109.66</ele>
        <time>2021-03-20T17:19:24Z</time>
      </trkpt>
      <trkpt lat="56.87355" lon="-5.51858">
        <ele>110.1</ele>
        <time>2021-03-20T17:19:26Z</time>
      </trkpt>
      <trkpt lat="56.87344" lon="-5.5183">
        <ele>109.93</ele>
        <time>2021-03-20T17:19:29Z</time>
      </trkpt>
      <trkpt lat="56.87338" lon="-5.51807">
        <ele>109.34</ele>
        <time>2021-03-20T17:19:31Z</time>
      </trkpt>
      <trkpt lat="56.87335" lon="-5.51783">
        <ele>109.39</ele>
        <time>2021-03-20T17:19:34Z</time>
      </trkpt>
      <trkpt lat="56.87335" lon="-5.51757">
        <ele>110.38</ele>
        <time>2021-03-20T17:19:36Z</time>
      </trkpt>
      <trkpt lat="56.87339" lon="-5.51731">
        <ele>112.24</ele>
        <time>2021-03-20T17:19:39Z</time>
      </trkpt>
      <trkpt lat="56.87346" lon="-5.51695">
        <ele>114.62</ele>
        <time>2021-03-20T17:19:41Z</time>
      </trkpt>
      <trkpt lat="56.87356" lon="-5.51652">
        <ele>116.83</ele>
        <time>2021-03-20T17:19:44Z</time>
      </trkpt>
      <trkpt lat="56.87376" lon="-5.51581">
        <ele>118.57</ele>
        <time>2021-03-20T17:19:46Z</time>
      </trkpt>
      <trkpt lat="56.87437" lon="-5.51416">
        <ele>129.16</ele>
        <time>2021-03-20T17:19:49Z</time>
      </trkpt>
      <trkpt lat="56.8753" lon="-5.51151">
        <ele>118.52</ele>
        <time>2021-03-20T17:19:51Z</time>
      </trkpt>
      <trkpt lat="56.87543" lon="-5.51107">
        <ele>121.17</ele>
        <time>2021-03-20T17:19:54Z</time>
      </trkpt>
      <trkpt lat="56.87556" lon="-5.51042">
        <ele>119.71</ele>
        <time>2021-03-20T17:19:56Z</time>
      </trkpt>
      <trkpt lat="56.8757" lon="-5.5095">
        <ele>113.99</ele>
        <time>2021-03-20T17:19:59Z</time>
      </trkpt>
      <trkpt lat="56.87574" lon="-5.50907">
        <ele>114.96</ele>
        <time>2021-03-20T17:20:01Z</time>
      </trkpt>
      <trkpt lat="56.87583" lon="-5.50745">
        <ele>118.58</ele>
        <time>2021-03-20T17:20:04Z</time>
      </trkpt>
      <trkpt lat="56.87583" lon="-5.50681">
        <ele>116.54</ele>
        <time>2021-03-20T17:20:06Z</time>
      </trkpt>
      <trkpt lat="56.87583" lon="-5.50612">
        <ele>113.82</ele>
        <time>2021-03-20T17:20:08Z</time>
      </trkpt>
      <trkpt lat="56.87576" lon="-5.50499">
        <ele>108.75</ele>
        <time>2021-03-20T17:20:11Z</time>
      </trkpt>
      <trkpt lat="56.87563" lon="-5.50403">
        <ele>107.75</ele>
        <time>2021-03-20T17:20:13Z</time>
      </trkpt>
      <trkpt lat="56.87562" lon="-5.50373">
        <ele>108.02</ele>
        <time>2021-03-20T17:20:16Z</time>
      </trkpt>
      <trkpt lat="56.87563" lon="-5.50251">
        <ele>111.03</ele>
        <time>2021-03-20T17:20:18Z</time>
      </trkpt>
      <trkpt lat="56.87566" lon="-5.50199">
        <ele>111.3</ele>
        <time>2021-03-20T17:20:21Z</time>
      </trkpt>
      <trkpt lat="56.8761" lon="-5.4976">
        <ele>111.36</ele>
        <time>2021-03-20T17:20:23Z</time>
      </trkpt>
      <trkpt lat="56.87615" lon="-5.49716">
        <ele>109.58</ele>
        <time>2021-03-20T17:20:26Z</time>
      </trkpt>
      <trkpt lat="56.87627" lon="-5.49665">
        <ele>108.28</ele>
        <time>2021-03-20T17:20:28Z</time>
      </trkpt>
      <trkpt lat="56.87659" lon="-5.49558">
        <ele>107.39</ele>
        <time>2021-03-20T17:20:31Z</time>
      </trkpt>
      <trkpt lat="56.87678" lon="-5.49433">
        <ele>105.68</ele>
        <time>2021-03-20T17:20:33Z</time>
      </trkpt>
      <trkpt lat="56.87692" lon="-5.49385">
        <ele>106.21</ele>
        <time>2021-03-20T17:20:36Z</time>
      </trkpt>
      <trkpt lat="56.87789" lon="-5.49175">
        <ele>115.38</ele>
        <time>2021-03-20T17:20:38Z</time>
      </trkpt>
      <trkpt lat="56.87803" lon="-5.49139">
        <ele>115.6</ele>
        <time>2021-03-20T17:20:41Z</time>
      </trkpt>
      <trkpt lat="56.87809" lon="-5.49113">
        <ele>114.75</ele>
        <time>2021-03-20T17:20:43Z</time>
      </trkpt>
      <trkpt lat="56.87815" lon="-5.4908">
        <ele>113.33</ele>
        <time>2021-03-20T17:20:46Z</time>
      </trkpt>
      <trkpt lat="56.8784" lon="-5.48761">
        <ele>110.75</ele>
        <time>2021-03-20T17:20:48Z</time>
      </trkpt>
      <trkpt lat="56.87843" lon="-5.48705">
        <ele>110.04</ele>
        <time>2021-03-20T17:20:51Z</time>
      </trkpt>
      <trkpt lat="56.87852" lon="-5.48265">
        <ele>94.69</ele>
        <time>2021-03-20T17:20:53Z</time>
      </trkpt>
      <trkpt lat="56.87863" lon="-5.4788">
        <ele>92.8</ele>
        <time>2021-03-20T17:20:56Z</time>
      </trkpt>
      <trkpt lat="56.87862" lon="-5.47843">
        <ele>94.5</ele>
        <time>2021-03-20T17:20:58Z</time>
      </trkpt>
      <trkpt lat="56.87857" lon="-5.47804">
        <ele>95.36</ele>
        <time>2021-03-20T17:21:01Z</time>
      </trkpt>
      <trkpt lat="56.87841" lon="-5.47719">
        <ele>95.61</ele>
        <time>2021-03-20T17:21:03Z</time>
      </trkpt>
      <trkpt lat="56.87836" lon="-5.47686">
        <ele>94.69</ele>
        <time>2021-03-20T17:21:05Z</time>
      </trkpt>
      <trkpt lat="56.87835" lon="-5.47658">
        <ele>94.36</ele>
        <time>2021-03-20T17:21:08Z</time>
      </trkpt>
      <trkpt lat="56.87835" lon="-5.47626">
        <ele>94.38</ele>
        <time>2021-03-20T17:21:10Z</time>
      </trkpt>
      <trkpt lat="56.87842" lon="-5.47501">
        <ele>91.28</ele>
        <time>2021-03-20T17:21:13Z</time>
      </trkpt>
      <trkpt lat="56.87841" lon="-5.4738">
        <ele>90.39</ele>
        <time>2021-03-20T17:21:15Z</time>
      </trkpt>
      <trkpt lat="56.87839" lon="-5.47291">
        <ele>91.44</ele>
        <time>2021-03-20T17:21:18Z</time>
      </trkpt>
      <trkpt lat="56.87836" lon="-5.47269">
        <ele>91.54</ele>
        <time>2021-03-20T17:21:20Z</time>
      </trkpt>
      <trkpt lat="56.87821" lon="-5.47174">
        <ele>91.35</ele>
        <time>2021-03-20T17:21:23Z</time>
      </trkpt>
      <trkpt lat="56.87808" lon="-5.4711">
        <ele>93.39</ele>
        <time>2021-03-20T17:21:25Z</time>
      </trkpt>
      <trkpt lat="56.87797" lon="-5.47068">
        <ele>95.52</ele>
        <time>2021-03-20T17:21:28Z</time>
      </trkpt>
      <trkpt lat="56.87782" lon="-5.47029">
        <ele>96.5</ele>
        <time>2021-03-20T17:21:30Z</time>
      </trkpt>
      <trkpt lat="56.87721" lon="-5.46902">
        <ele>93.46</ele>
        <time>2021-03-20T17:21:33Z</time>
      </trkpt>
      <trkpt lat="56.87711" lon="-5.46873">
        <ele>94.49</ele>
        <time>2021-03-20T17:21:35Z</time>
      </trkpt>
      <trkpt lat="56.87704" lon="-5.46841">
        <ele>94.96</ele>
        <time>2021-03-20T17:21:38Z</time>
      </trkpt>
      <trkpt lat="56.87699" lon="-5.4681">
        <ele>94.81</ele>
        <time>2021-03-20T17:21:40Z</time>
      </trkpt>
      <trkpt lat="56.87698" lon="-5.46755">
        <ele>93.04</ele>
        <time>2021-03-20T17:21:43Z</time>
      </trkpt>
      <trkpt lat="56.87707" lon="-5.46624">
        <ele>92.25</ele>
        <time>2021-03-20T17:21:45Z</time>
      </trkpt>
      <trkpt lat="56.87708" lon="-5.46535">
        <ele>92.14</ele>
        <time>2021-03-20T17:21:48Z</time>
      </trkpt>
      <trkpt lat="56.87706" lon="-5.46456">
        <ele>90.75</ele>
        <time>2021-03-20T17:21:50Z</time>
      </trkpt>
      <trkpt lat="56.87702" lon="-5.46423">
        <ele>90.23</ele>
        <time>2021-03-20T17:21:53Z</time>
      </trkpt>
      <trkpt lat="56.87681" lon="-5.46315">
        <ele>91</ele>
        <time>2021-03-20T17:21:55Z</time>
      </trkpt>
      <trkpt lat="56.87641" lon="-5.46122">
        <ele>90.77</ele>
        <time>2021-03-20T17:21:58Z</time>
      </trkpt>
      <trkpt lat="56.87632" lon="-5.46096">
        <ele>91.17</ele>
        <time>2021-03-20T17:22:00Z</time>
      </trkpt>
      <trkpt lat="56.87621" lon="-5.46074">
        <ele>91.31</ele>
        <time>2021-03-20T17:22:02Z</time>
      </trkpt>
      <trkpt lat="56.87571" lon="-5.46008">
        <ele>85.84</ele>
        <time>2021-03-20T17:22:05Z</time>
      </trkpt>
      <trkpt lat="56.87561" lon="-5.45986">
        <ele>84.81</ele>
        <time>2021-03-20T17:22:07Z</time>
      </trkpt>
      <trkpt lat="56.87503" lon="-5.45815">
        <ele>83.26</ele>
        <time>2021-03-20T17:22:10Z</time>
      </trkpt>
      <trkpt lat="56.87494" lon="-5.45794">
        <ele>82.93</ele>
        <time>2021-03-20T17:22:12Z</time>
      </trkpt>
      <trkpt lat="56.87484" lon="-5.45777">
        <ele>81.94</ele>
        <time>2021-03-20T17:22:15Z</time>
      </trkpt>
      <trkpt lat="56.87462" lon="-5.45759">
        <ele>78.45</ele>
        <time>2021-03-20T17:22:17Z</time>
      </trkpt>
      <trkpt lat="56.87426" lon="-5.45739">
        <ele>74.19</ele>
        <time>2021-03-20T17:22:20Z</time>
      </trkpt>
      <trkpt lat="56.87409" lon="-5.45725">
        <ele>72.8</ele>
        <time>2021-03-20T17:22:22Z</time>
      </trkpt>
      <trkpt lat="56.87399" lon="-5.45709">
        <ele>72.06</ele>
        <time>2021-03-20T17:22:25Z</time>
      </trkpt>
      <trkpt lat="56.87391" lon="-5.4569">
        <ele>70.86</ele>
        <time>2021-03-20T17:22:27Z</time>
      </trkpt>
      <trkpt lat="56.87387" lon="-5.45672">
        <ele>69.22</ele>
        <time>2021-03-20T17:22:30Z</time>
      </trkpt>
      <trkpt lat="56.87374" lon="-5.45541">
        <ele>65.82</ele>
        <time>2021-03-20T17:22:32Z</time>
      </trkpt>
      <trkpt lat="56.87367" lon="-5.45514">
        <ele>64.63</ele>
        <time>2021-03-20T17:22:35Z</time>
      </trkpt>
      <trkpt lat="56.87321" lon="-5.45374">
        <ele>55.23</ele>
        <time>2021-03-20T17:22:37Z</time>
      </trkpt>
      <trkpt lat="56.87284" lon="-5.45246">
        <ele>51.44</ele>
        <time>2021-03-20T17:22:40Z</time>
      </trkpt>
      <trkpt lat="56.87254" lon="-5.45151">
        <ele>53.9</ele>
        <time>2021-03-20T17:22:42Z</time>
      </trkpt>
      <trkpt lat="56.87237" lon="-5.45108">
        <ele>54.28</ele>
        <time>2021-03-20T17:22:45Z</time>
      </trkpt>
      <trkpt lat="56.87205" lon="-5.45043">
        <ele>52.44</ele>
        <time>2021-03-20T17:22:47Z</time>
      </trkpt>
      <trkpt lat="56.87185" lon="-5.44994">
        <ele>51.33</ele>
        <time>2021-03-20T17:22:50Z</time>
      </trkpt>
      <trkpt lat="56.87171" lon="-5.44954">
        <ele>50.35</ele>
        <time>2021-03-20T17:22:52Z</time>
      </trkpt>
      <trkpt lat="56.87162" lon="-5.44917">
        <ele>49.04</ele>
        <time>2021-03-20T17:22:55Z</time>
      </trkpt>
      <trkpt lat="56.87157" lon="-5.44877">
        <ele>48.95</ele>
        <time>2021-03-20T17:22:57Z</time>
      </trkpt>
      <trkpt lat="56.87152" lon="-5.44792">
        <ele>47.54</ele>
        <time>2021-03-20T17:22:59Z</time>
      </trkpt>
      <trkpt lat="56.87151" lon="-5.4456">
        <ele>44.18</ele>
        <time>2021-03-20T17:23:02Z</time>
      </trkpt>
      <trkpt lat="56.87148" lon="-5.4452">
        <ele>42.54</ele>
        <time>2021-03-20T17:23:04Z</time>
      </trkpt>
      <trkpt lat="56.8714" lon="-5.44446">
        <ele>40.12</ele>
        <time>2021-03-20T17:23:07Z</time>
      </trkpt>
      <trkpt lat="56.87139" lon="-5.44421">
        <ele>40.07</ele>
        <time>2021-03-20T17:23:09Z</time>
      </trkpt>
      <trkpt lat="56.87144" lon="-5.44382">
        <ele>40.6</ele>
        <time>2021-03-20T17:23:12Z</time>
      </trkpt>
      <trkpt lat="56.8715" lon="-5.44358">
        <ele>40.78</ele>
        <time>2021-03-20T17:23:14Z</time>
      </trkpt>
      <trkpt lat="56.87159" lon="-5.44333">
        <ele>40.8</ele>
        <time>2021-03-20T17:23:17Z</time>
      </trkpt>
      <trkpt lat="56.87187" lon="-5.44263">
        <ele>40.83</ele>
        <time>2021-03-20T17:23:19Z</time>
      </trkpt>
      <trkpt lat="56.87194" lon="-5.4424">
        <ele>39.48</ele>
        <time>2021-03-20T17:23:22Z</time>
      </trkpt>
      <trkpt lat="56.87199" lon="-5.44205">
        <ele>37.26</ele>
        <time>2021-03-20T17:23:24Z</time>
      </trkpt>
      <trkpt lat="56.87199" lon="-5.44178">
        <ele>35.53</ele>
        <time>2021-03-20T17:23:27Z</time>
      </trkpt>
      <trkpt lat="56.87194" lon="-5.44149">
        <ele>33.97</ele>
        <time>2021-03-20T17:23:29Z</time>
      </trkpt>
      <trkpt lat="56.87175" lon="-5.44066">
        <ele>29.79</ele>
        <time>2021-03-20T17:23:32Z</time>
      </trkpt>
      <trkpt lat="56.87166" lon="-5.44015">
        <ele>27.73</ele>
        <time>2021-03-20T17:23:34Z</time>
      </trkpt>
      <trkpt lat="56.87161" lon="-5.43972">
        <ele>24.86</ele>
        <time>2021-03-20T17:23:37Z</time>
      </trkpt>
      <trkpt lat="56.8716" lon="-5.4388">
        <ele>18.19</ele>
        <time>2021-03-20T17:23:39Z</time>
      </trkpt>
      <trkpt lat="56.87157" lon="-5.43846">
        <ele>16.2</ele>
        <time>2021-03-20T17:23:42Z</time>
      </trkpt>
      <trkpt lat="56.87149" lon="-5.43813">
        <ele>14.74</ele>
        <time>2021-03-20T17:23:44Z</time>
      </trkpt>
      <trkpt lat="56.87041" lon="-5.43575">
        <ele>6.61</ele>
        <time>2021-03-20T17:23:47Z</time>
      </trkpt>
      <trkpt lat="56.87012" lon="-5.4352">
        <ele>8.09</ele>
        <time>2021-03-20T17:23:49Z</time>
      </trkpt>
      <trkpt lat="56.86999" lon="-5.43505">
        <ele>8.6</ele>
        <time>2021-03-20T17:23:52Z</time>
      </trkpt>
      <trkpt lat="56.86917" lon="-5.43447">
        <ele>10.22</ele>
        <time>2021-03-20T17:23:54Z</time>
      </trkpt>
      <trkpt lat="56.86917" lon="-5.43447">
        <ele>10.22</ele>
        <time>2021-03-20T17:23:54Z</time>
      </trkpt>
      <trkpt lat="56.86999" lon="-5.43505">
        <ele>8.6</ele>
        <time>2021-03-20T17:23:57Z</time>
      </trkpt>
      <trkpt lat="56.87012" lon="-5.4352">
        <ele>8.09</ele>
        <time>2021-03-20T17:23:59Z</time>
      </trkpt>
      <trkpt lat="56.87041" lon="-5.43575">
        <ele>6.61</ele>
        <time>2021-03-20T17:24:02Z</time>
      </trkpt>
      <trkpt lat="56.87149" lon="-5.43813">
        <ele>14.74</ele>
        <time>2021-03-20T17:24:05Z</time>
      </trkpt>
      <trkpt lat="56.87157" lon="-5.43846">
        <ele>16.2</ele>
        <time>2021-03-20T17:24:08Z</time>
      </trkpt>
      <trkpt lat="56.8716" lon="-5.4388">
        <ele>18.19</ele>
        <time>2021-03-20T17:24:10Z</time>
      </trkpt>
      <trkpt lat="56.87161" lon="-5.43972">
        <ele>24.86</ele>
        <time>2021-03-20T17:24:13Z</time>
      </trkpt>
      <trkpt lat="56.87166" lon="-5.44015">
        <ele>27.73</ele>
        <time>2021-03-20T17:24:16Z</time>
      </trkpt>
      <trkpt lat="56.87175" lon="-5.44066">
        <ele>29.79</ele>
        <time>2021-03-20T17:24:18Z</time>
      </trkpt>
      <trkpt lat="56.87194" lon="-5.44149">
        <ele>33.97</ele>
        <time>2021-03-20T17:24:21Z</time>
      </trkpt>
      <trkpt lat="56.87199" lon="-5.44178">
        <ele>35.53</ele>
        <time>2021-03-20T17:24:24Z</time>
      </trkpt>
      <trkpt lat="56.87199" lon="-5.44205">
        <ele>37.26</ele>
        <time>2021-03-20T17:24:27Z</time>
      </trkpt>
      <trkpt lat="56.87194" lon="-5.4424">
        <ele>39.48</ele>
        <time>2021-03-20T17:24:29Z</time>
      </trkpt>
      <trkpt lat="56.87187" lon="-5.44263">
        <ele>40.83</ele>
        <time>2021-03-20T17:24:32Z</time>
      </trkpt>
      <trkpt lat="56.87159" lon="-5.44333">
        <ele>40.8</ele>
        <time>2021-03-20T17:24:35Z</time>
      </trkpt>
      <trkpt lat="56.8715" lon="-5.44358">
        <ele>40.78</ele>
        <time>2021-03-20T17:24:38Z</time>
      </trkpt>
      <trkpt lat="56.87144" lon="-5.44382">
        <ele>40.6</ele>
        <time>2021-03-20T17:24:40Z</time>
      </trkpt>
      <trkpt lat="56.87139" lon="-5.44421">
        <ele>40.07</ele>
        <time>2021-03-20T17:24:43Z</time>
      </trkpt>
      <trkpt lat="56.8714" lon="-5.44446">
        <ele>40.12</ele>
        <time>2021-03-20T17:24:46Z</time>
      </trkpt>
      <trkpt lat="56.87148" lon="-5.4452">
        <ele>42.54</ele>
        <time>2021-03-20T17:24:48Z</time>
      </trkpt>
      <trkpt lat="56.87151" lon="-5.4456">
        <ele>44.18</ele>
        <time>2021-03-20T17:24:51Z</time>
      </trkpt>
      <trkpt lat="56.87152" lon="-5.44792">
        <ele>47.54</ele>
        <time>2021-03-20T17:24:54Z</time>
      </trkpt>
      <trkpt lat="56.87157" lon="-5.44877">
        <ele>48.95</ele>
        <time>2021-03-20T17:24:57Z</time>
      </trkpt>
      <trkpt lat="56.87162" lon="-5.44917">
        <ele>49.04</ele>
        <time>2021-03-20T17:24:59Z</time>
      </trkpt>
      <trkpt lat="56.87171" lon="-5.44954">
        <ele>50.35</ele>
        <time>2021-03-20T17:25:02Z</time>
      </trkpt>
      <trkpt lat="56.87185" lon="-5.44994">
        <ele>51.33</ele>
        <time>2021-03-20T17:25:05Z</time>
      </trkpt>
      <trkpt lat="56.87205" lon="-5.45043">
        <ele>52.44</ele>
        <time>2021-03-20T17:25:07Z</time>
      </trkpt>
      <trkpt lat="56.87237" lon="-5.45108">
        <ele>54.28</ele>
        <time>2021-03-20T17:25:10Z</time>
      </trkpt>
      <trkpt lat="56.87254" lon="-5.45151">
        <ele>53.9</ele>
        <time>2021-03-20T17:25:13Z</time>
      </trkpt>
      <trkpt lat="56.87284" lon="-5.45246">
        <ele>51.44</ele>
        <time>2021-03-20T17:25:16Z</time>
      </trkpt>
      <trkpt lat="56.87321" lon="-5.45374">
        <ele>55.23</ele>
        <time>2021-03-20T17:25:18Z</time>
      </trkpt>
      <trkpt lat="56.87367" lon="-5.45514">
        <ele>64.63</ele>
        <time>2021-03-20T17:25:21Z</time>
      </trkpt>
      <trkpt lat="56.87374" lon="-5.45541">
        <ele>65.82</ele>
        <time>2021-03-20T17:25:24Z</time>
      </trkpt>
      <trkpt lat="56.87387" lon="-5.45672">
        <ele>69.22</ele>
        <time>2021-03-20T17:25:26Z</time>
      </trkpt>
      <trkpt lat="56.87391" lon="-5.4569">
        <ele>70.86</ele>
        <time>2021-03-20T17:25:29Z</time>
      </trkpt>
      <trkpt lat="56.87399" lon="-5.45709">
        <ele>72.06</ele>
        <time>2021-03-20T17:25:32Z</time>
      </trkpt>
      <trkpt lat="56.87409" lon="-5.45725">
        <ele>72.8</ele>
        <time>2021-03-20T17:25:35Z</time>
      </trkpt>
      <trkpt lat="56.87426" lon="-5.45739">
        <ele>74.19</ele>
        <time>2021-03-20T17:25:37Z</time>
      </trkpt>
      <trkpt lat="56.87462" lon="-5.45759">
        <ele>78.45</ele>
        <time>2021-03-20T17:25:40Z</time>
      </trkpt>
      <trkpt lat="56.87484" lon="-5.45777">
        <ele>81.94</ele>
        <time>2021-03-20T17:25:43Z</time>
      </trkpt>
      <trkpt lat="56.87494" lon="-5.45794">
        <ele>82.93</ele>
        <time>2021-03-20T17:25:46Z</time>
      </trkpt>
      <trkpt lat="56.87503" lon="-5.45815">
        <ele>83.26</ele>
        <time>2021-03-20T17:25:48Z</time>
      </trkpt>
      <trkpt lat="56.87561" lon="-5.45986">
        <ele>84.81</ele>
        <time>2021-03-20T17:25:51Z</time>
      </trkpt>
      <trkpt lat="56.87571" lon="-5.46008">
        <ele>85.84</ele>
        <time>2021-03-20T17:25:54Z</time>
      </trkpt>
      <trkpt lat="56.87621" lon="-5.46074">
        <ele>91.31</ele>
        <time>2021-03-20T17:25:56Z</time>
      </trkpt>
      <trkpt lat="56.87632" lon="-5.46096">
        <ele>91.17</ele>
        <time>2021-03-20T17:25:59Z</time>
      </trkpt>
      <trkpt lat="56.87641" lon="-5.46122">
        <ele>90.77</ele>
        <time>2021-03-20T17:26:02Z</time>
      </trkpt>
      <trkpt lat="56.87681" lon="-5.46315">
        <ele>91</ele>
        <time>2021-03-20T17:26:05Z</time>
      </trkpt>
      <trkpt lat="56.87702" lon="-5.46423">
        <ele>90.23</ele>
        <time>2021-03-20T17:26:07Z</time>
      </trkpt>
      <trkpt lat="56.87706" lon="-5.46456">
        <ele>90.75</ele>
        <time>2021-03-20T17:26:10Z</time>
      </trkpt>
      <trkpt lat="56.87708" lon="-5.46535">
        <ele>92.14</ele>
        <time>2021-03-20T17:26:13Z</time>
      </trkpt>
      <trkpt lat="56.87707" lon="-5.46624">
        <ele>92.25</ele>
        <time>2021-03-20T17:26:15Z</time>
      </trkpt>
      <trkpt lat="56.87698" lon="-5.46755">
        <ele>93.04</ele>
        <time>2021-03-20T17:26:18Z</time>
      </trkpt>
      <trkpt lat="56.87699" lon="-5.4681">
        <ele>94.81</ele>
        <time>2021-03-20T17:26:21Z</time>
      </trkpt>
      <trkpt lat="56.87704" lon="-5.46841">
        <ele>94.96</ele>
        <time>2021-03-20T17:26:24Z</time>
      </trkpt>
      <trkpt lat="56.87711" lon="-5.46873">
        <ele>94.49</ele>
        <time>2021-03-20T17:26:26Z</time>
      </trkpt>
      <trkpt lat="56.87721" lon="-5.46902">
        <ele>93.46</ele>
        <time>2021-03-20T17:26:29Z</time>
      </trkpt>
      <trkpt lat="56.87782" lon="-5.47029">
        <ele>96.5</ele>
        <time>2021-03-20T17:26:32Z</time>
      </trkpt>
      <trkpt lat="56.87797" lon="-5.47068">
        <ele>95.52</ele>
        <time>2021-03-20T17:26:34Z</time>
      </trkpt>
      <trkpt lat="56.87808" lon="-5.4711">
        <ele>93.39</ele>
        <time>2021-03-20T17:26:37Z</time>
      </trkpt>
      <trkpt lat="56.87821" lon="-5.47174">
        <ele>91.35</ele>
        <time>2021-03-20T17:26:40Z</time>
      </trkpt>
      <trkpt lat="56.87836" lon="-5.47269">
        <ele>91.54</ele>
        <time>2021-03-20T17:26:43Z</time>
      </trkpt>
      <trkpt lat="56.87839" lon="-5.47291">
        <ele>91.44</ele>
        <time>2021-03-20T17:26:45Z</time>
      </trkpt>
      <trkpt lat="56.87841" lon="-5.4738">
        <ele>90.39</ele>
        <time>2021-03-20T17:26:48Z</time>
      </trkpt>
      <trkpt lat="56.87842" lon="-5.47501">
        <ele>91.28</ele>
        <time>2021-03-20T17:26:51Z</time>
      </trkpt>
      <trkpt lat="56.87835" lon="-5.47626">
        <ele>94.38</ele>
        <time>2021-03-20T17:26:53Z</time>
      </trkpt>
      <trkpt lat="56.87835" lon="-5.47658">
        <ele>94.36</ele>
        <time>2021-03-20T17:26:56Z</time>
      </trkpt>
      <trkpt lat="56.87836" lon="-5.47686">
        <ele>94.69</ele>
        <time>2021-03-20T17:26:59Z</time>
      </trkpt>
      <trkpt lat="56.87841" lon="-5.47719">
        <ele>95.61</ele>
        <time>2021-03-20T17:27:02Z</time>
      </trkpt>
      <trkpt lat="56.87857" lon="-5.47804">
        <ele>95.36</ele>
        <time>2021-03-20T17:27:04Z</time>
      </trkpt>
      <trkpt lat="56.87862" lon="-5.47843">
        <ele>94.5</ele>
        <time>2021-03-20T17:27:07Z</time>
      </trkpt>
      <trkpt lat="56.87863" lon="-5.4788">
        <ele>92.8</ele>
        <time>2021-03-20T17:27:10Z</time>
      </trkpt>
      <trkpt lat="56.87852" lon="-5.48265">
        <ele>94.69</ele>
        <time>2021-03-20T17:27:13Z</time>
      </trkpt>
      <trkpt lat="56.87843" lon="-5.48705">
        <ele>110.04</ele>
        <time>2021-03-20T17:27:15Z</time>
      </trkpt>
      <trkpt lat="56.8784" lon="-5.48761">
        <ele>110.75</ele>
        <time>2021-03-20T17:27:18Z</time>
      </trkpt>
      <trkpt lat="56.87815" lon="-5.4908">
        <ele>113.33</ele>
        <time>2021-03-20T17:27:21Z</time>
      </trkpt>
      <trkpt lat="56.87809" lon="-5.49113">
        <ele>114.75</ele>
        <time>2021-03-20T17:27:23Z</time>
      </trkpt>
      <trkpt lat="56.87803" lon="-5.49139">
        <ele>115.6</ele>
        <time>2021-03-20T17:27:26Z</time>
      </trkpt>
      <trkpt lat="56.87789" lon="-5.49175">
        <ele>115.38</ele>
        <time>2021-03-20T17:27:29Z</time>
      </trkpt>
      <trkpt lat="56.87692" lon="-5.49385">
        <ele>106.21</ele>
        <time>2021-03-20T17:27:32Z</time>
      </trkpt>
      <trkpt lat="56.87678" lon="-5.49433">
        <ele>105.68</ele>
        <time>2021-03-20T17:27:34Z</time>
      </trkpt>
      <trkpt lat="56.87659" lon="-5.49558">
        <ele>107.39</ele>
        <time>2021-03-20T17:27:37Z</time>
      </trkpt>
      <trkpt lat="56.87627" lon="-5.49665">
        <ele>108.28</ele>
        <time>2021-03-20T17:27:40Z</time>
      </trkpt>
      <trkpt lat="56.87615" lon="-5.49716">
        <ele>109.58</ele>
        <time>2021-03-20T17:27:42Z</time>
      </trkpt>
      <trkpt lat="56.8761" lon="-5.4976">
        <ele>111.36</ele>
        <time>2021-03-20T17:27:45Z</time>
      </trkpt>
      <trkpt lat="56.87566" lon="-5.50199">
        <ele>111.3</ele>
        <time>2021-03-20T17:27:48Z</time>
      </trkpt>
      <trkpt lat="56.87563" lon="-5.50251">
        <ele>111.03</ele>
        <time>2021-03-20T17:27:51Z</time>
      </trkpt>
      <trkpt lat="56.87562" lon="-5.50373">
        <ele>108.02</ele>
        <time>2021-03-20T17:27:53Z</time>
      </trkpt>
      <trkpt lat="56.87563" lon="-5.50403">
        <ele>107.75</ele>
        <time>2021-03-20T17:27:56Z</time>
      </trkpt>
      <trkpt lat="56.87576" lon="-5.50499">
        <ele>108.75</ele>
        <time>2021-03-20T17:27:59Z</time>
      </trkpt>
      <trkpt lat="56.87583" lon="-5.50612">
        <ele>113.82</ele>
        <time>2021-03-20T17:28:01Z</time>
      </trkpt>
      <trkpt lat="56.87583" lon="-5.50681">
        <ele>116.54</ele>
        <time>2021-03-20T17:28:04Z</time>
      </trkpt>
      <trkpt lat="56.87583" lon="-5.50745">
        <ele>118.58</ele>
        <time>2021-03-20T17:28:07Z</time>
      </trkpt>
      <trkpt lat="56.87574" lon="-5.50907">
        <ele>114.96</ele>
        <time>2021-03-20T17:28:10Z</time>
      </trkpt>
      <trkpt lat="56.8757" lon="-5.5095">
        <ele>113.99</ele>
        <time>2021-03-20T17:28:12Z</time>
      </trkpt>
      <trkpt lat="56.87556" lon="-5.51042">
        <ele>119.71</ele>
        <time>2021-03-20T17:28:15Z</time>
      </trkpt>
      <trkpt lat="56.87543" lon="-5.51107">
        <ele>121.17</ele>
        <time>2021-03-20T17:28:18Z</time>
      </trkpt>
      <trkpt lat="56.8753" lon="-5.51151">
        <ele>118.52</ele>
        <time>2021-03-20T17:28:20Z</time>
      </trkpt>
      <trkpt lat="56.87437" lon="-5.51416">
        <ele>129.16</ele>
        <time>2021-03-20T17:28:23Z</time>
      </trkpt>
      <trkpt lat="56.87376" lon="-5.51581">
        <ele>118.57</ele>
        <time>2021-03-20T17:28:26Z</time>
      </trkpt>
      <trkpt lat="56.87356" lon="-5.51652">
        <ele>116.83</ele>
        <time>2021-03-20T17:28:29Z</time>
      </trkpt>
      <trkpt lat="56.87346" lon="-5.51695">
        <ele>114.62</ele>
        <time>2021-03-20T17:28:31Z</time>
      </trkpt>
      <trkpt lat="56.87339" lon="-5.51731">
        <ele>112.24</ele>
        <time>2021-03-20T17:28:34Z</time>
      </trkpt>
      <trkpt lat="56.87335" lon="-5.51757">
        <ele>110.38</ele>
        <time>2021-03-20T17:28:37Z</time>
      </trkpt>
      <trkpt lat="56.87335" lon="-5.51783">
        <ele>109.39</ele>
        <time>2021-03-20T17:28:40Z</time>
      </trkpt>
      <trkpt lat="56.87338" lon="-5.51807">
        <ele>109.34</ele>
        <time>2021-03-20T17:28:42Z</time>
      </trkpt>
      <trkpt lat="56.87344" lon="-5.5183">
        <ele>109.93</ele>
        <time>2021-03-20T17:28:45Z</time>
      </trkpt>
      <trkpt lat="56.87355" lon="-5.51858">
        <ele>110.1</ele>
        <time>2021-03-20T17:28:48Z</time>
      </trkpt>
      <trkpt lat="56.87365" lon="-5.51876">
        <ele>109.66</ele>
        <time>2021-03-20T17:28:50Z</time>
      </trkpt>
      <trkpt lat="56.87412" lon="-5.51946">
        <ele>105.78</ele>
        <time>2021-03-20T17:28:53Z</time>
      </trkpt>
      <trkpt lat="56.87426" lon="-5.51971">
        <ele>105.76</ele>
        <time>2021-03-20T17:28:56Z</time>
      </trkpt>
      <trkpt lat="56.87448" lon="-5.52031">
        <ele>101.6</ele>
        <time>2021-03-20T17:28:59Z</time>
      </trkpt>
      <trkpt lat="56.87457" lon="-5.52051">
        <ele>99.06</ele>
        <time>2021-03-20T17:29:01Z</time>
      </trkpt>
      <trkpt lat="56.87466" lon="-5.52063">
        <ele>96.23</ele>
        <time>2021-03-20T17:29:04Z</time>
      </trkpt>
      <trkpt lat="56.87475" lon="-5.52071">
        <ele>93.39</ele>
        <time>2021-03-20T17:29:07Z</time>
      </trkpt>
      <trkpt lat="56.87484" lon="-5.52075">
        <ele>91.44</ele>
        <time>2021-03-20T17:29:09Z</time>
      </trkpt>
      <trkpt lat="56.87506" lon="-5.52071">
        <ele>89.18</ele>
        <time>2021-03-20T17:29:12Z</time>
      </trkpt>
      <trkpt lat="56.87564" lon="-5.5205">
        <ele>89.58</ele>
        <time>2021-03-20T17:29:15Z</time>
      </trkpt>
      <trkpt lat="56.87587" lon="-5.52044">
        <ele>90.58</ele>
        <time>2021-03-20T17:29:18Z</time>
      </trkpt>
      <trkpt lat="56.87603" lon="-5.52044">
        <ele>93.38</ele>
        <time>2021-03-20T17:29:20Z</time>
      </trkpt>
      <trkpt lat="56.87614" lon="-5.52049">
        <ele>94.68</ele>
        <time>2021-03-20T17:29:23Z</time>
      </trkpt>
      <trkpt lat="56.87622" lon="-5.52058">
        <ele>95.93</ele>
        <time>2021-03-20T17:29:26Z</time>
      </trkpt>
      <trkpt lat="56.87632" lon="-5.52077">
        <ele>96.26</ele>
        <time>2021-03-20T17:29:28Z</time>
      </trkpt>
      <trkpt lat="56.87637" lon="-5.52095">
        <ele>95.65</ele>
        <time>2021-03-20T17:29:31Z</time>
      </trkpt>
      <trkpt lat="56.87653" lon="-5.52198">
        <ele>83.51</ele>
        <time>2021-03-20T17:29:34Z</time>
      </trkpt>
      <trkpt lat="56.87658" lon="-5.52224">
        <ele>80.97</ele>
        <time>2021-03-20T17:29:37Z</time>
      </trkpt>
      <trkpt lat="56.87666" lon="-5.52245">
        <ele>78.95</ele>
        <time>2021-03-20T17:29:39Z</time>
      </trkpt>
      <trkpt lat="56.87675" lon="-5.52261">
        <ele>79.9</ele>
        <time>2021-03-20T17:29:42Z</time>
      </trkpt>
      <trkpt lat="56.87706" lon="-5.52302">
        <ele>87.47</ele>
        <time>2021-03-20T17:29:45Z</time>
      </trkpt>
      <trkpt lat="56.87717" lon="-5.52323">
        <ele>87.79</ele>
        <time>2021-03-20T17:29:47Z</time>
      </trkpt>
      <trkpt lat="56.87724" lon="-5.52343">
        <ele>86.4</ele>
        <time>2021-03-20T17:29:50Z</time>
      </trkpt>
      <trkpt lat="56.87745" lon="-5.52437">
        <ele>79.53</ele>
        <time>2021-03-20T17:29:53Z</time>
      </trkpt>
      <trkpt lat="56.87749" lon="-5.5248">
        <ele>75.94</ele>
        <time>2021-03-20T17:29:56Z</time>
      </trkpt>
      <trkpt lat="56.87748" lon="-5.52549">
        <ele>71.7</ele>
        <time>2021-03-20T17:29:58Z</time>
      </trkpt>
      <trkpt lat="56.87716" lon="-5.52983">
        <ele>52.73</ele>
        <time>2021-03-20T17:30:01Z</time>
      </trkpt>
      <trkpt lat="56.87707" lon="-5.53025">
        <ele>51.05</ele>
        <time>2021-03-20T17:30:04Z</time>
      </trkpt>
      <trkpt lat="56.87662" lon="-5.53166">
        <ele>42.24</ele>
        <time>2021-03-20T17:30:07Z</time>
      </trkpt>
      <trkpt lat="56.87624" lon="-5.53278">
        <ele>39.29</ele>
        <time>2021-03-20T17:30:09Z</time>
      </trkpt>
      <trkpt lat="56.87611" lon="-5.53331">
        <ele>38.85</ele>
        <time>2021-03-20T17:30:12Z</time>
      </trkpt>
      <trkpt lat="56.87606" lon="-5.53363">
        <ele>37.44</ele>
        <time>2021-03-20T17:30:15Z</time>
      </trkpt>
      <trkpt lat="56.87604" lon="-5.53393">
        <ele>37.06</ele>
        <time>2021-03-20T17:30:17Z</time>
      </trkpt>
      <trkpt lat="56.87598" lon="-5.53713">
        <ele>40.83</ele>
        <time>2021-03-20T17:30:20Z</time>
      </trkpt>
      <trkpt lat="56.87593" lon="-5.53742">
        <ele>42.34</ele>
        <time>2021-03-20T17:30:23Z</time>
      </trkpt>
      <trkpt lat="56.87586" lon="-5.53767">
        <ele>43.46</ele>
        <time>2021-03-20T17:30:26Z</time>
      </trkpt>
      <trkpt lat="56.87576" lon="-5.53793">
        <ele>45.04</ele>
        <time>2021-03-20T17:30:28Z</time>
      </trkpt>
      <trkpt lat="56.87545" lon="-5.53862">
        <ele>42.97</ele>
        <time>2021-03-20T17:30:31Z</time>
      </trkpt>
      <trkpt lat="56.87533" lon="-5.53896">
        <ele>39.98</ele>
        <time>2021-03-20T17:30:34Z</time>
      </trkpt>
      <trkpt lat="56.87524" lon="-5.53933">
        <ele>39.84</ele>
        <time>2021-03-20T17:30:36Z</time>
      </trkpt>
      <trkpt lat="56.87485" lon="-5.54125">
        <ele>36.2</ele>
        <time>2021-03-20T17:30:39Z</time>
      </trkpt>
      <trkpt lat="56.87483" lon="-5.54154">
        <ele>34.83</ele>
        <time>2021-03-20T17:30:42Z</time>
      </trkpt>
      <trkpt lat="56.87483" lon="-5.54183">
        <ele>33.78</ele>
        <time>2021-03-20T17:30:45Z</time>
      </trkpt>
      <trkpt lat="56.87486" lon="-5.54212">
        <ele>32.88</ele>
        <time>2021-03-20T17:30:47Z</time>
      </trkpt>
      <trkpt lat="56.87494" lon="-5.54236">
        <ele>32.28</ele>
        <time>2021-03-20T17:30:50Z</time>
      </trkpt>
      <trkpt lat="56.87504" lon="-5.54255">
        <ele>32</ele>
        <time>2021-03-20T17:30:53Z</time>
      </trkpt>
      <trkpt lat="56.87517" lon="-5.54274">
        <ele>32</ele>
        <time>2021-03-20T17:30:55Z</time>
      </trkpt>
      <trkpt lat="56.87529" lon="-5.54284">
        <ele>32.02</ele>
        <time>2021-03-20T17:30:58Z</time>
      </trkpt>
      <trkpt lat="56.87582" lon="-5.54312">
        <ele>33.65</ele>
        <time>2021-03-20T17:31:01Z</time>
      </trkpt>
      <trkpt lat="56.876" lon="-5.54325">
        <ele>36.13</ele>
        <time>2021-03-20T17:31:04Z</time>
      </trkpt>
      <trkpt lat="56.8761" lon="-5.54335">
        <ele>39.7</ele>
        <time>2021-03-20T17:31:06Z</time>
      </trkpt>
      <trkpt lat="56.87623" lon="-5.54353">
        <ele>41.65</ele>
        <time>2021-03-20T17:31:09Z</time>
      </trkpt>
      <trkpt lat="56.87631" lon="-5.5437">
        <ele>45.13</ele>
        <time>2021-03-20T17:31:12Z</time>
      </trkpt>
      <trkpt lat="56.87702" lon="-5.54543">
        <ele>42.48</ele>
        <time>2021-03-20T17:31:15Z</time>
      </trkpt>
      <trkpt lat="56.87713" lon="-5.54588">
        <ele>46.62</ele>
        <time>2021-03-20T17:31:17Z</time>
      </trkpt>
      <trkpt lat="56.87714" lon="-5.54616">
        <ele>48.41</ele>
        <time>2021-03-20T17:31:20Z</time>
      </trkpt>
      <trkpt lat="56.87714" lon="-5.54645">
        <ele>50.88</ele>
        <time>2021-03-20T17:31:23Z</time>
      </trkpt>
      <trkpt lat="56.877" lon="-5.54757">
        <ele>46.9</ele>
        <time>2021-03-20T17:31:25Z</time>
      </trkpt>
      <trkpt lat="56.87699" lon="-5.54784">
        <ele>45.17</ele>
        <time>2021-03-20T17:31:28Z</time>
      </trkpt>
      <trkpt lat="56.877" lon="-5.54815">
        <ele>42.43</ele>
        <time>2021-03-20T17:31:31Z</time>
      </trkpt>
      <trkpt lat="56.87706" lon="-5.54858">
        <ele>41.72</ele>
        <time>2021-03-20T17:31:34Z</time>
      </trkpt>
      <trkpt lat="56.87722" lon="-5.54951">
        <ele>38.85</ele>
        <time>2021-03-20T17:31:36Z</time>
      </trkpt>
      <trkpt lat="56.87736" lon="-5.54993">
        <ele>41.5</ele>
        <time>2021-03-20T17:31:39Z</time>
      </trkpt>
      <trkpt lat="56.87817" lon="-5.55155">
        <ele>47.71</ele>
        <time>2021-03-20T17:31:42Z</time>
      </trkpt>
      <trkpt lat="56.87834" lon="-5.55192">
        <ele>47.34</ele>
        <time>2021-03-20T17:31:44Z</time>
      </trkpt>
      <trkpt lat="56.87841" lon="-5.55219">
        <ele>47.54</ele>
        <time>2021-03-20T17:31:47Z</time>
      </trkpt>
      <trkpt lat="56.87845" lon="-5.55242">
        <ele>47.67</ele>
        <time>2021-03-20T17:31:50Z</time>
      </trkpt>
      <trkpt lat="56.87847" lon="-5.55266">
        <ele>47.22</ele>
        <time>2021-03-20T17:31:53Z</time>
      </trkpt>
      <trkpt lat="56.87845" lon="-5.55312">
        <ele>45.3</ele>
        <time>2021-03-20T17:31:55Z</time>
      </trkpt>
      <trkpt lat="56.87828" lon="-5.55478">
        <ele>41.24</ele>
        <time>2021-03-20T17:31:58Z</time>
      </trkpt>
      <trkpt lat="56.87827" lon="-5.55514">
        <ele>40.95</ele>
        <time>2021-03-20T17:32:01Z</time>
      </trkpt>
      <trkpt lat="56.87828" lon="-5.55551">
        <ele>41.06</ele>
        <time>2021-03-20T17:32:03Z</time>
      </trkpt>
      <trkpt lat="56.87836" lon="-5.55636">
        <ele>38.51</ele>
        <time>2021-03-20T17:32:06Z</time>
      </trkpt>
      <trkpt lat="56.87855" lon="-5.558">
        <ele>40.65</ele>
        <time>2021-03-20T17:32:09Z</time>
      </trkpt>
      <trkpt lat="56.87864" lon="-5.55852">
        <ele>42.4</ele>
        <time>2021-03-20T17:32:12Z</time>
      </trkpt>
      <trkpt lat="56.87909" lon="-5.56039">
        <ele>44.03</ele>
        <time>2021-03-20T17:32:14Z</time>
      </trkpt>
      <trkpt lat="56.87914" lon="-5.56067">
        <ele>42.56</ele>
        <time>2021-03-20T17:32:17Z</time>
      </trkpt>
      <trkpt lat="56.87916" lon="-5.56088">
        <ele>42.06</ele>
        <time>2021-03-20T17:32:20Z</time>
      </trkpt>
      <trkpt lat="56.87917" lon="-5.56134">
        <ele>41.19</ele>
        <time>2021-03-20T17:32:22Z</time>
      </trkpt>
      <trkpt lat="56.87908" lon="-5.56206">
        <ele>38.51</ele>
        <time>2021-03-20T17:32:25Z</time>
      </trkpt>
      <trkpt lat="56.87908" lon="-5.56235">
        <ele>37.72</ele>
        <time>2021-03-20T17:32:28Z</time>
      </trkpt>
      <trkpt lat="56.8791" lon="-5.56261">
        <ele>37.95</ele>
        <time>2021-03-20T17:32:31Z</time>
      </trkpt>
      <trkpt lat="56.87944" lon="-5.56507">
        <ele>35.25</ele>
        <time>2021-03-20T17:32:33Z</time>
      </trkpt>
      <trkpt lat="56.87945" lon="-5.56557">
        <ele>37.28</ele>
        <time>2021-03-20T17:32:36Z</time>
      </trkpt>
      <trkpt lat="56.87937" lon="-5.5661">
        <ele>41.38</ele>
        <time>2021-03-20T17:32:39Z</time>
      </trkpt>
      <trkpt lat="56.87886" lon="-5.5678">
        <ele>42.83</ele>
        <time>2021-03-20T17:32:42Z</time>
      </trkpt>
      <trkpt lat="56.87842" lon="-5.56959">
        <ele>40.54</ele>
        <time>2021-03-20T17:32:44Z</time>
      </trkpt>
      <trkpt lat="56.87836" lon="-5.56997">
        <ele>39.44</ele>
        <time>2021-03-20T17:32:47Z</time>
      </trkpt>
      <trkpt lat="56.8783" lon="-5.57051">
        <ele>37.72</ele>
        <time>2021-03-20T17:32:50Z</time>
      </trkpt>
      <trkpt lat="56.8782" lon="-5.57155">
        <ele>36.53</ele>
        <time>2021-03-20T17:32:52Z</time>
      </trkpt>
      <trkpt lat="56.87817" lon="-5.57209">
        <ele>35.42</ele>
        <time>2021-03-20T17:32:55Z</time>
      </trkpt>
      <trkpt lat="56.87817" lon="-5.57292">
        <ele>35.77</ele>
        <time>2021-03-20T17:32:58Z</time>
      </trkpt>
      <trkpt lat="56.87827" lon="-5.57655">
        <ele>36.78</ele>
        <time>2021-03-20T17:33:01Z</time>
      </trkpt>
      <trkpt lat="56.8783" lon="-5.57703">
        <ele>35.74</ele>
        <time>2021-03-20T17:33:03Z</time>
      </trkpt>
      <trkpt lat="56.87836" lon="-5.57744">
        <ele>36.02</ele>
        <time>2021-03-20T17:33:06Z</time>
      </trkpt>
      <trkpt lat="56.87845" lon="-5.57775">
        <ele>35.63</ele>
        <time>2021-03-20T17:33:09Z</time>
      </trkpt>
      <trkpt lat="56.87855" lon="-5.57799">
        <ele>34.47</ele>
        <time>2021-03-20T17:33:11Z</time>
      </trkpt>
      <trkpt lat="56.87865" lon="-5.57815">
        <ele>33.39</ele>
        <time>2021-03-20T17:33:14Z</time>
      </trkpt>
      <trkpt lat="56.87899" lon="-5.57854">
        <ele>32.35</ele>
        <time>2021-03-20T17:33:17Z</time>
      </trkpt>
      <trkpt lat="56.87971" lon="-5.57919">
        <ele>32.03</ele>
        <time>2021-03-20T17:33:20Z</time>
      </trkpt>
      <trkpt lat="56.87999" lon="-5.57939">
        <ele>33.15</ele>
        <time>2021-03-20T17:33:22Z</time>
      </trkpt>
      <trkpt lat="56.88072" lon="-5.57972">
        <ele>41.98</ele>
        <time>2021-03-20T17:33:25Z</time>
      </trkpt>
      <trkpt lat="56.88094" lon="-5.57989">
        <ele>44.45</ele>
        <time>2021-03-20T17:33:28Z</time>
      </trkpt>
      <trkpt lat="56.88109" lon="-5.58008">
        <ele>44.84</ele>
        <time>2021-03-20T17:33:30Z</time>
      </trkpt>
      <trkpt lat="56.8812" lon="-5.58029">
        <ele>45.75</ele>
        <time>2021-03-20T17:33:33Z</time>
      </trkpt>
      <trkpt lat="56.88129" lon="-5.58056">
        <ele>45.82</ele>
        <time>2021-03-20T17:33:36Z</time>
      </trkpt>
      <trkpt lat="56.88135" lon="-5.58084">
        <ele>46.05</ele>
        <time>2021-03-20T17:33:39Z</time>
      </trkpt>
      <trkpt lat="56.88137" lon="-5.58125">
        <ele>44.71</ele>
        <time>2021-03-20T17:33:41Z</time>
      </trkpt>
      <trkpt lat="56.88137" lon="-5.58171">
        <ele>41.73</ele>
        <time>2021-03-20T17:33:44Z</time>
      </trkpt>
      <trkpt lat="56.88131" lon="-5.58252">
        <ele>38.84</ele>
        <time>2021-03-20T17:33:47Z</time>
      </trkpt>
      <trkpt lat="56.88132" lon="-5.58284">
        <ele>38.42</ele>
        <time>2021-03-20T17:33:49Z</time>
      </trkpt>
      <trkpt lat="56.88135" lon="-5.58311">
        <ele>39.6</ele>
        <time>2021-03-20T17:33:52Z</time>
      </trkpt>
      <trkpt lat="56.88144" lon="-5.58344">
        <ele>40.32</ele>
        <time>2021-03-20T17:33:55Z</time>
      </trkpt>
      <trkpt lat="56.88156" lon="-5.58376">
        <ele>41.45</ele>
        <time>2021-03-20T17:33:58Z</time>
      </trkpt>
      <trkpt lat="56.8827" lon="-5.5865">
        <ele>34.04</ele>
        <time>2021-03-20T17:34:00Z</time>
      </trkpt>
      <trkpt lat="56.8828" lon="-5.58687">
        <ele>34.91</ele>
        <time>2021-03-20T17:34:03Z</time>
      </trkpt>
      <trkpt lat="56.88288" lon="-5.58727">
        <ele>35.91</ele>
        <time>2021-03-20T17:34:06Z</time>
      </trkpt>
      <trkpt lat="56.88326" lon="-5.58973">
        <ele>38.99</ele>
        <time>2021-03-20T17:34:09Z</time>
      </trkpt>
      <trkpt lat="56.88342" lon="-5.59035">
        <ele>36.88</ele>
        <time>2021-03-20T17:34:11Z</time>
      </trkpt>
      <trkpt lat="56.88416" lon="-5.59309">
        <ele>36.97</ele>
        <time>2021-03-20T17:34:14Z</time>
      </trkpt>
      <trkpt lat="56.8844" lon="-5.59404">
        <ele>38.3</ele>
        <time>2021-03-20T17:34:17Z</time>
      </trkpt>
      <trkpt lat="56.88447" lon="-5.5945">
        <ele>38.1</ele>
        <time>2021-03-20T17:34:19Z</time>
      </trkpt>
      <trkpt lat="56.88448" lon="-5.59486">
        <ele>37.06</ele>
        <time>2021-03-20T17:34:22Z</time>
      </trkpt>
      <trkpt lat="56.88447" lon="-5.59524">
        <ele>35.64</ele>
        <time>2021-03-20T17:34:25Z</time>
      </trkpt>
      <trkpt lat="56.8844" lon="-5.59606">
        <ele>36.47</ele>
        <time>2021-03-20T17:34:28Z</time>
      </trkpt>
      <trkpt lat="56.88439" lon="-5.5965">
        <ele>36.8</ele>
        <time>2021-03-20T17:34:30Z</time>
      </trkpt>
      <trkpt lat="56.8844" lon="-5.59687">
        <ele>36.21</ele>
        <time>2021-03-20T17:34:33Z</time>
      </trkpt>
      <trkpt lat="56.88451" lon="-5.59826">
        <ele>38.25</ele>
        <time>2021-03-20T17:34:36Z</time>
      </trkpt>
      <trkpt lat="56.88451" lon="-5.59856">
        <ele>39.42</ele>
        <time>2021-03-20T17:34:38Z</time>
      </trkpt>
      <trkpt lat="56.88449" lon="-5.59885">
        <ele>40.08</ele>
        <time>2021-03-20T17:34:41Z</time>
      </trkpt>
      <trkpt lat="56.8844" lon="-5.59949">
        <ele>40.39</ele>
        <time>2021-03-20T17:34:44Z</time>
      </trkpt>
      <trkpt lat="56.8841" lon="-5.60083">
        <ele>41.09</ele>
        <time>2021-03-20T17:34:47Z</time>
      </trkpt>
      <trkpt lat="56.88374" lon="-5.6022">
        <ele>40.35</ele>
        <time>2021-03-20T17:34:49Z</time>
      </trkpt>
      <trkpt lat="56.88367" lon="-5.60257">
        <ele>40.96</ele>
        <time>2021-03-20T17:34:52Z</time>
      </trkpt>
      <trkpt lat="56.88362" lon="-5.60293">
        <ele>40.81</ele>
        <time>2021-03-20T17:34:55Z</time>
      </trkpt>
      <trkpt lat="56.88327" lon="-5.60645">
        <ele>41.66</ele>
        <time>2021-03-20T17:34:57Z</time>
      </trkpt>
      <trkpt lat="56.88323" lon="-5.60697">
        <ele>39.48</ele>
        <time>2021-03-20T17:35:00Z</time>
      </trkpt>
      <trkpt lat="56.88324" lon="-5.60737">
        <ele>37.72</ele>
        <time>2021-03-20T17:35:03Z</time>
      </trkpt>
      <trkpt lat="56.88326" lon="-5.60775">
        <ele>36.56</ele>
        <time>2021-03-20T17:35:06Z</time>
      </trkpt>
      <trkpt lat="56.88358" lon="-5.6102">
        <ele>35.79</ele>
        <time>2021-03-20T17:35:08Z</time>
      </trkpt>
      <trkpt lat="56.8836" lon="-5.61052">
        <ele>35.92</ele>
        <time>2021-03-20T17:35:11Z</time>
      </trkpt>
      <trkpt lat="56.88357" lon="-5.6111">
        <ele>34.85</ele>
        <time>2021-03-20T17:35:14Z</time>
      </trkpt>
      <trkpt lat="56.88347" lon="-5.61195">
        <ele>37.01</ele>
        <time>2021-03-20T17:35:16Z</time>
      </trkpt>
      <trkpt lat="56.88345" lon="-5.61223">
        <ele>34.46</ele>
        <time>2021-03-20T17:35:19Z</time>
      </trkpt>
      <trkpt lat="56.88345" lon="-5.61252">
        <ele>36.74</ele>
        <time>2021-03-20T17:35:22Z</time>
      </trkpt>
      <trkpt lat="56.88346" lon="-5.61278">
        <ele>36.08</ele>
        <time>2021-03-20T17:35:25Z</time>
      </trkpt>
      <trkpt lat="56.8835" lon="-5.61304">
        <ele>35.81</ele>
        <time>2021-03-20T17:35:27Z</time>
      </trkpt>
      <trkpt lat="56.88356" lon="-5.61329">
        <ele>35.23</ele>
        <time>2021-03-20T17:35:30Z</time>
      </trkpt>
      <trkpt lat="56.88365" lon="-5.61354">
        <ele>36.98</ele>
        <time>2021-03-20T17:35:33Z</time>
      </trkpt>
      <trkpt lat="56.88377" lon="-5.61384">
        <ele>35.91</ele>
        <time>2021-03-20T17:35:36Z</time>
      </trkpt>
      <trkpt lat="56.88446" lon="-5.61509">
        <ele>34.91</ele>
        <time>2021-03-20T17:35:38Z</time>
      </trkpt>
      <trkpt lat="56.88472" lon="-5.61561">
        <ele>35.78</ele>
        <time>2021-03-20T17:35:41Z</time>
      </trkpt>
      <trkpt lat="56.88488" lon="-5.61608">
        <ele>35.34</ele>
        <time>2021-03-20T17:35:44Z</time>
      </trkpt>
      <trkpt lat="56.88495" lon="-5.61637">
        <ele>34.87</ele>
        <time>2021-03-20T17:35:46Z</time>
      </trkpt>
      <trkpt lat="56.885" lon="-5.61666">
        <ele>34.05</ele>
        <time>2021-03-20T17:35:49Z</time>
      </trkpt>
      <trkpt lat="56.88505" lon="-5.61719">
        <ele>35.19</ele>
        <time>2021-03-20T17:35:52Z</time>
      </trkpt>
      <trkpt lat="56.88508" lon="-5.61775">
        <ele>35.55</ele>
        <time>2021-03-20T17:35:55Z</time>
      </trkpt>
      <trkpt lat="56.88512" lon="-5.61992">
        <ele>35.12</ele>
        <time>2021-03-20T17:35:57Z</time>
      </trkpt>
      <trkpt lat="56.88511" lon="-5.62032">
        <ele>35.44</ele>
        <time>2021-03-20T17:36:00Z</time>
      </trkpt>
      <trkpt lat="56.88506" lon="-5.62067">
        <ele>35.88</ele>
        <time>2021-03-20T17:36:03Z</time>
      </trkpt>
      <trkpt lat="56.884" lon="-5.62648">
        <ele>35</ele>
        <time>2021-03-20T17:36:05Z</time>
      </trkpt>
      <trkpt lat="56.88397" lon="-5.62742">
        <ele>36.84</ele>
        <time>2021-03-20T17:36:08Z</time>
      </trkpt>
      <trkpt lat="56.88394" lon="-5.62769">
        <ele>37.83</ele>
        <time>2021-03-20T17:36:11Z</time>
      </trkpt>
      <trkpt lat="56.88387" lon="-5.62798">
        <ele>38.99</ele>
        <time>2021-03-20T17:36:14Z</time>
      </trkpt>
      <trkpt lat="56.88337" lon="-5.62952">
        <ele>41.15</ele>
        <time>2021-03-20T17:36:16Z</time>
      </trkpt>
      <trkpt lat="56.88331" lon="-5.62976">
        <ele>41.75</ele>
        <time>2021-03-20T17:36:19Z</time>
      </trkpt>
      <trkpt lat="56.88328" lon="-5.63002">
        <ele>41.82</ele>
        <time>2021-03-20T17:36:22Z</time>
      </trkpt>
      <trkpt lat="56.88327" lon="-5.63023">
        <ele>40.1</ele>
        <time>2021-03-20T17:36:24Z</time>
      </trkpt>
      <trkpt lat="56.88329" lon="-5.63047">
        <ele>39.52</ele>
        <time>2021-03-20T17:36:27Z</time>
      </trkpt>
      <trkpt lat="56.88334" lon="-5.63069">
        <ele>38.69</ele>
        <time>2021-03-20T17:36:30Z</time>
      </trkpt>
      <trkpt lat="56.88343" lon="-5.63085">
        <ele>37.42</ele>
        <time>2021-03-20T17:36:33Z</time>
      </trkpt>
      <trkpt lat="56.88352" lon="-5.63096">
        <ele>36.64</ele>
        <time>2021-03-20T17:36:35Z</time>
      </trkpt>
      <trkpt lat="56.88363" lon="-5.63103">
        <ele>36.24</ele>
        <time>2021-03-20T17:36:38Z</time>
      </trkpt>
      <trkpt lat="56.88379" lon="-5.63106">
        <ele>36.56</ele>
        <time>2021-03-20T17:36:41Z</time>
      </trkpt>
      <trkpt lat="56.884" lon="-5.63103">
        <ele>38.1</ele>
        <time>2021-03-20T17:36:44Z</time>
      </trkpt>
      <trkpt lat="56.88461" lon="-5.63085">
        <ele>40.54</ele>
        <time>2021-03-20T17:36:46Z</time>
      </trkpt>
      <trkpt lat="56.8848" lon="-5.63084">
        <ele>39.35</ele>
        <time>2021-03-20T17:36:49Z</time>
      </trkpt>
      <trkpt lat="56.88496" lon="-5.63092">
        <ele>37.31</ele>
        <time>2021-03-20T17:36:52Z</time>
      </trkpt>
      <trkpt lat="56.88504" lon="-5.63101">
        <ele>36.08</ele>
        <time>2021-03-20T17:36:54Z</time>
      </trkpt>
      <trkpt lat="56.88512" lon="-5.63113">
        <ele>34.9</ele>
        <time>2021-03-20T17:36:57Z</time>
      </trkpt>
      <trkpt lat="56.88518" lon="-5.63126">
        <ele>34.1</ele>
        <time>2021-03-20T17:37:00Z</time>
      </trkpt>
      <trkpt lat="56.88526" lon="-5.63156">
        <ele>32.45</ele>
        <time>2021-03-20T17:37:03Z</time>
      </trkpt>
      <trkpt lat="56.88604" lon="-5.63493">
        <ele>22.82</ele>
        <time>2021-03-20T17:37:05Z</time>
      </trkpt>
      <trkpt lat="56.88615" lon="-5.63529">
        <ele>21.96</ele>
        <time>2021-03-20T17:37:08Z</time>
      </trkpt>
      <trkpt lat="56.88626" lon="-5.63554">
        <ele>21.55</ele>
        <time>2021-03-20T17:37:11Z</time>
      </trkpt>
      <trkpt lat="56.88697" lon="-5.63694">
        <ele>25.12</ele>
        <time>2021-03-20T17:37:13Z</time>
      </trkpt>
      <trkpt lat="56.88703" lon="-5.63715">
        <ele>24.81</ele>
        <time>2021-03-20T17:37:16Z</time>
      </trkpt>
      <trkpt lat="56.88708" lon="-5.6374">
        <ele>24.68</ele>
        <time>2021-03-20T17:37:19Z</time>
      </trkpt>
      <trkpt lat="56.88712" lon="-5.63772">
        <ele>24.88</ele>
        <time>2021-03-20T17:37:22Z</time>
      </trkpt>
      <trkpt lat="56.88712" lon="-5.63803">
        <ele>25.47</ele>
        <time>2021-03-20T17:37:24Z</time>
      </trkpt>
      <trkpt lat="56.88709" lon="-5.63831">
        <ele>25.6</ele>
        <time>2021-03-20T17:37:27Z</time>
      </trkpt>
      <trkpt lat="56.88691" lon="-5.63941">
        <ele>29.29</ele>
        <time>2021-03-20T17:37:30Z</time>
      </trkpt>
      <trkpt lat="56.88684" lon="-5.64039">
        <ele>30.41</ele>
        <time>2021-03-20T17:37:32Z</time>
      </trkpt>
      <trkpt lat="56.88679" lon="-5.64079">
        <ele>30.56</ele>
        <time>2021-03-20T17:37:35Z</time>
      </trkpt>
      <trkpt lat="56.88658" lon="-5.64217">
        <ele>32.44</ele>
        <time>2021-03-20T17:37:38Z</time>
      </trkpt>
      <trkpt lat="56.88641" lon="-5.64343">
        <ele>30.48</ele>
        <time>2021-03-20T17:37:41Z</time>
      </trkpt>
      <trkpt lat="56.886" lon="-5.6459">
        <ele>29.91</ele>
        <time>2021-03-20T17:37:43Z</time>
      </trkpt>
      <trkpt lat="56.88593" lon="-5.64649">
        <ele>29.71</ele>
        <time>2021-03-20T17:37:46Z</time>
      </trkpt>
      <trkpt lat="56.88578" lon="-5.64861">
        <ele>33.1</ele>
        <time>2021-03-20T17:37:49Z</time>
      </trkpt>
      <trkpt lat="56.88575" lon="-5.64889">
        <ele>32.85</ele>
        <time>2021-03-20T17:37:51Z</time>
      </trkpt>
      <trkpt lat="56.88569" lon="-5.64922">
        <ele>33.07</ele>
        <time>2021-03-20T17:37:54Z</time>
      </trkpt>
      <trkpt lat="56.88559" lon="-5.64969">
        <ele>32.55</ele>
        <time>2021-03-20T17:37:57Z</time>
      </trkpt>
      <trkpt lat="56.88525" lon="-5.65084">
        <ele>30.09</ele>
        <time>2021-03-20T17:38:00Z</time>
      </trkpt>
      <trkpt lat="56.88496" lon="-5.65192">
        <ele>25.06</ele>
        <time>2021-03-20T17:38:02Z</time>
      </trkpt>
      <trkpt lat="56.88453" lon="-5.65387">
        <ele>28.01</ele>
        <time>2021-03-20T17:38:05Z</time>
      </trkpt>
      <trkpt lat="56.88438" lon="-5.65434">
        <ele>28.32</ele>
        <time>2021-03-20T17:38:08Z</time>
      </trkpt>
      <trkpt lat="56.8833" lon="-5.65677">
        <ele>31.36</ele>
        <time>2021-03-20T17:38:11Z</time>
      </trkpt>
      <trkpt lat="56.88306" lon="-5.65738">
        <ele>31.65</ele>
        <time>2021-03-20T17:38:13Z</time>
      </trkpt>
      <trkpt lat="56.88295" lon="-5.65777">
        <ele>31.62</ele>
        <time>2021-03-20T17:38:16Z</time>
      </trkpt>
      <trkpt lat="56.8828" lon="-5.65848">
        <ele>29.58</ele>
        <time>2021-03-20T17:38:19Z</time>
      </trkpt>
      <trkpt lat="56.88238" lon="-5.66109">
        <ele>27.19</ele>
        <time>2021-03-20T17:38:21Z</time>
      </trkpt>
      <trkpt lat="56.88226" lon="-5.66169">
        <ele>25.5</ele>
        <time>2021-03-20T17:38:24Z</time>
      </trkpt>
      <trkpt lat="56.88216" lon="-5.66201">
        <ele>26.81</ele>
        <time>2021-03-20T17:38:27Z</time>
      </trkpt>
      <trkpt lat="56.88202" lon="-5.66229">
        <ele>27.05</ele>
        <time>2021-03-20T17:38:30Z</time>
      </trkpt>
      <trkpt lat="56.88182" lon="-5.66253">
        <ele>27.57</ele>
        <time>2021-03-20T17:38:32Z</time>
      </trkpt>
      <trkpt lat="56.88159" lon="-5.66276">
        <ele>26.89</ele>
        <time>2021-03-20T17:38:35Z</time>
      </trkpt>
      <trkpt lat="56.88101" lon="-5.66315">
        <ele>27.88</ele>
        <time>2021-03-20T17:38:38Z</time>
      </trkpt>
      <trkpt lat="56.88031" lon="-5.66357">
        <ele>26.65</ele>
        <time>2021-03-20T17:38:40Z</time>
      </trkpt>
      <trkpt lat="56.88008" lon="-5.66374">
        <ele>25.92</ele>
        <time>2021-03-20T17:38:43Z</time>
      </trkpt>
      <trkpt lat="56.8799" lon="-5.66391">
        <ele>25.79</ele>
        <time>2021-03-20T17:38:46Z</time>
      </trkpt>
      <trkpt lat="56.87972" lon="-5.66414">
        <ele>26.6</ele>
        <time>2021-03-20T17:38:49Z</time>
      </trkpt>
      <trkpt lat="56.87859" lon="-5.66614">
        <ele>30.05</ele>
        <time>2021-03-20T17:38:51Z</time>
      </trkpt>
      <trkpt lat="56.87837" lon="-5.66661">
        <ele>31.22</ele>
        <time>2021-03-20T17:38:54Z</time>
      </trkpt>
      <trkpt lat="56.87815" lon="-5.66722">
        <ele>32.4</ele>
        <time>2021-03-20T17:38:57Z</time>
      </trkpt>
      <trkpt lat="56.878" lon="-5.66783">
        <ele>31.58</ele>
        <time>2021-03-20T17:38:59Z</time>
      </trkpt>
      <trkpt lat="56.87786" lon="-5.6685">
        <ele>26.19</ele>
        <time>2021-03-20T17:39:02Z</time>
      </trkpt>
      <trkpt lat="56.87778" lon="-5.66912">
        <ele>20.49</ele>
        <time>2021-03-20T17:39:05Z</time>
      </trkpt>
      <trkpt lat="56.87774" lon="-5.66962">
        <ele>16.32</ele>
        <time>2021-03-20T17:39:08Z</time>
      </trkpt>
      <trkpt lat="56.87773" lon="-5.67062">
        <ele>16.54</ele>
        <time>2021-03-20T17:39:10Z</time>
      </trkpt>
      <trkpt lat="56.87775" lon="-5.67109">
        <ele>19.39</ele>
        <time>2021-03-20T17:39:13Z</time>
      </trkpt>
      <trkpt lat="56.8778" lon="-5.67154">
        <ele>21.83</ele>
        <time>2021-03-20T17:39:16Z</time>
      </trkpt>
      <trkpt lat="56.87791" lon="-5.6723">
        <ele>23.27</ele>
        <time>2021-03-20T17:39:18Z</time>
      </trkpt>
      <trkpt lat="56.87809" lon="-5.67303">
        <ele>16.43</ele>
        <time>2021-03-20T17:39:21Z</time>
      </trkpt>
      <trkpt lat="56.87828" lon="-5.67365">
        <ele>12.57</ele>
        <time>2021-03-20T17:39:24Z</time>
      </trkpt>
      <trkpt lat="56.87847" lon="-5.6741">
        <ele>15.12</ele>
        <time>2021-03-20T17:39:27Z</time>
      </trkpt>
      <trkpt lat="56.87965" lon="-5.67651">
        <ele>8.2</ele>
        <time>2021-03-20T17:39:29Z</time>
      </trkpt>
      <trkpt lat="56.87981" lon="-5.67694">
        <ele>7.69</ele>
        <time>2021-03-20T17:39:32Z</time>
      </trkpt>
      <trkpt lat="56.88002" lon="-5.67758">
        <ele>4.66</ele>
        <time>2021-03-20T17:39:35Z</time>
      </trkpt>
      <trkpt lat="56.88018" lon="-5.67828">
        <ele>3.77</ele>
        <time>2021-03-20T17:39:38Z</time>
      </trkpt>
      <trkpt lat="56.88028" lon="-5.67889">
        <ele>5.04</ele>
        <time>2021-03-20T17:39:40Z</time>
      </trkpt>
      <trkpt lat="56.88034" lon="-5.67955">
        <ele>6.01</ele>
        <time>2021-03-20T17:39:43Z</time>
      </trkpt>
      <trkpt lat="56.88038" lon="-5.6804">
        <ele>7.45</ele>
        <time>2021-03-20T17:39:46Z</time>
      </trkpt>
      <trkpt lat="56.88054" lon="-5.68885">
        <ele>25.26</ele>
        <time>2021-03-20T17:39:48Z</time>
      </trkpt>
      <trkpt lat="56.88057" lon="-5.68944">
        <ele>27.51</ele>
        <time>2021-03-20T17:39:51Z</time>
      </trkpt>
      <trkpt lat="56.88067" lon="-5.69018">
        <ele>31.01</ele>
        <time>2021-03-20T17:39:54Z</time>
      </trkpt>
      <trkpt lat="56.88084" lon="-5.69096">
        <ele>33.05</ele>
        <time>2021-03-20T17:39:57Z</time>
      </trkpt>
      <trkpt lat="56.88291" lon="-5.69731">
        <ele>53.45</ele>
        <time>2021-03-20T17:39:59Z</time>
      </trkpt>
      <trkpt lat="56.88321" lon="-5.69805">
        <ele>53.47</ele>
        <time>2021-03-20T17:40:02Z</time>
      </trkpt>
      <trkpt lat="56.88344" lon="-5.69853">
        <ele>53.49</ele>
        <time>2021-03-20T17:40:05Z</time>
      </trkpt>
      <trkpt lat="56.88516" lon="-5.70115">
        <ele>73.52</ele>
        <time>2021-03-20T17:40:07Z</time>
      </trkpt>
      <trkpt lat="56.88541" lon="-5.70159">
        <ele>75.64</ele>
        <time>2021-03-20T17:40:10Z</time>
      </trkpt>
      <trkpt lat="56.88558" lon="-5.70198">
        <ele>76.37</ele>
        <time>2021-03-20T17:40:13Z</time>
      </trkpt>
      <trkpt lat="56.88572" lon="-5.70236">
        <ele>75.75</ele>
        <time>2021-03-20T17:40:16Z</time>
      </trkpt>
      <trkpt lat="56.88582" lon="-5.70276">
        <ele>73.61</ele>
        <time>2021-03-20T17:40:18Z</time>
      </trkpt>
      <trkpt lat="56.88597" lon="-5.70382">
        <ele>68.72</ele>
        <time>2021-03-20T17:40:21Z</time>
      </trkpt>
      <trkpt lat="56.88609" lon="-5.70519">
        <ele>67.72</ele>
        <time>2021-03-20T17:40:24Z</time>
      </trkpt>
      <trkpt lat="56.88621" lon="-5.70586">
        <ele>63.9</ele>
        <time>2021-03-20T17:40:26Z</time>
      </trkpt>
      <trkpt lat="56.88632" lon="-5.70629">
        <ele>64.31</ele>
        <time>2021-03-20T17:40:29Z</time>
      </trkpt>
      <trkpt lat="56.88644" lon="-5.70664">
        <ele>64.45</ele>
        <time>2021-03-20T17:40:32Z</time>
      </trkpt>
      <trkpt lat="56.8866" lon="-5.70697">
        <ele>65.72</ele>
        <time>2021-03-20T17:40:35Z</time>
      </trkpt>
      <trkpt lat="56.8869" lon="-5.70737">
        <ele>64.04</ele>
        <time>2021-03-20T17:40:37Z</time>
      </trkpt>
      <trkpt lat="56.88723" lon="-5.70764">
        <ele>58.9</ele>
        <time>2021-03-20T17:40:40Z</time>
      </trkpt>
      <trkpt lat="56.88752" lon="-5.70781">
        <ele>54.69</ele>
        <time>2021-03-20T17:40:43Z</time>
      </trkpt>
      <trkpt lat="56.88795" lon="-5.70794">
        <ele>50.2</ele>
        <time>2021-03-20T17:40:45Z</time>
      </trkpt>
      <trkpt lat="56.88951" lon="-5.70832">
        <ele>48.35</ele>
        <time>2021-03-20T17:40:48Z</time>
      </trkpt>
      <trkpt lat="56.88984" lon="-5.70849">
        <ele>50.15</ele>
        <time>2021-03-20T17:40:51Z</time>
      </trkpt>
      <trkpt lat="56.89008" lon="-5.7087">
        <ele>51.11</ele>
        <time>2021-03-20T17:40:54Z</time>
      </trkpt>
      <trkpt lat="56.89032" lon="-5.70896">
        <ele>48.65</ele>
        <time>2021-03-20T17:40:56Z</time>
      </trkpt>
      <trkpt lat="56.89052" lon="-5.70922">
        <ele>43.62</ele>
        <time>2021-03-20T17:40:59Z</time>
      </trkpt>
      <trkpt lat="56.89072" lon="-5.70958">
        <ele>42.52</ele>
        <time>2021-03-20T17:41:02Z</time>
      </trkpt>
      <trkpt lat="56.89091" lon="-5.70999">
        <ele>45.07</ele>
        <time>2021-03-20T17:41:05Z</time>
      </trkpt>
      <trkpt lat="56.89105" lon="-5.7104">
        <ele>48.39</ele>
        <time>2021-03-20T17:41:07Z</time>
      </trkpt>
      <trkpt lat="56.89115" lon="-5.71081">
        <ele>51.49</ele>
        <time>2021-03-20T17:41:10Z</time>
      </trkpt>
      <trkpt lat="56.89123" lon="-5.7112">
        <ele>53.5</ele>
        <time>2021-03-20T17:41:13Z</time>
      </trkpt>
      <trkpt lat="56.8913" lon="-5.71187">
        <ele>57.39</ele>
        <time>2021-03-20T17:41:15Z</time>
      </trkpt>
      <trkpt lat="56.8917" lon="-5.71593">
        <ele>52.1</ele>
        <time>2021-03-20T17:41:18Z</time>
      </trkpt>
      <trkpt lat="56.89182" lon="-5.71681">
        <ele>47.57</ele>
        <time>2021-03-20T17:41:21Z</time>
      </trkpt>
      <trkpt lat="56.89197" lon="-5.71765">
        <ele>41.42</ele>
        <time>2021-03-20T17:41:24Z</time>
      </trkpt>
      <trkpt lat="56.89254" lon="-5.71951">
        <ele>23.55</ele>
        <time>2021-03-20T17:41:26Z</time>
      </trkpt>
      <trkpt lat="56.89267" lon="-5.72005">
        <ele>20.31</ele>
        <time>2021-03-20T17:41:29Z</time>
      </trkpt>
      <trkpt lat="56.89274" lon="-5.72055">
        <ele>18</ele>
        <time>2021-03-20T17:41:32Z</time>
      </trkpt>
      <trkpt lat="56.89277" lon="-5.72085">
        <ele>18.24</ele>
        <time>2021-03-20T17:41:34Z</time>
      </trkpt>
      <trkpt lat="56.89278" lon="-5.72123">
        <ele>17.98</ele>
        <time>2021-03-20T17:41:37Z</time>
      </trkpt>
      <trkpt lat="56.89276" lon="-5.72178">
        <ele>17.56</ele>
        <time>2021-03-20T17:41:40Z</time>
      </trkpt>
      <trkpt lat="56.89273" lon="-5.7222">
        <ele>16.21</ele>
        <time>2021-03-20T17:41:43Z</time>
      </trkpt>
      <trkpt lat="56.89264" lon="-5.72276">
        <ele>12.12</ele>
        <time>2021-03-20T17:41:45Z</time>
      </trkpt>
      <trkpt lat="56.89227" lon="-5.72468">
        <ele>6.99</ele>
        <time>2021-03-20T17:41:48Z</time>
      </trkpt>
      <trkpt lat="56.89221" lon="-5.72513">
        <ele>8.27</ele>
        <time>2021-03-20T17:41:51Z</time>
      </trkpt>
      <trkpt lat="56.89219" lon="-5.72564">
        <ele>11.38</ele>
        <time>2021-03-20T17:41:53Z</time>
      </trkpt>
      <trkpt lat="56.8922" lon="-5.7264">
        <ele>13.47</ele>
        <time>2021-03-20T17:41:56Z</time>
      </trkpt>
      <trkpt lat="56.89241" lon="-5.72856">
        <ele>8.33</ele>
        <time>2021-03-20T17:41:59Z</time>
      </trkpt>
      <trkpt lat="56.89254" lon="-5.72972">
        <ele>11.07</ele>
        <time>2021-03-20T17:42:02Z</time>
      </trkpt>
      <trkpt lat="56.89259" lon="-5.73003">
        <ele>12.32</ele>
        <time>2021-03-20T17:42:04Z</time>
      </trkpt>
      <trkpt lat="56.89266" lon="-5.73112">
        <ele>12.09</ele>
        <time>2021-03-20T17:42:07Z</time>
      </trkpt>
      <trkpt lat="56.8927" lon="-5.73147">
        <ele>8.81</ele>
        <time>2021-03-20T17:42:10Z</time>
      </trkpt>
      <trkpt lat="56.89279" lon="-5.73181">
        <ele>7.57</ele>
        <time>2021-03-20T17:42:13Z</time>
      </trkpt>
      <trkpt lat="56.89294" lon="-5.73214">
        <ele>7.42</ele>
        <time>2021-03-20T17:42:15Z</time>
      </trkpt>
      <trkpt lat="56.8931" lon="-5.73244">
        <ele>6.41</ele>
        <time>2021-03-20T17:42:18Z</time>
      </trkpt>
      <trkpt lat="56.8934" lon="-5.73284">
        <ele>3.78</ele>
        <time>2021-03-20T17:42:21Z</time>
      </trkpt>
      <trkpt lat="56.89418" lon="-5.73356">
        <ele>9.42</ele>
        <time>2021-03-20T17:42:23Z</time>
      </trkpt>
      <trkpt lat="56.89504" lon="-5.73429">
        <ele>14.01</ele>
        <time>2021-03-20T17:42:26Z</time>
      </trkpt>
      <trkpt lat="56.89538" lon="-5.73464">
        <ele>8.43</ele>
        <time>2021-03-20T17:42:29Z</time>
      </trkpt>
      <trkpt lat="56.89584" lon="-5.73532">
        <ele>9.04</ele>
        <time>2021-03-20T17:42:32Z</time>
      </trkpt>
      <trkpt lat="56.89598" lon="-5.73565">
        <ele>12.62</ele>
        <time>2021-03-20T17:42:34Z</time>
      </trkpt>
      <trkpt lat="56.89613" lon="-5.73604">
        <ele>15.61</ele>
        <time>2021-03-20T17:42:37Z</time>
      </trkpt>
      <trkpt lat="56.89627" lon="-5.73659">
        <ele>17.99</ele>
        <time>2021-03-20T17:42:40Z</time>
      </trkpt>
      <trkpt lat="56.89635" lon="-5.73709">
        <ele>16.74</ele>
        <time>2021-03-20T17:42:42Z</time>
      </trkpt>
      <trkpt lat="56.8964" lon="-5.73756">
        <ele>13.99</ele>
        <time>2021-03-20T17:42:45Z</time>
      </trkpt>
      <trkpt lat="56.89641" lon="-5.73809">
        <ele>10.69</ele>
        <time>2021-03-20T17:42:48Z</time>
      </trkpt>
      <trkpt lat="56.89636" lon="-5.73895">
        <ele>8.96</ele>
        <time>2021-03-20T17:42:51Z</time>
      </trkpt>
      <trkpt lat="56.8962" lon="-5.73992">
        <ele>10.55</ele>
        <time>2021-03-20T17:42:53Z</time>
      </trkpt>
      <trkpt lat="56.89577" lon="-5.74226">
        <ele>15.49</ele>
        <time>2021-03-20T17:42:56Z</time>
      </trkpt>
      <trkpt lat="56.89563" lon="-5.7431">
        <ele>14.21</ele>
        <time>2021-03-20T17:42:59Z</time>
      </trkpt>
      <trkpt lat="56.89549" lon="-5.74435">
        <ele>14.27</ele>
        <time>2021-03-20T17:43:01Z</time>
      </trkpt>
      <trkpt lat="56.89521" lon="-5.74851">
        <ele>20.93</ele>
        <time>2021-03-20T17:43:04Z</time>
      </trkpt>
      <trkpt lat="56.89506" lon="-5.74963">
        <ele>19.59</ele>
        <time>2021-03-20T17:43:07Z</time>
      </trkpt>
      <trkpt lat="56.89487" lon="-5.75055">
        <ele>12.23</ele>
        <time>2021-03-20T17:43:10Z</time>
      </trkpt>
      <trkpt lat="56.89453" lon="-5.75183">
        <ele>14.35</ele>
        <time>2021-03-20T17:43:12Z</time>
      </trkpt>
      <trkpt lat="56.89376" lon="-5.75418">
        <ele>12.08</ele>
        <time>2021-03-20T17:43:15Z</time>
      </trkpt>
      <trkpt lat="56.89362" lon="-5.75467">
        <ele>9.34</ele>
        <time>2021-03-20T17:43:18Z</time>
      </trkpt>
      <trkpt lat="56.89355" lon="-5.75511">
        <ele>6.62</ele>
        <time>2021-03-20T17:43:20Z</time>
      </trkpt>
      <trkpt lat="56.89353" lon="-5.75543">
        <ele>5.78</ele>
        <time>2021-03-20T17:43:23Z</time>
      </trkpt>
      <trkpt lat="56.89352" lon="-5.75582">
        <ele>6.65</ele>
        <time>2021-03-20T17:43:26Z</time>
      </trkpt>
      <trkpt lat="56.89356" lon="-5.75611">
        <ele>7.21</ele>
        <time>2021-03-20T17:43:29Z</time>
      </trkpt>
      <trkpt lat="56.89362" lon="-5.75644">
        <ele>8.19</ele>
        <time>2021-03-20T17:43:31Z</time>
      </trkpt>
      <trkpt lat="56.89371" lon="-5.75675">
        <ele>9.38</ele>
        <time>2021-03-20T17:43:34Z</time>
      </trkpt>
      <trkpt lat="56.89384" lon="-5.75704">
        <ele>9.45</ele>
        <time>2021-03-20T17:43:37Z</time>
      </trkpt>
      <trkpt lat="56.89395" lon="-5.75724">
        <ele>9.95</ele>
        <time>2021-03-20T17:43:40Z</time>
      </trkpt>
      <trkpt lat="56.89407" lon="-5.75739">
        <ele>11.04</ele>
        <time>2021-03-20T17:43:42Z</time>
      </trkpt>
      <trkpt lat="56.89422" lon="-5.75754">
        <ele>12.56</ele>
        <time>2021-03-20T17:43:45Z</time>
      </trkpt>
      <trkpt lat="56.89438" lon="-5.75763">
        <ele>14.21</ele>
        <time>2021-03-20T17:43:48Z</time>
      </trkpt>
      <trkpt lat="56.8946" lon="-5.7577">
        <ele>16.36</ele>
        <time>2021-03-20T17:43:50Z</time>
      </trkpt>
      <trkpt lat="56.8948" lon="-5.7577">
        <ele>17.92</ele>
        <time>2021-03-20T17:43:53Z</time>
      </trkpt>
      <trkpt lat="56.89501" lon="-5.7576">
        <ele>19.48</ele>
        <time>2021-03-20T17:43:56Z</time>
      </trkpt>
      <trkpt lat="56.89526" lon="-5.7574">
        <ele>20.83</ele>
        <time>2021-03-20T17:43:59Z</time>
      </trkpt>
      <trkpt lat="56.89551" lon="-5.75711">
        <ele>24</ele>
        <time>2021-03-20T17:44:01Z</time>
      </trkpt>
      <trkpt lat="56.89643" lon="-5.75558">
        <ele>35.34</ele>
        <time>2021-03-20T17:44:04Z</time>
      </trkpt>
      <trkpt lat="56.89665" lon="-5.75531">
        <ele>37.69</ele>
        <time>2021-03-20T17:44:07Z</time>
      </trkpt>
      <trkpt lat="56.89683" lon="-5.75518">
        <ele>40</ele>
        <time>2021-03-20T17:44:09Z</time>
      </trkpt>
      <trkpt lat="56.89698" lon="-5.75514">
        <ele>41.37</ele>
        <time>2021-03-20T17:44:12Z</time>
      </trkpt>
      <trkpt lat="56.89722" lon="-5.75514">
        <ele>43.99</ele>
        <time>2021-03-20T17:44:15Z</time>
      </trkpt>
      <trkpt lat="56.89743" lon="-5.7552">
        <ele>46.4</ele>
        <time>2021-03-20T17:44:18Z</time>
      </trkpt>
      <trkpt lat="56.89758" lon="-5.75528">
        <ele>47.13</ele>
        <time>2021-03-20T17:44:20Z</time>
      </trkpt>
      <trkpt lat="56.89795" lon="-5.75556">
        <ele>47.49</ele>
        <time>2021-03-20T17:44:23Z</time>
      </trkpt>
      <trkpt lat="56.89814" lon="-5.75562">
        <ele>49.78</ele>
        <time>2021-03-20T17:44:26Z</time>
      </trkpt>
      <trkpt lat="56.89836" lon="-5.7556">
        <ele>52.72</ele>
        <time>2021-03-20T17:44:28Z</time>
      </trkpt>
      <trkpt lat="56.89915" lon="-5.75519">
        <ele>56.33</ele>
        <time>2021-03-20T17:44:31Z</time>
      </trkpt>
      <trkpt lat="56.89941" lon="-5.75492">
        <ele>57.59</ele>
        <time>2021-03-20T17:44:34Z</time>
      </trkpt>
      <trkpt lat="56.89961" lon="-5.75456">
        <ele>57.69</ele>
        <time>2021-03-20T17:44:37Z</time>
      </trkpt>
      <trkpt lat="56.90004" lon="-5.75343">
        <ele>57.44</ele>
        <time>2021-03-20T17:44:39Z</time>
      </trkpt>
      <trkpt lat="56.90013" lon="-5.75325">
        <ele>56.99</ele>
        <time>2021-03-20T17:44:42Z</time>
      </trkpt>
      <trkpt lat="56.90028" lon="-5.75304">
        <ele>55.17</ele>
        <time>2021-03-20T17:44:45Z</time>
      </trkpt>
      <trkpt lat="56.90058" lon="-5.75275">
        <ele>52.19</ele>
        <time>2021-03-20T17:44:47Z</time>
      </trkpt>
      <trkpt lat="56.90076" lon="-5.75264">
        <ele>53.21</ele>
        <time>2021-03-20T17:44:50Z</time>
      </trkpt>
      <trkpt lat="56.90092" lon="-5.75262">
        <ele>54.3</ele>
        <time>2021-03-20T17:44:53Z</time>
      </trkpt>
      <trkpt lat="56.90115" lon="-5.75269">
        <ele>56.5</ele>
        <time>2021-03-20T17:44:56Z</time>
      </trkpt>
      <trkpt lat="56.90127" lon="-5.75277">
        <ele>57.87</ele>
        <time>2021-03-20T17:44:58Z</time>
      </trkpt>
      <trkpt lat="56.90135" lon="-5.75288">
        <ele>59.14</ele>
        <time>2021-03-20T17:45:01Z</time>
      </trkpt>
      <trkpt lat="56.9015" lon="-5.75313">
        <ele>61.19</ele>
        <time>2021-03-20T17:45:04Z</time>
      </trkpt>
      <trkpt lat="56.90162" lon="-5.75343">
        <ele>62.66</ele>
        <time>2021-03-20T17:45:07Z</time>
      </trkpt>
      <trkpt lat="56.90167" lon="-5.75362">
        <ele>63.1</ele>
        <time>2021-03-20T17:45:09Z</time>
      </trkpt>
      <trkpt lat="56.90178" lon="-5.75447">
        <ele>68.44</ele>
        <time>2021-03-20T17:45:12Z</time>
      </trkpt>
      <trkpt lat="56.9018" lon="-5.7548">
        <ele>70.69</ele>
        <time>2021-03-20T17:45:15Z</time>
      </trkpt>
      <trkpt lat="56.90178" lon="-5.75503">
        <ele>71.58</ele>
        <time>2021-03-20T17:45:17Z</time>
      </trkpt>
      <trkpt lat="56.90173" lon="-5.75528">
        <ele>72.39</ele>
        <time>2021-03-20T17:45:20Z</time>
      </trkpt>
      <trkpt lat="56.90074" lon="-5.75913">
        <ele>83.78</ele>
        <time>2021-03-20T17:45:23Z</time>
      </trkpt>
      <trkpt lat="56.90064" lon="-5.75956">
        <ele>84.63</ele>
        <time>2021-03-20T17:45:26Z</time>
      </trkpt>
      <trkpt lat="56.9004" lon="-5.76128">
        <ele>85.76</ele>
        <time>2021-03-20T17:45:28Z</time>
      </trkpt>
      <trkpt lat="56.90031" lon="-5.76203">
        <ele>85.69</ele>
        <time>2021-03-20T17:45:31Z</time>
      </trkpt>
      <trkpt lat="56.9001" lon="-5.76612">
        <ele>77.99</ele>
        <time>2021-03-20T17:45:34Z</time>
      </trkpt>
      <trkpt lat="56.9001" lon="-5.76661">
        <ele>76.79</ele>
        <time>2021-03-20T17:45:36Z</time>
      </trkpt>
      <trkpt lat="56.90018" lon="-5.76751">
        <ele>73.6</ele>
        <time>2021-03-20T17:45:39Z</time>
      </trkpt>
      <trkpt lat="56.90019" lon="-5.76784">
        <ele>72.39</ele>
        <time>2021-03-20T17:45:42Z</time>
      </trkpt>
      <trkpt lat="56.90017" lon="-5.7681">
        <ele>71.05</ele>
        <time>2021-03-20T17:45:45Z</time>
      </trkpt>
      <trkpt lat="56.90011" lon="-5.76836">
        <ele>69.7</ele>
        <time>2021-03-20T17:45:47Z</time>
      </trkpt>
      <trkpt lat="56.89997" lon="-5.76876">
        <ele>67.79</ele>
        <time>2021-03-20T17:45:50Z</time>
      </trkpt>
      <trkpt lat="56.89995" lon="-5.76889">
        <ele>67.6</ele>
        <time>2021-03-20T17:45:53Z</time>
      </trkpt>
      <trkpt lat="56.89985" lon="-5.77055">
        <ele>60.9</ele>
        <time>2021-03-20T17:45:55Z</time>
      </trkpt>
      <trkpt lat="56.89961" lon="-5.77191">
        <ele>54.54</ele>
        <time>2021-03-20T17:45:58Z</time>
      </trkpt>
      <trkpt lat="56.89948" lon="-5.77406">
        <ele>52.26</ele>
        <time>2021-03-20T17:46:01Z</time>
      </trkpt>
      <trkpt lat="56.89908" lon="-5.77873">
        <ele>42.27</ele>
        <time>2021-03-20T17:46:04Z</time>
      </trkpt>
      <trkpt lat="56.89886" lon="-5.78166">
        <ele>32.86</ele>
        <time>2021-03-20T17:46:06Z</time>
      </trkpt>
      <trkpt lat="56.89884" lon="-5.78234">
        <ele>30.57</ele>
        <time>2021-03-20T17:46:09Z</time>
      </trkpt>
      <trkpt lat="56.89886" lon="-5.78296">
        <ele>31.29</ele>
        <time>2021-03-20T17:46:12Z</time>
      </trkpt>
      <trkpt lat="56.89893" lon="-5.7836">
        <ele>33.84</ele>
        <time>2021-03-20T17:46:14Z</time>
      </trkpt>
      <trkpt lat="56.89902" lon="-5.78403">
        <ele>35.82</ele>
        <time>2021-03-20T17:46:17Z</time>
      </trkpt>
      <trkpt lat="56.89914" lon="-5.7845">
        <ele>37.56</ele>
        <time>2021-03-20T17:46:20Z</time>
      </trkpt>
      <trkpt lat="56.8997" lon="-5.7864">
        <ele>31.74</ele>
        <time>2021-03-20T17:46:23Z</time>
      </trkpt>
      <trkpt lat="56.89984" lon="-5.78693">
        <ele>30.32</ele>
        <time>2021-03-20T17:46:25Z</time>
      </trkpt>
      <trkpt lat="56.89993" lon="-5.78749">
        <ele>27.34</ele>
        <time>2021-03-20T17:46:28Z</time>
      </trkpt>
      <trkpt lat="56.89997" lon="-5.78788">
        <ele>27.41</ele>
        <time>2021-03-20T17:46:31Z</time>
      </trkpt>
      <trkpt lat="56.89997" lon="-5.78826">
        <ele>30.07</ele>
        <time>2021-03-20T17:46:34Z</time>
      </trkpt>
      <trkpt lat="56.89995" lon="-5.7887">
        <ele>33.66</ele>
        <time>2021-03-20T17:46:36Z</time>
      </trkpt>
      <trkpt lat="56.89989" lon="-5.78912">
        <ele>35.72</ele>
        <time>2021-03-20T17:46:39Z</time>
      </trkpt>
      <trkpt lat="56.89967" lon="-5.79">
        <ele>38.88</ele>
        <time>2021-03-20T17:46:42Z</time>
      </trkpt>
      <trkpt lat="56.89935" lon="-5.79097">
        <ele>53.79</ele>
        <time>2021-03-20T17:46:44Z</time>
      </trkpt>
      <trkpt lat="56.89914" lon="-5.79169">
        <ele>57.71</ele>
        <time>2021-03-20T17:46:47Z</time>
      </trkpt>
      <trkpt lat="56.89898" lon="-5.79248">
        <ele>61.14</ele>
        <time>2021-03-20T17:46:50Z</time>
      </trkpt>
      <trkpt lat="56.8989" lon="-5.79315">
        <ele>65.88</ele>
        <time>2021-03-20T17:46:53Z</time>
      </trkpt>
      <trkpt lat="56.89886" lon="-5.79379">
        <ele>68.84</ele>
        <time>2021-03-20T17:46:55Z</time>
      </trkpt>
      <trkpt lat="56.89886" lon="-5.79443">
        <ele>71.97</ele>
        <time>2021-03-20T17:46:58Z</time>
      </trkpt>
      <trkpt lat="56.89888" lon="-5.79673">
        <ele>75.89</ele>
        <time>2021-03-20T17:47:01Z</time>
      </trkpt>
      <trkpt lat="56.89891" lon="-5.79772">
        <ele>77.45</ele>
        <time>2021-03-20T17:47:03Z</time>
      </trkpt>
      <trkpt lat="56.89897" lon="-5.79844">
        <ele>80.47</ele>
        <time>2021-03-20T17:47:06Z</time>
      </trkpt>
      <trkpt lat="56.89906" lon="-5.79909">
        <ele>83.91</ele>
        <time>2021-03-20T17:47:09Z</time>
      </trkpt>
      <trkpt lat="56.89918" lon="-5.79976">
        <ele>87.29</ele>
        <time>2021-03-20T17:47:12Z</time>
      </trkpt>
      <trkpt lat="56.89935" lon="-5.80048">
        <ele>89.83</ele>
        <time>2021-03-20T17:47:14Z</time>
      </trkpt>
      <trkpt lat="56.89952" lon="-5.80102">
        <ele>88.33</ele>
        <time>2021-03-20T17:47:17Z</time>
      </trkpt>
      <trkpt lat="56.8997" lon="-5.80154">
        <ele>86.38</ele>
        <time>2021-03-20T17:47:20Z</time>
      </trkpt>
      <trkpt lat="56.90104" lon="-5.80502">
        <ele>93.97</ele>
        <time>2021-03-20T17:47:22Z</time>
      </trkpt>
      <trkpt lat="56.90205" lon="-5.80781">
        <ele>86.04</ele>
        <time>2021-03-20T17:47:25Z</time>
      </trkpt>
      <trkpt lat="56.90331" lon="-5.81165">
        <ele>59.13</ele>
        <time>2021-03-20T17:47:28Z</time>
      </trkpt>
      <trkpt lat="56.90448" lon="-5.81505">
        <ele>62.63</ele>
        <time>2021-03-20T17:47:31Z</time>
      </trkpt>
      <trkpt lat="56.90563" lon="-5.81809">
        <ele>66.21</ele>
        <time>2021-03-20T17:47:33Z</time>
      </trkpt>
      <trkpt lat="56.90641" lon="-5.82003">
        <ele>72.65</ele>
        <time>2021-03-20T17:47:36Z</time>
      </trkpt>
      <trkpt lat="56.90673" lon="-5.82076">
        <ele>68.58</ele>
        <time>2021-03-20T17:47:39Z</time>
      </trkpt>
      <trkpt lat="56.90698" lon="-5.82124">
        <ele>69.3</ele>
        <time>2021-03-20T17:47:42Z</time>
      </trkpt>
      <trkpt lat="56.90721" lon="-5.8216">
        <ele>66.32</ele>
        <time>2021-03-20T17:47:44Z</time>
      </trkpt>
      <trkpt lat="56.90748" lon="-5.82195">
        <ele>58.43</ele>
        <time>2021-03-20T17:47:47Z</time>
      </trkpt>
      <trkpt lat="56.90778" lon="-5.82223">
        <ele>49.91</ele>
        <time>2021-03-20T17:47:50Z</time>
      </trkpt>
      <trkpt lat="56.90807" lon="-5.82245">
        <ele>47.42</ele>
        <time>2021-03-20T17:47:52Z</time>
      </trkpt>
      <trkpt lat="56.9083" lon="-5.82258">
        <ele>47.03</ele>
        <time>2021-03-20T17:47:55Z</time>
      </trkpt>
      <trkpt lat="56.90861" lon="-5.82268">
        <ele>47.1</ele>
        <time>2021-03-20T17:47:58Z</time>
      </trkpt>
      <trkpt lat="56.90889" lon="-5.82271">
        <ele>46.98</ele>
        <time>2021-03-20T17:48:01Z</time>
      </trkpt>
      <trkpt lat="56.90923" lon="-5.8227">
        <ele>45.68</ele>
        <time>2021-03-20T17:48:03Z</time>
      </trkpt>
      <trkpt lat="56.9095" lon="-5.82264">
        <ele>44.65</ele>
        <time>2021-03-20T17:48:06Z</time>
      </trkpt>
      <trkpt lat="56.90976" lon="-5.8225">
        <ele>44.87</ele>
        <time>2021-03-20T17:48:09Z</time>
      </trkpt>
      <trkpt lat="56.91081" lon="-5.82184">
        <ele>48.28</ele>
        <time>2021-03-20T17:48:11Z</time>
      </trkpt>
      <trkpt lat="56.91107" lon="-5.82171">
        <ele>49.56</ele>
        <time>2021-03-20T17:48:14Z</time>
      </trkpt>
      <trkpt lat="56.91141" lon="-5.82163">
        <ele>50.96</ele>
        <time>2021-03-20T17:48:17Z</time>
      </trkpt>
      <trkpt lat="56.91175" lon="-5.82167">
        <ele>47.78</ele>
        <time>2021-03-20T17:48:20Z</time>
      </trkpt>
      <trkpt lat="56.91201" lon="-5.82184">
        <ele>43.44</ele>
        <time>2021-03-20T17:48:22Z</time>
      </trkpt>
      <trkpt lat="56.91228" lon="-5.82214">
        <ele>41.73</ele>
        <time>2021-03-20T17:48:25Z</time>
      </trkpt>
      <trkpt lat="56.91252" lon="-5.82256">
        <ele>41.95</ele>
        <time>2021-03-20T17:48:28Z</time>
      </trkpt>
      <trkpt lat="56.91263" lon="-5.82291">
        <ele>42.6</ele>
        <time>2021-03-20T17:48:30Z</time>
      </trkpt>
      <trkpt lat="56.91271" lon="-5.82333">
        <ele>44.81</ele>
        <time>2021-03-20T17:48:33Z</time>
      </trkpt>
      <trkpt lat="56.91277" lon="-5.82379">
        <ele>47.48</ele>
        <time>2021-03-20T17:48:36Z</time>
      </trkpt>
      <trkpt lat="56.91278" lon="-5.82421">
        <ele>49.04</ele>
        <time>2021-03-20T17:48:39Z</time>
      </trkpt>
      <trkpt lat="56.91276" lon="-5.8247">
        <ele>49.63</ele>
        <time>2021-03-20T17:48:41Z</time>
      </trkpt>
      <trkpt lat="56.91271" lon="-5.82519">
        <ele>48.68</ele>
        <time>2021-03-20T17:48:44Z</time>
      </trkpt>
      <trkpt lat="56.91264" lon="-5.82567">
        <ele>48.6</ele>
        <time>2021-03-20T17:48:47Z</time>
      </trkpt>
      <trkpt lat="56.9124" lon="-5.82666">
        <ele>51.83</ele>
        <time>2021-03-20T17:48:49Z</time>
      </trkpt>
      <trkpt lat="56.91173" lon="-5.8289">
        <ele>42.43</ele>
        <time>2021-03-20T17:48:52Z</time>
      </trkpt>
      <trkpt lat="56.91134" lon="-5.83055">
        <ele>36.13</ele>
        <time>2021-03-20T17:48:55Z</time>
      </trkpt>
      <trkpt lat="56.91117" lon="-5.83154">
        <ele>30.57</ele>
        <time>2021-03-20T17:48:58Z</time>
      </trkpt>
      <trkpt lat="56.91109" lon="-5.83223">
        <ele>26.56</ele>
        <time>2021-03-20T17:49:00Z</time>
      </trkpt>
      <trkpt lat="56.91099" lon="-5.83356">
        <ele>24.87</ele>
        <time>2021-03-20T17:49:03Z</time>
      </trkpt>
      <trkpt lat="56.91098" lon="-5.83419">
        <ele>22.94</ele>
        <time>2021-03-20T17:49:06Z</time>
      </trkpt>
      <trkpt lat="56.91099" lon="-5.8351">
        <ele>21.55</ele>
        <time>2021-03-20T17:49:09Z</time>
      </trkpt>
      <trkpt lat="56.91103" lon="-5.83592">
        <ele>21.44</ele>
        <time>2021-03-20T17:49:11Z</time>
      </trkpt>
      <trkpt lat="56.91109" lon="-5.8367">
        <ele>20.06</ele>
        <time>2021-03-20T17:49:14Z</time>
      </trkpt>
      <trkpt lat="56.91139" lon="-5.83924">
        <ele>20</ele>
        <time>2021-03-20T17:49:17Z</time>
      </trkpt>
      <trkpt lat="56.91098" lon="-5.83952">
        <ele>17.18</ele>
        <time>2021-03-20T17:49:25Z</time>
      </trkpt>
      <trkpt lat="56.91056" lon="-5.84016">
        <ele>17.17</ele>
        <time>2021-03-20T17:49:33Z</time>
      </trkpt>
      <trkpt lat="56.91043" lon="-5.84035">
        <ele>17.01</ele>
        <time>2021-03-20T17:49:40Z</time>
      </trkpt>
      <trkpt lat="56.9101" lon="-5.84228">
        <ele>17.74</ele>
        <time>2021-03-20T17:49:48Z</time>
      </trkpt>
      <trkpt lat="56.90999" lon="-5.84279">
        <ele>16.89</ele>
        <time>2021-03-20T17:49:56Z</time>
      </trkpt>
      <trkpt lat="56.9098" lon="-5.84337">
        <ele>14.71</ele>
        <time>2021-03-20T17:50:04Z</time>
      </trkpt>
      <trkpt lat="56.90955" lon="-5.84382">
        <ele>11.16</ele>
        <time>2021-03-20T17:50:12Z</time>
      </trkpt>
      <trkpt lat="56.90934" lon="-5.84453">
        <ele>7.56</ele>
        <time>2021-03-20T17:50:20Z</time>
      </trkpt>
      <trkpt lat="56.90925" lon="-5.84521">
        <ele>4.96</ele>
        <time>2021-03-20T17:50:28Z</time>
      </trkpt>
      <trkpt lat="56.90926" lon="-5.84588">
        <ele>3.99</ele>
        <time>2021-03-20T17:50:36Z</time>
      </trkpt>
      <trkpt lat="56.90952" lon="-5.84659">
        <ele>5.52</ele>
        <time>2021-03-20T17:50:43Z</time>
      </trkpt>
      <trkpt lat="56.90999" lon="-5.84775">
        <ele>5.05</ele>
        <time>2021-03-20T17:50:51Z</time>
      </trkpt>
      <trkpt lat="56.91025" lon="-5.84814">
        <ele>3.63</ele>
        <time>2021-03-20T17:50:59Z</time>
      </trkpt>
      <trkpt lat="56.91055" lon="-5.84842">
        <ele>4.66</ele>
        <time>2021-03-20T17:51:07Z</time>
      </trkpt>
      <trkpt lat="56.9108" lon="-5.84847">
        <ele>7.14</ele>
        <time>2021-03-20T17:51:15Z</time>
      </trkpt>
      <trkpt lat="56.91109" lon="-5.84822">
        <ele>10.73</ele>
        <time>2021-03-20T17:51:23Z</time>
      </trkpt>
      <trkpt lat="56.91132" lon="-5.84775">
        <ele>12.85</ele>
        <time>2021-03-20T17:51:31Z</time>
      </trkpt>
      <trkpt lat="56.91172" lon="-5.84638">
        <ele>19.27</ele>
        <time>2021-03-20T17:51:39Z</time>
      </trkpt>
      <trkpt lat="56.91189" lon="-5.84608">
        <ele>21.82</ele>
        <time>2021-03-20T17:51:46Z</time>
      </trkpt>
      <trkpt lat="56.91211" lon="-5.84631">
        <ele>21.71</ele>
        <time>2021-03-20T17:51:50Z</time>
      </trkpt>
      <trkpt lat="56.91232" lon="-5.84638">
        <ele>22.78</ele>
        <time>2021-03-20T17:51:53Z</time>
      </trkpt>
      <trkpt lat="56.91255" lon="-5.8464">
        <ele>24.29</ele>
        <time>2021-03-20T17:51:56Z</time>
      </trkpt>
      <trkpt lat="56.91298" lon="-5.84651">
        <ele>25.49</ele>
        <time>2021-03-20T17:52:00Z</time>
      </trkpt>
      <trkpt lat="56.91359" lon="-5.84661">
        <ele>25.52</ele>
        <time>2021-03-20T17:52:03Z</time>
      </trkpt>
      <trkpt lat="56.9139" lon="-5.8467">
        <ele>27.78</ele>
        <time>2021-03-20T17:52:06Z</time>
      </trkpt>
      <trkpt lat="56.91419" lon="-5.84683">
        <ele>30.61</ele>
        <time>2021-03-20T17:52:09Z</time>
      </trkpt>
      <trkpt lat="56.91434" lon="-5.84692">
        <ele>31.7</ele>
        <time>2021-03-20T17:52:13Z</time>
      </trkpt>
      <trkpt lat="56.91467" lon="-5.8473">
        <ele>32.9</ele>
        <time>2021-03-20T17:52:16Z</time>
      </trkpt>
      <trkpt lat="56.91489" lon="-5.84762">
        <ele>32.95</ele>
        <time>2021-03-20T17:52:19Z</time>
      </trkpt>
      <trkpt lat="56.91506" lon="-5.84778">
        <ele>33.81</ele>
        <time>2021-03-20T17:52:23Z</time>
      </trkpt>
      <trkpt lat="56.91532" lon="-5.84789">
        <ele>37.18</ele>
        <time>2021-03-20T17:52:26Z</time>
      </trkpt>
      <trkpt lat="56.91551" lon="-5.84803">
        <ele>38.73</ele>
        <time>2021-03-20T17:52:29Z</time>
      </trkpt>
      <trkpt lat="56.91569" lon="-5.84829">
        <ele>39.62</ele>
        <time>2021-03-20T17:52:32Z</time>
      </trkpt>
      <trkpt lat="56.91587" lon="-5.84874">
        <ele>38.76</ele>
        <time>2021-03-20T17:52:36Z</time>
      </trkpt>
      <trkpt lat="56.91599" lon="-5.84889">
        <ele>38.56</ele>
        <time>2021-03-20T17:52:39Z</time>
      </trkpt>
      <trkpt lat="56.9161" lon="-5.84896">
        <ele>38.46</ele>
        <time>2021-03-20T17:52:42Z</time>
      </trkpt>
      <trkpt lat="56.91672" lon="-5.84947">
        <ele>39.27</ele>
        <time>2021-03-20T17:52:45Z</time>
      </trkpt>
      <trkpt lat="56.91704" lon="-5.84977">
        <ele>41.66</ele>
        <time>2021-03-20T17:52:49Z</time>
      </trkpt>
      <trkpt lat="56.91726" lon="-5.85002">
        <ele>43.06</ele>
        <time>2021-03-20T17:52:52Z</time>
      </trkpt>
      <trkpt lat="56.91735" lon="-5.85028">
        <ele>44</ele>
        <time>2021-03-20T17:52:55Z</time>
      </trkpt>
      <trkpt lat="56.91744" lon="-5.85088">
        <ele>43.73</ele>
        <time>2021-03-20T17:52:59Z</time>
      </trkpt>
      <trkpt lat="56.9175" lon="-5.8511">
        <ele>44</ele>
        <time>2021-03-20T17:53:02Z</time>
      </trkpt>
      <trkpt lat="56.91784" lon="-5.8518">
        <ele>44.73</ele>
        <time>2021-03-20T17:53:05Z</time>
      </trkpt>
      <trkpt lat="56.91801" lon="-5.85241">
        <ele>44.84</ele>
        <time>2021-03-20T17:53:08Z</time>
      </trkpt>
      <trkpt lat="56.91815" lon="-5.85271">
        <ele>45.65</ele>
        <time>2021-03-20T17:53:12Z</time>
      </trkpt>
      <trkpt lat="56.91823" lon="-5.85286">
        <ele>46.08</ele>
        <time>2021-03-20T17:53:15Z</time>
      </trkpt>
      <trkpt lat="56.91861" lon="-5.85329">
        <ele>46.98</ele>
        <time>2021-03-20T17:53:18Z</time>
      </trkpt>
      <trkpt lat="56.91897" lon="-5.8536">
        <ele>47.65</ele>
        <time>2021-03-20T17:53:22Z</time>
      </trkpt>
      <trkpt lat="56.91943" lon="-5.85389">
        <ele>46.09</ele>
        <time>2021-03-20T17:53:25Z</time>
      </trkpt>
      <trkpt lat="56.91965" lon="-5.85392">
        <ele>45.58</ele>
        <time>2021-03-20T17:53:28Z</time>
      </trkpt>
      <trkpt lat="56.92018" lon="-5.8538">
        <ele>43.4</ele>
        <time>2021-03-20T17:53:31Z</time>
      </trkpt>
      <trkpt lat="56.92043" lon="-5.85383">
        <ele>41.15</ele>
        <time>2021-03-20T17:53:35Z</time>
      </trkpt>
      <trkpt lat="56.92059" lon="-5.8539">
        <ele>39.65</ele>
        <time>2021-03-20T17:53:38Z</time>
      </trkpt>
      <trkpt lat="56.92087" lon="-5.85414">
        <ele>37.81</ele>
        <time>2021-03-20T17:53:41Z</time>
      </trkpt>
      <trkpt lat="56.92114" lon="-5.85424">
        <ele>37</ele>
        <time>2021-03-20T17:53:44Z</time>
      </trkpt>
      <trkpt lat="56.92142" lon="-5.85423">
        <ele>36.78</ele>
        <time>2021-03-20T17:53:48Z</time>
      </trkpt>
      <trkpt lat="56.92159" lon="-5.85432">
        <ele>35.92</ele>
        <time>2021-03-20T17:53:51Z</time>
      </trkpt>
      <trkpt lat="56.92178" lon="-5.8545">
        <ele>35.39</ele>
        <time>2021-03-20T17:53:54Z</time>
      </trkpt>
      <trkpt lat="56.92201" lon="-5.8549">
        <ele>34.4</ele>
        <time>2021-03-20T17:53:58Z</time>
      </trkpt>
      <trkpt lat="56.92215" lon="-5.855">
        <ele>33.49</ele>
        <time>2021-03-20T17:54:01Z</time>
      </trkpt>
      <trkpt lat="56.92229" lon="-5.85496">
        <ele>32.15</ele>
        <time>2021-03-20T17:54:04Z</time>
      </trkpt>
      <trkpt lat="56.92258" lon="-5.85748">
        <ele>25.5</ele>
        <time>2021-03-20T17:54:06Z</time>
      </trkpt>
      <trkpt lat="56.92276" lon="-5.85865">
        <ele>20.03</ele>
        <time>2021-03-20T17:54:08Z</time>
      </trkpt>
      <trkpt lat="56.92282" lon="-5.85887">
        <ele>18.66</ele>
        <time>2021-03-20T17:54:10Z</time>
      </trkpt>
      <trkpt lat="56.92289" lon="-5.85896">
        <ele>17.51</ele>
        <time>2021-03-20T17:54:11Z</time>
      </trkpt>
      <trkpt lat="56.92299" lon="-5.85898">
        <ele>16.41</ele>
        <time>2021-03-20T17:54:13Z</time>
      </trkpt>
      <trkpt lat="56.92327" lon="-5.85893">
        <ele>13.53</ele>
        <time>2021-03-20T17:54:15Z</time>
      </trkpt>
      <trkpt lat="56.92364" lon="-5.85881">
        <ele>10.94</ele>
        <time>2021-03-20T17:54:17Z</time>
      </trkpt>
      <trkpt lat="56.92483" lon="-5.85885">
        <ele>3.62</ele>
        <time>2021-03-20T17:54:19Z</time>
      </trkpt>
      <trkpt lat="56.925" lon="-5.85889">
        <ele>3</ele>
        <time>2021-03-20T17:54:20Z</time>
      </trkpt>
      <trkpt lat="56.92558" lon="-5.85923">
        <ele>2.91</ele>
        <time>2021-03-20T17:54:22Z</time>
      </trkpt>
      <trkpt lat="56.92589" lon="-5.85937">
        <ele>2</ele>
        <time>2021-03-20T17:54:24Z</time>
      </trkpt>
      <trkpt lat="56.92604" lon="-5.85941">
        <ele>2</ele>
        <time>2021-03-20T17:54:26Z</time>
      </trkpt>
      <trkpt lat="56.92635" lon="-5.85941">
        <ele>1.16</ele>
        <time>2021-03-20T17:54:28Z</time>
      </trkpt>
      <trkpt lat="56.92662" lon="-5.85934">
        <ele>1</ele>
        <time>2021-03-20T17:54:29Z</time>
      </trkpt>
      <trkpt lat="56.92722" lon="-5.85911">
        <ele>2.01</ele>
        <time>2021-03-20T17:54:31Z</time>
      </trkpt>
      <trkpt lat="56.9275" lon="-5.85897">
        <ele>2.99</ele>
        <time>2021-03-20T17:54:33Z</time>
      </trkpt>
      <trkpt lat="56.92821" lon="-5.85835">
        <ele>4.54</ele>
        <time>2021-03-20T17:54:35Z</time>
      </trkpt>
      <trkpt lat="56.9285" lon="-5.85821">
        <ele>6.21</ele>
        <time>2021-03-20T17:54:37Z</time>
      </trkpt>
      <trkpt lat="56.92867" lon="-5.85819">
        <ele>7.22</ele>
        <time>2021-03-20T17:54:38Z</time>
      </trkpt>
      <trkpt lat="56.92891" lon="-5.85824">
        <ele>8.06</ele>
        <time>2021-03-20T17:54:40Z</time>
      </trkpt>
      <trkpt lat="56.9291" lon="-5.85841">
        <ele>8.76</ele>
        <time>2021-03-20T17:54:42Z</time>
      </trkpt>
      <trkpt lat="56.92928" lon="-5.85853">
        <ele>9.12</ele>
        <time>2021-03-20T17:54:44Z</time>
      </trkpt>
      <trkpt lat="56.93016" lon="-5.85878">
        <ele>9</ele>
        <time>2021-03-20T17:54:46Z</time>
      </trkpt>
      <trkpt lat="56.93048" lon="-5.85881">
        <ele>9.71</ele>
        <time>2021-03-20T17:54:47Z</time>
      </trkpt>
      <trkpt lat="56.93097" lon="-5.85877">
        <ele>12</ele>
        <time>2021-03-20T17:54:49Z</time>
      </trkpt>
      <trkpt lat="56.93169" lon="-5.85864">
        <ele>14.08</ele>
        <time>2021-03-20T17:54:51Z</time>
      </trkpt>
      <trkpt lat="56.93195" lon="-5.85867">
        <ele>15</ele>
        <time>2021-03-20T17:54:53Z</time>
      </trkpt>
      <trkpt lat="56.9321" lon="-5.85876">
        <ele>15</ele>
        <time>2021-03-20T17:54:54Z</time>
      </trkpt>
      <trkpt lat="56.93258" lon="-5.85935">
        <ele>13.82</ele>
        <time>2021-03-20T17:54:56Z</time>
      </trkpt>
      <trkpt lat="56.93268" lon="-5.85955">
        <ele>13.91</ele>
        <time>2021-03-20T17:54:58Z</time>
      </trkpt>
      <trkpt lat="56.93279" lon="-5.85987">
        <ele>13.67</ele>
        <time>2021-03-20T17:55:00Z</time>
      </trkpt>
      <trkpt lat="56.93297" lon="-5.86052">
        <ele>15.08</ele>
        <time>2021-03-20T17:55:02Z</time>
      </trkpt>
      <trkpt lat="56.93302" lon="-5.86061">
        <ele>15.37</ele>
        <time>2021-03-20T17:55:03Z</time>
      </trkpt>
      <trkpt lat="56.93312" lon="-5.86074">
        <ele>15.78</ele>
        <time>2021-03-20T17:55:05Z</time>
      </trkpt>
      <trkpt lat="56.93321" lon="-5.86079">
        <ele>16.27</ele>
        <time>2021-03-20T17:55:07Z</time>
      </trkpt>
      <trkpt lat="56.93329" lon="-5.8608">
        <ele>16.83</ele>
        <time>2021-03-20T17:55:09Z</time>
      </trkpt>
      <trkpt lat="56.93385" lon="-5.86078">
        <ele>18.37</ele>
        <time>2021-03-20T17:55:11Z</time>
      </trkpt>
      <trkpt lat="56.93397" lon="-5.8608">
        <ele>17.92</ele>
        <time>2021-03-20T17:55:12Z</time>
      </trkpt>
      <trkpt lat="56.9344" lon="-5.86106">
        <ele>16.18</ele>
        <time>2021-03-20T17:55:14Z</time>
      </trkpt>
      <trkpt lat="56.93465" lon="-5.86115">
        <ele>15.87</ele>
        <time>2021-03-20T17:55:16Z</time>
      </trkpt>
      <trkpt lat="56.93486" lon="-5.86127">
        <ele>14.43</ele>
        <time>2021-03-20T17:55:18Z</time>
      </trkpt>
      <trkpt lat="56.93509" lon="-5.86124">
        <ele>12.58</ele>
        <time>2021-03-20T17:55:20Z</time>
      </trkpt>
      <trkpt lat="56.93537" lon="-5.86113">
        <ele>9.95</ele>
        <time>2021-03-20T17:55:21Z</time>
      </trkpt>
      <trkpt lat="56.93552" lon="-5.86101">
        <ele>8.77</ele>
        <time>2021-03-20T17:55:23Z</time>
      </trkpt>
      <trkpt lat="56.93563" lon="-5.86085">
        <ele>7.6</ele>
        <time>2021-03-20T17:55:25Z</time>
      </trkpt>
      <trkpt lat="56.93574" lon="-5.86057">
        <ele>6.58</ele>
        <time>2021-03-20T17:55:27Z</time>
      </trkpt>
      <trkpt lat="56.93602" lon="-5.85966">
        <ele>5.61</ele>
        <time>2021-03-20T17:55:29Z</time>
      </trkpt>
      <trkpt lat="56.93612" lon="-5.85946">
        <ele>4.85</ele>
        <time>2021-03-20T17:55:30Z</time>
      </trkpt>
      <trkpt lat="56.93618" lon="-5.85938">
        <ele>4.46</ele>
        <time>2021-03-20T17:55:32Z</time>
      </trkpt>
      <trkpt lat="56.93632" lon="-5.85927">
        <ele>3.39</ele>
        <time>2021-03-20T17:55:34Z</time>
      </trkpt>
      <trkpt lat="56.93647" lon="-5.85922">
        <ele>2.29</ele>
        <time>2021-03-20T17:55:36Z</time>
      </trkpt>
      <trkpt lat="56.93661" lon="-5.85924">
        <ele>1.35</ele>
        <time>2021-03-20T17:55:38Z</time>
      </trkpt>
      <trkpt lat="56.93673" lon="-5.85936">
        <ele>1.22</ele>
        <time>2021-03-20T17:55:39Z</time>
      </trkpt>
      <trkpt lat="56.93685" lon="-5.85956">
        <ele>1.38</ele>
        <time>2021-03-20T17:55:41Z</time>
      </trkpt>
      <trkpt lat="56.93693" lon="-5.85966">
        <ele>1.21</ele>
        <time>2021-03-20T17:55:43Z</time>
      </trkpt>
      <trkpt lat="56.93707" lon="-5.85976">
        <ele>1.46</ele>
        <time>2021-03-20T17:55:45Z</time>
      </trkpt>
      <trkpt lat="56.93734" lon="-5.85978">
        <ele>2.41</ele>
        <time>2021-03-20T17:55:47Z</time>
      </trkpt>
      <trkpt lat="56.93758" lon="-5.85993">
        <ele>3.28</ele>
        <time>2021-03-20T17:55:48Z</time>
      </trkpt>
      <trkpt lat="56.93767" lon="-5.85992">
        <ele>3.62</ele>
        <time>2021-03-20T17:55:50Z</time>
      </trkpt>
      <trkpt lat="56.93816" lon="-5.85973">
        <ele>5.74</ele>
        <time>2021-03-20T17:55:52Z</time>
      </trkpt>
      <trkpt lat="56.93823" lon="-5.85967">
        <ele>6.36</ele>
        <time>2021-03-20T17:55:54Z</time>
      </trkpt>
      <trkpt lat="56.93857" lon="-5.85909">
        <ele>9.19</ele>
        <time>2021-03-20T17:55:56Z</time>
      </trkpt>
      <trkpt lat="56.93928" lon="-5.85807">
        <ele>4.65</ele>
        <time>2021-03-20T17:55:57Z</time>
      </trkpt>
      <trkpt lat="56.93937" lon="-5.85784">
        <ele>3.48</ele>
        <time>2021-03-20T17:55:59Z</time>
      </trkpt>
      <trkpt lat="56.93991" lon="-5.85524">
        <ele>2.41</ele>
        <time>2021-03-20T17:56:01Z</time>
      </trkpt>
      <trkpt lat="56.93997" lon="-5.85404">
        <ele>2.19</ele>
        <time>2021-03-20T17:56:03Z</time>
      </trkpt>
      <trkpt lat="56.94" lon="-5.85376">
        <ele>2.01</ele>
        <time>2021-03-20T17:56:05Z</time>
      </trkpt>
      <trkpt lat="56.9402" lon="-5.85316">
        <ele>2.65</ele>
        <time>2021-03-20T17:56:06Z</time>
      </trkpt>
      <trkpt lat="56.94034" lon="-5.8529">
        <ele>3.83</ele>
        <time>2021-03-20T17:56:08Z</time>
      </trkpt>
      <trkpt lat="56.94061" lon="-5.85262">
        <ele>3.58</ele>
        <time>2021-03-20T17:56:10Z</time>
      </trkpt>
      <trkpt lat="56.94074" lon="-5.85254">
        <ele>3.87</ele>
        <time>2021-03-20T17:56:12Z</time>
      </trkpt>
      <trkpt lat="56.94092" lon="-5.8525">
        <ele>4.31</ele>
        <time>2021-03-20T17:56:14Z</time>
      </trkpt>
      <trkpt lat="56.94127" lon="-5.85261">
        <ele>4.59</ele>
        <time>2021-03-20T17:56:15Z</time>
      </trkpt>
      <trkpt lat="56.9429" lon="-5.85327">
        <ele>3.56</ele>
        <time>2021-03-20T17:56:17Z</time>
      </trkpt>
      <trkpt lat="56.94298" lon="-5.85328">
        <ele>3.78</ele>
        <time>2021-03-20T17:56:19Z</time>
      </trkpt>
      <trkpt lat="56.94313" lon="-5.85326">
        <ele>3.74</ele>
        <time>2021-03-20T17:56:21Z</time>
      </trkpt>
      <trkpt lat="56.94366" lon="-5.85304">
        <ele>2.19</ele>
        <time>2021-03-20T17:56:23Z</time>
      </trkpt>
      <trkpt lat="56.94434" lon="-5.85295">
        <ele>2.09</ele>
        <time>2021-03-20T17:56:24Z</time>
      </trkpt>
      <trkpt lat="56.94475" lon="-5.85296">
        <ele>3.54</ele>
        <time>2021-03-20T17:56:26Z</time>
      </trkpt>
      <trkpt lat="56.94485" lon="-5.85301">
        <ele>4.05</ele>
        <time>2021-03-20T17:56:28Z</time>
      </trkpt>
      <trkpt lat="56.94507" lon="-5.85326">
        <ele>4.45</ele>
        <time>2021-03-20T17:56:30Z</time>
      </trkpt>
      <trkpt lat="56.94528" lon="-5.85357">
        <ele>4.14</ele>
        <time>2021-03-20T17:56:32Z</time>
      </trkpt>
      <trkpt lat="56.94542" lon="-5.85386">
        <ele>4</ele>
        <time>2021-03-20T17:56:33Z</time>
      </trkpt>
      <trkpt lat="56.94566" lon="-5.85451">
        <ele>2.85</ele>
        <time>2021-03-20T17:56:35Z</time>
      </trkpt>
      <trkpt lat="56.94577" lon="-5.85467">
        <ele>2.82</ele>
        <time>2021-03-20T17:56:37Z</time>
      </trkpt>
      <trkpt lat="56.9459" lon="-5.85472">
        <ele>3</ele>
        <time>2021-03-20T17:56:39Z</time>
      </trkpt>
      <trkpt lat="56.946" lon="-5.85469">
        <ele>3</ele>
        <time>2021-03-20T17:56:41Z</time>
      </trkpt>
      <trkpt lat="56.94677" lon="-5.85424">
        <ele>3</ele>
        <time>2021-03-20T17:56:42Z</time>
      </trkpt>
      <trkpt lat="56.94696" lon="-5.85419">
        <ele>3.04</ele>
        <time>2021-03-20T17:56:44Z</time>
      </trkpt>
      <trkpt lat="56.94795" lon="-5.85406">
        <ele>5.52</ele>
        <time>2021-03-20T17:56:46Z</time>
      </trkpt>
      <trkpt lat="56.94802" lon="-5.85403">
        <ele>5.55</ele>
        <time>2021-03-20T17:56:48Z</time>
      </trkpt>
      <trkpt lat="56.94808" lon="-5.85397">
        <ele>5.65</ele>
        <time>2021-03-20T17:56:50Z</time>
      </trkpt>
      <trkpt lat="56.94821" lon="-5.85374">
        <ele>7.11</ele>
        <time>2021-03-20T17:56:51Z</time>
      </trkpt>
      <trkpt lat="56.94827" lon="-5.85367">
        <ele>7.65</ele>
        <time>2021-03-20T17:56:53Z</time>
      </trkpt>
      <trkpt lat="56.94858" lon="-5.85349">
        <ele>7.59</ele>
        <time>2021-03-20T17:56:55Z</time>
      </trkpt>
      <trkpt lat="56.94863" lon="-5.85343">
        <ele>7.74</ele>
        <time>2021-03-20T17:56:57Z</time>
      </trkpt>
      <trkpt lat="56.94872" lon="-5.85323">
        <ele>8.02</ele>
        <time>2021-03-20T17:56:59Z</time>
      </trkpt>
      <trkpt lat="56.9488" lon="-5.85291">
        <ele>8.55</ele>
        <time>2021-03-20T17:57:00Z</time>
      </trkpt>
      <trkpt lat="56.94885" lon="-5.85281">
        <ele>8.53</ele>
        <time>2021-03-20T17:57:02Z</time>
      </trkpt>
      <trkpt lat="56.94896" lon="-5.85267">
        <ele>7.24</ele>
        <time>2021-03-20T17:57:04Z</time>
      </trkpt>
      <trkpt lat="56.94901" lon="-5.85257">
        <ele>6.76</ele>
        <time>2021-03-20T17:57:06Z</time>
      </trkpt>
      <trkpt lat="56.94905" lon="-5.85234">
        <ele>6.63</ele>
        <time>2021-03-20T17:57:08Z</time>
      </trkpt>
      <trkpt lat="56.9491" lon="-5.85133">
        <ele>8.49</ele>
        <time>2021-03-20T17:57:09Z</time>
      </trkpt>
      <trkpt lat="56.94917" lon="-5.85053">
        <ele>10.13</ele>
        <time>2021-03-20T17:57:11Z</time>
      </trkpt>
      <trkpt lat="56.94933" lon="-5.84957">
        <ele>16.35</ele>
        <time>2021-03-20T17:57:13Z</time>
      </trkpt>
      <trkpt lat="56.94953" lon="-5.84846">
        <ele>18.56</ele>
        <time>2021-03-20T17:57:15Z</time>
      </trkpt>
      <trkpt lat="56.9496" lon="-5.84825">
        <ele>19</ele>
        <time>2021-03-20T17:57:17Z</time>
      </trkpt>
      <trkpt lat="56.94967" lon="-5.84816">
        <ele>19</ele>
        <time>2021-03-20T17:57:18Z</time>
      </trkpt>
      <trkpt lat="56.94977" lon="-5.84812">
        <ele>19.37</ele>
        <time>2021-03-20T17:57:20Z</time>
      </trkpt>
      <trkpt lat="56.9499" lon="-5.84811">
        <ele>20.29</ele>
        <time>2021-03-20T17:57:22Z</time>
      </trkpt>
      <trkpt lat="56.95002" lon="-5.84815">
        <ele>21.13</ele>
        <time>2021-03-20T17:57:24Z</time>
      </trkpt>
      <trkpt lat="56.95014" lon="-5.8482">
        <ele>22.03</ele>
        <time>2021-03-20T17:57:26Z</time>
      </trkpt>
      <trkpt lat="56.95087" lon="-5.84873">
        <ele>20.01</ele>
        <time>2021-03-20T17:57:27Z</time>
      </trkpt>
      <trkpt lat="56.95102" lon="-5.84878">
        <ele>18.65</ele>
        <time>2021-03-20T17:57:29Z</time>
      </trkpt>
      <trkpt lat="56.95174" lon="-5.8488">
        <ele>14.08</ele>
        <time>2021-03-20T17:57:31Z</time>
      </trkpt>
      <trkpt lat="56.95203" lon="-5.84876">
        <ele>14.45</ele>
        <time>2021-03-20T17:57:33Z</time>
      </trkpt>
      <trkpt lat="56.95213" lon="-5.84868">
        <ele>14.75</ele>
        <time>2021-03-20T17:57:35Z</time>
      </trkpt>
      <trkpt lat="56.95227" lon="-5.84843">
        <ele>15.14</ele>
        <time>2021-03-20T17:57:36Z</time>
      </trkpt>
      <trkpt lat="56.95242" lon="-5.84799">
        <ele>13.67</ele>
        <time>2021-03-20T17:57:38Z</time>
      </trkpt>
      <trkpt lat="56.95268" lon="-5.84708">
        <ele>13.27</ele>
        <time>2021-03-20T17:57:40Z</time>
      </trkpt>
      <trkpt lat="56.95273" lon="-5.84693">
        <ele>12.75</ele>
        <time>2021-03-20T17:57:42Z</time>
      </trkpt>
      <trkpt lat="56.95283" lon="-5.8468">
        <ele>12.8</ele>
        <time>2021-03-20T17:57:44Z</time>
      </trkpt>
      <trkpt lat="56.95289" lon="-5.84678">
        <ele>13.18</ele>
        <time>2021-03-20T17:57:45Z</time>
      </trkpt>
      <trkpt lat="56.95371" lon="-5.84678">
        <ele>19.75</ele>
        <time>2021-03-20T17:57:47Z</time>
      </trkpt>
      <trkpt lat="56.9541" lon="-5.84669">
        <ele>21.47</ele>
        <time>2021-03-20T17:57:49Z</time>
      </trkpt>
      <trkpt lat="56.95423" lon="-5.84654">
        <ele>22</ele>
        <time>2021-03-20T17:57:51Z</time>
      </trkpt>
      <trkpt lat="56.95435" lon="-5.84631">
        <ele>22.19</ele>
        <time>2021-03-20T17:57:53Z</time>
      </trkpt>
      <trkpt lat="56.95436" lon="-5.84604">
        <ele>22.69</ele>
        <time>2021-03-20T17:57:54Z</time>
      </trkpt>
      <trkpt lat="56.95422" lon="-5.84401">
        <ele>25.59</ele>
        <time>2021-03-20T17:57:56Z</time>
      </trkpt>
      <trkpt lat="56.95427" lon="-5.84355">
        <ele>25.65</ele>
        <time>2021-03-20T17:57:58Z</time>
      </trkpt>
      <trkpt lat="56.95437" lon="-5.84329">
        <ele>23.96</ele>
        <time>2021-03-20T17:58:00Z</time>
      </trkpt>
      <trkpt lat="56.95476" lon="-5.84265">
        <ele>21.32</ele>
        <time>2021-03-20T17:58:01Z</time>
      </trkpt>
      <trkpt lat="56.95491" lon="-5.84229">
        <ele>22.08</ele>
        <time>2021-03-20T17:58:03Z</time>
      </trkpt>
      <trkpt lat="56.95505" lon="-5.84209">
        <ele>20.96</ele>
        <time>2021-03-20T17:58:05Z</time>
      </trkpt>
      <trkpt lat="56.95516" lon="-5.84204">
        <ele>19.6</ele>
        <time>2021-03-20T17:58:07Z</time>
      </trkpt>
      <trkpt lat="56.95541" lon="-5.84208">
        <ele>16.85</ele>
        <time>2021-03-20T17:58:09Z</time>
      </trkpt>
      <trkpt lat="56.95565" lon="-5.84215">
        <ele>14.12</ele>
        <time>2021-03-20T17:58:10Z</time>
      </trkpt>
      <trkpt lat="56.95639" lon="-5.84245">
        <ele>9.52</ele>
        <time>2021-03-20T17:58:12Z</time>
      </trkpt>
      <trkpt lat="56.95671" lon="-5.84252">
        <ele>6.77</ele>
        <time>2021-03-20T17:58:14Z</time>
      </trkpt>
      <trkpt lat="56.95696" lon="-5.84251">
        <ele>4.95</ele>
        <time>2021-03-20T17:58:16Z</time>
      </trkpt>
      <trkpt lat="56.95714" lon="-5.8424">
        <ele>4.2</ele>
        <time>2021-03-20T17:58:18Z</time>
      </trkpt>
      <trkpt lat="56.9578" lon="-5.84183">
        <ele>10.92</ele>
        <time>2021-03-20T17:58:19Z</time>
      </trkpt>
      <trkpt lat="56.95821" lon="-5.8416">
        <ele>14.08</ele>
        <time>2021-03-20T17:58:21Z</time>
      </trkpt>
      <trkpt lat="56.9586" lon="-5.84143">
        <ele>15.97</ele>
        <time>2021-03-20T17:58:23Z</time>
      </trkpt>
      <trkpt lat="56.95884" lon="-5.84137">
        <ele>17.56</ele>
        <time>2021-03-20T17:58:25Z</time>
      </trkpt>
      <trkpt lat="56.95918" lon="-5.84135">
        <ele>18.87</ele>
        <time>2021-03-20T17:58:27Z</time>
      </trkpt>
      <trkpt lat="56.95932" lon="-5.8413">
        <ele>20.8</ele>
        <time>2021-03-20T17:58:28Z</time>
      </trkpt>
      <trkpt lat="56.95939" lon="-5.84119">
        <ele>21.4</ele>
        <time>2021-03-20T17:58:30Z</time>
      </trkpt>
      <trkpt lat="56.95944" lon="-5.84096">
        <ele>20.94</ele>
        <time>2021-03-20T17:58:32Z</time>
      </trkpt>
      <trkpt lat="56.95958" lon="-5.83918">
        <ele>18.3</ele>
        <time>2021-03-20T17:58:34Z</time>
      </trkpt>
      <trkpt lat="56.95961" lon="-5.83855">
        <ele>20.82</ele>
        <time>2021-03-20T17:58:36Z</time>
      </trkpt>
      <trkpt lat="56.95958" lon="-5.8381">
        <ele>21.36</ele>
        <time>2021-03-20T17:58:37Z</time>
      </trkpt>
      <trkpt lat="56.95947" lon="-5.83754">
        <ele>20.48</ele>
        <time>2021-03-20T17:58:39Z</time>
      </trkpt>
      <trkpt lat="56.95943" lon="-5.83704">
        <ele>19.72</ele>
        <time>2021-03-20T17:58:41Z</time>
      </trkpt>
      <trkpt lat="56.95943" lon="-5.83679">
        <ele>19.22</ele>
        <time>2021-03-20T17:58:43Z</time>
      </trkpt>
      <trkpt lat="56.95952" lon="-5.83654">
        <ele>19.43</ele>
        <time>2021-03-20T17:58:45Z</time>
      </trkpt>
      <trkpt lat="56.96006" lon="-5.83578">
        <ele>20.06</ele>
        <time>2021-03-20T17:58:46Z</time>
      </trkpt>
      <trkpt lat="56.96021" lon="-5.83565">
        <ele>20.24</ele>
        <time>2021-03-20T17:58:48Z</time>
      </trkpt>
      <trkpt lat="56.96053" lon="-5.83558">
        <ele>21.99</ele>
        <time>2021-03-20T17:58:50Z</time>
      </trkpt>
      <trkpt lat="56.96113" lon="-5.83535">
        <ele>19.55</ele>
        <time>2021-03-20T17:58:52Z</time>
      </trkpt>
      <trkpt lat="56.96145" lon="-5.83511">
        <ele>17.53</ele>
        <time>2021-03-20T17:58:54Z</time>
      </trkpt>
      <trkpt lat="56.96249" lon="-5.83413">
        <ele>19.82</ele>
        <time>2021-03-20T17:58:55Z</time>
      </trkpt>
      <trkpt lat="56.96269" lon="-5.83386">
        <ele>20.35</ele>
        <time>2021-03-20T17:58:57Z</time>
      </trkpt>
      <trkpt lat="56.96274" lon="-5.83369">
        <ele>20.7</ele>
        <time>2021-03-20T17:58:59Z</time>
      </trkpt>
      <trkpt lat="56.96274" lon="-5.83339">
        <ele>20.6</ele>
        <time>2021-03-20T17:59:01Z</time>
      </trkpt>
      <trkpt lat="56.96272" lon="-5.83299">
        <ele>20.57</ele>
        <time>2021-03-20T17:59:03Z</time>
      </trkpt>
      <trkpt lat="56.96276" lon="-5.83268">
        <ele>21.79</ele>
        <time>2021-03-20T17:59:04Z</time>
      </trkpt>
      <trkpt lat="56.96288" lon="-5.83229">
        <ele>22.45</ele>
        <time>2021-03-20T17:59:06Z</time>
      </trkpt>
      <trkpt lat="56.96299" lon="-5.83201">
        <ele>22.17</ele>
        <time>2021-03-20T17:59:08Z</time>
      </trkpt>
      <trkpt lat="56.96309" lon="-5.83166">
        <ele>20.85</ele>
        <time>2021-03-20T17:59:10Z</time>
      </trkpt>
      <trkpt lat="56.9631" lon="-5.83149">
        <ele>20.19</ele>
        <time>2021-03-20T17:59:12Z</time>
      </trkpt>
      <trkpt lat="56.96288" lon="-5.82979">
        <ele>17.59</ele>
        <time>2021-03-20T17:59:13Z</time>
      </trkpt>
      <trkpt lat="56.9628" lon="-5.82942">
        <ele>18.63</ele>
        <time>2021-03-20T17:59:15Z</time>
      </trkpt>
      <trkpt lat="56.96268" lon="-5.8291">
        <ele>18.34</ele>
        <time>2021-03-20T17:59:17Z</time>
      </trkpt>
      <trkpt lat="56.96242" lon="-5.82871">
        <ele>17.5</ele>
        <time>2021-03-20T17:59:19Z</time>
      </trkpt>
      <trkpt lat="56.96159" lon="-5.82705">
        <ele>11</ele>
        <time>2021-03-20T17:59:21Z</time>
      </trkpt>
      <trkpt lat="56.9615" lon="-5.82676">
        <ele>11.26</ele>
        <time>2021-03-20T17:59:22Z</time>
      </trkpt>
      <trkpt lat="56.96145" lon="-5.82652">
        <ele>11.22</ele>
        <time>2021-03-20T17:59:24Z</time>
      </trkpt>
      <trkpt lat="56.96142" lon="-5.82619">
        <ele>11.81</ele>
        <time>2021-03-20T17:59:26Z</time>
      </trkpt>
      <trkpt lat="56.96142" lon="-5.82444">
        <ele>14.79</ele>
        <time>2021-03-20T17:59:28Z</time>
      </trkpt>
      <trkpt lat="56.96138" lon="-5.82429">
        <ele>14.56</ele>
        <time>2021-03-20T17:59:30Z</time>
      </trkpt>
      <trkpt lat="56.96105" lon="-5.82384">
        <ele>15.53</ele>
        <time>2021-03-20T17:59:31Z</time>
      </trkpt>
      <trkpt lat="56.96082" lon="-5.82328">
        <ele>13.47</ele>
        <time>2021-03-20T17:59:33Z</time>
      </trkpt>
      <trkpt lat="56.96034" lon="-5.82168">
        <ele>7.78</ele>
        <time>2021-03-20T17:59:35Z</time>
      </trkpt>
      <trkpt lat="56.96027" lon="-5.82135">
        <ele>9.18</ele>
        <time>2021-03-20T17:59:37Z</time>
      </trkpt>
      <trkpt lat="56.96027" lon="-5.82099">
        <ele>9.97</ele>
        <time>2021-03-20T17:59:39Z</time>
      </trkpt>
      <trkpt lat="56.9602" lon="-5.82057">
        <ele>15.18</ele>
        <time>2021-03-20T17:59:40Z</time>
      </trkpt>
      <trkpt lat="56.95998" lon="-5.82047">
        <ele>20.55</ele>
        <time>2021-03-20T17:59:42Z</time>
      </trkpt>
      <trkpt lat="56.95983" lon="-5.82058">
        <ele>21.28</ele>
        <time>2021-03-20T17:59:44Z</time>
      </trkpt>
      <trkpt lat="56.95966" lon="-5.82057">
        <ele>23.75</ele>
        <time>2021-03-20T17:59:46Z</time>
      </trkpt>
      <trkpt lat="56.95951" lon="-5.82049">
        <ele>26.22</ele>
        <time>2021-03-20T17:59:48Z</time>
      </trkpt>
      <trkpt lat="56.95936" lon="-5.82027">
        <ele>27.91</ele>
        <time>2021-03-20T17:59:49Z</time>
      </trkpt>
      <trkpt lat="56.95903" lon="-5.81949">
        <ele>27.26</ele>
        <time>2021-03-20T17:59:51Z</time>
      </trkpt>
      <trkpt lat="56.95915" lon="-5.8194">
        <ele>26.66</ele>
        <time>2021-03-20T17:59:52Z</time>
      </trkpt>
      <trkpt lat="56.95919" lon="-5.81935">
        <ele>26.43</ele>
        <time>2021-03-20T17:59:54Z</time>
      </trkpt>
      <trkpt lat="56.95938" lon="-5.81923">
        <ele>26.24</ele>
        <time>2021-03-20T17:59:55Z</time>
      </trkpt>
      <trkpt lat="56.95988" lon="-5.81903">
        <ele>23.44</ele>
        <time>2021-03-20T17:59:56Z</time>
      </trkpt>
      <trkpt lat="56.96003" lon="-5.81899">
        <ele>22.25</ele>
        <time>2021-03-20T17:59:57Z</time>
      </trkpt>
      <trkpt lat="56.96" lon="-5.81812">
        <ele>10.46</ele>
        <time>2021-03-20T18:00:00Z</time>
      </trkpt>
      <trkpt lat="56.96006" lon="-5.81771">
        <ele>7.43</ele>
        <time>2021-03-20T18:00:03Z</time>
      </trkpt>
      <trkpt lat="56.96022" lon="-5.81729">
        <ele>7.77</ele>
        <time>2021-03-20T18:00:06Z</time>
      </trkpt>
      <trkpt lat="56.96044" lon="-5.81708">
        <ele>9.9</ele>
        <time>2021-03-20T18:00:09Z</time>
      </trkpt>
      <trkpt lat="56.96056" lon="-5.817">
        <ele>10.99</ele>
        <time>2021-03-20T18:00:12Z</time>
      </trkpt>
      <trkpt lat="56.96069" lon="-5.81695">
        <ele>12.37</ele>
        <time>2021-03-20T18:00:15Z</time>
      </trkpt>
      <trkpt lat="56.96231" lon="-5.81681">
        <ele>11.32</ele>
        <time>2021-03-20T18:00:18Z</time>
      </trkpt>
      <trkpt lat="56.96246" lon="-5.8167">
        <ele>11.1</ele>
        <time>2021-03-20T18:00:21Z</time>
      </trkpt>
      <trkpt lat="56.96257" lon="-5.81657">
        <ele>11.02</ele>
        <time>2021-03-20T18:00:23Z</time>
      </trkpt>
      <trkpt lat="56.96278" lon="-5.81614">
        <ele>9.86</ele>
        <time>2021-03-20T18:00:26Z</time>
      </trkpt>
      <trkpt lat="56.96305" lon="-5.8159">
        <ele>8.07</ele>
        <time>2021-03-20T18:00:29Z</time>
      </trkpt>
      <trkpt lat="56.96308" lon="-5.81583">
        <ele>8.53</ele>
        <time>2021-03-20T18:00:32Z</time>
      </trkpt>
      <trkpt lat="56.96321" lon="-5.8153">
        <ele>11.27</ele>
        <time>2021-03-20T18:00:35Z</time>
      </trkpt>
      <trkpt lat="56.96332" lon="-5.81509">
        <ele>12.23</ele>
        <time>2021-03-20T18:00:38Z</time>
      </trkpt>
      <trkpt lat="56.96352" lon="-5.81485">
        <ele>12.81</ele>
        <time>2021-03-20T18:00:41Z</time>
      </trkpt>
      <trkpt lat="56.96367" lon="-5.81463">
        <ele>12.77</ele>
        <time>2021-03-20T18:00:44Z</time>
      </trkpt>
      <trkpt lat="56.96374" lon="-5.8146">
        <ele>13.24</ele>
        <time>2021-03-20T18:00:47Z</time>
      </trkpt>
      <trkpt lat="56.96382" lon="-5.81463">
        <ele>14.07</ele>
        <time>2021-03-20T18:00:50Z</time>
      </trkpt>
      <trkpt lat="56.96403" lon="-5.8148">
        <ele>15.84</ele>
        <time>2021-03-20T18:00:53Z</time>
      </trkpt>
      <trkpt lat="56.96445" lon="-5.81495">
        <ele>19.43</ele>
        <time>2021-03-20T18:00:56Z</time>
      </trkpt>
      <trkpt lat="56.96467" lon="-5.81506">
        <ele>21.8</ele>
        <time>2021-03-20T18:00:59Z</time>
      </trkpt>
      <trkpt lat="56.96488" lon="-5.81523">
        <ele>23.15</ele>
        <time>2021-03-20T18:01:02Z</time>
      </trkpt>
      <trkpt lat="56.96507" lon="-5.81548">
        <ele>23.59</ele>
        <time>2021-03-20T18:01:05Z</time>
      </trkpt>
      <trkpt lat="56.96537" lon="-5.81595">
        <ele>24.11</ele>
        <time>2021-03-20T18:01:08Z</time>
      </trkpt>
      <trkpt lat="56.96571" lon="-5.81633">
        <ele>24.9</ele>
        <time>2021-03-20T18:01:11Z</time>
      </trkpt>
      <trkpt lat="56.96589" lon="-5.81641">
        <ele>25.06</ele>
        <time>2021-03-20T18:01:14Z</time>
      </trkpt>
      <trkpt lat="56.96622" lon="-5.81643">
        <ele>26.06</ele>
        <time>2021-03-20T18:01:17Z</time>
      </trkpt>
      <trkpt lat="56.96677" lon="-5.81639">
        <ele>26.01</ele>
        <time>2021-03-20T18:01:19Z</time>
      </trkpt>
      <trkpt lat="56.96715" lon="-5.81668">
        <ele>26.41</ele>
        <time>2021-03-20T18:01:22Z</time>
      </trkpt>
      <trkpt lat="56.96736" lon="-5.81691">
        <ele>27.99</ele>
        <time>2021-03-20T18:01:25Z</time>
      </trkpt>
      <trkpt lat="56.96741" lon="-5.81705">
        <ele>28.7</ele>
        <time>2021-03-20T18:01:28Z</time>
      </trkpt>
      <trkpt lat="56.96742" lon="-5.81757">
        <ele>28.84</ele>
        <time>2021-03-20T18:01:31Z</time>
      </trkpt>
      <trkpt lat="56.96712" lon="-5.81863">
        <ele>26.55</ele>
        <time>2021-03-20T18:01:34Z</time>
      </trkpt>
      <trkpt lat="56.96708" lon="-5.81896">
        <ele>26.07</ele>
        <time>2021-03-20T18:01:37Z</time>
      </trkpt>
      <trkpt lat="56.96708" lon="-5.81929">
        <ele>26.52</ele>
        <time>2021-03-20T18:01:40Z</time>
      </trkpt>
      <trkpt lat="56.96718" lon="-5.81961">
        <ele>27.56</ele>
        <time>2021-03-20T18:01:43Z</time>
      </trkpt>
      <trkpt lat="56.96735" lon="-5.82002">
        <ele>30.68</ele>
        <time>2021-03-20T18:01:46Z</time>
      </trkpt>
      <trkpt lat="56.96758" lon="-5.82052">
        <ele>30.86</ele>
        <time>2021-03-20T18:01:49Z</time>
      </trkpt>
      <trkpt lat="56.96851" lon="-5.82189">
        <ele>28.39</ele>
        <time>2021-03-20T18:01:52Z</time>
      </trkpt>
      <trkpt lat="56.9691" lon="-5.82289">
        <ele>27.52</ele>
        <time>2021-03-20T18:01:55Z</time>
      </trkpt>
      <trkpt lat="56.96928" lon="-5.82307">
        <ele>26.96</ele>
        <time>2021-03-20T18:01:58Z</time>
      </trkpt>
      <trkpt lat="56.96993" lon="-5.82342">
        <ele>28.14</ele>
        <time>2021-03-20T18:02:01Z</time>
      </trkpt>
      <trkpt lat="56.97027" lon="-5.82357">
        <ele>27.27</ele>
        <time>2021-03-20T18:02:04Z</time>
      </trkpt>
      <trkpt lat="56.97064" lon="-5.82363">
        <ele>22.96</ele>
        <time>2021-03-20T18:02:07Z</time>
      </trkpt>
      <trkpt lat="56.97168" lon="-5.82338">
        <ele>11.53</ele>
        <time>2021-03-20T18:02:10Z</time>
      </trkpt>
      <trkpt lat="56.97195" lon="-5.82333">
        <ele>11.98</ele>
        <time>2021-03-20T18:02:13Z</time>
      </trkpt>
      <trkpt lat="56.97221" lon="-5.82339">
        <ele>9.72</ele>
        <time>2021-03-20T18:02:16Z</time>
      </trkpt>
      <trkpt lat="56.97306" lon="-5.82389">
        <ele>5.02</ele>
        <time>2021-03-20T18:02:18Z</time>
      </trkpt>
      <trkpt lat="56.97364" lon="-5.824">
        <ele>7.92</ele>
        <time>2021-03-20T18:02:21Z</time>
      </trkpt>
      <trkpt lat="56.97386" lon="-5.82407">
        <ele>7.98</ele>
        <time>2021-03-20T18:02:24Z</time>
      </trkpt>
      <trkpt lat="56.97398" lon="-5.82415">
        <ele>7.18</ele>
        <time>2021-03-20T18:02:27Z</time>
      </trkpt>
      <trkpt lat="56.97423" lon="-5.82433">
        <ele>6.03</ele>
        <time>2021-03-20T18:02:30Z</time>
      </trkpt>
      <trkpt lat="56.97439" lon="-5.82463">
        <ele>5.16</ele>
        <time>2021-03-20T18:02:33Z</time>
      </trkpt>
      <trkpt lat="56.97449" lon="-5.82493">
        <ele>4.39</ele>
        <time>2021-03-20T18:02:36Z</time>
      </trkpt>
      <trkpt lat="56.9746" lon="-5.82545">
        <ele>4</ele>
        <time>2021-03-20T18:02:39Z</time>
      </trkpt>
      <trkpt lat="56.97458" lon="-5.82613">
        <ele>5.11</ele>
        <time>2021-03-20T18:02:42Z</time>
      </trkpt>
      <trkpt lat="56.97445" lon="-5.82722">
        <ele>7.05</ele>
        <time>2021-03-20T18:02:45Z</time>
      </trkpt>
      <trkpt lat="56.97751" lon="-5.82853">
        <ele>26.34</ele>
        <time>2021-03-20T18:02:50Z</time>
      </trkpt>
      <trkpt lat="56.9779" lon="-5.82864">
        <ele>27.84</ele>
        <time>2021-03-20T18:02:55Z</time>
      </trkpt>
      <trkpt lat="56.97859" lon="-5.82871">
        <ele>33.23</ele>
        <time>2021-03-20T18:03:00Z</time>
      </trkpt>
      <trkpt lat="56.97889" lon="-5.82867">
        <ele>35.64</ele>
        <time>2021-03-20T18:03:05Z</time>
      </trkpt>
      <trkpt lat="56.97948" lon="-5.82853">
        <ele>37.02</ele>
        <time>2021-03-20T18:03:10Z</time>
      </trkpt>
      <trkpt lat="56.98379" lon="-5.82703">
        <ele>39.83</ele>
        <time>2021-03-20T18:03:15Z</time>
      </trkpt>
      <trkpt lat="56.98449" lon="-5.82666">
        <ele>39.11</ele>
        <time>2021-03-20T18:03:20Z</time>
      </trkpt>
      <trkpt lat="56.98514" lon="-5.8262">
        <ele>35.66</ele>
        <time>2021-03-20T18:03:25Z</time>
      </trkpt>
      <trkpt lat="56.98587" lon="-5.82573">
        <ele>34.3</ele>
        <time>2021-03-20T18:03:30Z</time>
      </trkpt>
      <trkpt lat="56.98632" lon="-5.82549">
        <ele>34.85</ele>
        <time>2021-03-20T18:03:35Z</time>
      </trkpt>
      <trkpt lat="56.98669" lon="-5.82536">
        <ele>36.89</ele>
        <time>2021-03-20T18:03:40Z</time>
      </trkpt>
      <trkpt lat="56.98711" lon="-5.82527">
        <ele>35.9</ele>
        <time>2021-03-20T18:03:45Z</time>
      </trkpt>
      <trkpt lat="56.98749" lon="-5.82523">
        <ele>35.5</ele>
        <time>2021-03-20T18:03:50Z</time>
      </trkpt>
      <trkpt lat="56.98785" lon="-5.82524">
        <ele>35.31</ele>
        <time>2021-03-20T18:03:54Z</time>
      </trkpt>
      <trkpt lat="56.98823" lon="-5.82529">
        <ele>35.12</ele>
        <time>2021-03-20T18:03:59Z</time>
      </trkpt>
      <trkpt lat="56.98877" lon="-5.82547">
        <ele>32.22</ele>
        <time>2021-03-20T18:04:04Z</time>
      </trkpt>
      <trkpt lat="56.98877" lon="-5.82547">
        <ele>32.22</ele>
        <time>2021-03-20T18:04:04Z</time>
      </trkpt>
      <trkpt lat="56.98913" lon="-5.82564">
        <ele>31.17</ele>
        <time>2021-03-20T18:04:08Z</time>
      </trkpt>
      <trkpt lat="56.98935" lon="-5.82577">
        <ele>30.62</ele>
        <time>2021-03-20T18:04:12Z</time>
      </trkpt>
      <trkpt lat="56.98975" lon="-5.82606">
        <ele>28.92</ele>
        <time>2021-03-20T18:04:16Z</time>
      </trkpt>
      <trkpt lat="56.99018" lon="-5.82643">
        <ele>27.78</ele>
        <time>2021-03-20T18:04:19Z</time>
      </trkpt>
      <trkpt lat="56.99151" lon="-5.8278">
        <ele>16.65</ele>
        <time>2021-03-20T18:04:23Z</time>
      </trkpt>
      <trkpt lat="56.99248" lon="-5.82884">
        <ele>10.93</ele>
        <time>2021-03-20T18:04:27Z</time>
      </trkpt>
      <trkpt lat="56.99259" lon="-5.8285">
        <ele>12.18</ele>
        <time>2021-03-20T18:04:30Z</time>
      </trkpt>
      <trkpt lat="56.99267" lon="-5.82841">
        <ele>13.35</ele>
        <time>2021-03-20T18:04:34Z</time>
      </trkpt>
      <trkpt lat="56.99283" lon="-5.8283">
        <ele>15.84</ele>
        <time>2021-03-20T18:04:37Z</time>
      </trkpt>
      <trkpt lat="56.99302" lon="-5.82841">
        <ele>17.87</ele>
        <time>2021-03-20T18:04:40Z</time>
      </trkpt>
      <trkpt lat="56.99319" lon="-5.82866">
        <ele>18.66</ele>
        <time>2021-03-20T18:04:44Z</time>
      </trkpt>
      <trkpt lat="56.99334" lon="-5.82918">
        <ele>17.99</ele>
        <time>2021-03-20T18:04:47Z</time>
      </trkpt>
      <trkpt lat="56.99341" lon="-5.82924">
        <ele>18.06</ele>
        <time>2021-03-20T18:04:51Z</time>
      </trkpt>
      <trkpt lat="56.99349" lon="-5.82926">
        <ele>18.44</ele>
        <time>2021-03-20T18:04:54Z</time>
      </trkpt>
      <trkpt lat="56.99357" lon="-5.82923">
        <ele>19.2</ele>
        <time>2021-03-20T18:04:57Z</time>
      </trkpt>
      <trkpt lat="56.99361" lon="-5.82918">
        <ele>19.9</ele>
        <time>2021-03-20T18:05:01Z</time>
      </trkpt>
      <trkpt lat="56.99373" lon="-5.82891">
        <ele>22.67</ele>
        <time>2021-03-20T18:05:04Z</time>
      </trkpt>
      <trkpt lat="56.99385" lon="-5.82871">
        <ele>24.88</ele>
        <time>2021-03-20T18:05:07Z</time>
      </trkpt>
      <trkpt lat="56.99393" lon="-5.82865">
        <ele>25.84</ele>
        <time>2021-03-20T18:05:11Z</time>
      </trkpt>
      <trkpt lat="56.99405" lon="-5.82868">
        <ele>26.06</ele>
        <time>2021-03-20T18:05:14Z</time>
      </trkpt>
      <trkpt lat="56.99413" lon="-5.82875">
        <ele>25.89</ele>
        <time>2021-03-20T18:05:18Z</time>
      </trkpt>
      <trkpt lat="56.99423" lon="-5.82887">
        <ele>25.58</ele>
        <time>2021-03-20T18:05:21Z</time>
      </trkpt>
      <trkpt lat="56.99453" lon="-5.82942">
        <ele>23.15</ele>
        <time>2021-03-20T18:05:24Z</time>
      </trkpt>
      <trkpt lat="56.99465" lon="-5.82957">
        <ele>22.98</ele>
        <time>2021-03-20T18:05:28Z</time>
      </trkpt>
      <trkpt lat="56.99475" lon="-5.82966">
        <ele>23.16</ele>
        <time>2021-03-20T18:05:31Z</time>
      </trkpt>
      <trkpt lat="56.99489" lon="-5.82969">
        <ele>24.83</ele>
        <time>2021-03-20T18:05:34Z</time>
      </trkpt>
      <trkpt lat="56.99513" lon="-5.82964">
        <ele>29.24</ele>
        <time>2021-03-20T18:05:38Z</time>
      </trkpt>
      <trkpt lat="56.99574" lon="-5.82943">
        <ele>36.14</ele>
        <time>2021-03-20T18:05:41Z</time>
      </trkpt>
      <trkpt lat="56.99591" lon="-5.82936">
        <ele>36.81</ele>
        <time>2021-03-20T18:05:45Z</time>
      </trkpt>
      <trkpt lat="56.99613" lon="-5.82932">
        <ele>37.7</ele>
        <time>2021-03-20T18:05:48Z</time>
      </trkpt>
      <trkpt lat="56.99675" lon="-5.82926">
        <ele>44.94</ele>
        <time>2021-03-20T18:05:51Z</time>
      </trkpt>
      <trkpt lat="56.99699" lon="-5.82933">
        <ele>46.33</ele>
        <time>2021-03-20T18:05:55Z</time>
      </trkpt>
      <trkpt lat="56.99742" lon="-5.82958">
        <ele>47.49</ele>
        <time>2021-03-20T18:05:58Z</time>
      </trkpt>
      <trkpt lat="56.99809" lon="-5.83003">
        <ele>47.94</ele>
        <time>2021-03-20T18:06:01Z</time>
      </trkpt>
      <trkpt lat="56.99874" lon="-5.83037">
        <ele>50.21</ele>
        <time>2021-03-20T18:06:05Z</time>
      </trkpt>
      <trkpt lat="56.99914" lon="-5.8305">
        <ele>50.43</ele>
        <time>2021-03-20T18:06:08Z</time>
      </trkpt>
      <trkpt lat="57.00047" lon="-5.83076">
        <ele>42.8</ele>
        <time>2021-03-20T18:06:12Z</time>
      </trkpt>
      <trkpt lat="57.00099" lon="-5.83084">
        <ele>39.84</ele>
        <time>2021-03-20T18:06:15Z</time>
      </trkpt>
      <trkpt lat="57.00113" lon="-5.83084">
        <ele>38.91</ele>
        <time>2021-03-20T18:06:18Z</time>
      </trkpt>
      <trkpt lat="57.00124" lon="-5.83078">
        <ele>38.87</ele>
        <time>2021-03-20T18:06:22Z</time>
      </trkpt>
      <trkpt lat="57.00151" lon="-5.83045">
        <ele>38.44</ele>
        <time>2021-03-20T18:06:25Z</time>
      </trkpt>
      <trkpt lat="57.00178" lon="-5.83017">
        <ele>36.86</ele>
        <time>2021-03-20T18:06:28Z</time>
      </trkpt>
      <trkpt lat="57.00194" lon="-5.83005">
        <ele>34.28</ele>
        <time>2021-03-20T18:06:32Z</time>
      </trkpt>
      <trkpt lat="57.00225" lon="-5.82988">
        <ele>29.31</ele>
        <time>2021-03-20T18:06:35Z</time>
      </trkpt>
      <trkpt lat="57.0029" lon="-5.82966">
        <ele>20.92</ele>
        <time>2021-03-20T18:06:39Z</time>
      </trkpt>
      <trkpt lat="57.00324" lon="-5.82962">
        <ele>19.42</ele>
        <time>2021-03-20T18:06:42Z</time>
      </trkpt>
      <trkpt lat="57.00348" lon="-5.82968">
        <ele>17.9</ele>
        <time>2021-03-20T18:06:45Z</time>
      </trkpt>
      <trkpt lat="57.00442" lon="-5.82978">
        <ele>16.69</ele>
        <time>2021-03-20T18:06:49Z</time>
      </trkpt>
      <trkpt lat="57.00469" lon="-5.82973">
        <ele>13.52</ele>
        <time>2021-03-20T18:06:52Z</time>
      </trkpt>
      <trkpt lat="57.00489" lon="-5.82953">
        <ele>12.9</ele>
        <time>2021-03-20T18:06:55Z</time>
      </trkpt>
      <trkpt lat="57.00511" lon="-5.82923">
        <ele>11.74</ele>
        <time>2021-03-20T18:06:59Z</time>
      </trkpt>
      <trkpt lat="57.00544" lon="-5.82872">
        <ele>7.61</ele>
        <time>2021-03-20T18:07:02Z</time>
      </trkpt>
      <trkpt lat="57.00556" lon="-5.82879">
        <ele>6.63</ele>
        <time>2021-03-20T18:07:06Z</time>
      </trkpt>
      <trkpt lat="57.00568" lon="-5.82893">
        <ele>6.62</ele>
        <time>2021-03-20T18:07:09Z</time>
      </trkpt>
      <trkpt lat="57.00612" lon="-5.82958">
        <ele>5</ele>
        <time>2021-03-20T18:07:13Z</time>
      </trkpt>
      <trkpt lat="57.00611" lon="-5.82966">
        <ele>5</ele>
        <time>2021-03-20T18:07:15Z</time>
      </trkpt>
      <trkpt lat="57.00614" lon="-5.82975">
        <ele>5</ele>
        <time>2021-03-20T18:07:17Z</time>
      </trkpt>
      <trkpt lat="57.00618" lon="-5.82978">
        <ele>5</ele>
        <time>2021-03-20T18:07:19Z</time>
      </trkpt>
      <trkpt lat="57.00622" lon="-5.82975">
        <ele>5</ele>
        <time>2021-03-20T18:07:21Z</time>
      </trkpt>
      <trkpt lat="57.00625" lon="-5.8297">
        <ele>5</ele>
        <time>2021-03-20T18:07:23Z</time>
      </trkpt>
      <trkpt lat="57.00625" lon="-5.82961">
        <ele>5</ele>
        <time>2021-03-20T18:07:25Z</time>
      </trkpt>
      <trkpt lat="57.00621" lon="-5.82953">
        <ele>5</ele>
        <time>2021-03-20T18:07:27Z</time>
      </trkpt>
      <trkpt lat="57.00642" lon="-5.82883">
        <ele>4</ele>
        <time>2021-03-20T18:07:29Z</time>
      </trkpt>
      <trkpt lat="57.00646" lon="-5.82875">
        <ele>4</ele>
        <time>2021-03-20T18:07:31Z</time>
      </trkpt>
      <trkpt lat="57.00659" lon="-5.82858">
        <ele>4</ele>
        <time>2021-03-20T18:07:33Z</time>
      </trkpt>
      <trkpt lat="57.00676" lon="-5.82788">
        <ele>3.37</ele>
        <time>2021-03-20T18:07:35Z</time>
      </trkpt>
      <trkpt lat="57.00701" lon="-5.8277">
        <ele>3</ele>
        <time>2021-03-20T18:07:37Z</time>
      </trkpt>
      <trkpt lat="57.00716" lon="-5.82694">
        <ele>3</ele>
        <time>2021-03-20T18:07:39Z</time>
      </trkpt>
      <trkpt lat="57.00755" lon="-5.82466">
        <ele>2.97</ele>
        <time>2021-03-20T18:07:54Z</time>
      </trkpt>
      <trkpt lat="57.00784" lon="-5.82444">
        <ele>2.97</ele>
        <time>2021-03-20T18:08:10Z</time>
      </trkpt>
      <trkpt lat="57.01329" lon="-5.82349">
        <ele>2.91</ele>
        <time>2021-03-20T18:08:25Z</time>
      </trkpt>
      <trkpt lat="57.01613" lon="-5.82414">
        <ele>2.88</ele>
        <time>2021-03-20T18:08:40Z</time>
      </trkpt>
      <trkpt lat="57.02627" lon="-5.83341">
        <ele>2.74</ele>
        <time>2021-03-20T18:08:55Z</time>
      </trkpt>
      <trkpt lat="57.03851" lon="-5.84637">
        <ele>2.52</ele>
        <time>2021-03-20T18:09:10Z</time>
      </trkpt>
      <trkpt lat="57.04817" lon="-5.85752">
        <ele>2.33</ele>
        <time>2021-03-20T18:09:25Z</time>
      </trkpt>
      <trkpt lat="57.05485" lon="-5.86645">
        <ele>2.19</ele>
        <time>2021-03-20T18:09:40Z</time>
      </trkpt>
      <trkpt lat="57.06185" lon="-5.87804">
        <ele>2.02</ele>
        <time>2021-03-20T18:09:55Z</time>
      </trkpt>
      <trkpt lat="57.06507" lon="-5.88448">
        <ele>1.93</ele>
        <time>2021-03-20T18:10:10Z</time>
      </trkpt>
      <trkpt lat="57.06614" lon="-5.8892">
        <ele>1.87</ele>
        <time>2021-03-20T18:10:26Z</time>
      </trkpt>
      <trkpt lat="57.06605" lon="-5.89134">
        <ele>1.85</ele>
        <time>2021-03-20T18:10:41Z</time>
      </trkpt>
      <trkpt lat="57.06487" lon="-5.89453">
        <ele>1.8</ele>
        <time>2021-03-20T18:10:56Z</time>
      </trkpt>
      <trkpt lat="57.0647" lon="-5.89509">
        <ele>2.17</ele>
        <time>2021-03-20T18:11:11Z</time>
      </trkpt>
      <trkpt lat="57.06443" lon="-5.89549">
        <ele>4.21</ele>
        <time>2021-03-20T18:11:26Z</time>
      </trkpt>
      <trkpt lat="57.06434" lon="-5.89582">
        <ele>5.93</ele>
        <time>2021-03-20T18:11:41Z</time>
      </trkpt>
      <trkpt lat="57.06429" lon="-5.89606">
        <ele>7.15</ele>
        <time>2021-03-20T18:11:56Z</time>
      </trkpt>
      <trkpt lat="57.06413" lon="-5.89798">
        <ele>5.16</ele>
        <time>2021-03-20T18:12:11Z</time>
      </trkpt>
      <trkpt lat="57.06412" lon="-5.8984">
        <ele>5.15</ele>
        <time>2021-03-20T18:12:26Z</time>
      </trkpt>
      <trkpt lat="57.06416" lon="-5.8992">
        <ele>5.93</ele>
        <time>2021-03-20T18:12:42Z</time>
      </trkpt>
      <trkpt lat="57.06421" lon="-5.89967">
        <ele>6.44</ele>
        <time>2021-03-20T18:12:57Z</time>
      </trkpt>
      <trkpt lat="57.0643" lon="-5.90014">
        <ele>8</ele>
        <time>2021-03-20T18:13:12Z</time>
      </trkpt>
      <trkpt lat="57.06448" lon="-5.90049">
        <ele>11.01</ele>
        <time>2021-03-20T18:13:27Z</time>
      </trkpt>
      <trkpt lat="57.06481" lon="-5.90096">
        <ele>21.61</ele>
        <time>2021-03-20T18:13:42Z</time>
      </trkpt>
      <trkpt lat="57.06496" lon="-5.90104">
        <ele>25.85</ele>
        <time>2021-03-20T18:13:57Z</time>
      </trkpt>
      <trkpt lat="57.06503" lon="-5.90104">
        <ele>27.15</ele>
        <time>2021-03-20T18:14:12Z</time>
      </trkpt>
      <trkpt lat="57.06513" lon="-5.90098">
        <ele>27.52</ele>
        <time>2021-03-20T18:14:27Z</time>
      </trkpt>
      <trkpt lat="57.06564" lon="-5.90058">
        <ele>25.66</ele>
        <time>2021-03-20T18:14:42Z</time>
      </trkpt>
      <trkpt lat="57.06738" lon="-5.89865">
        <ele>21.58</ele>
        <time>2021-03-20T18:14:58Z</time>
      </trkpt>
      <trkpt lat="57.06809" lon="-5.89798">
        <ele>19.83</ele>
        <time>2021-03-20T18:15:13Z</time>
      </trkpt>
      <trkpt lat="57.06847" lon="-5.89768">
        <ele>20.68</ele>
        <time>2021-03-20T18:15:28Z</time>
      </trkpt>
      <trkpt lat="57.06895" lon="-5.89748">
        <ele>23.21</ele>
        <time>2021-03-20T18:15:43Z</time>
      </trkpt>
      <trkpt lat="57.06911" lon="-5.8973">
        <ele>21.69</ele>
        <time>2021-03-20T18:15:58Z</time>
      </trkpt>
      <trkpt lat="57.06924" lon="-5.89708">
        <ele>19.46</ele>
        <time>2021-03-20T18:16:13Z</time>
      </trkpt>
      <trkpt lat="57.0699" lon="-5.89563">
        <ele>14.24</ele>
        <time>2021-03-20T18:16:28Z</time>
      </trkpt>
      <trkpt lat="57.0702" lon="-5.89504">
        <ele>15.96</ele>
        <time>2021-03-20T18:16:43Z</time>
      </trkpt>
      <trkpt lat="57.0704" lon="-5.89474">
        <ele>16.06</ele>
        <time>2021-03-20T18:16:58Z</time>
      </trkpt>
      <trkpt lat="57.07064" lon="-5.89446">
        <ele>14.45</ele>
        <time>2021-03-20T18:17:14Z</time>
      </trkpt>
      <trkpt lat="57.07099" lon="-5.8942">
        <ele>12.35</ele>
        <time>2021-03-20T18:17:29Z</time>
      </trkpt>
      <trkpt lat="57.07157" lon="-5.89386">
        <ele>12.18</ele>
        <time>2021-03-20T18:17:44Z</time>
      </trkpt>
      <trkpt lat="57.07184" lon="-5.89353">
        <ele>12.64</ele>
        <time>2021-03-20T18:17:59Z</time>
      </trkpt>
      <trkpt lat="57.072" lon="-5.89306">
        <ele>13</ele>
        <time>2021-03-20T18:18:14Z</time>
      </trkpt>
      <trkpt lat="57.07225" lon="-5.89174">
        <ele>12.86</ele>
        <time>2021-03-20T18:18:29Z</time>
      </trkpt>
      <trkpt lat="57.0726" lon="-5.8908">
        <ele>14.71</ele>
        <time>2021-03-20T18:18:44Z</time>
      </trkpt>
      <trkpt lat="57.07298" lon="-5.89044">
        <ele>16.22</ele>
        <time>2021-03-20T18:18:59Z</time>
      </trkpt>
      <trkpt lat="57.07396" lon="-5.88972">
        <ele>14.23</ele>
        <time>2021-03-20T18:19:14Z</time>
      </trkpt>
      <trkpt lat="57.07468" lon="-5.88939">
        <ele>16.94</ele>
        <time>2021-03-20T18:19:30Z</time>
      </trkpt>
      <trkpt lat="57.07489" lon="-5.88916">
        <ele>15.09</ele>
        <time>2021-03-20T18:19:45Z</time>
      </trkpt>
      <trkpt lat="57.07524" lon="-5.88865">
        <ele>10.09</ele>
        <time>2021-03-20T18:20:00Z</time>
      </trkpt>
      <trkpt lat="57.07558" lon="-5.88831">
        <ele>12.3</ele>
        <time>2021-03-20T18:20:15Z</time>
      </trkpt>
      <trkpt lat="57.07598" lon="-5.88811">
        <ele>17.67</ele>
        <time>2021-03-20T18:20:30Z</time>
      </trkpt>
      <trkpt lat="57.07625" lon="-5.8879">
        <ele>18.85</ele>
        <time>2021-03-20T18:20:45Z</time>
      </trkpt>
      <trkpt lat="57.07662" lon="-5.88753">
        <ele>16.41</ele>
        <time>2021-03-20T18:21:00Z</time>
      </trkpt>
      <trkpt lat="57.07786" lon="-5.88685">
        <ele>11.51</ele>
        <time>2021-03-20T18:21:15Z</time>
      </trkpt>
      <trkpt lat="57.07823" lon="-5.88686">
        <ele>12.97</ele>
        <time>2021-03-20T18:21:30Z</time>
      </trkpt>
      <trkpt lat="57.07908" lon="-5.8873">
        <ele>12.46</ele>
        <time>2021-03-20T18:21:45Z</time>
      </trkpt>
      <trkpt lat="57.08001" lon="-5.88748">
        <ele>10.6</ele>
        <time>2021-03-20T18:22:01Z</time>
      </trkpt>
      <trkpt lat="57.08119" lon="-5.88851">
        <ele>11.11</ele>
        <time>2021-03-20T18:22:16Z</time>
      </trkpt>
      <trkpt lat="57.08145" lon="-5.88862">
        <ele>11.96</ele>
        <time>2021-03-20T18:22:31Z</time>
      </trkpt>
      <trkpt lat="57.08169" lon="-5.88858">
        <ele>14.98</ele>
        <time>2021-03-20T18:22:46Z</time>
      </trkpt>
      <trkpt lat="57.08218" lon="-5.88815">
        <ele>18.38</ele>
        <time>2021-03-20T18:23:01Z</time>
      </trkpt>
      <trkpt lat="57.08265" lon="-5.88757">
        <ele>23.57</ele>
        <time>2021-03-20T18:23:16Z</time>
      </trkpt>
      <trkpt lat="57.08442" lon="-5.88565">
        <ele>35.81</ele>
        <time>2021-03-20T18:23:31Z</time>
      </trkpt>
      <trkpt lat="57.08464" lon="-5.88535">
        <ele>34.7</ele>
        <time>2021-03-20T18:23:46Z</time>
      </trkpt>
      <trkpt lat="57.08491" lon="-5.88488">
        <ele>32.36</ele>
        <time>2021-03-20T18:24:01Z</time>
      </trkpt>
      <trkpt lat="57.08516" lon="-5.88427">
        <ele>30.65</ele>
        <time>2021-03-20T18:24:17Z</time>
      </trkpt>
      <trkpt lat="57.08534" lon="-5.88341">
        <ele>29.01</ele>
        <time>2021-03-20T18:24:32Z</time>
      </trkpt>
      <trkpt lat="57.08549" lon="-5.88244">
        <ele>30.74</ele>
        <time>2021-03-20T18:24:47Z</time>
      </trkpt>
      <trkpt lat="57.08561" lon="-5.8814">
        <ele>34.14</ele>
        <time>2021-03-20T18:25:02Z</time>
      </trkpt>
      <trkpt lat="57.08567" lon="-5.88013">
        <ele>37.08</ele>
        <time>2021-03-20T18:25:17Z</time>
      </trkpt>
      <trkpt lat="57.08586" lon="-5.87849">
        <ele>35.75</ele>
        <time>2021-03-20T18:25:32Z</time>
      </trkpt>
      <trkpt lat="57.08598" lon="-5.87804">
        <ele>35</ele>
        <time>2021-03-20T18:25:47Z</time>
      </trkpt>
      <trkpt lat="57.0862" lon="-5.87744">
        <ele>33.98</ele>
        <time>2021-03-20T18:26:02Z</time>
      </trkpt>
      <trkpt lat="57.08644" lon="-5.87692">
        <ele>33.07</ele>
        <time>2021-03-20T18:26:17Z</time>
      </trkpt>
      <trkpt lat="57.08702" lon="-5.87561">
        <ele>35</ele>
        <time>2021-03-20T18:26:33Z</time>
      </trkpt>
      <trkpt lat="57.08764" lon="-5.87454">
        <ele>28.78</ele>
        <time>2021-03-20T18:26:48Z</time>
      </trkpt>
      <trkpt lat="57.08889" lon="-5.87323">
        <ele>23</ele>
        <time>2021-03-20T18:27:03Z</time>
      </trkpt>
      <trkpt lat="57.09038" lon="-5.87159">
        <ele>22.71</ele>
        <time>2021-03-20T18:27:18Z</time>
      </trkpt>
      <trkpt lat="57.09087" lon="-5.87113">
        <ele>19.11</ele>
        <time>2021-03-20T18:27:33Z</time>
      </trkpt>
      <trkpt lat="57.09282" lon="-5.86953">
        <ele>23.12</ele>
        <time>2021-03-20T18:27:48Z</time>
      </trkpt>
      <trkpt lat="57.09357" lon="-5.86909">
        <ele>25.42</ele>
        <time>2021-03-20T18:28:03Z</time>
      </trkpt>
      <trkpt lat="57.09427" lon="-5.86852">
        <ele>31.13</ele>
        <time>2021-03-20T18:28:18Z</time>
      </trkpt>
      <trkpt lat="57.09447" lon="-5.86828">
        <ele>33.09</ele>
        <time>2021-03-20T18:28:33Z</time>
      </trkpt>
      <trkpt lat="57.09471" lon="-5.86787">
        <ele>35.11</ele>
        <time>2021-03-20T18:28:49Z</time>
      </trkpt>
      <trkpt lat="57.09501" lon="-5.86762">
        <ele>38.51</ele>
        <time>2021-03-20T18:29:04Z</time>
      </trkpt>
      <trkpt lat="57.09533" lon="-5.86753">
        <ele>41.63</ele>
        <time>2021-03-20T18:29:19Z</time>
      </trkpt>
      <trkpt lat="57.09637" lon="-5.86772">
        <ele>44.87</ele>
        <time>2021-03-20T18:29:34Z</time>
      </trkpt>
      <trkpt lat="57.09675" lon="-5.8677">
        <ele>44.07</ele>
        <time>2021-03-20T18:29:49Z</time>
      </trkpt>
      <trkpt lat="57.09728" lon="-5.86743">
        <ele>41.14</ele>
        <time>2021-03-20T18:30:04Z</time>
      </trkpt>
      <trkpt lat="57.09787" lon="-5.86702">
        <ele>40.16</ele>
        <time>2021-03-20T18:30:19Z</time>
      </trkpt>
      <trkpt lat="57.09804" lon="-5.86692">
        <ele>40.65</ele>
        <time>2021-03-20T18:30:34Z</time>
      </trkpt>
      <trkpt lat="57.09844" lon="-5.86645">
        <ele>37.07</ele>
        <time>2021-03-20T18:30:49Z</time>
      </trkpt>
      <trkpt lat="57.09895" lon="-5.86559">
        <ele>32.33</ele>
        <time>2021-03-20T18:31:05Z</time>
      </trkpt>
      <trkpt lat="57.09925" lon="-5.8652">
        <ele>34.29</ele>
        <time>2021-03-20T18:31:20Z</time>
      </trkpt>
      <trkpt lat="57.10007" lon="-5.86429">
        <ele>33.04</ele>
        <time>2021-03-20T18:31:35Z</time>
      </trkpt>
      <trkpt lat="57.10075" lon="-5.86338">
        <ele>31.79</ele>
        <time>2021-03-20T18:31:50Z</time>
      </trkpt>
      <trkpt lat="57.10147" lon="-5.8625">
        <ele>29.25</ele>
        <time>2021-03-20T18:32:05Z</time>
      </trkpt>
      <trkpt lat="57.1024" lon="-5.86182">
        <ele>30.39</ele>
        <time>2021-03-20T18:32:20Z</time>
      </trkpt>
      <trkpt lat="57.10264" lon="-5.86161">
        <ele>30.32</ele>
        <time>2021-03-20T18:32:35Z</time>
      </trkpt>
      <trkpt lat="57.10281" lon="-5.86134">
        <ele>28.98</ele>
        <time>2021-03-20T18:32:50Z</time>
      </trkpt>
      <trkpt lat="57.10333" lon="-5.86069">
        <ele>27.85</ele>
        <time>2021-03-20T18:33:05Z</time>
      </trkpt>
      <trkpt lat="57.10362" lon="-5.86024">
        <ele>26.69</ele>
        <time>2021-03-20T18:33:20Z</time>
      </trkpt>
      <trkpt lat="57.10375" lon="-5.85992">
        <ele>25.81</ele>
        <time>2021-03-20T18:33:36Z</time>
      </trkpt>
      <trkpt lat="57.10383" lon="-5.85939">
        <ele>25.88</ele>
        <time>2021-03-20T18:33:51Z</time>
      </trkpt>
      <trkpt lat="57.10396" lon="-5.8589">
        <ele>27.23</ele>
        <time>2021-03-20T18:34:06Z</time>
      </trkpt>
      <trkpt lat="57.10415" lon="-5.85854">
        <ele>29.18</ele>
        <time>2021-03-20T18:34:21Z</time>
      </trkpt>
      <trkpt lat="57.10439" lon="-5.85834">
        <ele>29.63</ele>
        <time>2021-03-20T18:34:36Z</time>
      </trkpt>
      <trkpt lat="57.10485" lon="-5.85806">
        <ele>29.5</ele>
        <time>2021-03-20T18:34:51Z</time>
      </trkpt>
      <trkpt lat="57.10555" lon="-5.85794">
        <ele>25.76</ele>
        <time>2021-03-20T18:35:06Z</time>
      </trkpt>
      <trkpt lat="57.10612" lon="-5.85757">
        <ele>25.51</ele>
        <time>2021-03-20T18:35:21Z</time>
      </trkpt>
      <trkpt lat="57.10662" lon="-5.8572">
        <ele>24.51</ele>
        <time>2021-03-20T18:35:36Z</time>
      </trkpt>
      <trkpt lat="57.1072" lon="-5.85657">
        <ele>22.9</ele>
        <time>2021-03-20T18:35:52Z</time>
      </trkpt>
      <trkpt lat="57.10748" lon="-5.8563">
        <ele>20.03</ele>
        <time>2021-03-20T18:36:07Z</time>
      </trkpt>
      <trkpt lat="57.10767" lon="-5.85618">
        <ele>19.97</ele>
        <time>2021-03-20T18:36:22Z</time>
      </trkpt>
      <trkpt lat="57.10784" lon="-5.85612">
        <ele>20.35</ele>
        <time>2021-03-20T18:36:37Z</time>
      </trkpt>
      <trkpt lat="57.1081" lon="-5.85614">
        <ele>20.81</ele>
        <time>2021-03-20T18:36:52Z</time>
      </trkpt>
      <trkpt lat="57.10834" lon="-5.8562">
        <ele>19.64</ele>
        <time>2021-03-20T18:37:07Z</time>
      </trkpt>
      <trkpt lat="57.1088" lon="-5.85647">
        <ele>20.59</ele>
        <time>2021-03-20T18:37:22Z</time>
      </trkpt>
      <trkpt lat="57.10894" lon="-5.85651">
        <ele>19.98</ele>
        <time>2021-03-20T18:37:37Z</time>
      </trkpt>
      <trkpt lat="57.1091" lon="-5.85652">
        <ele>18.87</ele>
        <time>2021-03-20T18:37:52Z</time>
      </trkpt>
      <trkpt lat="57.10925" lon="-5.85648">
        <ele>18.55</ele>
        <time>2021-03-20T18:38:08Z</time>
      </trkpt>
      <trkpt lat="57.10937" lon="-5.85641">
        <ele>18.68</ele>
        <time>2021-03-20T18:38:23Z</time>
      </trkpt>
      <trkpt lat="57.10961" lon="-5.85615">
        <ele>19.44</ele>
        <time>2021-03-20T18:38:38Z</time>
      </trkpt>
      <trkpt lat="57.11001" lon="-5.85545">
        <ele>18.12</ele>
        <time>2021-03-20T18:38:53Z</time>
      </trkpt>
      <trkpt lat="57.11034" lon="-5.85498">
        <ele>17.53</ele>
        <time>2021-03-20T18:39:08Z</time>
      </trkpt>
      <trkpt lat="57.11062" lon="-5.85473">
        <ele>17.75</ele>
        <time>2021-03-20T18:39:23Z</time>
      </trkpt>
      <trkpt lat="57.11144" lon="-5.85426">
        <ele>18.34</ele>
        <time>2021-03-20T18:39:38Z</time>
      </trkpt>
      <trkpt lat="57.11272" lon="-5.85302">
        <ele>16.44</ele>
        <time>2021-03-20T18:39:53Z</time>
      </trkpt>
      <trkpt lat="57.11295" lon="-5.85265">
        <ele>17.89</ele>
        <time>2021-03-20T18:40:08Z</time>
      </trkpt>
      <trkpt lat="57.11336" lon="-5.85146">
        <ele>20.5</ele>
        <time>2021-03-20T18:40:24Z</time>
      </trkpt>
      <trkpt lat="57.11374" lon="-5.85049">
        <ele>24.33</ele>
        <time>2021-03-20T18:40:39Z</time>
      </trkpt>
      <trkpt lat="57.11406" lon="-5.8498">
        <ele>25.11</ele>
        <time>2021-03-20T18:40:54Z</time>
      </trkpt>
      <trkpt lat="57.11444" lon="-5.84919">
        <ele>25.12</ele>
        <time>2021-03-20T18:41:09Z</time>
      </trkpt>
      <trkpt lat="57.11539" lon="-5.84778">
        <ele>32.5</ele>
        <time>2021-03-20T18:41:24Z</time>
      </trkpt>
      <trkpt lat="57.11576" lon="-5.84739">
        <ele>33.31</ele>
        <time>2021-03-20T18:41:39Z</time>
      </trkpt>
      <trkpt lat="57.11633" lon="-5.8469">
        <ele>33.08</ele>
        <time>2021-03-20T18:41:54Z</time>
      </trkpt>
      <trkpt lat="57.11667" lon="-5.84679">
        <ele>32.71</ele>
        <time>2021-03-20T18:42:09Z</time>
      </trkpt>
      <trkpt lat="57.11689" lon="-5.84675">
        <ele>32.16</ele>
        <time>2021-03-20T18:42:24Z</time>
      </trkpt>
      <trkpt lat="57.11812" lon="-5.84669">
        <ele>35.19</ele>
        <time>2021-03-20T18:42:40Z</time>
      </trkpt>
      <trkpt lat="57.11889" lon="-5.84641">
        <ele>36.11</ele>
        <time>2021-03-20T18:42:55Z</time>
      </trkpt>
      <trkpt lat="57.11922" lon="-5.84643">
        <ele>38.79</ele>
        <time>2021-03-20T18:43:10Z</time>
      </trkpt>
      <trkpt lat="57.12141" lon="-5.84719">
        <ele>53.93</ele>
        <time>2021-03-20T18:43:25Z</time>
      </trkpt>
      <trkpt lat="57.1223" lon="-5.84714">
        <ele>58.24</ele>
        <time>2021-03-20T18:43:40Z</time>
      </trkpt>
      <trkpt lat="57.12263" lon="-5.84707">
        <ele>57.46</ele>
        <time>2021-03-20T18:43:55Z</time>
      </trkpt>
      <trkpt lat="57.12297" lon="-5.84693">
        <ele>59.05</ele>
        <time>2021-03-20T18:44:10Z</time>
      </trkpt>
      <trkpt lat="57.12357" lon="-5.84658">
        <ele>63.44</ele>
        <time>2021-03-20T18:44:25Z</time>
      </trkpt>
      <trkpt lat="57.12446" lon="-5.84632">
        <ele>64.54</ele>
        <time>2021-03-20T18:44:40Z</time>
      </trkpt>
      <trkpt lat="57.1248" lon="-5.84607">
        <ele>64.89</ele>
        <time>2021-03-20T18:44:56Z</time>
      </trkpt>
      <trkpt lat="57.12504" lon="-5.84572">
        <ele>67</ele>
        <time>2021-03-20T18:45:11Z</time>
      </trkpt>
      <trkpt lat="57.12561" lon="-5.84419">
        <ele>72.64</ele>
        <time>2021-03-20T18:45:26Z</time>
      </trkpt>
      <trkpt lat="57.12585" lon="-5.84388">
        <ele>73.04</ele>
        <time>2021-03-20T18:45:41Z</time>
      </trkpt>
      <trkpt lat="57.12617" lon="-5.8437">
        <ele>74.39</ele>
        <time>2021-03-20T18:45:56Z</time>
      </trkpt>
      <trkpt lat="57.12687" lon="-5.84356">
        <ele>76.14</ele>
        <time>2021-03-20T18:46:11Z</time>
      </trkpt>
      <trkpt lat="57.12755" lon="-5.84318">
        <ele>75.12</ele>
        <time>2021-03-20T18:46:26Z</time>
      </trkpt>
      <trkpt lat="57.1291" lon="-5.84198">
        <ele>82.09</ele>
        <time>2021-03-20T18:46:41Z</time>
      </trkpt>
      <trkpt lat="57.13086" lon="-5.8401">
        <ele>86.2</ele>
        <time>2021-03-20T18:46:56Z</time>
      </trkpt>
      <trkpt lat="57.13405" lon="-5.83654">
        <ele>68.42</ele>
        <time>2021-03-20T18:47:11Z</time>
      </trkpt>
      <trkpt lat="57.1355" lon="-5.83481">
        <ele>58.44</ele>
        <time>2021-03-20T18:47:27Z</time>
      </trkpt>
      <trkpt lat="57.13813" lon="-5.83131">
        <ele>54.97</ele>
        <time>2021-03-20T18:47:42Z</time>
      </trkpt>
      <trkpt lat="57.13871" lon="-5.83043">
        <ele>56.26</ele>
        <time>2021-03-20T18:47:57Z</time>
      </trkpt>
      <trkpt lat="57.13925" lon="-5.82955">
        <ele>48.35</ele>
        <time>2021-03-20T18:48:12Z</time>
      </trkpt>
      <trkpt lat="57.13968" lon="-5.8286">
        <ele>48.48</ele>
        <time>2021-03-20T18:48:27Z</time>
      </trkpt>
      <trkpt lat="57.13991" lon="-5.828">
        <ele>47.25</ele>
        <time>2021-03-20T18:48:42Z</time>
      </trkpt>
      <trkpt lat="57.14015" lon="-5.82729">
        <ele>44.89</ele>
        <time>2021-03-20T18:48:57Z</time>
      </trkpt>
      <trkpt lat="57.14063" lon="-5.8257">
        <ele>49.15</ele>
        <time>2021-03-20T18:49:12Z</time>
      </trkpt>
      <trkpt lat="57.14101" lon="-5.82463">
        <ele>50.15</ele>
        <time>2021-03-20T18:49:27Z</time>
      </trkpt>
      <trkpt lat="57.14152" lon="-5.82356">
        <ele>38.88</ele>
        <time>2021-03-20T18:49:43Z</time>
      </trkpt>
      <trkpt lat="57.14191" lon="-5.82285">
        <ele>36.91</ele>
        <time>2021-03-20T18:49:58Z</time>
      </trkpt>
      <trkpt lat="57.14257" lon="-5.82179">
        <ele>39.3</ele>
        <time>2021-03-20T18:50:13Z</time>
      </trkpt>
      <trkpt lat="57.14313" lon="-5.82054">
        <ele>35.67</ele>
        <time>2021-03-20T18:50:28Z</time>
      </trkpt>
      <trkpt lat="57.14394" lon="-5.81848">
        <ele>32.72</ele>
        <time>2021-03-20T18:50:43Z</time>
      </trkpt>
      <trkpt lat="57.1443" lon="-5.81748">
        <ele>31.42</ele>
        <time>2021-03-20T18:50:58Z</time>
      </trkpt>
      <trkpt lat="57.14471" lon="-5.81628">
        <ele>30.51</ele>
        <time>2021-03-20T18:51:13Z</time>
      </trkpt>
      <trkpt lat="57.1448" lon="-5.81591">
        <ele>30.29</ele>
        <time>2021-03-20T18:51:28Z</time>
      </trkpt>
      <trkpt lat="57.14491" lon="-5.81532">
        <ele>31.33</ele>
        <time>2021-03-20T18:51:43Z</time>
      </trkpt>
      <trkpt lat="57.14499" lon="-5.81472">
        <ele>31.91</ele>
        <time>2021-03-20T18:51:59Z</time>
      </trkpt>
      <trkpt lat="57.14509" lon="-5.8121">
        <ele>30.03</ele>
        <time>2021-03-20T18:52:14Z</time>
      </trkpt>
      <trkpt lat="57.14516" lon="-5.81156">
        <ele>28.78</ele>
        <time>2021-03-20T18:52:29Z</time>
      </trkpt>
      <trkpt lat="57.14543" lon="-5.8105">
        <ele>27.32</ele>
        <time>2021-03-20T18:52:44Z</time>
      </trkpt>
      <trkpt lat="57.1459" lon="-5.80898">
        <ele>21.57</ele>
        <time>2021-03-20T18:52:59Z</time>
      </trkpt>
      <trkpt lat="57.14644" lon="-5.80766">
        <ele>19.13</ele>
        <time>2021-03-20T18:53:14Z</time>
      </trkpt>
      <trkpt lat="57.14677" lon="-5.80696">
        <ele>18.28</ele>
        <time>2021-03-20T18:53:29Z</time>
      </trkpt>
      <trkpt lat="57.14708" lon="-5.80627">
        <ele>15.22</ele>
        <time>2021-03-20T18:53:44Z</time>
      </trkpt>
      <trkpt lat="57.14732" lon="-5.80585">
        <ele>12.5</ele>
        <time>2021-03-20T18:53:59Z</time>
      </trkpt>
      <trkpt lat="57.14746" lon="-5.80568">
        <ele>11.22</ele>
        <time>2021-03-20T18:54:15Z</time>
      </trkpt>
      <trkpt lat="57.14764" lon="-5.80551">
        <ele>11.81</ele>
        <time>2021-03-20T18:54:30Z</time>
      </trkpt>
      <trkpt lat="57.14782" lon="-5.8054">
        <ele>14.01</ele>
        <time>2021-03-20T18:54:45Z</time>
      </trkpt>
      <trkpt lat="57.14879" lon="-5.805">
        <ele>18.3</ele>
        <time>2021-03-20T18:55:00Z</time>
      </trkpt>
      <trkpt lat="57.14927" lon="-5.80476">
        <ele>20.74</ele>
        <time>2021-03-20T18:55:15Z</time>
      </trkpt>
      <trkpt lat="57.14957" lon="-5.80445">
        <ele>22.77</ele>
        <time>2021-03-20T18:55:30Z</time>
      </trkpt>
      <trkpt lat="57.14985" lon="-5.80397">
        <ele>23.59</ele>
        <time>2021-03-20T18:55:45Z</time>
      </trkpt>
      <trkpt lat="57.15044" lon="-5.80268">
        <ele>27.18</ele>
        <time>2021-03-20T18:56:00Z</time>
      </trkpt>
      <trkpt lat="57.15071" lon="-5.80223">
        <ele>27.74</ele>
        <time>2021-03-20T18:56:15Z</time>
      </trkpt>
      <trkpt lat="57.15092" lon="-5.80202">
        <ele>28.59</ele>
        <time>2021-03-20T18:56:31Z</time>
      </trkpt>
      <trkpt lat="57.15119" lon="-5.80188">
        <ele>28.2</ele>
        <time>2021-03-20T18:56:46Z</time>
      </trkpt>
      <trkpt lat="57.15424" lon="-5.80065">
        <ele>27.19</ele>
        <time>2021-03-20T18:57:01Z</time>
      </trkpt>
      <trkpt lat="57.15455" lon="-5.80059">
        <ele>28.98</ele>
        <time>2021-03-20T18:57:16Z</time>
      </trkpt>
      <trkpt lat="57.15481" lon="-5.80061">
        <ele>31.07</ele>
        <time>2021-03-20T18:57:31Z</time>
      </trkpt>
      <trkpt lat="57.15502" lon="-5.8007">
        <ele>33.58</ele>
        <time>2021-03-20T18:57:46Z</time>
      </trkpt>
      <trkpt lat="57.15548" lon="-5.80108">
        <ele>33.91</ele>
        <time>2021-03-20T18:58:01Z</time>
      </trkpt>
      <trkpt lat="57.15595" lon="-5.80159">
        <ele>29.33</ele>
        <time>2021-03-20T18:58:16Z</time>
      </trkpt>
      <trkpt lat="57.15639" lon="-5.80189">
        <ele>28.59</ele>
        <time>2021-03-20T18:58:31Z</time>
      </trkpt>
      <trkpt lat="57.15656" lon="-5.80192">
        <ele>28.79</ele>
        <time>2021-03-20T18:58:47Z</time>
      </trkpt>
      <trkpt lat="57.1571" lon="-5.80186">
        <ele>31.65</ele>
        <time>2021-03-20T18:59:02Z</time>
      </trkpt>
      <trkpt lat="57.15786" lon="-5.80152">
        <ele>30.08</ele>
        <time>2021-03-20T18:59:17Z</time>
      </trkpt>
      <trkpt lat="57.15821" lon="-5.80133">
        <ele>32.92</ele>
        <time>2021-03-20T18:59:32Z</time>
      </trkpt>
      <trkpt lat="57.15852" lon="-5.80113">
        <ele>32.73</ele>
        <time>2021-03-20T18:59:47Z</time>
      </trkpt>
      <trkpt lat="57.15876" lon="-5.80088">
        <ele>32.08</ele>
        <time>2021-03-20T19:00:02Z</time>
      </trkpt>
      <trkpt lat="57.15899" lon="-5.80056">
        <ele>30.16</ele>
        <time>2021-03-20T19:00:17Z</time>
      </trkpt>
      <trkpt lat="57.15927" lon="-5.80003">
        <ele>25.86</ele>
        <time>2021-03-20T19:00:32Z</time>
      </trkpt>
      <trkpt lat="57.15951" lon="-5.79965">
        <ele>25.48</ele>
        <time>2021-03-20T19:00:47Z</time>
      </trkpt>
      <trkpt lat="57.15975" lon="-5.79938">
        <ele>24.24</ele>
        <time>2021-03-20T19:01:02Z</time>
      </trkpt>
      <trkpt lat="57.16" lon="-5.79925">
        <ele>22.58</ele>
        <time>2021-03-20T19:01:18Z</time>
      </trkpt>
      <trkpt lat="57.16032" lon="-5.79923">
        <ele>21.14</ele>
        <time>2021-03-20T19:01:33Z</time>
      </trkpt>
      <trkpt lat="57.16139" lon="-5.79997">
        <ele>18.92</ele>
        <time>2021-03-20T19:01:48Z</time>
      </trkpt>
      <trkpt lat="57.16187" lon="-5.80027">
        <ele>20.23</ele>
        <time>2021-03-20T19:02:03Z</time>
      </trkpt>
      <trkpt lat="57.16223" lon="-5.80033">
        <ele>20.18</ele>
        <time>2021-03-20T19:02:18Z</time>
      </trkpt>
      <trkpt lat="57.16291" lon="-5.80054">
        <ele>20.44</ele>
        <time>2021-03-20T19:02:33Z</time>
      </trkpt>
      <trkpt lat="57.16386" lon="-5.80089">
        <ele>18.65</ele>
        <time>2021-03-20T19:02:48Z</time>
      </trkpt>
      <trkpt lat="57.16746" lon="-5.80327">
        <ele>14.7</ele>
        <time>2021-03-20T19:03:03Z</time>
      </trkpt>
      <trkpt lat="57.16794" lon="-5.80376">
        <ele>14.26</ele>
        <time>2021-03-20T19:03:18Z</time>
      </trkpt>
      <trkpt lat="57.16835" lon="-5.80437">
        <ele>12.94</ele>
        <time>2021-03-20T19:03:34Z</time>
      </trkpt>
      <trkpt lat="57.16915" lon="-5.80493">
        <ele>14.3</ele>
        <time>2021-03-20T19:03:49Z</time>
      </trkpt>
      <trkpt lat="57.16981" lon="-5.80507">
        <ele>13.69</ele>
        <time>2021-03-20T19:04:04Z</time>
      </trkpt>
      <trkpt lat="57.17068" lon="-5.80573">
        <ele>16.17</ele>
        <time>2021-03-20T19:04:19Z</time>
      </trkpt>
      <trkpt lat="57.17473" lon="-5.80995">
        <ele>19.6</ele>
        <time>2021-03-20T19:04:34Z</time>
      </trkpt>
      <trkpt lat="57.17473" lon="-5.80995">
        <ele>19.6</ele>
        <time>2021-03-20T19:04:34Z</time>
      </trkpt>
      <trkpt lat="57.1789" lon="-5.8143">
        <ele>20.43</ele>
        <time>2021-03-20T19:04:42Z</time>
      </trkpt>
      <trkpt lat="57.18106" lon="-5.81647">
        <ele>20.17</ele>
        <time>2021-03-20T19:04:50Z</time>
      </trkpt>
      <trkpt lat="57.18282" lon="-5.81847">
        <ele>16.36</ele>
        <time>2021-03-20T19:04:58Z</time>
      </trkpt>
      <trkpt lat="57.18319" lon="-5.81898">
        <ele>16.67</ele>
        <time>2021-03-20T19:05:06Z</time>
      </trkpt>
      <trkpt lat="57.18365" lon="-5.81955">
        <ele>16.32</ele>
        <time>2021-03-20T19:05:14Z</time>
      </trkpt>
      <trkpt lat="57.18421" lon="-5.82015">
        <ele>15.91</ele>
        <time>2021-03-20T19:05:22Z</time>
      </trkpt>
      <trkpt lat="57.18474" lon="-5.8206">
        <ele>14.8</ele>
        <time>2021-03-20T19:05:29Z</time>
      </trkpt>
      <trkpt lat="57.18528" lon="-5.82088">
        <ele>14</ele>
        <time>2021-03-20T19:05:37Z</time>
      </trkpt>
      <trkpt lat="57.18564" lon="-5.82096">
        <ele>14.82</ele>
        <time>2021-03-20T19:05:45Z</time>
      </trkpt>
      <trkpt lat="57.186" lon="-5.82091">
        <ele>14.1</ele>
        <time>2021-03-20T19:05:53Z</time>
      </trkpt>
      <trkpt lat="57.18639" lon="-5.82074">
        <ele>14</ele>
        <time>2021-03-20T19:06:01Z</time>
      </trkpt>
      <trkpt lat="57.18679" lon="-5.82048">
        <ele>14.43</ele>
        <time>2021-03-20T19:06:09Z</time>
      </trkpt>
      <trkpt lat="57.18749" lon="-5.81977">
        <ele>15.95</ele>
        <time>2021-03-20T19:06:17Z</time>
      </trkpt>
      <trkpt lat="57.19049" lon="-5.81564">
        <ele>22.7</ele>
        <time>2021-03-20T19:06:25Z</time>
      </trkpt>
      <trkpt lat="57.19105" lon="-5.81505">
        <ele>26.62</ele>
        <time>2021-03-20T19:06:33Z</time>
      </trkpt>
      <trkpt lat="57.19161" lon="-5.81461">
        <ele>27.39</ele>
        <time>2021-03-20T19:06:41Z</time>
      </trkpt>
      <trkpt lat="57.19217" lon="-5.81431">
        <ele>29.64</ele>
        <time>2021-03-20T19:06:49Z</time>
      </trkpt>
      <trkpt lat="57.19274" lon="-5.81418">
        <ele>32.74</ele>
        <time>2021-03-20T19:06:56Z</time>
      </trkpt>
      <trkpt lat="57.19326" lon="-5.81416">
        <ele>37.45</ele>
        <time>2021-03-20T19:07:04Z</time>
      </trkpt>
      <trkpt lat="57.19428" lon="-5.81427">
        <ele>44.41</ele>
        <time>2021-03-20T19:07:12Z</time>
      </trkpt>
      <trkpt lat="57.19584" lon="-5.81463">
        <ele>49.74</ele>
        <time>2021-03-20T19:07:20Z</time>
      </trkpt>
      <trkpt lat="57.19689" lon="-5.81484">
        <ele>56.72</ele>
        <time>2021-03-20T19:07:28Z</time>
      </trkpt>
      <trkpt lat="57.19787" lon="-5.81512">
        <ele>62.57</ele>
        <time>2021-03-20T19:07:36Z</time>
      </trkpt>
      <trkpt lat="57.2009" lon="-5.81607">
        <ele>73.92</ele>
        <time>2021-03-20T19:07:44Z</time>
      </trkpt>
      <trkpt lat="57.20125" lon="-5.81623">
        <ele>73.41</ele>
        <time>2021-03-20T19:07:52Z</time>
      </trkpt>
      <trkpt lat="57.20168" lon="-5.81652">
        <ele>71.04</ele>
        <time>2021-03-20T19:08:00Z</time>
      </trkpt>
      <trkpt lat="57.20226" lon="-5.81702">
        <ele>67.61</ele>
        <time>2021-03-20T19:08:08Z</time>
      </trkpt>
      <trkpt lat="57.20267" lon="-5.81749">
        <ele>66.6</ele>
        <time>2021-03-20T19:08:16Z</time>
      </trkpt>
      <trkpt lat="57.20293" lon="-5.81786">
        <ele>67.53</ele>
        <time>2021-03-20T19:08:23Z</time>
      </trkpt>
      <trkpt lat="57.20328" lon="-5.81842">
        <ele>67.68</ele>
        <time>2021-03-20T19:08:31Z</time>
      </trkpt>
      <trkpt lat="57.2052" lon="-5.8222">
        <ele>69.79</ele>
        <time>2021-03-20T19:08:39Z</time>
      </trkpt>
      <trkpt lat="57.20711" lon="-5.82571">
        <ele>62.44</ele>
        <time>2021-03-20T19:08:47Z</time>
      </trkpt>
      <trkpt lat="57.21019" lon="-5.8308">
        <ele>60.5</ele>
        <time>2021-03-20T19:08:55Z</time>
      </trkpt>
      <trkpt lat="57.21321" lon="-5.8353">
        <ele>56.06</ele>
        <time>2021-03-20T19:09:03Z</time>
      </trkpt>
      <trkpt lat="57.21455" lon="-5.83752">
        <ele>60</ele>
        <time>2021-03-20T19:09:11Z</time>
      </trkpt>
      <trkpt lat="57.21536" lon="-5.83865">
        <ele>60.24</ele>
        <time>2021-03-20T19:09:19Z</time>
      </trkpt>
      <trkpt lat="57.21596" lon="-5.83931">
        <ele>61</ele>
        <time>2021-03-20T19:09:27Z</time>
      </trkpt>
      <trkpt lat="57.21681" lon="-5.84011">
        <ele>61.13</ele>
        <time>2021-03-20T19:09:35Z</time>
      </trkpt>
      <trkpt lat="57.21991" lon="-5.84323">
        <ele>62.38</ele>
        <time>2021-03-20T19:09:43Z</time>
      </trkpt>
      <trkpt lat="57.22338" lon="-5.84714">
        <ele>60.64</ele>
        <time>2021-03-20T19:09:50Z</time>
      </trkpt>
      <trkpt lat="57.22615" lon="-5.85063">
        <ele>56.88</ele>
        <time>2021-03-20T19:09:58Z</time>
      </trkpt>
      <trkpt lat="57.22879" lon="-5.85432">
        <ele>52.46</ele>
        <time>2021-03-20T19:10:06Z</time>
      </trkpt>
      <trkpt lat="57.22964" lon="-5.85585">
        <ele>44.92</ele>
        <time>2021-03-20T19:10:14Z</time>
      </trkpt>
      <trkpt lat="57.23029" lon="-5.85772">
        <ele>36.9</ele>
        <time>2021-03-20T19:10:22Z</time>
      </trkpt>
      <trkpt lat="57.23113" lon="-5.861">
        <ele>29</ele>
        <time>2021-03-20T19:10:30Z</time>
      </trkpt>
      <trkpt lat="57.23162" lon="-5.86236">
        <ele>24.5</ele>
        <time>2021-03-20T19:10:38Z</time>
      </trkpt>
      <trkpt lat="57.23235" lon="-5.86395">
        <ele>21</ele>
        <time>2021-03-20T19:10:46Z</time>
      </trkpt>
      <trkpt lat="57.23394" lon="-5.86774">
        <ele>17</ele>
        <time>2021-03-20T19:10:54Z</time>
      </trkpt>
      <trkpt lat="57.23439" lon="-5.86871">
        <ele>17</ele>
        <time>2021-03-20T19:11:02Z</time>
      </trkpt>
      <trkpt lat="57.23475" lon="-5.86956">
        <ele>19.05</ele>
        <time>2021-03-20T19:11:10Z</time>
      </trkpt>
      <trkpt lat="57.23575" lon="-5.87241">
        <ele>20</ele>
        <time>2021-03-20T19:11:17Z</time>
      </trkpt>
      <trkpt lat="57.23586" lon="-5.87265">
        <ele>19.92</ele>
        <time>2021-03-20T19:11:25Z</time>
      </trkpt>
      <trkpt lat="57.23599" lon="-5.87276">
        <ele>19.42</ele>
        <time>2021-03-20T19:11:33Z</time>
      </trkpt>
      <trkpt lat="57.23605" lon="-5.8731">
        <ele>19</ele>
        <time>2021-03-20T19:11:39Z</time>
      </trkpt>
      <trkpt lat="57.23617" lon="-5.8735">
        <ele>18.19</ele>
        <time>2021-03-20T19:11:46Z</time>
      </trkpt>
      <trkpt lat="57.23674" lon="-5.87495">
        <ele>15.72</ele>
        <time>2021-03-20T19:11:52Z</time>
      </trkpt>
      <trkpt lat="57.23687" lon="-5.87543">
        <ele>15.27</ele>
        <time>2021-03-20T19:11:58Z</time>
      </trkpt>
      <trkpt lat="57.23689" lon="-5.87571">
        <ele>15.19</ele>
        <time>2021-03-20T19:12:04Z</time>
      </trkpt>
      <trkpt lat="57.23689" lon="-5.87599">
        <ele>15.19</ele>
        <time>2021-03-20T19:12:10Z</time>
      </trkpt>
      <trkpt lat="57.23673" lon="-5.8783">
        <ele>14</ele>
        <time>2021-03-20T19:12:17Z</time>
      </trkpt>
      <trkpt lat="57.23674" lon="-5.87885">
        <ele>12.78</ele>
        <time>2021-03-20T19:12:23Z</time>
      </trkpt>
      <trkpt lat="57.23679" lon="-5.87914">
        <ele>11.65</ele>
        <time>2021-03-20T19:12:29Z</time>
      </trkpt>
      <trkpt lat="57.23689" lon="-5.87949">
        <ele>11.33</ele>
        <time>2021-03-20T19:12:35Z</time>
      </trkpt>
      <trkpt lat="57.23712" lon="-5.87993">
        <ele>11.35</ele>
        <time>2021-03-20T19:12:41Z</time>
      </trkpt>
      <trkpt lat="57.23759" lon="-5.88053">
        <ele>10.35</ele>
        <time>2021-03-20T19:12:47Z</time>
      </trkpt>
      <trkpt lat="57.23785" lon="-5.8809">
        <ele>8.49</ele>
        <time>2021-03-20T19:12:54Z</time>
      </trkpt>
      <trkpt lat="57.23805" lon="-5.88131">
        <ele>7.03</ele>
        <time>2021-03-20T19:13:00Z</time>
      </trkpt>
      <trkpt lat="57.23817" lon="-5.88165">
        <ele>6.2</ele>
        <time>2021-03-20T19:13:06Z</time>
      </trkpt>
      <trkpt lat="57.23823" lon="-5.8819">
        <ele>6.28</ele>
        <time>2021-03-20T19:13:12Z</time>
      </trkpt>
      <trkpt lat="57.2383" lon="-5.88253">
        <ele>6.11</ele>
        <time>2021-03-20T19:13:18Z</time>
      </trkpt>
      <trkpt lat="57.2383" lon="-5.88304">
        <ele>6.14</ele>
        <time>2021-03-20T19:13:25Z</time>
      </trkpt>
      <trkpt lat="57.23823" lon="-5.88351">
        <ele>5.75</ele>
        <time>2021-03-20T19:13:31Z</time>
      </trkpt>
      <trkpt lat="57.23781" lon="-5.88529">
        <ele>5.69</ele>
        <time>2021-03-20T19:13:37Z</time>
      </trkpt>
      <trkpt lat="57.23772" lon="-5.88573">
        <ele>6.4</ele>
        <time>2021-03-20T19:13:43Z</time>
      </trkpt>
      <trkpt lat="57.23769" lon="-5.88621">
        <ele>7.02</ele>
        <time>2021-03-20T19:13:49Z</time>
      </trkpt>
      <trkpt lat="57.2377" lon="-5.88667">
        <ele>7.54</ele>
        <time>2021-03-20T19:13:56Z</time>
      </trkpt>
      <trkpt lat="57.23786" lon="-5.8884">
        <ele>9.48</ele>
        <time>2021-03-20T19:14:02Z</time>
      </trkpt>
      <trkpt lat="57.23792" lon="-5.88987">
        <ele>8.47</ele>
        <time>2021-03-20T19:14:08Z</time>
      </trkpt>
      <trkpt lat="57.23805" lon="-5.89439">
        <ele>13</ele>
        <time>2021-03-20T19:14:14Z</time>
      </trkpt>
      <trkpt lat="57.23808" lon="-5.89506">
        <ele>12.74</ele>
        <time>2021-03-20T19:14:20Z</time>
      </trkpt>
      <trkpt lat="57.23814" lon="-5.8955">
        <ele>12.28</ele>
        <time>2021-03-20T19:14:26Z</time>
      </trkpt>
      <trkpt lat="57.23819" lon="-5.89573">
        <ele>12.48</ele>
        <time>2021-03-20T19:14:33Z</time>
      </trkpt>
      <trkpt lat="57.23829" lon="-5.89605">
        <ele>12.83</ele>
        <time>2021-03-20T19:14:39Z</time>
      </trkpt>
      <trkpt lat="57.23892" lon="-5.89789">
        <ele>8.4</ele>
        <time>2021-03-20T19:14:45Z</time>
      </trkpt>
      <trkpt lat="57.23911" lon="-5.89837">
        <ele>7.33</ele>
        <time>2021-03-20T19:14:51Z</time>
      </trkpt>
      <trkpt lat="57.23967" lon="-5.89962">
        <ele>8.45</ele>
        <time>2021-03-20T19:14:57Z</time>
      </trkpt>
      <trkpt lat="57.23992" lon="-5.90021">
        <ele>8.72</ele>
        <time>2021-03-20T19:15:04Z</time>
      </trkpt>
      <trkpt lat="57.24033" lon="-5.90162">
        <ele>11.22</ele>
        <time>2021-03-20T19:15:10Z</time>
      </trkpt>
      <trkpt lat="57.24046" lon="-5.90219">
        <ele>10.69</ele>
        <time>2021-03-20T19:15:16Z</time>
      </trkpt>
      <trkpt lat="57.24061" lon="-5.90305">
        <ele>12.12</ele>
        <time>2021-03-20T19:15:22Z</time>
      </trkpt>
      <trkpt lat="57.24072" lon="-5.90383">
        <ele>10.65</ele>
        <time>2021-03-20T19:15:28Z</time>
      </trkpt>
      <trkpt lat="57.24107" lon="-5.9067">
        <ele>11.28</ele>
        <time>2021-03-20T19:15:35Z</time>
      </trkpt>
      <trkpt lat="57.24123" lon="-5.90848">
        <ele>7.07</ele>
        <time>2021-03-20T19:15:41Z</time>
      </trkpt>
      <trkpt lat="57.2413" lon="-5.90911">
        <ele>6.55</ele>
        <time>2021-03-20T19:15:47Z</time>
      </trkpt>
      <trkpt lat="57.2414" lon="-5.90969">
        <ele>5.94</ele>
        <time>2021-03-20T19:15:53Z</time>
      </trkpt>
      <trkpt lat="57.24152" lon="-5.91022">
        <ele>5.97</ele>
        <time>2021-03-20T19:15:59Z</time>
      </trkpt>
      <trkpt lat="57.24178" lon="-5.9111">
        <ele>5.2</ele>
        <time>2021-03-20T19:16:06Z</time>
      </trkpt>
      <trkpt lat="57.242" lon="-5.91173">
        <ele>7.01</ele>
        <time>2021-03-20T19:16:12Z</time>
      </trkpt>
      <trkpt lat="57.24228" lon="-5.9123">
        <ele>7.07</ele>
        <time>2021-03-20T19:16:18Z</time>
      </trkpt>
      <trkpt lat="57.2427" lon="-5.91302">
        <ele>8.7</ele>
        <time>2021-03-20T19:16:24Z</time>
      </trkpt>
      <trkpt lat="57.24263" lon="-5.91312">
        <ele>8.47</ele>
        <time>2021-03-20T19:16:31Z</time>
      </trkpt>
      <trkpt lat="57.24287" lon="-5.91377">
        <ele>8.98</ele>
        <time>2021-03-20T19:16:39Z</time>
      </trkpt>
      <trkpt lat="57.24316" lon="-5.91477">
        <ele>10.26</ele>
        <time>2021-03-20T19:16:46Z</time>
      </trkpt>
      <trkpt lat="57.24368" lon="-5.91715">
        <ele>9.31</ele>
        <time>2021-03-20T19:16:53Z</time>
      </trkpt>
      <trkpt lat="57.24401" lon="-5.9183">
        <ele>11.35</ele>
        <time>2021-03-20T19:17:01Z</time>
      </trkpt>
      <trkpt lat="57.24412" lon="-5.91823">
        <ele>12.48</ele>
        <time>2021-03-20T19:17:08Z</time>
      </trkpt>
      <trkpt lat="57.24429" lon="-5.91921">
        <ele>15.7</ele>
        <time>2021-03-20T19:17:14Z</time>
      </trkpt>
      <trkpt lat="57.24507" lon="-5.92362">
        <ele>23.16</ele>
        <time>2021-03-20T19:17:19Z</time>
      </trkpt>
      <trkpt lat="57.24551" lon="-5.92533">
        <ele>24.31</ele>
        <time>2021-03-20T19:17:25Z</time>
      </trkpt>
      <trkpt lat="57.24576" lon="-5.9261">
        <ele>23.97</ele>
        <time>2021-03-20T19:17:30Z</time>
      </trkpt>
      <trkpt lat="57.24598" lon="-5.92669">
        <ele>23.98</ele>
        <time>2021-03-20T19:17:36Z</time>
      </trkpt>
      <trkpt lat="57.24643" lon="-5.92777">
        <ele>20.38</ele>
        <time>2021-03-20T19:17:41Z</time>
      </trkpt>
      <trkpt lat="57.24974" lon="-5.93351">
        <ele>25.02</ele>
        <time>2021-03-20T19:17:47Z</time>
      </trkpt>
      <trkpt lat="57.25099" lon="-5.93519">
        <ele>25.12</ele>
        <time>2021-03-20T19:17:52Z</time>
      </trkpt>
      <trkpt lat="57.25217" lon="-5.93641">
        <ele>28.76</ele>
        <time>2021-03-20T19:17:58Z</time>
      </trkpt>
      <trkpt lat="57.25663" lon="-5.94">
        <ele>28.14</ele>
        <time>2021-03-20T19:18:03Z</time>
      </trkpt>
      <trkpt lat="57.25791" lon="-5.94118">
        <ele>28.04</ele>
        <time>2021-03-20T19:18:09Z</time>
      </trkpt>
      <trkpt lat="57.25935" lon="-5.94271">
        <ele>32.35</ele>
        <time>2021-03-20T19:18:15Z</time>
      </trkpt>
      <trkpt lat="57.26074" lon="-5.94479">
        <ele>16.2</ele>
        <time>2021-03-20T19:18:20Z</time>
      </trkpt>
      <trkpt lat="57.26231" lon="-5.94771">
        <ele>12.06</ele>
        <time>2021-03-20T19:18:26Z</time>
      </trkpt>
      <trkpt lat="57.26304" lon="-5.95018">
        <ele>11.41</ele>
        <time>2021-03-20T19:18:31Z</time>
      </trkpt>
      <trkpt lat="57.26351" lon="-5.95287">
        <ele>8.24</ele>
        <time>2021-03-20T19:18:37Z</time>
      </trkpt>
      <trkpt lat="57.26361" lon="-5.95331">
        <ele>7.98</ele>
        <time>2021-03-20T19:18:42Z</time>
      </trkpt>
      <trkpt lat="57.26455" lon="-5.95696">
        <ele>10.23</ele>
        <time>2021-03-20T19:18:48Z</time>
      </trkpt>
      <trkpt lat="57.26563" lon="-5.96082">
        <ele>13.67</ele>
        <time>2021-03-20T19:18:53Z</time>
      </trkpt>
      <trkpt lat="57.26825" lon="-5.96893">
        <ele>8.89</ele>
        <time>2021-03-20T19:18:59Z</time>
      </trkpt>
      <trkpt lat="57.26855" lon="-5.9701">
        <ele>8.65</ele>
        <time>2021-03-20T19:19:04Z</time>
      </trkpt>
      <trkpt lat="57.26873" lon="-5.97129">
        <ele>11.43</ele>
        <time>2021-03-20T19:19:10Z</time>
      </trkpt>
      <trkpt lat="57.26884" lon="-5.97276">
        <ele>10.27</ele>
        <time>2021-03-20T19:19:16Z</time>
      </trkpt>
      <trkpt lat="57.26885" lon="-5.9739">
        <ele>12.51</ele>
        <time>2021-03-20T19:19:21Z</time>
      </trkpt>
      <trkpt lat="57.26879" lon="-5.97446">
        <ele>12.3</ele>
        <time>2021-03-20T19:19:27Z</time>
      </trkpt>
      <trkpt lat="57.26864" lon="-5.97511">
        <ele>10.03</ele>
        <time>2021-03-20T19:19:32Z</time>
      </trkpt>
      <trkpt lat="57.26851" lon="-5.97553">
        <ele>8.48</ele>
        <time>2021-03-20T19:19:38Z</time>
      </trkpt>
      <trkpt lat="57.2678" lon="-5.97683">
        <ele>5.28</ele>
        <time>2021-03-20T19:19:43Z</time>
      </trkpt>
      <trkpt lat="57.26759" lon="-5.97726">
        <ele>5.92</ele>
        <time>2021-03-20T19:19:49Z</time>
      </trkpt>
      <trkpt lat="57.2674" lon="-5.9779">
        <ele>7.36</ele>
        <time>2021-03-20T19:19:54Z</time>
      </trkpt>
      <trkpt lat="57.26727" lon="-5.97856">
        <ele>7.53</ele>
        <time>2021-03-20T19:20:00Z</time>
      </trkpt>
      <trkpt lat="57.2672" lon="-5.97935">
        <ele>9.34</ele>
        <time>2021-03-20T19:20:05Z</time>
      </trkpt>
      <trkpt lat="57.26727" lon="-5.98049">
        <ele>11.35</ele>
        <time>2021-03-20T19:20:11Z</time>
      </trkpt>
      <trkpt lat="57.26751" lon="-5.9829">
        <ele>7.35</ele>
        <time>2021-03-20T19:20:17Z</time>
      </trkpt>
      <trkpt lat="57.26769" lon="-5.98407">
        <ele>7.88</ele>
        <time>2021-03-20T19:20:22Z</time>
      </trkpt>
      <trkpt lat="57.26794" lon="-5.98476">
        <ele>7.88</ele>
        <time>2021-03-20T19:20:28Z</time>
      </trkpt>
      <trkpt lat="57.26853" lon="-5.98597">
        <ele>10.79</ele>
        <time>2021-03-20T19:20:33Z</time>
      </trkpt>
      <trkpt lat="57.26957" lon="-5.98801">
        <ele>7.18</ele>
        <time>2021-03-20T19:20:39Z</time>
      </trkpt>
      <trkpt lat="57.26978" lon="-5.98867">
        <ele>7</ele>
        <time>2021-03-20T19:20:44Z</time>
      </trkpt>
      <trkpt lat="57.26994" lon="-5.98931">
        <ele>7.21</ele>
        <time>2021-03-20T19:20:50Z</time>
      </trkpt>
      <trkpt lat="57.27002" lon="-5.98998">
        <ele>7.83</ele>
        <time>2021-03-20T19:20:55Z</time>
      </trkpt>
      <trkpt lat="57.27003" lon="-5.99068">
        <ele>7.2</ele>
        <time>2021-03-20T19:21:01Z</time>
      </trkpt>
      <trkpt lat="57.27" lon="-5.99245">
        <ele>7.04</ele>
        <time>2021-03-20T19:21:06Z</time>
      </trkpt>
      <trkpt lat="57.27" lon="-5.99323">
        <ele>7.06</ele>
        <time>2021-03-20T19:21:12Z</time>
      </trkpt>
      <trkpt lat="57.27006" lon="-5.99385">
        <ele>6.54</ele>
        <time>2021-03-20T19:21:17Z</time>
      </trkpt>
      <trkpt lat="57.27014" lon="-5.99426">
        <ele>6</ele>
        <time>2021-03-20T19:21:23Z</time>
      </trkpt>
      <trkpt lat="57.27039" lon="-5.99502">
        <ele>6.27</ele>
        <time>2021-03-20T19:21:29Z</time>
      </trkpt>
      <trkpt lat="57.27114" lon="-5.99658">
        <ele>8.4</ele>
        <time>2021-03-20T19:21:34Z</time>
      </trkpt>
      <trkpt lat="57.27207" lon="-5.99799">
        <ele>8.21</ele>
        <time>2021-03-20T19:21:40Z</time>
      </trkpt>
      <trkpt lat="57.27296" lon="-5.9996">
        <ele>11.23</ele>
        <time>2021-03-20T19:21:45Z</time>
      </trkpt>
      <trkpt lat="57.27318" lon="-5.99986">
        <ele>10.69</ele>
        <time>2021-03-20T19:21:51Z</time>
      </trkpt>
      <trkpt lat="57.27415" lon="-6.00053">
        <ele>10.93</ele>
        <time>2021-03-20T19:21:56Z</time>
      </trkpt>
      <trkpt lat="57.27451" lon="-6.00089">
        <ele>11.11</ele>
        <time>2021-03-20T19:22:02Z</time>
      </trkpt>
      <trkpt lat="57.27509" lon="-6.00169">
        <ele>13.31</ele>
        <time>2021-03-20T19:22:07Z</time>
      </trkpt>
      <trkpt lat="57.27583" lon="-6.0028">
        <ele>17.4</ele>
        <time>2021-03-20T19:22:13Z</time>
      </trkpt>
      <trkpt lat="57.27619" lon="-6.00339">
        <ele>20.73</ele>
        <time>2021-03-20T19:22:18Z</time>
      </trkpt>
      <trkpt lat="57.2765" lon="-6.00406">
        <ele>20.95</ele>
        <time>2021-03-20T19:22:24Z</time>
      </trkpt>
      <trkpt lat="57.27689" lon="-6.00504">
        <ele>24.05</ele>
        <time>2021-03-20T19:22:30Z</time>
      </trkpt>
      <trkpt lat="57.27731" lon="-6.00589">
        <ele>25.76</ele>
        <time>2021-03-20T19:22:35Z</time>
      </trkpt>
      <trkpt lat="57.27972" lon="-6.00938">
        <ele>20.73</ele>
        <time>2021-03-20T19:22:41Z</time>
      </trkpt>
      <trkpt lat="57.28176" lon="-6.01273">
        <ele>17.99</ele>
        <time>2021-03-20T19:22:46Z</time>
      </trkpt>
      <trkpt lat="57.28347" lon="-6.01462">
        <ele>20.49</ele>
        <time>2021-03-20T19:22:52Z</time>
      </trkpt>
      <trkpt lat="57.28407" lon="-6.01535">
        <ele>22.76</ele>
        <time>2021-03-20T19:22:57Z</time>
      </trkpt>
      <trkpt lat="57.28489" lon="-6.01667">
        <ele>23.89</ele>
        <time>2021-03-20T19:23:03Z</time>
      </trkpt>
      <trkpt lat="57.2859" lon="-6.01876">
        <ele>25.33</ele>
        <time>2021-03-20T19:23:08Z</time>
      </trkpt>
      <trkpt lat="57.28603" lon="-6.01905">
        <ele>25.63</ele>
        <time>2021-03-20T19:23:14Z</time>
      </trkpt>
      <trkpt lat="57.28624" lon="-6.01964">
        <ele>24.37</ele>
        <time>2021-03-20T19:23:19Z</time>
      </trkpt>
      <trkpt lat="57.28634" lon="-6.02008">
        <ele>24.09</ele>
        <time>2021-03-20T19:23:25Z</time>
      </trkpt>
      <trkpt lat="57.28642" lon="-6.02053">
        <ele>24.52</ele>
        <time>2021-03-20T19:23:31Z</time>
      </trkpt>
      <trkpt lat="57.28652" lon="-6.02165">
        <ele>22.56</ele>
        <time>2021-03-20T19:23:36Z</time>
      </trkpt>
      <trkpt lat="57.2866" lon="-6.02275">
        <ele>21.13</ele>
        <time>2021-03-20T19:23:42Z</time>
      </trkpt>
      <trkpt lat="57.28661" lon="-6.02311">
        <ele>22.05</ele>
        <time>2021-03-20T19:23:47Z</time>
      </trkpt>
      <trkpt lat="57.28659" lon="-6.02349">
        <ele>22.26</ele>
        <time>2021-03-20T19:23:53Z</time>
      </trkpt>
      <trkpt lat="57.28655" lon="-6.02385">
        <ele>22.69</ele>
        <time>2021-03-20T19:23:58Z</time>
      </trkpt>
      <trkpt lat="57.2865" lon="-6.02415">
        <ele>21.92</ele>
        <time>2021-03-20T19:24:04Z</time>
      </trkpt>
      <trkpt lat="57.28632" lon="-6.02478">
        <ele>19.51</ele>
        <time>2021-03-20T19:24:09Z</time>
      </trkpt>
      <trkpt lat="57.28618" lon="-6.02513">
        <ele>18.68</ele>
        <time>2021-03-20T19:24:15Z</time>
      </trkpt>
      <trkpt lat="57.28567" lon="-6.02626">
        <ele>14.07</ele>
        <time>2021-03-20T19:24:20Z</time>
      </trkpt>
      <trkpt lat="57.28525" lon="-6.02755">
        <ele>11.35</ele>
        <time>2021-03-20T19:24:26Z</time>
      </trkpt>
      <trkpt lat="57.28427" lon="-6.03104">
        <ele>14.73</ele>
        <time>2021-03-20T19:24:32Z</time>
      </trkpt>
      <trkpt lat="57.2828" lon="-6.03543">
        <ele>9.04</ele>
        <time>2021-03-20T19:24:37Z</time>
      </trkpt>
      <trkpt lat="57.28233" lon="-6.03641">
        <ele>7.33</ele>
        <time>2021-03-20T19:24:43Z</time>
      </trkpt>
      <trkpt lat="57.28186" lon="-6.03703">
        <ele>6.88</ele>
        <time>2021-03-20T19:24:48Z</time>
      </trkpt>
      <trkpt lat="57.28042" lon="-6.03809">
        <ele>5.22</ele>
        <time>2021-03-20T19:24:54Z</time>
      </trkpt>
      <trkpt lat="57.28007" lon="-6.0385">
        <ele>6.38</ele>
        <time>2021-03-20T19:24:59Z</time>
      </trkpt>
      <trkpt lat="57.27923" lon="-6.03971">
        <ele>7.64</ele>
        <time>2021-03-20T19:25:05Z</time>
      </trkpt>
      <trkpt lat="57.27865" lon="-6.04037">
        <ele>8.41</ele>
        <time>2021-03-20T19:25:10Z</time>
      </trkpt>
      <trkpt lat="57.27786" lon="-6.04105">
        <ele>9.82</ele>
        <time>2021-03-20T19:25:16Z</time>
      </trkpt>
      <trkpt lat="57.27716" lon="-6.04175">
        <ele>7.39</ele>
        <time>2021-03-20T19:25:21Z</time>
      </trkpt>
      <trkpt lat="57.27684" lon="-6.04216">
        <ele>4.76</ele>
        <time>2021-03-20T19:25:27Z</time>
      </trkpt>
      <trkpt lat="57.27669" lon="-6.04193">
        <ele>6.13</ele>
        <time>2021-03-20T19:25:29Z</time>
      </trkpt>
      <trkpt lat="57.27565" lon="-6.04218">
        <ele>5.79</ele>
        <time>2021-03-20T19:25:31Z</time>
      </trkpt>
      <trkpt lat="57.27536" lon="-6.04232">
        <ele>5.66</ele>
        <time>2021-03-20T19:25:33Z</time>
      </trkpt>
      <trkpt lat="57.27511" lon="-6.04264">
        <ele>6.18</ele>
        <time>2021-03-20T19:25:36Z</time>
      </trkpt>
      <trkpt lat="57.275" lon="-6.04283">
        <ele>7.21</ele>
        <time>2021-03-20T19:25:38Z</time>
      </trkpt>
      <trkpt lat="57.27492" lon="-6.04299">
        <ele>8.05</ele>
        <time>2021-03-20T19:25:40Z</time>
      </trkpt>
      <trkpt lat="57.27487" lon="-6.04319">
        <ele>8.46</ele>
        <time>2021-03-20T19:25:42Z</time>
      </trkpt>
      <trkpt lat="57.2749" lon="-6.04343">
        <ele>8.81</ele>
        <time>2021-03-20T19:25:44Z</time>
      </trkpt>
      <trkpt lat="57.27498" lon="-6.04367">
        <ele>9.33</ele>
        <time>2021-03-20T19:25:46Z</time>
      </trkpt>
      <trkpt lat="57.27566" lon="-6.04502">
        <ele>13.06</ele>
        <time>2021-03-20T19:25:48Z</time>
      </trkpt>
      <trkpt lat="57.27595" lon="-6.04569">
        <ele>16.28</ele>
        <time>2021-03-20T19:25:50Z</time>
      </trkpt>
      <trkpt lat="57.27626" lon="-6.04732">
        <ele>22.71</ele>
        <time>2021-03-20T19:25:53Z</time>
      </trkpt>
      <trkpt lat="57.27634" lon="-6.04791">
        <ele>22.34</ele>
        <time>2021-03-20T19:25:55Z</time>
      </trkpt>
      <trkpt lat="57.27638" lon="-6.04848">
        <ele>23.63</ele>
        <time>2021-03-20T19:25:57Z</time>
      </trkpt>
      <trkpt lat="57.27638" lon="-6.04892">
        <ele>25.28</ele>
        <time>2021-03-20T19:25:59Z</time>
      </trkpt>
      <trkpt lat="57.2763" lon="-6.04952">
        <ele>26.73</ele>
        <time>2021-03-20T19:26:01Z</time>
      </trkpt>
      <trkpt lat="57.27609" lon="-6.05059">
        <ele>28.24</ele>
        <time>2021-03-20T19:26:03Z</time>
      </trkpt>
      <trkpt lat="57.27588" lon="-6.05144">
        <ele>28.32</ele>
        <time>2021-03-20T19:26:05Z</time>
      </trkpt>
      <trkpt lat="57.27549" lon="-6.05268">
        <ele>24.58</ele>
        <time>2021-03-20T19:26:07Z</time>
      </trkpt>
      <trkpt lat="57.27547" lon="-6.05279">
        <ele>24.1</ele>
        <time>2021-03-20T19:26:10Z</time>
      </trkpt>
      <trkpt lat="57.27554" lon="-6.05303">
        <ele>20.52</ele>
        <time>2021-03-20T19:26:12Z</time>
      </trkpt>
      <trkpt lat="57.27521" lon="-6.05402">
        <ele>19.91</ele>
        <time>2021-03-20T19:26:17Z</time>
      </trkpt>
      <trkpt lat="57.27484" lon="-6.05495">
        <ele>18.77</ele>
        <time>2021-03-20T19:26:23Z</time>
      </trkpt>
      <trkpt lat="57.27398" lon="-6.05757">
        <ele>22.36</ele>
        <time>2021-03-20T19:26:28Z</time>
      </trkpt>
      <trkpt lat="57.27364" lon="-6.05853">
        <ele>20.35</ele>
        <time>2021-03-20T19:26:34Z</time>
      </trkpt>
      <trkpt lat="57.2732" lon="-6.05957">
        <ele>16.27</ele>
        <time>2021-03-20T19:26:39Z</time>
      </trkpt>
      <trkpt lat="57.27212" lon="-6.06182">
        <ele>7.38</ele>
        <time>2021-03-20T19:26:44Z</time>
      </trkpt>
      <trkpt lat="57.2708" lon="-6.0643">
        <ele>6.41</ele>
        <time>2021-03-20T19:26:50Z</time>
      </trkpt>
      <trkpt lat="57.27035" lon="-6.06494">
        <ele>6.87</ele>
        <time>2021-03-20T19:26:55Z</time>
      </trkpt>
      <trkpt lat="57.26909" lon="-6.06637">
        <ele>6.95</ele>
        <time>2021-03-20T19:27:01Z</time>
      </trkpt>
      <trkpt lat="57.26752" lon="-6.06823">
        <ele>8.57</ele>
        <time>2021-03-20T19:27:06Z</time>
      </trkpt>
      <trkpt lat="57.26709" lon="-6.06899">
        <ele>9.07</ele>
        <time>2021-03-20T19:27:12Z</time>
      </trkpt>
      <trkpt lat="57.26684" lon="-6.06978">
        <ele>5.18</ele>
        <time>2021-03-20T19:27:17Z</time>
      </trkpt>
      <trkpt lat="57.26667" lon="-6.07069">
        <ele>4.01</ele>
        <time>2021-03-20T19:27:23Z</time>
      </trkpt>
      <trkpt lat="57.26625" lon="-6.07398">
        <ele>3.2</ele>
        <time>2021-03-20T19:27:28Z</time>
      </trkpt>
      <trkpt lat="57.26607" lon="-6.07494">
        <ele>2.3</ele>
        <time>2021-03-20T19:27:34Z</time>
      </trkpt>
      <trkpt lat="57.26589" lon="-6.0757">
        <ele>4.34</ele>
        <time>2021-03-20T19:27:39Z</time>
      </trkpt>
      <trkpt lat="57.26597" lon="-6.0758">
        <ele>4.37</ele>
        <time>2021-03-20T19:27:42Z</time>
      </trkpt>
      <trkpt lat="57.26601" lon="-6.07598">
        <ele>4.57</ele>
        <time>2021-03-20T19:27:46Z</time>
      </trkpt>
      <trkpt lat="57.26599" lon="-6.07631">
        <ele>5.61</ele>
        <time>2021-03-20T19:27:49Z</time>
      </trkpt>
      <trkpt lat="57.26599" lon="-6.07654">
        <ele>6.16</ele>
        <time>2021-03-20T19:27:53Z</time>
      </trkpt>
      <trkpt lat="57.26616" lon="-6.07739">
        <ele>8.26</ele>
        <time>2021-03-20T19:27:57Z</time>
      </trkpt>
      <trkpt lat="57.26626" lon="-6.07758">
        <ele>8.09</ele>
        <time>2021-03-20T19:28:00Z</time>
      </trkpt>
      <trkpt lat="57.26637" lon="-6.07773">
        <ele>7.89</ele>
        <time>2021-03-20T19:28:04Z</time>
      </trkpt>
      <trkpt lat="57.26653" lon="-6.07783">
        <ele>8.35</ele>
        <time>2021-03-20T19:28:07Z</time>
      </trkpt>
      <trkpt lat="57.26772" lon="-6.07784">
        <ele>11.86</ele>
        <time>2021-03-20T19:28:11Z</time>
      </trkpt>
      <trkpt lat="57.26803" lon="-6.07788">
        <ele>13.27</ele>
        <time>2021-03-20T19:28:14Z</time>
      </trkpt>
      <trkpt lat="57.26825" lon="-6.07797">
        <ele>14.38</ele>
        <time>2021-03-20T19:28:18Z</time>
      </trkpt>
      <trkpt lat="57.26874" lon="-6.07829">
        <ele>16.84</ele>
        <time>2021-03-20T19:28:21Z</time>
      </trkpt>
      <trkpt lat="57.26885" lon="-6.07841">
        <ele>17.24</ele>
        <time>2021-03-20T19:28:25Z</time>
      </trkpt>
      <trkpt lat="57.26892" lon="-6.07867">
        <ele>17.68</ele>
        <time>2021-03-20T19:28:28Z</time>
      </trkpt>
      <trkpt lat="57.26894" lon="-6.07885">
        <ele>17.41</ele>
        <time>2021-03-20T19:28:32Z</time>
      </trkpt>
      <trkpt lat="57.26896" lon="-6.07925">
        <ele>14.82</ele>
        <time>2021-03-20T19:28:35Z</time>
      </trkpt>
      <trkpt lat="57.26895" lon="-6.07944">
        <ele>14.21</ele>
        <time>2021-03-20T19:28:39Z</time>
      </trkpt>
      <trkpt lat="57.26883" lon="-6.07981">
        <ele>13.43</ele>
        <time>2021-03-20T19:28:42Z</time>
      </trkpt>
      <trkpt lat="57.26864" lon="-6.08057">
        <ele>13.28</ele>
        <time>2021-03-20T19:28:46Z</time>
      </trkpt>
      <trkpt lat="57.26852" lon="-6.08099">
        <ele>11.08</ele>
        <time>2021-03-20T19:28:49Z</time>
      </trkpt>
      <trkpt lat="57.26823" lon="-6.08165">
        <ele>9.64</ele>
        <time>2021-03-20T19:28:53Z</time>
      </trkpt>
      <trkpt lat="57.26776" lon="-6.08254">
        <ele>5.95</ele>
        <time>2021-03-20T19:28:56Z</time>
      </trkpt>
      <trkpt lat="57.26768" lon="-6.08274">
        <ele>5.03</ele>
        <time>2021-03-20T19:29:00Z</time>
      </trkpt>
      <trkpt lat="57.26765" lon="-6.08299">
        <ele>4.13</ele>
        <time>2021-03-20T19:29:03Z</time>
      </trkpt>
      <trkpt lat="57.26772" lon="-6.08333">
        <ele>3.21</ele>
        <time>2021-03-20T19:29:07Z</time>
      </trkpt>
      <trkpt lat="57.26857" lon="-6.0858">
        <ele>3.88</ele>
        <time>2021-03-20T19:29:10Z</time>
      </trkpt>
      <trkpt lat="57.26872" lon="-6.08599">
        <ele>3.82</ele>
        <time>2021-03-20T19:29:14Z</time>
      </trkpt>
      <trkpt lat="57.26885" lon="-6.08605">
        <ele>3.8</ele>
        <time>2021-03-20T19:29:17Z</time>
      </trkpt>
      <trkpt lat="57.26939" lon="-6.08599">
        <ele>5.41</ele>
        <time>2021-03-20T19:29:21Z</time>
      </trkpt>
      <trkpt lat="57.26999" lon="-6.08599">
        <ele>6.07</ele>
        <time>2021-03-20T19:29:24Z</time>
      </trkpt>
      <trkpt lat="57.2705" lon="-6.08594">
        <ele>6.74</ele>
        <time>2021-03-20T19:29:28Z</time>
      </trkpt>
      <trkpt lat="57.27119" lon="-6.08572">
        <ele>7.1</ele>
        <time>2021-03-20T19:29:31Z</time>
      </trkpt>
      <trkpt lat="57.27216" lon="-6.08518">
        <ele>5.8</ele>
        <time>2021-03-20T19:29:35Z</time>
      </trkpt>
      <trkpt lat="57.27281" lon="-6.08471">
        <ele>6.09</ele>
        <time>2021-03-20T19:29:38Z</time>
      </trkpt>
      <trkpt lat="57.27374" lon="-6.08424">
        <ele>9.49</ele>
        <time>2021-03-20T19:29:42Z</time>
      </trkpt>
      <trkpt lat="57.2739" lon="-6.08411">
        <ele>10.89</ele>
        <time>2021-03-20T19:29:45Z</time>
      </trkpt>
      <trkpt lat="57.27449" lon="-6.08328">
        <ele>8.96</ele>
        <time>2021-03-20T19:29:49Z</time>
      </trkpt>
      <trkpt lat="57.27541" lon="-6.08205">
        <ele>9.66</ele>
        <time>2021-03-20T19:29:52Z</time>
      </trkpt>
      <trkpt lat="57.27597" lon="-6.08158">
        <ele>10.67</ele>
        <time>2021-03-20T19:29:56Z</time>
      </trkpt>
      <trkpt lat="57.27613" lon="-6.08136">
        <ele>11.17</ele>
        <time>2021-03-20T19:29:59Z</time>
      </trkpt>
      <trkpt lat="57.27632" lon="-6.08102">
        <ele>11.92</ele>
        <time>2021-03-20T19:30:03Z</time>
      </trkpt>
      <trkpt lat="57.27654" lon="-6.08042">
        <ele>13.97</ele>
        <time>2021-03-20T19:30:06Z</time>
      </trkpt>
      <trkpt lat="57.27792" lon="-6.07628">
        <ele>14.58</ele>
        <time>2021-03-20T19:30:10Z</time>
      </trkpt>
      <trkpt lat="57.27823" lon="-6.07542">
        <ele>19.78</ele>
        <time>2021-03-20T19:30:13Z</time>
      </trkpt>
      <trkpt lat="57.27883" lon="-6.07367">
        <ele>23.19</ele>
        <time>2021-03-20T19:30:17Z</time>
      </trkpt>
      <trkpt lat="57.279" lon="-6.07325">
        <ele>22.35</ele>
        <time>2021-03-20T19:30:20Z</time>
      </trkpt>
      <trkpt lat="57.28089" lon="-6.06949">
        <ele>27.67</ele>
        <time>2021-03-20T19:30:24Z</time>
      </trkpt>
      <trkpt lat="57.28248" lon="-6.06647">
        <ele>34.67</ele>
        <time>2021-03-20T19:30:27Z</time>
      </trkpt>
      <trkpt lat="57.28352" lon="-6.06423">
        <ele>39.4</ele>
        <time>2021-03-20T19:30:31Z</time>
      </trkpt>
      <trkpt lat="57.28445" lon="-6.06211">
        <ele>45.67</ele>
        <time>2021-03-20T19:30:34Z</time>
      </trkpt>
      <trkpt lat="57.28477" lon="-6.06133">
        <ele>45.66</ele>
        <time>2021-03-20T19:30:38Z</time>
      </trkpt>
      <trkpt lat="57.28561" lon="-6.05902">
        <ele>41.49</ele>
        <time>2021-03-20T19:30:41Z</time>
      </trkpt>
      <trkpt lat="57.28653" lon="-6.05705">
        <ele>43.8</ele>
        <time>2021-03-20T19:30:45Z</time>
      </trkpt>
      <trkpt lat="57.2866" lon="-6.05679">
        <ele>42.69</ele>
        <time>2021-03-20T19:30:48Z</time>
      </trkpt>
      <trkpt lat="57.28686" lon="-6.05546">
        <ele>43.21</ele>
        <time>2021-03-20T19:30:52Z</time>
      </trkpt>
      <trkpt lat="57.28694" lon="-6.05513">
        <ele>43.31</ele>
        <time>2021-03-20T19:30:55Z</time>
      </trkpt>
      <trkpt lat="57.28747" lon="-6.05392">
        <ele>35.8</ele>
        <time>2021-03-20T19:30:59Z</time>
      </trkpt>
      <trkpt lat="57.28812" lon="-6.05294">
        <ele>41.86</ele>
        <time>2021-03-20T19:31:02Z</time>
      </trkpt>
      <trkpt lat="57.28906" lon="-6.05037">
        <ele>30.75</ele>
        <time>2021-03-20T19:31:06Z</time>
      </trkpt>
      <trkpt lat="57.29081" lon="-6.04639">
        <ele>31.23</ele>
        <time>2021-03-20T19:31:10Z</time>
      </trkpt>
      <trkpt lat="57.2912" lon="-6.04568">
        <ele>27.87</ele>
        <time>2021-03-20T19:31:13Z</time>
      </trkpt>
      <trkpt lat="57.29178" lon="-6.0448">
        <ele>27.9</ele>
        <time>2021-03-20T19:31:17Z</time>
      </trkpt>
      <trkpt lat="57.29287" lon="-6.04338">
        <ele>24.72</ele>
        <time>2021-03-20T19:31:20Z</time>
      </trkpt>
      <trkpt lat="57.29319" lon="-6.04304">
        <ele>22.13</ele>
        <time>2021-03-20T19:31:24Z</time>
      </trkpt>
      <trkpt lat="57.29353" lon="-6.04283">
        <ele>19</ele>
        <time>2021-03-20T19:31:27Z</time>
      </trkpt>
      <trkpt lat="57.29371" lon="-6.04283">
        <ele>18.49</ele>
        <time>2021-03-20T19:31:31Z</time>
      </trkpt>
      <trkpt lat="57.29421" lon="-6.04299">
        <ele>19.19</ele>
        <time>2021-03-20T19:31:34Z</time>
      </trkpt>
      <trkpt lat="57.29435" lon="-6.0431">
        <ele>19.54</ele>
        <time>2021-03-20T19:31:38Z</time>
      </trkpt>
      <trkpt lat="57.29452" lon="-6.0433">
        <ele>19.6</ele>
        <time>2021-03-20T19:31:41Z</time>
      </trkpt>
      <trkpt lat="57.29465" lon="-6.04356">
        <ele>20.92</ele>
        <time>2021-03-20T19:31:45Z</time>
      </trkpt>
      <trkpt lat="57.29476" lon="-6.04387">
        <ele>21.44</ele>
        <time>2021-03-20T19:31:48Z</time>
      </trkpt>
      <trkpt lat="57.29554" lon="-6.04659">
        <ele>21.19</ele>
        <time>2021-03-20T19:31:52Z</time>
      </trkpt>
      <trkpt lat="57.29591" lon="-6.04766">
        <ele>15.87</ele>
        <time>2021-03-20T19:31:55Z</time>
      </trkpt>
      <trkpt lat="57.2967" lon="-6.04943">
        <ele>14.28</ele>
        <time>2021-03-20T19:31:59Z</time>
      </trkpt>
      <trkpt lat="57.29742" lon="-6.05135">
        <ele>11.49</ele>
        <time>2021-03-20T19:32:02Z</time>
      </trkpt>
      <trkpt lat="57.29761" lon="-6.05161">
        <ele>8.8</ele>
        <time>2021-03-20T19:32:06Z</time>
      </trkpt>
      <trkpt lat="57.29791" lon="-6.0518">
        <ele>7.26</ele>
        <time>2021-03-20T19:32:09Z</time>
      </trkpt>
      <trkpt lat="57.29824" lon="-6.05192">
        <ele>10.33</ele>
        <time>2021-03-20T19:32:13Z</time>
      </trkpt>
      <trkpt lat="57.29845" lon="-6.05189">
        <ele>13.02</ele>
        <time>2021-03-20T19:32:16Z</time>
      </trkpt>
      <trkpt lat="57.2986" lon="-6.05181">
        <ele>13.8</ele>
        <time>2021-03-20T19:32:20Z</time>
      </trkpt>
      <trkpt lat="57.29992" lon="-6.05061">
        <ele>18.93</ele>
        <time>2021-03-20T19:32:23Z</time>
      </trkpt>
      <trkpt lat="57.30017" lon="-6.05043">
        <ele>20.22</ele>
        <time>2021-03-20T19:32:27Z</time>
      </trkpt>
      <trkpt lat="57.30069" lon="-6.05015">
        <ele>23.77</ele>
        <time>2021-03-20T19:32:30Z</time>
      </trkpt>
      <trkpt lat="57.30088" lon="-6.05001">
        <ele>25.05</ele>
        <time>2021-03-20T19:32:34Z</time>
      </trkpt>
      <trkpt lat="57.30122" lon="-6.04961">
        <ele>23.5</ele>
        <time>2021-03-20T19:32:37Z</time>
      </trkpt>
      <trkpt lat="57.30145" lon="-6.04942">
        <ele>23.14</ele>
        <time>2021-03-20T19:32:41Z</time>
      </trkpt>
      <trkpt lat="57.3021" lon="-6.0494">
        <ele>24.98</ele>
        <time>2021-03-20T19:32:44Z</time>
      </trkpt>
      <trkpt lat="57.30261" lon="-6.04951">
        <ele>24.17</ele>
        <time>2021-03-20T19:32:48Z</time>
      </trkpt>
      <trkpt lat="57.3028" lon="-6.0496">
        <ele>25.1</ele>
        <time>2021-03-20T19:32:51Z</time>
      </trkpt>
      <trkpt lat="57.30301" lon="-6.04974">
        <ele>26.27</ele>
        <time>2021-03-20T19:32:55Z</time>
      </trkpt>
      <trkpt lat="57.30379" lon="-6.05054">
        <ele>27.84</ele>
        <time>2021-03-20T19:32:58Z</time>
      </trkpt>
      <trkpt lat="57.30397" lon="-6.05069">
        <ele>28.05</ele>
        <time>2021-03-20T19:33:02Z</time>
      </trkpt>
      <trkpt lat="57.30417" lon="-6.05079">
        <ele>27.1</ele>
        <time>2021-03-20T19:33:05Z</time>
      </trkpt>
      <trkpt lat="57.30452" lon="-6.05092">
        <ele>26.49</ele>
        <time>2021-03-20T19:33:09Z</time>
      </trkpt>
      <trkpt lat="57.30534" lon="-6.05116">
        <ele>27.33</ele>
        <time>2021-03-20T19:33:12Z</time>
      </trkpt>
      <trkpt lat="57.30561" lon="-6.0511">
        <ele>26.97</ele>
        <time>2021-03-20T19:33:16Z</time>
      </trkpt>
      <trkpt lat="57.30587" lon="-6.05092">
        <ele>24.8</ele>
        <time>2021-03-20T19:33:19Z</time>
      </trkpt>
      <trkpt lat="57.30663" lon="-6.05031">
        <ele>20.34</ele>
        <time>2021-03-20T19:33:23Z</time>
      </trkpt>
      <trkpt lat="57.30845" lon="-6.04899">
        <ele>17.74</ele>
        <time>2021-03-20T19:33:26Z</time>
      </trkpt>
      <trkpt lat="57.30944" lon="-6.04885">
        <ele>16.65</ele>
        <time>2021-03-20T19:33:30Z</time>
      </trkpt>
      <trkpt lat="57.30959" lon="-6.04888">
        <ele>15.85</ele>
        <time>2021-03-20T19:33:33Z</time>
      </trkpt>
      <trkpt lat="57.30969" lon="-6.04895">
        <ele>16.17</ele>
        <time>2021-03-20T19:33:37Z</time>
      </trkpt>
      <trkpt lat="57.31015" lon="-6.04943">
        <ele>16.06</ele>
        <time>2021-03-20T19:33:40Z</time>
      </trkpt>
      <trkpt lat="57.31031" lon="-6.04965">
        <ele>14.51</ele>
        <time>2021-03-20T19:33:44Z</time>
      </trkpt>
      <trkpt lat="57.31097" lon="-6.05103">
        <ele>15.74</ele>
        <time>2021-03-20T19:33:47Z</time>
      </trkpt>
      <trkpt lat="57.31125" lon="-6.05172">
        <ele>15.18</ele>
        <time>2021-03-20T19:33:51Z</time>
      </trkpt>
      <trkpt lat="57.3127" lon="-6.05586">
        <ele>15.55</ele>
        <time>2021-03-20T19:33:54Z</time>
      </trkpt>
      <trkpt lat="57.31286" lon="-6.05645">
        <ele>15.72</ele>
        <time>2021-03-20T19:33:58Z</time>
      </trkpt>
      <trkpt lat="57.31306" lon="-6.06052">
        <ele>14.97</ele>
        <time>2021-03-20T19:34:01Z</time>
      </trkpt>
      <trkpt lat="57.31304" lon="-6.06321">
        <ele>17.49</ele>
        <time>2021-03-20T19:34:05Z</time>
      </trkpt>
      <trkpt lat="57.31301" lon="-6.06352">
        <ele>17.41</ele>
        <time>2021-03-20T19:34:08Z</time>
      </trkpt>
      <trkpt lat="57.31288" lon="-6.06463">
        <ele>19.19</ele>
        <time>2021-03-20T19:34:12Z</time>
      </trkpt>
      <trkpt lat="57.31285" lon="-6.06511">
        <ele>20.85</ele>
        <time>2021-03-20T19:34:15Z</time>
      </trkpt>
      <trkpt lat="57.31291" lon="-6.06568">
        <ele>23.81</ele>
        <time>2021-03-20T19:34:19Z</time>
      </trkpt>
      <trkpt lat="57.31338" lon="-6.06743">
        <ele>25.49</ele>
        <time>2021-03-20T19:34:22Z</time>
      </trkpt>
      <trkpt lat="57.31347" lon="-6.0679">
        <ele>25.68</ele>
        <time>2021-03-20T19:34:26Z</time>
      </trkpt>
      <trkpt lat="57.31379" lon="-6.07006">
        <ele>18.02</ele>
        <time>2021-03-20T19:34:30Z</time>
      </trkpt>
      <trkpt lat="57.31379" lon="-6.07063">
        <ele>17.11</ele>
        <time>2021-03-20T19:34:33Z</time>
      </trkpt>
      <trkpt lat="57.31377" lon="-6.07103">
        <ele>16.26</ele>
        <time>2021-03-20T19:34:37Z</time>
      </trkpt>
      <trkpt lat="57.31369" lon="-6.0715">
        <ele>15.31</ele>
        <time>2021-03-20T19:34:40Z</time>
      </trkpt>
      <trkpt lat="57.31356" lon="-6.07188">
        <ele>15.29</ele>
        <time>2021-03-20T19:34:44Z</time>
      </trkpt>
      <trkpt lat="57.31274" lon="-6.0735">
        <ele>19.34</ele>
        <time>2021-03-20T19:34:47Z</time>
      </trkpt>
      <trkpt lat="57.31191" lon="-6.07521">
        <ele>21.48</ele>
        <time>2021-03-20T19:34:51Z</time>
      </trkpt>
      <trkpt lat="57.31158" lon="-6.07634">
        <ele>16.95</ele>
        <time>2021-03-20T19:34:54Z</time>
      </trkpt>
      <trkpt lat="57.31107" lon="-6.07828">
        <ele>14.15</ele>
        <time>2021-03-20T19:34:58Z</time>
      </trkpt>
      <trkpt lat="57.31082" lon="-6.07959">
        <ele>14.52</ele>
        <time>2021-03-20T19:35:01Z</time>
      </trkpt>
      <trkpt lat="57.31066" lon="-6.08032">
        <ele>13.16</ele>
        <time>2021-03-20T19:35:05Z</time>
      </trkpt>
      <trkpt lat="57.31" lon="-6.08237">
        <ele>8.48</ele>
        <time>2021-03-20T19:35:08Z</time>
      </trkpt>
      <trkpt lat="57.30966" lon="-6.08337">
        <ele>7.35</ele>
        <time>2021-03-20T19:35:12Z</time>
      </trkpt>
      <trkpt lat="57.3096" lon="-6.08375">
        <ele>6.35</ele>
        <time>2021-03-20T19:35:15Z</time>
      </trkpt>
      <trkpt lat="57.30958" lon="-6.08445">
        <ele>6</ele>
        <time>2021-03-20T19:35:19Z</time>
      </trkpt>
      <trkpt lat="57.3095" lon="-6.08525">
        <ele>6.59</ele>
        <time>2021-03-20T19:35:22Z</time>
      </trkpt>
      <trkpt lat="57.30945" lon="-6.08609">
        <ele>6.97</ele>
        <time>2021-03-20T19:35:26Z</time>
      </trkpt>
      <trkpt lat="57.30912" lon="-6.08768">
        <ele>8.42</ele>
        <time>2021-03-20T19:35:29Z</time>
      </trkpt>
      <trkpt lat="57.30905" lon="-6.08835">
        <ele>7.8</ele>
        <time>2021-03-20T19:35:33Z</time>
      </trkpt>
      <trkpt lat="57.30912" lon="-6.0889">
        <ele>6.2</ele>
        <time>2021-03-20T19:35:36Z</time>
      </trkpt>
      <trkpt lat="57.30973" lon="-6.09286">
        <ele>13.56</ele>
        <time>2021-03-20T19:35:40Z</time>
      </trkpt>
      <trkpt lat="57.30988" lon="-6.094">
        <ele>19.59</ele>
        <time>2021-03-20T19:35:43Z</time>
      </trkpt>
      <trkpt lat="57.30987" lon="-6.0946">
        <ele>20.98</ele>
        <time>2021-03-20T19:35:47Z</time>
      </trkpt>
      <trkpt lat="57.30981" lon="-6.09495">
        <ele>22.03</ele>
        <time>2021-03-20T19:35:50Z</time>
      </trkpt>
      <trkpt lat="57.30972" lon="-6.0952">
        <ele>23.73</ele>
        <time>2021-03-20T19:35:54Z</time>
      </trkpt>
      <trkpt lat="57.31185" lon="-6.09849">
        <ele>16.27</ele>
        <time>2021-03-20T19:35:58Z</time>
      </trkpt>
      <trkpt lat="57.31325" lon="-6.10047">
        <ele>11.51</ele>
        <time>2021-03-20T19:36:03Z</time>
      </trkpt>
      <trkpt lat="57.31361" lon="-6.10108">
        <ele>9.99</ele>
        <time>2021-03-20T19:36:08Z</time>
      </trkpt>
      <trkpt lat="57.31388" lon="-6.10174">
        <ele>7.67</ele>
        <time>2021-03-20T19:36:12Z</time>
      </trkpt>
      <trkpt lat="57.31411" lon="-6.10259">
        <ele>7.18</ele>
        <time>2021-03-20T19:36:17Z</time>
      </trkpt>
      <trkpt lat="57.31425" lon="-6.1035">
        <ele>6.7</ele>
        <time>2021-03-20T19:36:22Z</time>
      </trkpt>
      <trkpt lat="57.31428" lon="-6.10437">
        <ele>7.94</ele>
        <time>2021-03-20T19:36:26Z</time>
      </trkpt>
      <trkpt lat="57.31422" lon="-6.10543">
        <ele>7.37</ele>
        <time>2021-03-20T19:36:31Z</time>
      </trkpt>
      <trkpt lat="57.31393" lon="-6.10779">
        <ele>8.26</ele>
        <time>2021-03-20T19:36:35Z</time>
      </trkpt>
      <trkpt lat="57.31374" lon="-6.10903">
        <ele>8.46</ele>
        <time>2021-03-20T19:36:40Z</time>
      </trkpt>
      <trkpt lat="57.31354" lon="-6.10995">
        <ele>8.74</ele>
        <time>2021-03-20T19:36:45Z</time>
      </trkpt>
      <trkpt lat="57.31335" lon="-6.11073">
        <ele>10.14</ele>
        <time>2021-03-20T19:36:49Z</time>
      </trkpt>
      <trkpt lat="57.31319" lon="-6.11172">
        <ele>9.17</ele>
        <time>2021-03-20T19:36:54Z</time>
      </trkpt>
      <trkpt lat="57.31307" lon="-6.11281">
        <ele>4.7</ele>
        <time>2021-03-20T19:36:59Z</time>
      </trkpt>
      <trkpt lat="57.31303" lon="-6.11365">
        <ele>4.2</ele>
        <time>2021-03-20T19:37:03Z</time>
      </trkpt>
      <trkpt lat="57.31303" lon="-6.11446">
        <ele>4.12</ele>
        <time>2021-03-20T19:37:08Z</time>
      </trkpt>
      <trkpt lat="57.3131" lon="-6.11604">
        <ele>6.59</ele>
        <time>2021-03-20T19:37:12Z</time>
      </trkpt>
      <trkpt lat="57.31311" lon="-6.11697">
        <ele>10.65</ele>
        <time>2021-03-20T19:37:17Z</time>
      </trkpt>
      <trkpt lat="57.31308" lon="-6.11766">
        <ele>12.27</ele>
        <time>2021-03-20T19:37:22Z</time>
      </trkpt>
      <trkpt lat="57.31303" lon="-6.11828">
        <ele>13.33</ele>
        <time>2021-03-20T19:37:26Z</time>
      </trkpt>
      <trkpt lat="57.3128" lon="-6.11925">
        <ele>13.68</ele>
        <time>2021-03-20T19:37:31Z</time>
      </trkpt>
      <trkpt lat="57.31247" lon="-6.12021">
        <ele>15.64</ele>
        <time>2021-03-20T19:37:36Z</time>
      </trkpt>
      <trkpt lat="57.31097" lon="-6.12302">
        <ele>24.54</ele>
        <time>2021-03-20T19:37:40Z</time>
      </trkpt>
      <trkpt lat="57.3104" lon="-6.12416">
        <ele>24.09</ele>
        <time>2021-03-20T19:37:45Z</time>
      </trkpt>
      <trkpt lat="57.30906" lon="-6.12734">
        <ele>24.58</ele>
        <time>2021-03-20T19:37:50Z</time>
      </trkpt>
      <trkpt lat="57.30844" lon="-6.12877">
        <ele>25.18</ele>
        <time>2021-03-20T19:37:54Z</time>
      </trkpt>
      <trkpt lat="57.308" lon="-6.12953">
        <ele>26.2</ele>
        <time>2021-03-20T19:37:59Z</time>
      </trkpt>
      <trkpt lat="57.30726" lon="-6.13038">
        <ele>28.24</ele>
        <time>2021-03-20T19:38:03Z</time>
      </trkpt>
      <trkpt lat="57.30663" lon="-6.1313">
        <ele>29.14</ele>
        <time>2021-03-20T19:38:08Z</time>
      </trkpt>
      <trkpt lat="57.30615" lon="-6.13203">
        <ele>27.33</ele>
        <time>2021-03-20T19:38:13Z</time>
      </trkpt>
      <trkpt lat="57.30536" lon="-6.13343">
        <ele>27.6</ele>
        <time>2021-03-20T19:38:17Z</time>
      </trkpt>
      <trkpt lat="57.30504" lon="-6.13404">
        <ele>26.88</ele>
        <time>2021-03-20T19:38:22Z</time>
      </trkpt>
      <trkpt lat="57.30383" lon="-6.13667">
        <ele>27.1</ele>
        <time>2021-03-20T19:38:27Z</time>
      </trkpt>
      <trkpt lat="57.30362" lon="-6.13731">
        <ele>25.53</ele>
        <time>2021-03-20T19:38:31Z</time>
      </trkpt>
      <trkpt lat="57.30348" lon="-6.13791">
        <ele>26.71</ele>
        <time>2021-03-20T19:38:36Z</time>
      </trkpt>
      <trkpt lat="57.30278" lon="-6.1413">
        <ele>33.29</ele>
        <time>2021-03-20T19:38:40Z</time>
      </trkpt>
      <trkpt lat="57.30258" lon="-6.14211">
        <ele>31</ele>
        <time>2021-03-20T19:38:45Z</time>
      </trkpt>
      <trkpt lat="57.30233" lon="-6.14273">
        <ele>29.01</ele>
        <time>2021-03-20T19:38:50Z</time>
      </trkpt>
      <trkpt lat="57.30204" lon="-6.14323">
        <ele>27.37</ele>
        <time>2021-03-20T19:38:54Z</time>
      </trkpt>
      <trkpt lat="57.29973" lon="-6.14668">
        <ele>21.5</ele>
        <time>2021-03-20T19:38:59Z</time>
      </trkpt>
      <trkpt lat="57.29938" lon="-6.1473">
        <ele>23.8</ele>
        <time>2021-03-20T19:39:04Z</time>
      </trkpt>
      <trkpt lat="57.29912" lon="-6.14793">
        <ele>22.25</ele>
        <time>2021-03-20T19:39:08Z</time>
      </trkpt>
      <trkpt lat="57.2988" lon="-6.14891">
        <ele>21.09</ele>
        <time>2021-03-20T19:39:13Z</time>
      </trkpt>
      <trkpt lat="57.29853" lon="-6.15047">
        <ele>18.66</ele>
        <time>2021-03-20T19:39:18Z</time>
      </trkpt>
      <trkpt lat="57.29835" lon="-6.15117">
        <ele>17.86</ele>
        <time>2021-03-20T19:39:22Z</time>
      </trkpt>
      <trkpt lat="57.29685" lon="-6.1555">
        <ele>13.7</ele>
        <time>2021-03-20T19:39:27Z</time>
      </trkpt>
      <trkpt lat="57.29655" lon="-6.15662">
        <ele>12.37</ele>
        <time>2021-03-20T19:39:31Z</time>
      </trkpt>
      <trkpt lat="57.29651" lon="-6.15711">
        <ele>11.48</ele>
        <time>2021-03-20T19:39:36Z</time>
      </trkpt>
      <trkpt lat="57.29645" lon="-6.16062">
        <ele>9.73</ele>
        <time>2021-03-20T19:39:41Z</time>
      </trkpt>
      <trkpt lat="57.29637" lon="-6.16128">
        <ele>9.63</ele>
        <time>2021-03-20T19:39:45Z</time>
      </trkpt>
      <trkpt lat="57.29622" lon="-6.16197">
        <ele>9.28</ele>
        <time>2021-03-20T19:39:50Z</time>
      </trkpt>
      <trkpt lat="57.29596" lon="-6.16265">
        <ele>9.19</ele>
        <time>2021-03-20T19:39:55Z</time>
      </trkpt>
      <trkpt lat="57.2957" lon="-6.16316">
        <ele>8.14</ele>
        <time>2021-03-20T19:39:59Z</time>
      </trkpt>
      <trkpt lat="57.29536" lon="-6.16371">
        <ele>9.48</ele>
        <time>2021-03-20T19:40:04Z</time>
      </trkpt>
      <trkpt lat="57.29469" lon="-6.16466">
        <ele>10.71</ele>
        <time>2021-03-20T19:40:08Z</time>
      </trkpt>
      <trkpt lat="57.29363" lon="-6.16607">
        <ele>11.17</ele>
        <time>2021-03-20T19:40:13Z</time>
      </trkpt>
      <trkpt lat="57.29263" lon="-6.16794">
        <ele>12.35</ele>
        <time>2021-03-20T19:40:18Z</time>
      </trkpt>
      <trkpt lat="57.291" lon="-6.17037">
        <ele>12.85</ele>
        <time>2021-03-20T19:40:22Z</time>
      </trkpt>
      <trkpt lat="57.29081" lon="-6.17068">
        <ele>13.18</ele>
        <time>2021-03-20T19:40:27Z</time>
      </trkpt>
      <trkpt lat="57.29058" lon="-6.17113">
        <ele>11.85</ele>
        <time>2021-03-20T19:40:32Z</time>
      </trkpt>
      <trkpt lat="57.29046" lon="-6.17147">
        <ele>11.59</ele>
        <time>2021-03-20T19:40:36Z</time>
      </trkpt>
      <trkpt lat="57.29037" lon="-6.17181">
        <ele>11.15</ele>
        <time>2021-03-20T19:40:41Z</time>
      </trkpt>
      <trkpt lat="57.2903" lon="-6.17213">
        <ele>10.29</ele>
        <time>2021-03-20T19:40:46Z</time>
      </trkpt>
      <trkpt lat="57.29024" lon="-6.17273">
        <ele>9</ele>
        <time>2021-03-20T19:40:50Z</time>
      </trkpt>
      <trkpt lat="57.29023" lon="-6.17328">
        <ele>9.81</ele>
        <time>2021-03-20T19:40:55Z</time>
      </trkpt>
      <trkpt lat="57.29028" lon="-6.1739">
        <ele>11.02</ele>
        <time>2021-03-20T19:40:59Z</time>
      </trkpt>
      <trkpt lat="57.29038" lon="-6.17444">
        <ele>11.62</ele>
        <time>2021-03-20T19:41:04Z</time>
      </trkpt>
      <trkpt lat="57.29054" lon="-6.17493">
        <ele>12.07</ele>
        <time>2021-03-20T19:41:09Z</time>
      </trkpt>
      <trkpt lat="57.29079" lon="-6.17561">
        <ele>12.71</ele>
        <time>2021-03-20T19:41:13Z</time>
      </trkpt>
      <trkpt lat="57.29101" lon="-6.17615">
        <ele>14.93</ele>
        <time>2021-03-20T19:41:18Z</time>
      </trkpt>
      <trkpt lat="57.2914" lon="-6.17697">
        <ele>16.07</ele>
        <time>2021-03-20T19:41:23Z</time>
      </trkpt>
      <trkpt lat="57.29179" lon="-6.1777">
        <ele>18.15</ele>
        <time>2021-03-20T19:41:27Z</time>
      </trkpt>
      <trkpt lat="57.2922" lon="-6.17823">
        <ele>22.47</ele>
        <time>2021-03-20T19:41:32Z</time>
      </trkpt>
      <trkpt lat="57.29255" lon="-6.17851">
        <ele>24.91</ele>
        <time>2021-03-20T19:41:36Z</time>
      </trkpt>
      <trkpt lat="57.29358" lon="-6.17909">
        <ele>31.53</ele>
        <time>2021-03-20T19:41:41Z</time>
      </trkpt>
      <trkpt lat="57.29621" lon="-6.18082">
        <ele>46.88</ele>
        <time>2021-03-20T19:41:46Z</time>
      </trkpt>
      <trkpt lat="57.297" lon="-6.18193">
        <ele>51.67</ele>
        <time>2021-03-20T19:41:50Z</time>
      </trkpt>
      <trkpt lat="57.29733" lon="-6.18222">
        <ele>52.36</ele>
        <time>2021-03-20T19:41:55Z</time>
      </trkpt>
      <trkpt lat="57.29887" lon="-6.18267">
        <ele>64.13</ele>
        <time>2021-03-20T19:42:00Z</time>
      </trkpt>
      <trkpt lat="57.2995" lon="-6.18303">
        <ele>65.94</ele>
        <time>2021-03-20T19:42:04Z</time>
      </trkpt>
      <trkpt lat="57.30031" lon="-6.18391">
        <ele>70.96</ele>
        <time>2021-03-20T19:42:09Z</time>
      </trkpt>
      <trkpt lat="57.30068" lon="-6.18437">
        <ele>70.82</ele>
        <time>2021-03-20T19:42:13Z</time>
      </trkpt>
      <trkpt lat="57.30227" lon="-6.18621">
        <ele>75.62</ele>
        <time>2021-03-20T19:42:18Z</time>
      </trkpt>
      <trkpt lat="57.30268" lon="-6.18661">
        <ele>76.29</ele>
        <time>2021-03-20T19:42:23Z</time>
      </trkpt>
      <trkpt lat="57.3035" lon="-6.18708">
        <ele>78</ele>
        <time>2021-03-20T19:42:27Z</time>
      </trkpt>
      <trkpt lat="57.30565" lon="-6.18786">
        <ele>84.47</ele>
        <time>2021-03-20T19:42:32Z</time>
      </trkpt>
      <trkpt lat="57.30755" lon="-6.18901">
        <ele>91.49</ele>
        <time>2021-03-20T19:42:37Z</time>
      </trkpt>
      <trkpt lat="57.30807" lon="-6.18939">
        <ele>95.35</ele>
        <time>2021-03-20T19:42:41Z</time>
      </trkpt>
      <trkpt lat="57.30857" lon="-6.18987">
        <ele>97.99</ele>
        <time>2021-03-20T19:42:46Z</time>
      </trkpt>
      <trkpt lat="57.30887" lon="-6.19024">
        <ele>99.04</ele>
        <time>2021-03-20T19:42:51Z</time>
      </trkpt>
      <trkpt lat="57.30916" lon="-6.19078">
        <ele>102.95</ele>
        <time>2021-03-20T19:42:55Z</time>
      </trkpt>
      <trkpt lat="57.30983" lon="-6.193">
        <ele>103.82</ele>
        <time>2021-03-20T19:43:00Z</time>
      </trkpt>
      <trkpt lat="57.3101" lon="-6.19344">
        <ele>105</ele>
        <time>2021-03-20T19:43:04Z</time>
      </trkpt>
      <trkpt lat="57.31322" lon="-6.1979">
        <ele>104.71</ele>
        <time>2021-03-20T19:43:09Z</time>
      </trkpt>
      <trkpt lat="57.31367" lon="-6.19846">
        <ele>104.95</ele>
        <time>2021-03-20T19:43:14Z</time>
      </trkpt>
      <trkpt lat="57.3153" lon="-6.20019">
        <ele>109.81</ele>
        <time>2021-03-20T19:43:18Z</time>
      </trkpt>
      <trkpt lat="57.31669" lon="-6.20148">
        <ele>110.86</ele>
        <time>2021-03-20T19:43:23Z</time>
      </trkpt>
      <trkpt lat="57.32073" lon="-6.20509">
        <ele>111.04</ele>
        <time>2021-03-20T19:43:28Z</time>
      </trkpt>
      <trkpt lat="57.32102" lon="-6.20516">
        <ele>110.44</ele>
        <time>2021-03-20T19:43:32Z</time>
      </trkpt>
      <trkpt lat="57.32315" lon="-6.20488">
        <ele>106</ele>
        <time>2021-03-20T19:43:37Z</time>
      </trkpt>
      <trkpt lat="57.32372" lon="-6.20468">
        <ele>106.04</ele>
        <time>2021-03-20T19:43:41Z</time>
      </trkpt>
      <trkpt lat="57.32663" lon="-6.20323">
        <ele>102.4</ele>
        <time>2021-03-20T19:43:46Z</time>
      </trkpt>
      <trkpt lat="57.32749" lon="-6.20283">
        <ele>105.49</ele>
        <time>2021-03-20T19:43:51Z</time>
      </trkpt>
      <trkpt lat="57.32787" lon="-6.20281">
        <ele>103.33</ele>
        <time>2021-03-20T19:43:55Z</time>
      </trkpt>
      <trkpt lat="57.32866" lon="-6.20297">
        <ele>100.47</ele>
        <time>2021-03-20T19:44:00Z</time>
      </trkpt>
      <trkpt lat="57.32895" lon="-6.20298">
        <ele>99.26</ele>
        <time>2021-03-20T19:44:05Z</time>
      </trkpt>
      <trkpt lat="57.32936" lon="-6.20282">
        <ele>97.49</ele>
        <time>2021-03-20T19:44:09Z</time>
      </trkpt>
      <trkpt lat="57.33107" lon="-6.2014">
        <ele>99.29</ele>
        <time>2021-03-20T19:44:14Z</time>
      </trkpt>
      <trkpt lat="57.33236" lon="-6.20017">
        <ele>101</ele>
        <time>2021-03-20T19:44:19Z</time>
      </trkpt>
      <trkpt lat="57.33359" lon="-6.19888">
        <ele>102.26</ele>
        <time>2021-03-20T19:44:23Z</time>
      </trkpt>
      <trkpt lat="57.33449" lon="-6.19835">
        <ele>104.65</ele>
        <time>2021-03-20T19:44:28Z</time>
      </trkpt>
      <trkpt lat="57.33495" lon="-6.1983">
        <ele>103.85</ele>
        <time>2021-03-20T19:44:32Z</time>
      </trkpt>
      <trkpt lat="57.33523" lon="-6.19829">
        <ele>103.66</ele>
        <time>2021-03-20T19:44:37Z</time>
      </trkpt>
      <trkpt lat="57.33694" lon="-6.19892">
        <ele>100.58</ele>
        <time>2021-03-20T19:44:42Z</time>
      </trkpt>
      <trkpt lat="57.33739" lon="-6.199">
        <ele>97.35</ele>
        <time>2021-03-20T19:44:46Z</time>
      </trkpt>
      <trkpt lat="57.3396" lon="-6.199">
        <ele>93.99</ele>
        <time>2021-03-20T19:44:51Z</time>
      </trkpt>
      <trkpt lat="57.34029" lon="-6.19891">
        <ele>89.66</ele>
        <time>2021-03-20T19:44:56Z</time>
      </trkpt>
      <trkpt lat="57.34075" lon="-6.19872">
        <ele>90.62</ele>
        <time>2021-03-20T19:45:00Z</time>
      </trkpt>
      <trkpt lat="57.3429" lon="-6.19758">
        <ele>82.11</ele>
        <time>2021-03-20T19:45:05Z</time>
      </trkpt>
      <trkpt lat="57.34345" lon="-6.19732">
        <ele>83.47</ele>
        <time>2021-03-20T19:45:09Z</time>
      </trkpt>
      <trkpt lat="57.34366" lon="-6.19727">
        <ele>83.93</ele>
        <time>2021-03-20T19:45:14Z</time>
      </trkpt>
      <trkpt lat="57.34387" lon="-6.19731">
        <ele>83.02</ele>
        <time>2021-03-20T19:45:19Z</time>
      </trkpt>
      <trkpt lat="57.34427" lon="-6.19753">
        <ele>80.13</ele>
        <time>2021-03-20T19:45:23Z</time>
      </trkpt>
      <trkpt lat="57.34466" lon="-6.19766">
        <ele>79.93</ele>
        <time>2021-03-20T19:45:28Z</time>
      </trkpt>
      <trkpt lat="57.34498" lon="-6.19766">
        <ele>80.16</ele>
        <time>2021-03-20T19:45:33Z</time>
      </trkpt>
      <trkpt lat="57.34522" lon="-6.19762">
        <ele>79.27</ele>
        <time>2021-03-20T19:45:37Z</time>
      </trkpt>
      <trkpt lat="57.34613" lon="-6.19726">
        <ele>79.15</ele>
        <time>2021-03-20T19:45:42Z</time>
      </trkpt>
      <trkpt lat="57.34704" lon="-6.19682">
        <ele>76.17</ele>
        <time>2021-03-20T19:45:47Z</time>
      </trkpt>
      <trkpt lat="57.34749" lon="-6.19678">
        <ele>76.43</ele>
        <time>2021-03-20T19:45:51Z</time>
      </trkpt>
      <trkpt lat="57.34909" lon="-6.19685">
        <ele>70.39</ele>
        <time>2021-03-20T19:45:56Z</time>
      </trkpt>
      <trkpt lat="57.34953" lon="-6.19684">
        <ele>69.05</ele>
        <time>2021-03-20T19:46:00Z</time>
      </trkpt>
      <trkpt lat="57.34977" lon="-6.19678">
        <ele>68.47</ele>
        <time>2021-03-20T19:46:05Z</time>
      </trkpt>
      <trkpt lat="57.35012" lon="-6.19654">
        <ele>67.65</ele>
        <time>2021-03-20T19:46:10Z</time>
      </trkpt>
      <trkpt lat="57.35047" lon="-6.19623">
        <ele>66</ele>
        <time>2021-03-20T19:46:14Z</time>
      </trkpt>
      <trkpt lat="57.35074" lon="-6.1961">
        <ele>64.14</ele>
        <time>2021-03-20T19:46:19Z</time>
      </trkpt>
      <trkpt lat="57.35121" lon="-6.19617">
        <ele>59.27</ele>
        <time>2021-03-20T19:46:24Z</time>
      </trkpt>
      <trkpt lat="57.35301" lon="-6.19663">
        <ele>58.99</ele>
        <time>2021-03-20T19:46:28Z</time>
      </trkpt>
      <trkpt lat="57.35351" lon="-6.19684">
        <ele>57.75</ele>
        <time>2021-03-20T19:46:33Z</time>
      </trkpt>
      <trkpt lat="57.35387" lon="-6.19716">
        <ele>58.29</ele>
        <time>2021-03-20T19:46:37Z</time>
      </trkpt>
      <trkpt lat="57.35424" lon="-6.19739">
        <ele>57.23</ele>
        <time>2021-03-20T19:46:42Z</time>
      </trkpt>
      <trkpt lat="57.35442" lon="-6.19743">
        <ele>56.58</ele>
        <time>2021-03-20T19:46:47Z</time>
      </trkpt>
      <trkpt lat="57.35469" lon="-6.19734">
        <ele>56.26</ele>
        <time>2021-03-20T19:46:51Z</time>
      </trkpt>
      <trkpt lat="57.35511" lon="-6.197">
        <ele>57.28</ele>
        <time>2021-03-20T19:46:56Z</time>
      </trkpt>
      <trkpt lat="57.35542" lon="-6.19682">
        <ele>56.64</ele>
        <time>2021-03-20T19:47:01Z</time>
      </trkpt>
      <trkpt lat="57.35586" lon="-6.19677">
        <ele>55.28</ele>
        <time>2021-03-20T19:47:05Z</time>
      </trkpt>
      <trkpt lat="57.35794" lon="-6.19701">
        <ele>52.73</ele>
        <time>2021-03-20T19:47:10Z</time>
      </trkpt>
      <trkpt lat="57.35825" lon="-6.1971">
        <ele>51.7</ele>
        <time>2021-03-20T19:47:15Z</time>
      </trkpt>
      <trkpt lat="57.35898" lon="-6.19753">
        <ele>50.76</ele>
        <time>2021-03-20T19:47:19Z</time>
      </trkpt>
      <trkpt lat="57.35923" lon="-6.19763">
        <ele>49.84</ele>
        <time>2021-03-20T19:47:24Z</time>
      </trkpt>
      <trkpt lat="57.35968" lon="-6.19761">
        <ele>48.35</ele>
        <time>2021-03-20T19:47:28Z</time>
      </trkpt>
      <trkpt lat="57.36042" lon="-6.19744">
        <ele>46.8</ele>
        <time>2021-03-20T19:47:33Z</time>
      </trkpt>
      <trkpt lat="57.36241" lon="-6.1964">
        <ele>44.92</ele>
        <time>2021-03-20T19:47:38Z</time>
      </trkpt>
      <trkpt lat="57.36275" lon="-6.19613">
        <ele>44.24</ele>
        <time>2021-03-20T19:47:42Z</time>
      </trkpt>
      <trkpt lat="57.36334" lon="-6.19539">
        <ele>43.58</ele>
        <time>2021-03-20T19:47:47Z</time>
      </trkpt>
      <trkpt lat="57.36357" lon="-6.1952">
        <ele>43.69</ele>
        <time>2021-03-20T19:47:52Z</time>
      </trkpt>
      <trkpt lat="57.36591" lon="-6.19363">
        <ele>42.65</ele>
        <time>2021-03-20T19:47:56Z</time>
      </trkpt>
      <trkpt lat="57.3663" lon="-6.1934">
        <ele>43.63</ele>
        <time>2021-03-20T19:48:01Z</time>
      </trkpt>
      <trkpt lat="57.36661" lon="-6.19328">
        <ele>45.41</ele>
        <time>2021-03-20T19:48:05Z</time>
      </trkpt>
      <trkpt lat="57.36687" lon="-6.19328">
        <ele>45.78</ele>
        <time>2021-03-20T19:48:10Z</time>
      </trkpt>
      <trkpt lat="57.36712" lon="-6.19333">
        <ele>45.62</ele>
        <time>2021-03-20T19:48:15Z</time>
      </trkpt>
      <trkpt lat="57.36743" lon="-6.19352">
        <ele>44.89</ele>
        <time>2021-03-20T19:48:19Z</time>
      </trkpt>
      <trkpt lat="57.36804" lon="-6.19397">
        <ele>41.08</ele>
        <time>2021-03-20T19:48:24Z</time>
      </trkpt>
      <trkpt lat="57.3682" lon="-6.19403">
        <ele>40.78</ele>
        <time>2021-03-20T19:48:29Z</time>
      </trkpt>
      <trkpt lat="57.36883" lon="-6.19393">
        <ele>41.19</ele>
        <time>2021-03-20T19:48:33Z</time>
      </trkpt>
      <trkpt lat="57.36966" lon="-6.19393">
        <ele>40.28</ele>
        <time>2021-03-20T19:48:38Z</time>
      </trkpt>
      <trkpt lat="57.37042" lon="-6.19404">
        <ele>37.37</ele>
        <time>2021-03-20T19:48:43Z</time>
      </trkpt>
      <trkpt lat="57.37042" lon="-6.19404">
        <ele>37.37</ele>
        <time>2021-03-20T19:48:43Z</time>
      </trkpt>
      <trkpt lat="57.37183" lon="-6.19425">
        <ele>33.09</ele>
        <time>2021-03-20T19:48:46Z</time>
      </trkpt>
      <trkpt lat="57.37314" lon="-6.19463">
        <ele>28.29</ele>
        <time>2021-03-20T19:48:49Z</time>
      </trkpt>
      <trkpt lat="57.37351" lon="-6.19468">
        <ele>28.51</ele>
        <time>2021-03-20T19:48:52Z</time>
      </trkpt>
      <trkpt lat="57.37408" lon="-6.19464">
        <ele>29.56</ele>
        <time>2021-03-20T19:48:56Z</time>
      </trkpt>
      <trkpt lat="57.37463" lon="-6.19468">
        <ele>29.01</ele>
        <time>2021-03-20T19:48:59Z</time>
      </trkpt>
      <trkpt lat="57.37517" lon="-6.19475">
        <ele>29.32</ele>
        <time>2021-03-20T19:49:02Z</time>
      </trkpt>
      <trkpt lat="57.3759" lon="-6.19465">
        <ele>29.82</ele>
        <time>2021-03-20T19:49:05Z</time>
      </trkpt>
      <trkpt lat="57.37623" lon="-6.19466">
        <ele>28.44</ele>
        <time>2021-03-20T19:49:09Z</time>
      </trkpt>
      <trkpt lat="57.37646" lon="-6.19476">
        <ele>26.39</ele>
        <time>2021-03-20T19:49:12Z</time>
      </trkpt>
      <trkpt lat="57.3767" lon="-6.19503">
        <ele>22.74</ele>
        <time>2021-03-20T19:49:15Z</time>
      </trkpt>
      <trkpt lat="57.37679" lon="-6.19517">
        <ele>21.48</ele>
        <time>2021-03-20T19:49:18Z</time>
      </trkpt>
      <trkpt lat="57.37705" lon="-6.19588">
        <ele>17.62</ele>
        <time>2021-03-20T19:49:21Z</time>
      </trkpt>
      <trkpt lat="57.37748" lon="-6.19687">
        <ele>22.3</ele>
        <time>2021-03-20T19:49:25Z</time>
      </trkpt>
      <trkpt lat="57.37777" lon="-6.19746">
        <ele>23.83</ele>
        <time>2021-03-20T19:49:28Z</time>
      </trkpt>
      <trkpt lat="57.37819" lon="-6.19796">
        <ele>21.39</ele>
        <time>2021-03-20T19:49:31Z</time>
      </trkpt>
      <trkpt lat="57.3789" lon="-6.19857">
        <ele>20.32</ele>
        <time>2021-03-20T19:49:34Z</time>
      </trkpt>
      <trkpt lat="57.37929" lon="-6.19881">
        <ele>19.4</ele>
        <time>2021-03-20T19:49:38Z</time>
      </trkpt>
      <trkpt lat="57.37974" lon="-6.19898">
        <ele>21.22</ele>
        <time>2021-03-20T19:49:41Z</time>
      </trkpt>
      <trkpt lat="57.38017" lon="-6.19907">
        <ele>20.57</ele>
        <time>2021-03-20T19:49:44Z</time>
      </trkpt>
      <trkpt lat="57.38051" lon="-6.19929">
        <ele>20.25</ele>
        <time>2021-03-20T19:49:47Z</time>
      </trkpt>
      <trkpt lat="57.38195" lon="-6.20132">
        <ele>20.67</ele>
        <time>2021-03-20T19:49:51Z</time>
      </trkpt>
      <trkpt lat="57.38212" lon="-6.20149">
        <ele>19.95</ele>
        <time>2021-03-20T19:49:54Z</time>
      </trkpt>
      <trkpt lat="57.38271" lon="-6.20178">
        <ele>19.44</ele>
        <time>2021-03-20T19:49:57Z</time>
      </trkpt>
      <trkpt lat="57.38346" lon="-6.20204">
        <ele>25.46</ele>
        <time>2021-03-20T19:50:00Z</time>
      </trkpt>
      <trkpt lat="57.38346" lon="-6.20204">
        <ele>25.46</ele>
        <time>2021-03-20T19:50:00Z</time>
      </trkpt>
      <trkpt lat="57.38422" lon="-6.2023">
        <ele>31.48</ele>
        <time>2021-03-20T19:50:06Z</time>
      </trkpt>
      <trkpt lat="57.38476" lon="-6.20257">
        <ele>30</ele>
        <time>2021-03-20T19:50:12Z</time>
      </trkpt>
      <trkpt lat="57.38619" lon="-6.20368">
        <ele>24.72</ele>
        <time>2021-03-20T19:50:18Z</time>
      </trkpt>
      <trkpt lat="57.38656" lon="-6.20386">
        <ele>23.07</ele>
        <time>2021-03-20T19:50:23Z</time>
      </trkpt>
      <trkpt lat="57.38687" lon="-6.20395">
        <ele>22.52</ele>
        <time>2021-03-20T19:50:29Z</time>
      </trkpt>
      <trkpt lat="57.38772" lon="-6.20405">
        <ele>20.97</ele>
        <time>2021-03-20T19:50:35Z</time>
      </trkpt>
      <trkpt lat="57.38949" lon="-6.2049">
        <ele>23.61</ele>
        <time>2021-03-20T19:50:41Z</time>
      </trkpt>
      <trkpt lat="57.39011" lon="-6.20511">
        <ele>25.89</ele>
        <time>2021-03-20T19:50:46Z</time>
      </trkpt>
      <trkpt lat="57.39058" lon="-6.20522">
        <ele>25.86</ele>
        <time>2021-03-20T19:50:52Z</time>
      </trkpt>
      <trkpt lat="57.39105" lon="-6.2051">
        <ele>25</ele>
        <time>2021-03-20T19:50:58Z</time>
      </trkpt>
      <trkpt lat="57.39209" lon="-6.20472">
        <ele>24.6</ele>
        <time>2021-03-20T19:51:04Z</time>
      </trkpt>
      <trkpt lat="57.39344" lon="-6.20409">
        <ele>27.24</ele>
        <time>2021-03-20T19:51:09Z</time>
      </trkpt>
      <trkpt lat="57.39457" lon="-6.20342">
        <ele>27.67</ele>
        <time>2021-03-20T19:51:15Z</time>
      </trkpt>
      <trkpt lat="57.39703" lon="-6.20223">
        <ele>29.42</ele>
        <time>2021-03-20T19:51:21Z</time>
      </trkpt>
      <trkpt lat="57.39758" lon="-6.20182">
        <ele>27.77</ele>
        <time>2021-03-20T19:51:27Z</time>
      </trkpt>
      <trkpt lat="57.39795" lon="-6.20147">
        <ele>26.19</ele>
        <time>2021-03-20T19:51:32Z</time>
      </trkpt>
      <trkpt lat="57.39831" lon="-6.20106">
        <ele>24.68</ele>
        <time>2021-03-20T19:51:38Z</time>
      </trkpt>
      <trkpt lat="57.39869" lon="-6.20075">
        <ele>24.94</ele>
        <time>2021-03-20T19:51:44Z</time>
      </trkpt>
      <trkpt lat="57.39904" lon="-6.20061">
        <ele>25.68</ele>
        <time>2021-03-20T19:51:50Z</time>
      </trkpt>
      <trkpt lat="57.39934" lon="-6.20055">
        <ele>27.11</ele>
        <time>2021-03-20T19:51:55Z</time>
      </trkpt>
      <trkpt lat="57.39961" lon="-6.20054">
        <ele>28.87</ele>
        <time>2021-03-20T19:52:01Z</time>
      </trkpt>
      <trkpt lat="57.40055" lon="-6.20077">
        <ele>31.37</ele>
        <time>2021-03-20T19:52:07Z</time>
      </trkpt>
      <trkpt lat="57.40091" lon="-6.20077">
        <ele>27.95</ele>
        <time>2021-03-20T19:52:13Z</time>
      </trkpt>
      <trkpt lat="57.40127" lon="-6.20066">
        <ele>24.32</ele>
        <time>2021-03-20T19:52:18Z</time>
      </trkpt>
      <trkpt lat="57.40224" lon="-6.20043">
        <ele>23.21</ele>
        <time>2021-03-20T19:52:24Z</time>
      </trkpt>
      <trkpt lat="57.40277" lon="-6.20038">
        <ele>24.69</ele>
        <time>2021-03-20T19:52:30Z</time>
      </trkpt>
      <trkpt lat="57.40327" lon="-6.2004">
        <ele>26.22</ele>
        <time>2021-03-20T19:52:36Z</time>
      </trkpt>
      <trkpt lat="57.40483" lon="-6.20064">
        <ele>26.2</ele>
        <time>2021-03-20T19:52:41Z</time>
      </trkpt>
      <trkpt lat="57.40523" lon="-6.20077">
        <ele>28.26</ele>
        <time>2021-03-20T19:52:47Z</time>
      </trkpt>
      <trkpt lat="57.40611" lon="-6.20117">
        <ele>29.16</ele>
        <time>2021-03-20T19:52:53Z</time>
      </trkpt>
      <trkpt lat="57.407" lon="-6.20136">
        <ele>26.52</ele>
        <time>2021-03-20T19:52:59Z</time>
      </trkpt>
      <trkpt lat="57.40775" lon="-6.20162">
        <ele>26.53</ele>
        <time>2021-03-20T19:53:04Z</time>
      </trkpt>
      <trkpt lat="57.40853" lon="-6.20194">
        <ele>25.77</ele>
        <time>2021-03-20T19:53:10Z</time>
      </trkpt>
      <trkpt lat="57.40922" lon="-6.20225">
        <ele>22.13</ele>
        <time>2021-03-20T19:53:16Z</time>
      </trkpt>
      <trkpt lat="57.40945" lon="-6.20229">
        <ele>20.73</ele>
        <time>2021-03-20T19:53:22Z</time>
      </trkpt>
      <trkpt lat="57.40964" lon="-6.20226">
        <ele>20.31</ele>
        <time>2021-03-20T19:53:27Z</time>
      </trkpt>
      <trkpt lat="57.40996" lon="-6.20215">
        <ele>19.74</ele>
        <time>2021-03-20T19:53:33Z</time>
      </trkpt>
      <trkpt lat="57.41196" lon="-6.20105">
        <ele>16.92</ele>
        <time>2021-03-20T19:53:39Z</time>
      </trkpt>
      <trkpt lat="57.41266" lon="-6.20103">
        <ele>14.41</ele>
        <time>2021-03-20T19:53:45Z</time>
      </trkpt>
      <trkpt lat="57.41282" lon="-6.20091">
        <ele>13.66</ele>
        <time>2021-03-20T19:53:50Z</time>
      </trkpt>
      <trkpt lat="57.41293" lon="-6.20077">
        <ele>13.08</ele>
        <time>2021-03-20T19:53:56Z</time>
      </trkpt>
      <trkpt lat="57.41304" lon="-6.20057">
        <ele>12</ele>
        <time>2021-03-20T19:54:02Z</time>
      </trkpt>
      <trkpt lat="57.41313" lon="-6.20034">
        <ele>11.41</ele>
        <time>2021-03-20T19:54:08Z</time>
      </trkpt>
      <trkpt lat="57.41324" lon="-6.19984">
        <ele>10.67</ele>
        <time>2021-03-20T19:54:13Z</time>
      </trkpt>
      <trkpt lat="57.41327" lon="-6.19944">
        <ele>11.57</ele>
        <time>2021-03-20T19:54:19Z</time>
      </trkpt>
      <trkpt lat="57.41328" lon="-6.19923">
        <ele>11.63</ele>
        <time>2021-03-20T19:54:25Z</time>
      </trkpt>
      <trkpt lat="57.41327" lon="-6.19872">
        <ele>12.26</ele>
        <time>2021-03-20T19:54:31Z</time>
      </trkpt>
      <trkpt lat="57.41316" lon="-6.19796">
        <ele>12.81</ele>
        <time>2021-03-20T19:54:36Z</time>
      </trkpt>
      <trkpt lat="57.41308" lon="-6.19762">
        <ele>13.39</ele>
        <time>2021-03-20T19:54:42Z</time>
      </trkpt>
      <trkpt lat="57.41281" lon="-6.19667">
        <ele>13.43</ele>
        <time>2021-03-20T19:54:48Z</time>
      </trkpt>
      <trkpt lat="57.4127" lon="-6.19679">
        <ele>11.38</ele>
        <time>2021-03-20T19:54:52Z</time>
      </trkpt>
      <trkpt lat="57.41258" lon="-6.19683">
        <ele>9.49</ele>
        <time>2021-03-20T19:54:57Z</time>
      </trkpt>
      <trkpt lat="57.41247" lon="-6.19677">
        <ele>8.34</ele>
        <time>2021-03-20T19:55:01Z</time>
      </trkpt>
      <trkpt lat="57.41239" lon="-6.19662">
        <ele>7.86</ele>
        <time>2021-03-20T19:55:05Z</time>
      </trkpt>
      <trkpt lat="57.4122" lon="-6.19533">
        <ele>7.9</ele>
        <time>2021-03-20T19:55:10Z</time>
      </trkpt>
    </trkseg>
  </trk>
</gpx>